GFSSE_prec_precacc_024.txt.gz
Total_Precipitation_Accumulation
0.00 0.00 0.03 0.02 0.02 0.01 0.00 0.00 0.00 0.00 0.00 0.00 0.01 0.02 0.03 0.05 0.03 0.01 0.00 0.00 0.00 0.00 0.00 0.00 0.01 0.07 0.19 0.30 0.22 0.04 0.01 0.00 0.00 0.00 0.00 0.00 0.00 0.00 0.00 0.01 0.01 0.01 0.01
0.00 0.00 0.02 0.02 0.01 0.00 0.00 0.00 0.00 0.00 0.00 0.00 0.01 0.03 0.05 0.07 0.03 0.01 0.01 0.00 0.00 0.00 0.00 0.00 0.00 0.00 0.00 0.00 0.01 0.01 0.00 0.00 0.00 0.00 0.00 0.00 0.00 0.00 0.00 0.01 0.01 0.00 0.01
0.00 0.00 0.01 0.02 0.01 0.00 0.00 0.00 0.00 0.00 0.00 0.00 0.02 0.02 0.02 0.01 0.00 0.00 0.00 0.00 0.00 0.00 0.00 0.00 0.00 0.00 0.00 0.00 0.00 0.00 0.00 0.00 0.00 0.00 0.00 0.00 0.00 0.00 0.00 0.00 0.02 0.00 0.00
0.00 0.00 0.00 0.02 0.01 0.00 0.00 0.00 0.00 0.00 0.00 0.00 0.00 0.01 0.01 0.00 0.02 0.00 0.01 0.00 0.00 0.00 0.00 0.00 0.00 0.00 0.00 0.00 0.00 0.00 0.00 0.00 0.00 0.00 0.00 0.00 0.00 0.00 0.00 0.00 0.01 0.00 0.00
0.00 0.00 0.00 0.02 0.01 0.01 0.00 0.00 0.00 0.00 0.00 0.00 0.00 0.00 0.01 0.01 0.01 0.00 0.00 0.00 0.00 0.00 0.00 0.00 0.00 0.00 0.00 0.00 0.00 0.00 0.01 0.01 0.00 0.00 0.00 0.00 0.00 0.00 0.00 0.00 0.02 0.02 0.02
0.00 0.00 0.00 0.02 0.01 0.01 0.00 0.00 0.00 0.00 0.00 0.00 0.00 0.00 0.00 0.03 0.04 0.04 0.00 0.00 0.00 0.00 0.00 0.00 0.00 0.00 0.00 0.00 0.00 0.00 0.01 0.01 0.00 0.00 0.00 0.00 0.00 0.01 0.00 0.00 0.00 0.01 0.01
0.00 0.00 0.00 0.02 0.02 0.01 0.00 0.00 0.00 0.00 0.00 0.00 0.00 0.00 0.01 0.03 0.05 0.08 0.03 0.00 0.00 0.00 0.00 0.00 0.00 0.00 0.00 0.00 0.00 0.00 0.00 0.00 0.00 0.00 0.00 0.00 0.00 0.00 0.00 0.00 0.02 0.04 0.05
0.00 0.00 0.00 0.02 0.03 0.02 0.00 0.00 0.00 0.00 0.00 0.00 0.00 0.00 0.00 0.00 0.01 0.07 0.04 0.00 0.00 0.00 0.00 0.00 0.00 0.00 0.01 0.01 0.00 0.00 0.00 0.00 0.00 0.00 0.00 0.00 0.00 0.00 0.00 0.02 0.03 0.03 0.03
0.00 0.00 0.00 0.01 0.02 0.02 0.01 0.00 0.00 0.00 0.00 0.00 0.00 0.00 0.00 0.00 0.00 0.05 0.03 0.00 0.00 0.00 0.00 0.00 0.01 0.01 0.01 0.00 0.00 0.00 0.00 0.00 0.00 0.00 0.00 0.00 0.00 0.00 0.01 0.02 0.05 0.06 0.08
0.01 0.01 0.00 0.00 0.01 0.02 0.02 0.00 0.00 0.00 0.00 0.00 0.00 0.00 0.00 0.00 0.00 0.01 0.00 0.00 0.00 0.00 0.00 0.00 0.01 0.01 0.01 0.00 0.00 0.00 0.00 0.00 0.00 0.00 0.00 0.00 0.00 0.00 0.02 0.05 0.05 0.07 0.10
0.00 0.02 0.02 0.00 0.01 0.02 0.01 0.00 0.00 0.00 0.00 0.00 0.00 0.00 0.00 0.00 0.00 0.00 0.00 0.00 0.00 0.00 0.00 0.00 0.01 0.02 0.01 0.00 0.00 0.00 0.00 0.00 0.00 0.00 0.00 0.00 0.00 0.00 0.02 0.03 0.03 0.05 0.07
0.00 0.01 0.01 0.00 0.00 0.01 0.01 0.00 0.00 0.00 0.00 0.00 0.00 0.00 0.00 0.00 0.00 0.00 0.00 0.00 0.00 0.00 0.00 0.00 0.01 0.01 0.00 0.00 0.00 0.00 0.00 0.00 0.00 0.00 0.00 0.00 0.00 0.00 0.01 0.02 0.04 0.04 0.04
0.00 0.00 0.00 0.00 0.01 0.01 0.01 0.00 0.00 0.00 0.00 0.00 0.00 0.00 0.00 0.00 0.00 0.00 0.00 0.00 0.00 0.00 0.00 0.00 0.00 0.00 0.00 0.00 0.00 0.00 0.00 0.00 0.00 0.00 0.00 0.00 0.00 0.00 0.00 0.01 0.01 0.01 0.01
0.00 0.00 0.00 0.00 0.01 0.01 0.02 0.01 0.00 0.00 0.00 0.00 0.00 0.00 0.00 0.00 0.00 0.00 0.00 0.00 0.00 0.00 0.00 0.00 0.00 0.00 0.00 0.00 0.00 0.00 0.00 0.00 0.00 0.00 0.00 0.00 0.00 0.00 0.00 0.00 0.00 0.00 0.00
0.00 0.00 0.00 0.00 0.00 0.01 0.03 0.02 0.00 0.00 0.00 0.00 0.00 0.00 0.00 0.00 0.00 0.00 0.00 0.00 0.00 0.00 0.00 0.00 0.00 0.00 0.00 0.00 0.00 0.00 0.00 0.00 0.00 0.00 0.00 0.00 0.00 0.00 0.00 0.00 0.00 0.00 0.00
0.00 0.00 0.00 0.00 0.00 0.00 0.01 0.01 0.00 0.00 0.00 0.00 0.00 0.00 0.00 0.00 0.00 0.00 0.00 0.00 0.00 0.00 0.00 0.00 0.00 0.00 0.00 0.00 0.00 0.00 0.00 0.00 0.00 0.00 0.00 0.00 0.00 0.00 0.00 0.00 0.00 0.00 0.00
0.00 0.00 0.00 0.00 0.00 0.00 0.00 0.02 0.06 0.02 0.00 0.00 0.00 0.00 0.00 0.00 0.00 0.00 0.00 0.00 0.00 0.00 0.00 0.00 0.00 0.00 0.00 0.00 0.00 0.00 0.00 0.00 0.00 0.00 0.00 0.00 0.00 0.00 0.00 0.00 0.00 0.00 0.00
0.00 0.00 0.00 0.01 0.01 0.01 0.01 0.10 0.16 0.07 0.04 0.01 0.00 0.00 0.00 0.00 0.00 0.00 0.00 0.00 0.00 0.00 0.00 0.00 0.00 0.00 0.00 0.00 0.00 0.00 0.00 0.00 0.00 0.00 0.00 0.00 0.00 0.00 0.00 0.00 0.00 0.00 0.00
0.00 0.00 0.00 0.01 0.01 0.00 0.06 0.11 0.14 0.06 0.04 0.02 0.01 0.00 0.00 0.00 0.00 0.00 0.00 0.00 0.00 0.00 0.00 0.00 0.00 0.00 0.00 0.00 0.00 0.00 0.00 0.00 0.00 0.00 0.00 0.00 0.00 0.00 0.00 0.00 0.00 0.00 0.00
0.00 0.00 0.00 0.00 0.00 0.04 0.11 0.13 0.12 0.07 0.03 0.02 0.01 0.00 0.00 0.00 0.00 0.00 0.00 0.00 0.00 0.00 0.00 0.00 0.00 0.00 0.00 0.00 0.00 0.00 0.00 0.00 0.00 0.00 0.00 0.00 0.00 0.00 0.00 0.00 0.00 0.00 0.00
0.00 0.00 0.00 0.00 0.00 0.06 0.10 0.07 0.08 0.04 0.04 0.02 0.01 0.01 0.00 0.00 0.00 0.00 0.00 0.00 0.00 0.00 0.00 0.00 0.00 0.00 0.00 0.00 0.00 0.00 0.00 0.00 0.00 0.00 0.00 0.00 0.00 0.00 0.00 0.00 0.00 0.00 0.00
0.00 0.00 0.00 0.00 0.00 0.05 0.09 0.09 0.16 0.15 0.10 0.05 0.04 0.01 0.00 0.00 0.00 0.00 0.00 0.00 0.00 0.00 0.00 0.00 0.00 0.00 0.00 0.00 0.00 0.00 0.00 0.00 0.00 0.00 0.00 0.00 0.00 0.00 0.00 0.00 0.00 0.00 0.00
0.00 0.00 0.00 0.00 0.01 0.05 0.07 0.12 0.15 0.16 0.11 0.06 0.02 0.01 0.01 0.00 0.00 0.00 0.00 0.00 0.00 0.00 0.00 0.00 0.00 0.00 0.00 0.00 0.00 0.00 0.00 0.00 0.00 0.00 0.00 0.00 0.00 0.00 0.00 0.00 0.00 0.00 0.00
0.00 0.00 0.00 0.00 0.02 0.03 0.06 0.04 0.03 0.02 0.03 0.03 0.04 0.11 0.09 0.01 0.00 0.00 0.00 0.00 0.00 0.00 0.00 0.00 0.00 0.00 0.00 0.00 0.00 0.00 0.00 0.00 0.00 0.00 0.00 0.00 0.00 0.00 0.00 0.00 0.00 0.00 0.00
0.00 0.00 0.00 0.00 0.01 0.01 0.04 0.04 0.04 0.02 0.01 0.02 0.07 0.09 0.06 0.03 0.00 0.00 0.00 0.00 0.00 0.00 0.00 0.00 0.00 0.00 0.00 0.00 0.00 0.00 0.00 0.00 0.00 0.00 0.00 0.00 0.00 0.00 0.00 0.00 0.00 0.00 0.00
0.00 0.00 0.00 0.00 0.00 0.00 0.01 0.01 0.01 0.02 0.00 0.01 0.05 0.05 0.05 0.02 0.02 0.01 0.00 0.00 0.00 0.00 0.00 0.00 0.00 0.00 0.00 0.00 0.00 0.00 0.00 0.00 0.00 0.00 0.00 0.00 0.00 0.00 0.00 0.00 0.00 0.00 0.00

GFSSE_prec_precacc_027.txt.gz
Total_Precipitation_Accumulation
0.00 0.00 0.03 0.02 0.02 0.01 0.00 0.00 0.00 0.00 0.01 0.01 0.01 0.02 0.03 0.05 0.03 0.01 0.00 0.00 0.00 0.00 0.00 0.01 0.03 0.10 0.21 0.30 0.22 0.04 0.01 0.00 0.00 0.00 0.00 0.00 0.00 0.00 0.00 0.01 0.01 0.01 0.01
0.00 0.00 0.02 0.02 0.01 0.00 0.00 0.00 0.00 0.00 0.01 0.01 0.02 0.03 0.05 0.07 0.03 0.01 0.01 0.00 0.00 0.00 0.00 0.01 0.02 0.02 0.01 0.01 0.01 0.01 0.00 0.00 0.00 0.00 0.00 0.00 0.00 0.00 0.00 0.01 0.01 0.00 0.01
0.00 0.00 0.01 0.03 0.01 0.00 0.00 0.00 0.00 0.00 0.00 0.01 0.02 0.02 0.02 0.01 0.00 0.00 0.00 0.00 0.00 0.00 0.00 0.00 0.00 0.00 0.00 0.00 0.00 0.00 0.00 0.00 0.00 0.00 0.00 0.00 0.00 0.00 0.00 0.00 0.02 0.00 0.00
0.00 0.00 0.00 0.02 0.01 0.00 0.00 0.00 0.00 0.00 0.00 0.00 0.01 0.01 0.01 0.00 0.02 0.00 0.01 0.00 0.00 0.00 0.00 0.00 0.00 0.00 0.00 0.00 0.00 0.00 0.00 0.00 0.00 0.00 0.00 0.00 0.00 0.00 0.00 0.00 0.01 0.00 0.00
0.00 0.00 0.00 0.03 0.01 0.01 0.00 0.00 0.00 0.00 0.00 0.00 0.00 0.01 0.01 0.01 0.01 0.00 0.00 0.00 0.00 0.00 0.00 0.00 0.00 0.00 0.00 0.00 0.00 0.00 0.01 0.01 0.00 0.00 0.00 0.00 0.00 0.00 0.00 0.00 0.02 0.02 0.02
0.00 0.00 0.00 0.02 0.01 0.01 0.00 0.00 0.00 0.00 0.00 0.00 0.00 0.00 0.00 0.03 0.04 0.04 0.00 0.00 0.00 0.00 0.00 0.00 0.00 0.00 0.00 0.00 0.00 0.00 0.01 0.01 0.00 0.00 0.00 0.00 0.00 0.02 0.00 0.00 0.01 0.04 0.04
0.00 0.00 0.00 0.02 0.02 0.01 0.00 0.00 0.00 0.00 0.00 0.00 0.00 0.00 0.01 0.03 0.05 0.08 0.03 0.00 0.00 0.00 0.00 0.00 0.00 0.00 0.00 0.00 0.00 0.00 0.00 0.00 0.00 0.00 0.00 0.00 0.01 0.01 0.00 0.01 0.04 0.05 0.06
0.00 0.00 0.00 0.02 0.03 0.02 0.00 0.00 0.00 0.00 0.00 0.00 0.00 0.00 0.00 0.00 0.01 0.07 0.04 0.00 0.00 0.00 0.00 0.00 0.00 0.00 0.01 0.01 0.00 0.00 0.00 0.00 0.00 0.00 0.00 0.00 0.00 0.00 0.00 0.02 0.03 0.03 0.04
0.00 0.00 0.00 0.01 0.02 0.02 0.01 0.00 0.00 0.00 0.00 0.00 0.00 0.00 0.00 0.00 0.00 0.05 0.03 0.00 0.00 0.00 0.00 0.01 0.02 0.01 0.01 0.00 0.00 0.00 0.00 0.00 0.00 0.00 0.00 0.00 0.00 0.00 0.01 0.02 0.05 0.07 0.08
0.02 0.01 0.01 0.00 0.01 0.02 0.02 0.00 0.00 0.00 0.00 0.00 0.00 0.00 0.00 0.00 0.00 0.01 0.00 0.00 0.00 0.00 0.01 0.00 0.01 0.01 0.01 0.00 0.00 0.00 0.00 0.00 0.00 0.00 0.00 0.00 0.00 0.00 0.02 0.05 0.07 0.09 0.10
0.01 0.04 0.03 0.00 0.01 0.02 0.01 0.00 0.00 0.00 0.00 0.00 0.00 0.00 0.00 0.00 0.00 0.00 0.00 0.00 0.00 0.00 0.00 0.00 0.01 0.02 0.01 0.00 0.00 0.00 0.00 0.00 0.00 0.00 0.00 0.00 0.00 0.01 0.03 0.04 0.04 0.06 0.07
0.02 0.04 0.03 0.00 0.01 0.01 0.01 0.00 0.00 0.00 0.00 0.00 0.00 0.00 0.00 0.00 0.00 0.00 0.00 0.00 0.00 0.00 0.00 0.00 0.01 0.01 0.00 0.00 0.00 0.00 0.00 0.00 0.00 0.00 0.00 0.00 0.00 0.01 0.02 0.03 0.05 0.04 0.04
0.00 0.00 0.00 0.00 0.01 0.01 0.01 0.00 0.00 0.00 0.00 0.00 0.00 0.00 0.00 0.00 0.00 0.00 0.00 0.00 0.00 0.00 0.00 0.00 0.00 0.00 0.00 0.00 0.00 0.00 0.00 0.00 0.00 0.00 0.00 0.00 0.00 0.01 0.00 0.01 0.01 0.01 0.01
0.00 0.00 0.00 0.00 0.01 0.02 0.02 0.01 0.00 0.00 0.00 0.00 0.00 0.00 0.00 0.00 0.00 0.00 0.00 0.00 0.00 0.00 0.00 0.00 0.00 0.00 0.00 0.00 0.00 0.00 0.00 0.00 0.00 0.00 0.00 0.00 0.00 0.00 0.00 0.00 0.00 0.00 0.00
0.00 0.00 0.00 0.00 0.00 0.02 0.03 0.02 0.00 0.00 0.00 0.00 0.00 0.00 0.00 0.00 0.00 0.00 0.00 0.00 0.00 0.00 0.00 0.00 0.00 0.00 0.00 0.00 0.00 0.00 0.00 0.00 0.00 0.00 0.00 0.00 0.00 0.00 0.00 0.00 0.00 0.00 0.00
0.01 0.00 0.01 0.00 0.00 0.00 0.01 0.01 0.00 0.00 0.00 0.00 0.00 0.00 0.00 0.00 0.00 0.00 0.00 0.00 0.00 0.00 0.00 0.00 0.00 0.00 0.00 0.00 0.00 0.00 0.00 0.00 0.00 0.00 0.00 0.00 0.00 0.00 0.00 0.00 0.00 0.00 0.00
0.00 0.00 0.01 0.03 0.03 0.00 0.00 0.02 0.06 0.03 0.01 0.00 0.00 0.00 0.00 0.00 0.00 0.00 0.00 0.00 0.00 0.00 0.00 0.00 0.00 0.00 0.00 0.00 0.00 0.00 0.00 0.00 0.00 0.00 0.00 0.00 0.00 0.00 0.00 0.00 0.00 0.00 0.00
0.00 0.00 0.00 0.04 0.05 0.03 0.02 0.13 0.16 0.08 0.05 0.01 0.00 0.00 0.00 0.00 0.00 0.00 0.00 0.00 0.00 0.00 0.00 0.00 0.00 0.00 0.00 0.00 0.00 0.00 0.00 0.00 0.00 0.00 0.00 0.00 0.00 0.00 0.00 0.00 0.00 0.00 0.00
0.00 0.00 0.00 0.01 0.01 0.02 0.11 0.16 0.16 0.09 0.05 0.03 0.01 0.00 0.00 0.00 0.00 0.00 0.00 0.00 0.00 0.00 0.00 0.00 0.00 0.00 0.00 0.00 0.00 0.00 0.00 0.00 0.00 0.00 0.00 0.00 0.00 0.00 0.00 0.00 0.00 0.00 0.00
0.00 0.00 0.00 0.00 0.01 0.07 0.16 0.17 0.16 0.09 0.04 0.03 0.01 0.00 0.00 0.00 0.00 0.00 0.00 0.00 0.00 0.00 0.00 0.00 0.00 0.00 0.00 0.00 0.00 0.00 0.00 0.00 0.00 0.00 0.00 0.00 0.00 0.00 0.00 0.00 0.00 0.00 0.00
0.00 0.00 0.00 0.00 0.00 0.07 0.12 0.09 0.10 0.05 0.05 0.04 0.02 0.01 0.00 0.00 0.00 0.00 0.00 0.00 0.00 0.00 0.00 0.00 0.00 0.00 0.00 0.00 0.00 0.00 0.00 0.00 0.00 0.00 0.00 0.00 0.00 0.00 0.00 0.00 0.00 0.00 0.00
0.00 0.00 0.00 0.00 0.00 0.05 0.09 0.09 0.17 0.17 0.12 0.08 0.10 0.03 0.01 0.01 0.00 0.00 0.00 0.00 0.00 0.00 0.00 0.00 0.00 0.00 0.00 0.00 0.00 0.00 0.00 0.00 0.00 0.00 0.00 0.00 0.00 0.00 0.00 0.00 0.00 0.00 0.00
0.00 0.00 0.00 0.00 0.01 0.05 0.07 0.13 0.18 0.20 0.14 0.09 0.03 0.01 0.02 0.00 0.00 0.00 0.00 0.00 0.00 0.00 0.00 0.00 0.00 0.00 0.00 0.00 0.00 0.00 0.00 0.00 0.00 0.00 0.00 0.00 0.00 0.00 0.00 0.00 0.00 0.00 0.00
0.00 0.00 0.00 0.00 0.02 0.03 0.06 0.05 0.04 0.02 0.03 0.03 0.04 0.14 0.16 0.08 0.04 0.01 0.00 0.00 0.00 0.00 0.00 0.00 0.00 0.00 0.00 0.00 0.00 0.00 0.00 0.00 0.00 0.00 0.00 0.00 0.00 0.00 0.00 0.00 0.00 0.00 0.00
0.00 0.00 0.00 0.00 0.01 0.01 0.04 0.05 0.05 0.02 0.01 0.02 0.08 0.14 0.11 0.08 0.05 0.03 0.03 0.01 0.00 0.00 0.00 0.00 0.00 0.00 0.00 0.00 0.00 0.00 0.00 0.00 0.00 0.00 0.00 0.00 0.00 0.00 0.00 0.00 0.00 0.00 0.00
0.00 0.00 0.00 0.00 0.00 0.00 0.01 0.02 0.02 0.04 0.01 0.04 0.06 0.07 0.08 0.05 0.04 0.04 0.04 0.04 0.01 0.01 0.01 0.00 0.00 0.00 0.00 0.00 0.00 0.00 0.00 0.00 0.00 0.00 0.00 0.00 0.00 0.00 0.00 0.00 0.00 0.00 0.00

GFSSE_prec_precacc_030.txt.gz
Total_Precipitation_Accumulation
0.00 0.01 0.04 0.03 0.03 0.01 0.00 0.00 0.01 0.01 0.02 0.02 0.02 0.02 0.03 0.05 0.03 0.01 0.00 0.00 0.00 0.00 0.00 0.01 0.04 0.12 0.22 0.31 0.22 0.04 0.01 0.00 0.00 0.00 0.00 0.00 0.00 0.00 0.00 0.01 0.01 0.01 0.01
0.00 0.01 0.03 0.03 0.02 0.01 0.01 0.01 0.01 0.01 0.01 0.02 0.02 0.04 0.05 0.07 0.03 0.01 0.01 0.00 0.00 0.00 0.01 0.05 0.09 0.07 0.03 0.01 0.01 0.01 0.00 0.00 0.00 0.00 0.00 0.00 0.00 0.00 0.00 0.01 0.01 0.00 0.01
0.00 0.00 0.01 0.03 0.02 0.01 0.00 0.01 0.01 0.01 0.01 0.02 0.03 0.03 0.02 0.01 0.00 0.00 0.00 0.00 0.00 0.00 0.01 0.01 0.01 0.00 0.00 0.00 0.00 0.00 0.00 0.00 0.00 0.00 0.00 0.00 0.00 0.00 0.00 0.00 0.02 0.00 0.00
0.00 0.00 0.00 0.03 0.01 0.00 0.00 0.00 0.00 0.00 0.01 0.01 0.02 0.01 0.01 0.00 0.02 0.00 0.01 0.00 0.00 0.00 0.00 0.00 0.00 0.00 0.00 0.00 0.00 0.00 0.00 0.00 0.00 0.00 0.00 0.00 0.00 0.00 0.00 0.00 0.01 0.00 0.00
0.00 0.00 0.00 0.03 0.02 0.01 0.00 0.00 0.00 0.00 0.01 0.02 0.01 0.01 0.01 0.01 0.01 0.00 0.00 0.00 0.00 0.00 0.00 0.00 0.00 0.00 0.00 0.00 0.00 0.00 0.01 0.01 0.00 0.00 0.00 0.00 0.00 0.00 0.00 0.00 0.02 0.02 0.02
0.00 0.00 0.00 0.02 0.02 0.01 0.00 0.00 0.00 0.00 0.00 0.01 0.01 0.00 0.00 0.03 0.04 0.04 0.00 0.00 0.00 0.00 0.00 0.00 0.00 0.00 0.00 0.00 0.00 0.00 0.01 0.01 0.00 0.00 0.00 0.00 0.00 0.03 0.00 0.00 0.02 0.06 0.07
0.00 0.00 0.00 0.02 0.02 0.01 0.00 0.00 0.00 0.00 0.00 0.00 0.00 0.00 0.01 0.03 0.05 0.08 0.03 0.00 0.00 0.00 0.00 0.00 0.00 0.00 0.00 0.00 0.00 0.00 0.00 0.00 0.00 0.00 0.00 0.00 0.01 0.02 0.00 0.01 0.04 0.06 0.07
0.00 0.00 0.00 0.02 0.03 0.02 0.00 0.00 0.00 0.00 0.00 0.00 0.00 0.00 0.00 0.00 0.01 0.07 0.04 0.00 0.00 0.00 0.00 0.00 0.00 0.00 0.01 0.01 0.00 0.00 0.00 0.00 0.00 0.00 0.00 0.00 0.00 0.00 0.00 0.02 0.03 0.04 0.05
0.00 0.00 0.00 0.01 0.02 0.02 0.01 0.00 0.00 0.00 0.00 0.00 0.00 0.00 0.00 0.00 0.00 0.05 0.03 0.00 0.00 0.00 0.00 0.01 0.03 0.01 0.01 0.00 0.00 0.00 0.00 0.00 0.00 0.00 0.00 0.00 0.00 0.00 0.01 0.02 0.06 0.08 0.08
0.02 0.01 0.01 0.00 0.01 0.02 0.02 0.00 0.00 0.00 0.00 0.00 0.00 0.00 0.00 0.00 0.00 0.01 0.00 0.00 0.00 0.00 0.01 0.01 0.01 0.01 0.01 0.00 0.00 0.00 0.00 0.00 0.00 0.00 0.00 0.00 0.00 0.00 0.03 0.07 0.09 0.10 0.11
0.01 0.04 0.03 0.00 0.01 0.02 0.01 0.00 0.00 0.00 0.00 0.00 0.00 0.00 0.00 0.00 0.00 0.00 0.00 0.00 0.00 0.01 0.00 0.00 0.01 0.02 0.01 0.00 0.00 0.00 0.00 0.00 0.00 0.00 0.00 0.00 0.00 0.02 0.05 0.05 0.05 0.07 0.07
0.02 0.04 0.03 0.00 0.01 0.01 0.01 0.00 0.00 0.00 0.00 0.00 0.00 0.00 0.00 0.00 0.00 0.00 0.00 0.00 0.00 0.00 0.00 0.00 0.01 0.01 0.00 0.00 0.00 0.00 0.00 0.00 0.00 0.00 0.00 0.00 0.01 0.02 0.03 0.03 0.05 0.04 0.04
0.01 0.00 0.00 0.00 0.01 0.01 0.01 0.00 0.00 0.00 0.00 0.00 0.00 0.00 0.00 0.00 0.00 0.00 0.00 0.00 0.00 0.00 0.00 0.00 0.00 0.00 0.00 0.00 0.00 0.00 0.00 0.00 0.00 0.00 0.00 0.01 0.01 0.01 0.01 0.01 0.01 0.01 0.01
0.00 0.00 0.00 0.00 0.01 0.02 0.02 0.01 0.00 0.00 0.00 0.00 0.00 0.00 0.00 0.00 0.00 0.00 0.00 0.00 0.00 0.00 0.00 0.00 0.00 0.00 0.00 0.00 0.00 0.00 0.00 0.00 0.00 0.00 0.00 0.00 0.00 0.00 0.00 0.00 0.00 0.00 0.00
0.00 0.00 0.00 0.00 0.00 0.02 0.03 0.02 0.00 0.00 0.00 0.00 0.00 0.00 0.00 0.00 0.00 0.00 0.00 0.00 0.00 0.00 0.00 0.00 0.00 0.00 0.00 0.00 0.00 0.00 0.00 0.00 0.00 0.00 0.00 0.00 0.00 0.00 0.00 0.00 0.00 0.00 0.00
0.01 0.01 0.01 0.00 0.00 0.00 0.01 0.02 0.01 0.00 0.00 0.00 0.00 0.00 0.00 0.00 0.00 0.00 0.00 0.00 0.00 0.00 0.00 0.00 0.00 0.00 0.00 0.00 0.00 0.00 0.00 0.00 0.00 0.00 0.00 0.00 0.00 0.00 0.00 0.00 0.00 0.00 0.00
0.00 0.03 0.01 0.05 0.05 0.00 0.00 0.03 0.08 0.04 0.01 0.00 0.00 0.00 0.00 0.00 0.00 0.00 0.00 0.00 0.00 0.00 0.00 0.00 0.00 0.00 0.00 0.00 0.00 0.00 0.00 0.00 0.00 0.00 0.00 0.00 0.00 0.00 0.00 0.00 0.00 0.00 0.00
0.00 0.00 0.01 0.06 0.05 0.03 0.04 0.16 0.18 0.11 0.06 0.01 0.00 0.00 0.00 0.00 0.00 0.00 0.00 0.00 0.00 0.00 0.00 0.00 0.00 0.00 0.00 0.00 0.00 0.00 0.00 0.00 0.00 0.00 0.00 0.00 0.00 0.00 0.00 0.00 0.00 0.00 0.00
0.00 0.00 0.00 0.01 0.01 0.03 0.11 0.17 0.19 0.13 0.08 0.05 0.02 0.01 0.00 0.00 0.00 0.00 0.00 0.00 0.00 0.00 0.00 0.00 0.00 0.00 0.00 0.00 0.00 0.00 0.00 0.00 0.00 0.00 0.00 0.00 0.00 0.00 0.00 0.00 0.00 0.00 0.00
0.00 0.00 0.00 0.00 0.01 0.08 0.17 0.23 0.21 0.10 0.06 0.07 0.04 0.01 0.01 0.00 0.00 0.00 0.00 0.00 0.00 0.00 0.00 0.00 0.00 0.00 0.00 0.00 0.00 0.00 0.00 0.00 0.00 0.00 0.00 0.00 0.00 0.00 0.00 0.00 0.00 0.00 0.00
0.00 0.00 0.00 0.00 0.00 0.07 0.12 0.11 0.12 0.05 0.06 0.06 0.05 0.03 0.03 0.01 0.03 0.03 0.02 0.00 0.00 0.00 0.00 0.00 0.00 0.00 0.00 0.00 0.00 0.00 0.00 0.00 0.00 0.00 0.00 0.00 0.00 0.00 0.00 0.00 0.00 0.00 0.00
0.00 0.00 0.00 0.00 0.00 0.05 0.10 0.09 0.17 0.17 0.13 0.08 0.13 0.04 0.02 0.04 0.04 0.01 0.00 0.00 0.00 0.00 0.00 0.00 0.00 0.00 0.00 0.00 0.00 0.00 0.00 0.00 0.00 0.00 0.00 0.00 0.00 0.00 0.00 0.00 0.00 0.00 0.00
0.00 0.00 0.00 0.00 0.01 0.05 0.07 0.14 0.18 0.21 0.16 0.09 0.04 0.02 0.03 0.05 0.05 0.00 0.01 0.00 0.00 0.00 0.00 0.00 0.00 0.00 0.00 0.00 0.00 0.00 0.00 0.00 0.00 0.00 0.00 0.00 0.00 0.00 0.00 0.00 0.00 0.00 0.00
0.00 0.00 0.00 0.00 0.02 0.03 0.06 0.05 0.04 0.03 0.03 0.03 0.04 0.15 0.20 0.15 0.12 0.05 0.05 0.04 0.00 0.00 0.00 0.00 0.00 0.00 0.00 0.00 0.00 0.00 0.00 0.00 0.00 0.00 0.00 0.00 0.00 0.00 0.00 0.00 0.00 0.00 0.00
0.00 0.00 0.00 0.00 0.01 0.01 0.04 0.05 0.05 0.02 0.01 0.02 0.08 0.14 0.14 0.12 0.11 0.12 0.11 0.09 0.05 0.04 0.01 0.01 0.00 0.00 0.00 0.00 0.00 0.00 0.00 0.00 0.00 0.00 0.00 0.00 0.00 0.00 0.00 0.00 0.00 0.00 0.00
0.00 0.00 0.00 0.00 0.00 0.00 0.01 0.02 0.03 0.04 0.01 0.04 0.08 0.08 0.10 0.10 0.08 0.06 0.07 0.06 0.05 0.05 0.05 0.03 0.01 0.00 0.00 0.00 0.00 0.00 0.00 0.00 0.00 0.00 0.00 0.00 0.00 0.00 0.00 0.00 0.00 0.00 0.00

GFSSE_prec_precacc_033.txt.gz
Total_Precipitation_Accumulation
0.00 0.01 0.05 0.04 0.04 0.02 0.01 0.01 0.02 0.02 0.03 0.04 0.04 0.03 0.03 0.05 0.03 0.01 0.00 0.00 0.00 0.00 0.00 0.02 0.07 0.13 0.23 0.31 0.22 0.04 0.01 0.00 0.00 0.00 0.00 0.00 0.00 0.00 0.00 0.01 0.01 0.01 0.01
0.00 0.01 0.03 0.04 0.03 0.02 0.02 0.02 0.02 0.02 0.02 0.03 0.04 0.05 0.05 0.07 0.03 0.01 0.01 0.00 0.00 0.00 0.04 0.11 0.15 0.10 0.04 0.01 0.01 0.01 0.00 0.00 0.00 0.00 0.00 0.00 0.00 0.00 0.00 0.01 0.01 0.00 0.01
0.00 0.00 0.02 0.04 0.03 0.02 0.02 0.02 0.02 0.01 0.02 0.02 0.03 0.03 0.02 0.01 0.00 0.00 0.00 0.00 0.00 0.01 0.03 0.05 0.03 0.00 0.00 0.00 0.00 0.00 0.00 0.00 0.00 0.00 0.00 0.00 0.00 0.00 0.00 0.00 0.02 0.00 0.00
0.00 0.00 0.00 0.03 0.02 0.01 0.01 0.01 0.01 0.02 0.02 0.02 0.02 0.01 0.01 0.00 0.02 0.00 0.01 0.00 0.00 0.01 0.01 0.00 0.00 0.00 0.00 0.00 0.00 0.00 0.00 0.00 0.00 0.00 0.00 0.00 0.00 0.00 0.00 0.00 0.01 0.00 0.00
0.00 0.00 0.00 0.03 0.03 0.02 0.00 0.00 0.00 0.01 0.02 0.03 0.01 0.01 0.01 0.01 0.01 0.00 0.00 0.00 0.00 0.00 0.00 0.00 0.00 0.00 0.00 0.00 0.00 0.00 0.01 0.01 0.00 0.00 0.00 0.00 0.00 0.00 0.00 0.00 0.02 0.02 0.02
0.00 0.00 0.00 0.03 0.03 0.01 0.00 0.00 0.00 0.00 0.01 0.03 0.01 0.00 0.00 0.03 0.04 0.04 0.00 0.00 0.00 0.00 0.00 0.00 0.00 0.00 0.00 0.00 0.00 0.00 0.01 0.01 0.00 0.00 0.00 0.00 0.00 0.04 0.00 0.00 0.03 0.08 0.09
0.00 0.00 0.01 0.03 0.03 0.01 0.00 0.00 0.00 0.00 0.01 0.02 0.01 0.00 0.01 0.03 0.05 0.08 0.03 0.00 0.00 0.00 0.00 0.00 0.00 0.00 0.00 0.00 0.00 0.00 0.00 0.00 0.00 0.00 0.00 0.00 0.01 0.02 0.00 0.01 0.04 0.06 0.08
0.00 0.00 0.00 0.03 0.03 0.02 0.00 0.00 0.00 0.00 0.01 0.01 0.00 0.00 0.00 0.00 0.01 0.07 0.04 0.00 0.00 0.00 0.00 0.00 0.01 0.01 0.01 0.01 0.00 0.00 0.00 0.00 0.00 0.00 0.00 0.00 0.00 0.00 0.00 0.02 0.04 0.04 0.05
0.00 0.00 0.00 0.01 0.02 0.02 0.01 0.00 0.00 0.00 0.00 0.00 0.00 0.00 0.00 0.00 0.00 0.05 0.03 0.00 0.00 0.00 0.00 0.02 0.04 0.01 0.01 0.00 0.00 0.00 0.00 0.00 0.00 0.00 0.00 0.00 0.00 0.00 0.01 0.03 0.07 0.08 0.08
0.02 0.01 0.01 0.00 0.01 0.02 0.02 0.00 0.00 0.00 0.00 0.00 0.00 0.00 0.00 0.00 0.00 0.01 0.00 0.00 0.00 0.00 0.02 0.03 0.01 0.01 0.01 0.00 0.00 0.00 0.00 0.00 0.00 0.00 0.00 0.00 0.00 0.01 0.04 0.09 0.10 0.10 0.11
0.01 0.04 0.03 0.00 0.01 0.02 0.01 0.00 0.00 0.00 0.00 0.00 0.00 0.00 0.00 0.00 0.00 0.00 0.00 0.00 0.00 0.02 0.01 0.00 0.01 0.02 0.01 0.00 0.00 0.00 0.00 0.00 0.00 0.00 0.00 0.00 0.01 0.04 0.06 0.06 0.05 0.07 0.07
0.02 0.04 0.03 0.00 0.01 0.01 0.01 0.00 0.00 0.00 0.00 0.00 0.00 0.00 0.00 0.00 0.00 0.00 0.00 0.00 0.00 0.01 0.00 0.00 0.01 0.01 0.00 0.00 0.00 0.00 0.00 0.00 0.00 0.00 0.00 0.01 0.02 0.03 0.03 0.03 0.05 0.04 0.04
0.01 0.00 0.00 0.00 0.01 0.01 0.01 0.00 0.00 0.00 0.00 0.00 0.00 0.00 0.00 0.00 0.00 0.00 0.00 0.00 0.00 0.00 0.00 0.00 0.00 0.00 0.00 0.00 0.00 0.00 0.00 0.00 0.00 0.00 0.00 0.02 0.01 0.01 0.01 0.01 0.01 0.01 0.01
0.00 0.01 0.00 0.00 0.01 0.02 0.02 0.01 0.00 0.00 0.00 0.00 0.00 0.00 0.00 0.00 0.00 0.00 0.00 0.00 0.00 0.00 0.00 0.00 0.00 0.00 0.00 0.00 0.00 0.00 0.00 0.00 0.00 0.00 0.00 0.00 0.00 0.00 0.00 0.00 0.00 0.00 0.00
0.01 0.00 0.00 0.00 0.00 0.02 0.04 0.02 0.00 0.00 0.00 0.00 0.00 0.00 0.00 0.00 0.00 0.00 0.00 0.00 0.00 0.00 0.00 0.00 0.00 0.00 0.00 0.00 0.00 0.00 0.00 0.00 0.00 0.00 0.00 0.00 0.00 0.00 0.00 0.00 0.00 0.00 0.00
0.01 0.01 0.01 0.00 0.00 0.00 0.02 0.03 0.03 0.00 0.00 0.00 0.00 0.00 0.00 0.00 0.00 0.00 0.00 0.00 0.00 0.00 0.00 0.00 0.00 0.00 0.00 0.00 0.00 0.00 0.00 0.00 0.00 0.00 0.00 0.00 0.00 0.00 0.00 0.00 0.00 0.00 0.00
0.00 0.03 0.01 0.05 0.05 0.00 0.01 0.04 0.08 0.05 0.02 0.01 0.00 0.00 0.00 0.00 0.00 0.00 0.00 0.00 0.00 0.00 0.00 0.00 0.00 0.00 0.00 0.00 0.00 0.00 0.00 0.00 0.00 0.00 0.00 0.00 0.00 0.00 0.00 0.00 0.00 0.00 0.00
0.00 0.00 0.01 0.06 0.05 0.03 0.04 0.17 0.18 0.14 0.09 0.02 0.01 0.00 0.00 0.00 0.00 0.00 0.00 0.00 0.00 0.00 0.00 0.00 0.00 0.00 0.00 0.00 0.00 0.00 0.00 0.00 0.00 0.00 0.00 0.00 0.00 0.00 0.00 0.00 0.00 0.00 0.00
0.00 0.00 0.00 0.01 0.01 0.03 0.11 0.20 0.23 0.17 0.11 0.06 0.03 0.01 0.01 0.00 0.00 0.00 0.00 0.00 0.00 0.00 0.00 0.00 0.00 0.00 0.00 0.00 0.00 0.00 0.00 0.00 0.00 0.00 0.00 0.00 0.00 0.00 0.00 0.00 0.00 0.00 0.00
0.00 0.00 0.00 0.00 0.01 0.08 0.17 0.26 0.22 0.10 0.06 0.07 0.05 0.01 0.06 0.01 0.00 0.00 0.00 0.00 0.00 0.00 0.00 0.00 0.00 0.00 0.00 0.00 0.00 0.00 0.00 0.00 0.00 0.00 0.00 0.00 0.00 0.00 0.00 0.00 0.00 0.00 0.00
0.00 0.00 0.00 0.00 0.00 0.07 0.12 0.11 0.12 0.05 0.06 0.06 0.07 0.06 0.06 0.03 0.05 0.04 0.03 0.00 0.00 0.00 0.00 0.00 0.00 0.00 0.00 0.00 0.00 0.00 0.00 0.00 0.00 0.00 0.00 0.00 0.00 0.00 0.00 0.00 0.00 0.00 0.00
0.00 0.00 0.00 0.00 0.00 0.05 0.10 0.09 0.17 0.17 0.13 0.09 0.16 0.05 0.04 0.07 0.08 0.03 0.02 0.02 0.00 0.00 0.00 0.00 0.00 0.00 0.00 0.00 0.00 0.00 0.00 0.00 0.00 0.00 0.00 0.00 0.00 0.00 0.00 0.00 0.00 0.00 0.00
0.00 0.00 0.00 0.00 0.01 0.05 0.07 0.14 0.18 0.21 0.16 0.10 0.05 0.02 0.03 0.06 0.08 0.02 0.05 0.05 0.04 0.01 0.00 0.00 0.00 0.00 0.00 0.00 0.00 0.00 0.00 0.00 0.00 0.00 0.00 0.00 0.00 0.00 0.00 0.00 0.00 0.00 0.00
0.00 0.00 0.00 0.00 0.02 0.03 0.06 0.05 0.04 0.03 0.03 0.03 0.04 0.15 0.20 0.16 0.16 0.10 0.08 0.12 0.13 0.04 0.00 0.00 0.00 0.00 0.00 0.00 0.00 0.00 0.00 0.00 0.00 0.00 0.00 0.00 0.00 0.00 0.00 0.00 0.00 0.00 0.00
0.00 0.00 0.00 0.00 0.01 0.01 0.04 0.05 0.05 0.02 0.01 0.02 0.08 0.14 0.14 0.15 0.16 0.18 0.14 0.16 0.14 0.11 0.07 0.05 0.01 0.01 0.00 0.00 0.00 0.00 0.00 0.00 0.00 0.00 0.00 0.00 0.00 0.00 0.00 0.00 0.00 0.00 0.00
0.00 0.00 0.00 0.00 0.00 0.00 0.01 0.02 0.03 0.04 0.01 0.04 0.08 0.09 0.11 0.11 0.11 0.10 0.11 0.11 0.13 0.12 0.10 0.09 0.06 0.03 0.01 0.00 0.00 0.00 0.00 0.00 0.00 0.00 0.00 0.00 0.00 0.00 0.00 0.00 0.00 0.00 0.00

GFSSE_prec_precacc_036.txt.gz
Total_Precipitation_Accumulation
0.00 0.01 0.05 0.04 0.05 0.03 0.01 0.01 0.03 0.03 0.04 0.06 0.06 0.04 0.03 0.05 0.03 0.01 0.00 0.00 0.00 0.00 0.00 0.05 0.09 0.13 0.23 0.31 0.22 0.04 0.01 0.00 0.00 0.00 0.00 0.00 0.00 0.00 0.00 0.01 0.01 0.01 0.01
0.00 0.01 0.04 0.04 0.04 0.03 0.02 0.02 0.03 0.02 0.04 0.05 0.05 0.05 0.05 0.07 0.03 0.01 0.01 0.00 0.00 0.01 0.06 0.18 0.17 0.11 0.04 0.01 0.01 0.01 0.00 0.00 0.00 0.00 0.00 0.00 0.00 0.00 0.00 0.01 0.01 0.00 0.01
0.00 0.00 0.02 0.04 0.03 0.02 0.03 0.04 0.03 0.02 0.03 0.04 0.04 0.03 0.02 0.01 0.00 0.00 0.00 0.00 0.00 0.04 0.09 0.11 0.04 0.00 0.00 0.00 0.00 0.00 0.00 0.00 0.00 0.00 0.00 0.00 0.00 0.00 0.00 0.00 0.02 0.00 0.00
0.00 0.00 0.00 0.03 0.02 0.01 0.02 0.02 0.02 0.02 0.04 0.03 0.02 0.01 0.01 0.00 0.02 0.00 0.01 0.00 0.01 0.01 0.01 0.00 0.00 0.00 0.00 0.00 0.00 0.00 0.00 0.00 0.00 0.00 0.00 0.00 0.00 0.00 0.00 0.00 0.01 0.00 0.00
0.00 0.00 0.00 0.04 0.03 0.02 0.01 0.01 0.01 0.02 0.03 0.03 0.02 0.01 0.01 0.01 0.01 0.00 0.00 0.00 0.00 0.00 0.00 0.00 0.00 0.00 0.00 0.00 0.00 0.00 0.01 0.01 0.00 0.00 0.00 0.00 0.00 0.00 0.00 0.01 0.03 0.03 0.02
0.00 0.00 0.00 0.03 0.03 0.02 0.00 0.01 0.01 0.01 0.02 0.04 0.02 0.00 0.00 0.03 0.04 0.04 0.00 0.00 0.00 0.00 0.00 0.00 0.00 0.00 0.00 0.00 0.00 0.00 0.01 0.01 0.00 0.00 0.00 0.00 0.01 0.04 0.00 0.01 0.04 0.10 0.11
0.00 0.00 0.01 0.03 0.03 0.02 0.00 0.00 0.00 0.01 0.02 0.03 0.01 0.00 0.01 0.03 0.05 0.08 0.03 0.00 0.00 0.00 0.00 0.00 0.00 0.00 0.00 0.00 0.00 0.00 0.00 0.00 0.00 0.00 0.00 0.00 0.01 0.02 0.00 0.01 0.05 0.07 0.09
0.00 0.00 0.00 0.03 0.04 0.02 0.00 0.00 0.00 0.00 0.01 0.02 0.01 0.00 0.00 0.00 0.01 0.07 0.04 0.00 0.00 0.00 0.00 0.00 0.01 0.01 0.01 0.01 0.00 0.00 0.00 0.00 0.00 0.00 0.00 0.00 0.00 0.00 0.00 0.02 0.04 0.05 0.05
0.00 0.00 0.00 0.01 0.02 0.02 0.01 0.00 0.00 0.00 0.01 0.02 0.01 0.00 0.00 0.00 0.00 0.05 0.03 0.00 0.00 0.01 0.00 0.03 0.04 0.01 0.01 0.00 0.00 0.00 0.00 0.00 0.00 0.00 0.00 0.00 0.00 0.00 0.01 0.04 0.07 0.08 0.08
0.02 0.01 0.01 0.00 0.01 0.02 0.02 0.00 0.00 0.00 0.00 0.00 0.01 0.00 0.00 0.00 0.00 0.01 0.00 0.00 0.00 0.01 0.03 0.04 0.01 0.01 0.01 0.00 0.00 0.00 0.00 0.00 0.00 0.00 0.00 0.00 0.00 0.01 0.07 0.11 0.11 0.10 0.11
0.01 0.04 0.03 0.00 0.01 0.02 0.01 0.00 0.00 0.00 0.00 0.00 0.00 0.00 0.00 0.00 0.00 0.00 0.00 0.00 0.00 0.02 0.02 0.00 0.01 0.02 0.01 0.00 0.00 0.00 0.00 0.00 0.00 0.00 0.00 0.00 0.03 0.06 0.08 0.06 0.05 0.07 0.07
0.02 0.04 0.03 0.00 0.01 0.01 0.01 0.00 0.00 0.00 0.00 0.00 0.00 0.00 0.00 0.00 0.00 0.00 0.00 0.00 0.00 0.01 0.00 0.00 0.01 0.01 0.00 0.00 0.00 0.00 0.00 0.00 0.00 0.00 0.00 0.01 0.03 0.03 0.03 0.03 0.05 0.04 0.04
0.01 0.00 0.00 0.00 0.01 0.01 0.01 0.00 0.00 0.00 0.00 0.00 0.00 0.00 0.00 0.00 0.00 0.00 0.00 0.00 0.00 0.00 0.00 0.00 0.00 0.00 0.00 0.00 0.00 0.00 0.00 0.00 0.00 0.00 0.00 0.03 0.02 0.01 0.01 0.01 0.01 0.01 0.01
0.00 0.01 0.00 0.00 0.01 0.02 0.02 0.01 0.00 0.00 0.00 0.00 0.00 0.00 0.00 0.00 0.00 0.00 0.00 0.00 0.00 0.00 0.00 0.00 0.00 0.00 0.00 0.00 0.00 0.00 0.00 0.00 0.00 0.00 0.00 0.00 0.00 0.00 0.00 0.00 0.00 0.00 0.00
0.01 0.00 0.00 0.00 0.00 0.02 0.05 0.03 0.00 0.00 0.00 0.00 0.00 0.00 0.00 0.00 0.00 0.00 0.00 0.00 0.00 0.00 0.00 0.00 0.00 0.00 0.00 0.00 0.00 0.00 0.00 0.00 0.00 0.00 0.00 0.00 0.00 0.00 0.00 0.00 0.00 0.00 0.00
0.01 0.01 0.01 0.00 0.00 0.00 0.02 0.04 0.04 0.00 0.00 0.00 0.00 0.00 0.00 0.00 0.00 0.00 0.00 0.00 0.00 0.00 0.00 0.00 0.00 0.00 0.00 0.00 0.00 0.00 0.00 0.00 0.00 0.00 0.00 0.00 0.00 0.00 0.00 0.00 0.00 0.00 0.00
0.00 0.03 0.01 0.05 0.05 0.00 0.01 0.04 0.09 0.05 0.03 0.01 0.00 0.00 0.00 0.00 0.00 0.00 0.00 0.00 0.00 0.00 0.00 0.00 0.00 0.00 0.00 0.00 0.00 0.00 0.00 0.00 0.00 0.00 0.00 0.00 0.00 0.00 0.00 0.00 0.00 0.00 0.00
0.00 0.00 0.01 0.06 0.05 0.03 0.04 0.17 0.20 0.18 0.11 0.03 0.02 0.01 0.00 0.00 0.00 0.00 0.00 0.00 0.00 0.00 0.00 0.00 0.00 0.00 0.00 0.00 0.00 0.00 0.00 0.00 0.00 0.00 0.00 0.00 0.00 0.00 0.00 0.00 0.00 0.00 0.00
0.00 0.00 0.00 0.01 0.01 0.03 0.11 0.23 0.26 0.20 0.12 0.06 0.04 0.02 0.01 0.00 0.00 0.00 0.00 0.00 0.00 0.00 0.00 0.00 0.00 0.00 0.00 0.00 0.00 0.00 0.00 0.00 0.00 0.00 0.00 0.00 0.00 0.00 0.00 0.00 0.00 0.00 0.00
0.00 0.00 0.00 0.00 0.01 0.08 0.17 0.27 0.22 0.10 0.06 0.07 0.05 0.02 0.07 0.03 0.01 0.00 0.00 0.00 0.00 0.00 0.00 0.00 0.00 0.00 0.00 0.00 0.00 0.00 0.00 0.00 0.00 0.00 0.00 0.00 0.00 0.00 0.00 0.00 0.00 0.00 0.00
0.00 0.00 0.00 0.00 0.00 0.07 0.12 0.11 0.12 0.05 0.06 0.06 0.07 0.09 0.08 0.06 0.07 0.06 0.03 0.00 0.00 0.00 0.00 0.00 0.00 0.00 0.00 0.00 0.00 0.00 0.00 0.00 0.00 0.00 0.00 0.00 0.00 0.00 0.00 0.00 0.00 0.00 0.00
0.00 0.00 0.00 0.00 0.00 0.05 0.10 0.09 0.17 0.17 0.13 0.09 0.17 0.06 0.05 0.08 0.08 0.03 0.03 0.05 0.01 0.00 0.00 0.00 0.00 0.00 0.00 0.00 0.00 0.00 0.00 0.00 0.00 0.00 0.00 0.00 0.00 0.00 0.00 0.00 0.00 0.00 0.00
0.00 0.00 0.00 0.00 0.01 0.05 0.07 0.14 0.18 0.21 0.16 0.10 0.05 0.02 0.03 0.06 0.10 0.03 0.08 0.10 0.07 0.03 0.01 0.01 0.00 0.00 0.00 0.00 0.00 0.00 0.00 0.00 0.00 0.00 0.00 0.00 0.00 0.00 0.00 0.00 0.00 0.00 0.00
0.00 0.00 0.00 0.00 0.02 0.03 0.06 0.05 0.04 0.03 0.03 0.03 0.04 0.15 0.20 0.17 0.17 0.13 0.11 0.15 0.17 0.06 0.02 0.01 0.01 0.00 0.00 0.00 0.00 0.00 0.00 0.00 0.00 0.00 0.00 0.00 0.00 0.00 0.00 0.00 0.00 0.00 0.00
0.00 0.00 0.00 0.00 0.01 0.01 0.04 0.05 0.05 0.02 0.01 0.02 0.08 0.14 0.14 0.16 0.17 0.21 0.19 0.22 0.16 0.14 0.10 0.08 0.03 0.01 0.00 0.00 0.00 0.00 0.00 0.00 0.00 0.00 0.00 0.00 0.00 0.00 0.00 0.00 0.00 0.00 0.00
0.00 0.00 0.00 0.00 0.00 0.00 0.01 0.02 0.03 0.04 0.01 0.04 0.08 0.09 0.11 0.11 0.11 0.11 0.14 0.14 0.15 0.14 0.14 0.13 0.11 0.08 0.04 0.02 0.02 0.01 0.00 0.00 0.00 0.00 0.00 0.00 0.00 0.00 0.00 0.00 0.00 0.00 0.00

GFSSE_prec_precacc_039.txt.gz
Total_Precipitation_Accumulation
0.00 0.01 0.05 0.05 0.05 0.03 0.02 0.02 0.03 0.03 0.05 0.07 0.08 0.05 0.05 0.05 0.03 0.01 0.00 0.00 0.00 0.00 0.01 0.08 0.09 0.13 0.23 0.31 0.22 0.04 0.01 0.00 0.00 0.00 0.00 0.00 0.00 0.00 0.00 0.01 0.01 0.01 0.01
0.00 0.01 0.04 0.05 0.05 0.03 0.02 0.03 0.04 0.02 0.06 0.06 0.06 0.06 0.05 0.07 0.03 0.01 0.01 0.00 0.00 0.01 0.09 0.21 0.17 0.11 0.04 0.01 0.01 0.01 0.00 0.00 0.00 0.00 0.00 0.00 0.00 0.00 0.00 0.01 0.01 0.00 0.01
0.00 0.00 0.02 0.05 0.04 0.03 0.03 0.05 0.03 0.02 0.04 0.05 0.04 0.03 0.02 0.01 0.00 0.00 0.00 0.00 0.02 0.06 0.17 0.14 0.04 0.00 0.00 0.00 0.00 0.00 0.00 0.00 0.00 0.00 0.00 0.00 0.00 0.00 0.00 0.00 0.02 0.00 0.00
0.00 0.00 0.00 0.03 0.02 0.02 0.02 0.04 0.02 0.03 0.05 0.04 0.03 0.01 0.01 0.00 0.02 0.00 0.01 0.00 0.03 0.03 0.02 0.00 0.00 0.00 0.00 0.00 0.00 0.00 0.00 0.00 0.00 0.00 0.00 0.00 0.00 0.00 0.00 0.00 0.01 0.00 0.00
0.00 0.00 0.00 0.04 0.03 0.02 0.01 0.01 0.02 0.03 0.04 0.04 0.02 0.01 0.01 0.01 0.01 0.00 0.00 0.00 0.00 0.00 0.00 0.00 0.00 0.00 0.00 0.00 0.00 0.00 0.01 0.01 0.00 0.00 0.00 0.00 0.00 0.00 0.00 0.02 0.04 0.03 0.02
0.00 0.00 0.00 0.03 0.03 0.02 0.01 0.01 0.02 0.02 0.03 0.05 0.02 0.00 0.00 0.03 0.04 0.04 0.00 0.00 0.00 0.00 0.00 0.00 0.00 0.00 0.00 0.00 0.00 0.00 0.01 0.01 0.00 0.00 0.00 0.00 0.01 0.04 0.00 0.01 0.04 0.12 0.14
0.00 0.00 0.01 0.04 0.04 0.02 0.01 0.00 0.01 0.02 0.03 0.04 0.02 0.00 0.01 0.03 0.05 0.08 0.03 0.00 0.00 0.00 0.00 0.00 0.00 0.00 0.00 0.00 0.00 0.00 0.00 0.00 0.00 0.00 0.00 0.00 0.01 0.02 0.00 0.01 0.06 0.08 0.09
0.00 0.00 0.00 0.03 0.04 0.02 0.01 0.00 0.00 0.01 0.03 0.03 0.01 0.00 0.00 0.00 0.01 0.07 0.04 0.00 0.00 0.00 0.00 0.00 0.01 0.01 0.01 0.01 0.00 0.00 0.00 0.00 0.00 0.00 0.00 0.00 0.00 0.00 0.00 0.02 0.04 0.05 0.05
0.00 0.00 0.00 0.01 0.02 0.03 0.01 0.00 0.00 0.00 0.02 0.03 0.02 0.01 0.00 0.00 0.00 0.05 0.03 0.00 0.00 0.01 0.00 0.03 0.04 0.01 0.01 0.00 0.00 0.00 0.00 0.00 0.00 0.00 0.00 0.00 0.00 0.00 0.01 0.05 0.08 0.08 0.08
0.02 0.01 0.01 0.00 0.01 0.02 0.02 0.00 0.00 0.00 0.01 0.01 0.01 0.01 0.00 0.00 0.00 0.01 0.00 0.00 0.00 0.01 0.03 0.04 0.01 0.01 0.01 0.00 0.00 0.00 0.00 0.00 0.00 0.00 0.00 0.00 0.00 0.02 0.11 0.13 0.12 0.10 0.11
0.01 0.04 0.03 0.00 0.01 0.02 0.01 0.00 0.00 0.00 0.00 0.01 0.00 0.00 0.00 0.00 0.00 0.00 0.00 0.00 0.00 0.02 0.02 0.00 0.01 0.02 0.01 0.00 0.00 0.00 0.00 0.00 0.00 0.00 0.00 0.01 0.04 0.08 0.09 0.06 0.05 0.07 0.07
0.02 0.04 0.03 0.00 0.01 0.01 0.01 0.00 0.00 0.00 0.00 0.00 0.00 0.00 0.00 0.00 0.00 0.00 0.00 0.00 0.00 0.02 0.00 0.00 0.01 0.01 0.00 0.00 0.00 0.00 0.00 0.00 0.00 0.00 0.00 0.02 0.03 0.03 0.03 0.03 0.05 0.04 0.04
0.01 0.00 0.00 0.00 0.01 0.01 0.01 0.00 0.00 0.00 0.00 0.00 0.00 0.00 0.00 0.00 0.00 0.00 0.00 0.00 0.00 0.00 0.00 0.00 0.00 0.00 0.00 0.00 0.00 0.00 0.00 0.00 0.00 0.00 0.00 0.04 0.02 0.01 0.01 0.01 0.01 0.01 0.01
0.00 0.01 0.00 0.00 0.01 0.02 0.02 0.01 0.00 0.00 0.00 0.00 0.00 0.00 0.00 0.00 0.00 0.00 0.00 0.00 0.00 0.00 0.00 0.00 0.00 0.00 0.00 0.00 0.00 0.00 0.00 0.00 0.00 0.00 0.00 0.00 0.00 0.00 0.00 0.00 0.00 0.00 0.00
0.01 0.00 0.00 0.00 0.00 0.02 0.05 0.03 0.00 0.00 0.00 0.00 0.00 0.00 0.00 0.00 0.00 0.00 0.00 0.00 0.00 0.00 0.00 0.00 0.00 0.00 0.00 0.00 0.00 0.00 0.00 0.00 0.00 0.00 0.00 0.00 0.00 0.00 0.00 0.00 0.00 0.00 0.00
0.01 0.01 0.01 0.00 0.02 0.00 0.02 0.04 0.04 0.00 0.00 0.00 0.00 0.00 0.00 0.00 0.00 0.00 0.00 0.00 0.00 0.00 0.00 0.00 0.00 0.00 0.00 0.00 0.00 0.00 0.00 0.00 0.00 0.00 0.00 0.00 0.00 0.00 0.00 0.00 0.00 0.00 0.00
0.00 0.03 0.01 0.05 0.05 0.00 0.01 0.04 0.09 0.05 0.03 0.01 0.00 0.00 0.00 0.00 0.00 0.00 0.00 0.00 0.00 0.00 0.00 0.00 0.00 0.00 0.00 0.00 0.00 0.00 0.00 0.00 0.00 0.00 0.00 0.00 0.00 0.00 0.00 0.00 0.00 0.00 0.00
0.00 0.00 0.01 0.06 0.05 0.03 0.04 0.17 0.20 0.18 0.11 0.03 0.02 0.01 0.00 0.00 0.00 0.00 0.00 0.00 0.00 0.00 0.00 0.00 0.00 0.00 0.00 0.00 0.00 0.00 0.00 0.00 0.00 0.00 0.00 0.00 0.00 0.00 0.00 0.00 0.00 0.00 0.00
0.00 0.00 0.00 0.01 0.01 0.03 0.11 0.23 0.27 0.21 0.12 0.06 0.04 0.02 0.01 0.00 0.00 0.00 0.00 0.00 0.00 0.00 0.00 0.00 0.00 0.00 0.00 0.00 0.00 0.00 0.00 0.00 0.00 0.00 0.00 0.00 0.00 0.00 0.00 0.00 0.00 0.00 0.00
0.00 0.00 0.00 0.00 0.01 0.08 0.17 0.27 0.23 0.11 0.07 0.08 0.05 0.02 0.07 0.03 0.02 0.01 0.00 0.00 0.00 0.00 0.00 0.00 0.00 0.00 0.00 0.00 0.00 0.00 0.00 0.00 0.00 0.00 0.00 0.00 0.00 0.00 0.00 0.00 0.00 0.00 0.00
0.00 0.00 0.00 0.00 0.00 0.07 0.12 0.11 0.12 0.06 0.07 0.06 0.08 0.10 0.08 0.06 0.07 0.06 0.03 0.00 0.00 0.00 0.00 0.00 0.00 0.00 0.00 0.00 0.00 0.00 0.00 0.00 0.00 0.00 0.00 0.00 0.00 0.00 0.00 0.00 0.00 0.00 0.00
0.00 0.00 0.00 0.00 0.00 0.05 0.10 0.09 0.17 0.17 0.13 0.09 0.18 0.07 0.05 0.08 0.08 0.03 0.03 0.05 0.01 0.00 0.00 0.00 0.00 0.00 0.00 0.00 0.00 0.00 0.00 0.00 0.00 0.00 0.00 0.00 0.00 0.00 0.00 0.00 0.00 0.00 0.00
0.00 0.00 0.00 0.00 0.01 0.05 0.07 0.14 0.18 0.21 0.16 0.10 0.05 0.02 0.03 0.07 0.10 0.03 0.09 0.10 0.08 0.03 0.01 0.01 0.00 0.00 0.00 0.00 0.00 0.00 0.00 0.00 0.00 0.00 0.00 0.00 0.00 0.00 0.00 0.00 0.00 0.00 0.00
0.00 0.00 0.00 0.00 0.02 0.03 0.06 0.05 0.04 0.03 0.03 0.03 0.04 0.15 0.20 0.17 0.17 0.15 0.12 0.17 0.19 0.07 0.02 0.02 0.02 0.02 0.01 0.01 0.00 0.00 0.00 0.00 0.00 0.00 0.00 0.00 0.00 0.00 0.00 0.00 0.00 0.00 0.00
0.00 0.00 0.00 0.00 0.01 0.01 0.04 0.05 0.05 0.02 0.01 0.02 0.08 0.14 0.14 0.16 0.17 0.22 0.19 0.24 0.19 0.16 0.15 0.11 0.04 0.05 0.03 0.01 0.01 0.00 0.00 0.00 0.00 0.00 0.00 0.00 0.00 0.00 0.00 0.00 0.00 0.00 0.00
0.00 0.00 0.00 0.00 0.00 0.00 0.01 0.02 0.03 0.04 0.01 0.04 0.08 0.09 0.11 0.11 0.11 0.11 0.15 0.14 0.17 0.19 0.19 0.17 0.17 0.12 0.09 0.05 0.04 0.01 0.01 0.00 0.00 0.00 0.00 0.00 0.00 0.00 0.00 0.00 0.00 0.00 0.00

GFSSE_prec_precacc_042.txt.gz
Total_Precipitation_Accumulation
0.00 0.01 0.05 0.05 0.06 0.04 0.02 0.02 0.04 0.03 0.05 0.10 0.09 0.05 0.05 0.05 0.03 0.01 0.00 0.00 0.00 0.00 0.04 0.09 0.10 0.13 0.23 0.31 0.22 0.04 0.01 0.00 0.00 0.00 0.00 0.00 0.00 0.00 0.00 0.01 0.01 0.01 0.01
0.00 0.01 0.04 0.05 0.05 0.04 0.03 0.04 0.05 0.03 0.07 0.07 0.08 0.06 0.05 0.07 0.03 0.01 0.01 0.00 0.00 0.02 0.12 0.21 0.17 0.11 0.04 0.01 0.01 0.01 0.00 0.00 0.00 0.00 0.00 0.00 0.00 0.00 0.00 0.01 0.01 0.00 0.01
0.00 0.00 0.02 0.05 0.04 0.03 0.03 0.05 0.03 0.03 0.05 0.07 0.06 0.04 0.02 0.01 0.00 0.00 0.00 0.00 0.02 0.09 0.20 0.14 0.04 0.00 0.00 0.00 0.00 0.00 0.00 0.00 0.00 0.00 0.00 0.00 0.00 0.00 0.00 0.00 0.02 0.00 0.00
0.00 0.00 0.00 0.03 0.03 0.02 0.02 0.04 0.03 0.03 0.07 0.05 0.03 0.01 0.01 0.00 0.02 0.00 0.01 0.02 0.05 0.05 0.03 0.00 0.00 0.00 0.00 0.00 0.00 0.00 0.00 0.00 0.00 0.00 0.00 0.00 0.00 0.00 0.00 0.00 0.01 0.00 0.00
0.00 0.00 0.00 0.04 0.03 0.03 0.02 0.02 0.02 0.04 0.06 0.05 0.02 0.01 0.01 0.01 0.01 0.00 0.00 0.01 0.00 0.00 0.00 0.00 0.00 0.00 0.00 0.00 0.00 0.00 0.01 0.01 0.00 0.00 0.00 0.00 0.00 0.00 0.01 0.02 0.04 0.04 0.03
0.00 0.00 0.00 0.03 0.03 0.03 0.02 0.02 0.02 0.03 0.04 0.05 0.02 0.00 0.00 0.03 0.04 0.04 0.00 0.00 0.00 0.00 0.00 0.00 0.00 0.00 0.00 0.00 0.00 0.00 0.01 0.01 0.00 0.00 0.00 0.00 0.01 0.04 0.01 0.01 0.06 0.13 0.15
0.00 0.00 0.01 0.04 0.04 0.03 0.01 0.01 0.02 0.03 0.04 0.04 0.02 0.00 0.01 0.03 0.05 0.08 0.03 0.00 0.00 0.00 0.00 0.00 0.00 0.00 0.00 0.00 0.00 0.00 0.00 0.00 0.00 0.00 0.00 0.00 0.01 0.02 0.00 0.02 0.06 0.08 0.09
0.00 0.00 0.00 0.03 0.04 0.02 0.01 0.01 0.01 0.02 0.04 0.04 0.02 0.00 0.00 0.00 0.01 0.07 0.04 0.00 0.00 0.00 0.00 0.00 0.01 0.01 0.01 0.01 0.00 0.00 0.00 0.00 0.00 0.00 0.00 0.00 0.00 0.00 0.00 0.02 0.04 0.05 0.05
0.00 0.00 0.00 0.01 0.02 0.03 0.02 0.01 0.00 0.00 0.03 0.04 0.02 0.01 0.00 0.00 0.00 0.05 0.03 0.00 0.00 0.01 0.00 0.03 0.04 0.01 0.01 0.00 0.00 0.00 0.00 0.00 0.00 0.00 0.00 0.00 0.00 0.00 0.02 0.06 0.08 0.08 0.08
0.02 0.01 0.01 0.00 0.01 0.02 0.02 0.00 0.00 0.00 0.01 0.02 0.02 0.01 0.00 0.00 0.00 0.01 0.00 0.00 0.01 0.01 0.03 0.04 0.01 0.01 0.01 0.00 0.00 0.00 0.00 0.00 0.00 0.00 0.00 0.00 0.00 0.03 0.12 0.13 0.12 0.10 0.11
0.01 0.04 0.03 0.00 0.01 0.02 0.01 0.00 0.00 0.00 0.00 0.01 0.00 0.00 0.00 0.00 0.00 0.00 0.00 0.00 0.00 0.02 0.03 0.00 0.01 0.02 0.01 0.00 0.00 0.00 0.00 0.00 0.00 0.00 0.00 0.01 0.05 0.09 0.09 0.06 0.05 0.07 0.07
0.02 0.04 0.03 0.00 0.01 0.01 0.01 0.00 0.00 0.00 0.00 0.00 0.00 0.00 0.00 0.00 0.00 0.00 0.00 0.00 0.00 0.02 0.00 0.00 0.01 0.01 0.00 0.00 0.00 0.00 0.00 0.00 0.00 0.00 0.00 0.02 0.03 0.03 0.03 0.03 0.05 0.04 0.04
0.01 0.00 0.00 0.00 0.01 0.01 0.01 0.00 0.00 0.00 0.00 0.00 0.00 0.00 0.00 0.00 0.00 0.00 0.00 0.00 0.00 0.00 0.00 0.00 0.00 0.00 0.00 0.00 0.00 0.00 0.00 0.00 0.00 0.00 0.00 0.04 0.02 0.01 0.01 0.01 0.01 0.01 0.01
0.00 0.01 0.00 0.00 0.01 0.02 0.02 0.01 0.00 0.00 0.00 0.00 0.00 0.00 0.00 0.00 0.00 0.00 0.00 0.00 0.00 0.00 0.00 0.00 0.00 0.00 0.00 0.00 0.00 0.00 0.00 0.00 0.00 0.00 0.00 0.00 0.00 0.00 0.00 0.00 0.00 0.00 0.00
0.01 0.00 0.00 0.00 0.00 0.02 0.05 0.03 0.00 0.00 0.00 0.00 0.00 0.00 0.00 0.00 0.00 0.00 0.00 0.00 0.00 0.00 0.00 0.00 0.00 0.00 0.00 0.00 0.00 0.00 0.00 0.00 0.00 0.00 0.00 0.00 0.00 0.00 0.00 0.00 0.00 0.00 0.00
0.01 0.01 0.01 0.00 0.02 0.00 0.02 0.04 0.04 0.00 0.00 0.00 0.00 0.00 0.00 0.00 0.00 0.00 0.00 0.00 0.00 0.00 0.00 0.00 0.00 0.00 0.00 0.00 0.00 0.00 0.00 0.00 0.00 0.00 0.00 0.00 0.00 0.00 0.00 0.00 0.00 0.00 0.00
0.00 0.03 0.02 0.05 0.05 0.00 0.01 0.04 0.09 0.05 0.03 0.01 0.00 0.00 0.00 0.00 0.00 0.00 0.00 0.00 0.00 0.00 0.00 0.00 0.00 0.00 0.00 0.00 0.00 0.00 0.00 0.00 0.00 0.00 0.00 0.00 0.00 0.00 0.00 0.00 0.00 0.00 0.00
0.00 0.00 0.02 0.06 0.05 0.03 0.04 0.18 0.20 0.18 0.11 0.03 0.02 0.01 0.00 0.00 0.00 0.00 0.00 0.00 0.00 0.00 0.00 0.00 0.00 0.00 0.00 0.00 0.00 0.00 0.00 0.00 0.00 0.00 0.00 0.00 0.00 0.00 0.00 0.00 0.00 0.00 0.00
0.00 0.00 0.00 0.01 0.01 0.03 0.12 0.23 0.27 0.22 0.13 0.07 0.05 0.02 0.01 0.00 0.00 0.00 0.00 0.00 0.00 0.00 0.00 0.00 0.00 0.00 0.00 0.00 0.00 0.00 0.00 0.00 0.00 0.00 0.00 0.00 0.00 0.00 0.00 0.00 0.00 0.00 0.00
0.00 0.00 0.00 0.00 0.01 0.08 0.17 0.27 0.23 0.11 0.08 0.09 0.05 0.02 0.08 0.05 0.02 0.01 0.00 0.00 0.00 0.00 0.00 0.00 0.00 0.00 0.00 0.00 0.00 0.00 0.00 0.00 0.00 0.00 0.00 0.00 0.00 0.00 0.00 0.00 0.00 0.00 0.00
0.00 0.00 0.00 0.00 0.00 0.07 0.12 0.11 0.12 0.06 0.07 0.07 0.09 0.12 0.11 0.06 0.08 0.08 0.04 0.01 0.00 0.00 0.00 0.00 0.00 0.00 0.00 0.00 0.00 0.00 0.00 0.00 0.00 0.00 0.00 0.00 0.00 0.00 0.00 0.00 0.00 0.00 0.00
0.00 0.00 0.00 0.00 0.00 0.05 0.10 0.09 0.17 0.17 0.13 0.09 0.18 0.08 0.08 0.13 0.10 0.05 0.07 0.09 0.02 0.00 0.00 0.00 0.00 0.00 0.00 0.00 0.00 0.00 0.00 0.00 0.00 0.00 0.00 0.00 0.00 0.00 0.00 0.00 0.00 0.00 0.00
0.00 0.00 0.00 0.00 0.01 0.05 0.07 0.14 0.18 0.21 0.16 0.10 0.05 0.02 0.03 0.10 0.15 0.05 0.11 0.15 0.15 0.06 0.02 0.03 0.02 0.01 0.01 0.00 0.00 0.00 0.00 0.00 0.00 0.00 0.00 0.00 0.00 0.00 0.00 0.00 0.00 0.00 0.00
0.00 0.00 0.00 0.00 0.02 0.03 0.06 0.05 0.04 0.03 0.03 0.03 0.04 0.15 0.20 0.18 0.18 0.16 0.15 0.20 0.24 0.16 0.08 0.05 0.07 0.05 0.01 0.01 0.01 0.00 0.00 0.00 0.00 0.00 0.00 0.00 0.00 0.00 0.00 0.00 0.00 0.00 0.00
0.00 0.00 0.00 0.00 0.01 0.01 0.04 0.05 0.05 0.02 0.01 0.02 0.08 0.14 0.14 0.16 0.17 0.22 0.20 0.26 0.21 0.19 0.23 0.20 0.11 0.08 0.05 0.02 0.04 0.03 0.01 0.00 0.00 0.00 0.00 0.00 0.00 0.00 0.00 0.00 0.00 0.00 0.00
0.00 0.00 0.00 0.00 0.00 0.00 0.01 0.02 0.03 0.04 0.01 0.04 0.08 0.09 0.11 0.11 0.12 0.11 0.15 0.14 0.17 0.20 0.22 0.21 0.24 0.16 0.12 0.09 0.06 0.04 0.04 0.04 0.02 0.01 0.00 0.00 0.00 0.00 0.00 0.00 0.00 0.00 0.00

GFSSE_prec_precacc_045.txt.gz
Total_Precipitation_Accumulation
0.00 0.01 0.05 0.05 0.06 0.04 0.02 0.02 0.04 0.03 0.07 0.11 0.09 0.05 0.05 0.05 0.03 0.01 0.00 0.00 0.00 0.02 0.04 0.09 0.10 0.13 0.23 0.31 0.22 0.04 0.01 0.00 0.00 0.00 0.00 0.00 0.00 0.00 0.00 0.01 0.01 0.01 0.01
0.00 0.01 0.04 0.05 0.05 0.04 0.03 0.04 0.05 0.03 0.08 0.09 0.09 0.07 0.05 0.07 0.03 0.01 0.01 0.00 0.00 0.04 0.13 0.21 0.17 0.11 0.04 0.01 0.01 0.01 0.00 0.00 0.00 0.00 0.00 0.00 0.00 0.00 0.00 0.01 0.01 0.00 0.01
0.00 0.00 0.02 0.05 0.04 0.03 0.03 0.05 0.03 0.03 0.06 0.09 0.07 0.04 0.02 0.01 0.00 0.00 0.00 0.00 0.04 0.13 0.20 0.14 0.04 0.00 0.00 0.00 0.00 0.00 0.00 0.00 0.00 0.00 0.00 0.00 0.00 0.00 0.00 0.00 0.02 0.00 0.00
0.00 0.00 0.00 0.03 0.03 0.02 0.02 0.04 0.03 0.04 0.08 0.06 0.04 0.01 0.01 0.00 0.02 0.01 0.03 0.03 0.08 0.06 0.03 0.00 0.00 0.00 0.00 0.00 0.00 0.00 0.00 0.00 0.00 0.00 0.00 0.00 0.00 0.01 0.01 0.01 0.02 0.00 0.00
0.00 0.00 0.00 0.04 0.03 0.03 0.02 0.02 0.03 0.06 0.07 0.05 0.02 0.01 0.01 0.01 0.01 0.01 0.02 0.02 0.01 0.00 0.00 0.00 0.00 0.00 0.00 0.00 0.00 0.00 0.01 0.01 0.00 0.00 0.00 0.00 0.00 0.01 0.02 0.03 0.06 0.06 0.04
0.00 0.00 0.00 0.04 0.03 0.03 0.03 0.02 0.04 0.04 0.05 0.05 0.02 0.00 0.00 0.03 0.04 0.04 0.01 0.00 0.00 0.00 0.00 0.00 0.00 0.00 0.00 0.00 0.00 0.00 0.01 0.01 0.00 0.00 0.00 0.00 0.01 0.05 0.02 0.03 0.07 0.14 0.17
0.00 0.00 0.01 0.04 0.04 0.03 0.02 0.01 0.03 0.04 0.05 0.04 0.02 0.00 0.01 0.03 0.05 0.08 0.03 0.00 0.00 0.00 0.00 0.00 0.00 0.00 0.00 0.00 0.00 0.00 0.00 0.00 0.00 0.00 0.00 0.00 0.01 0.02 0.01 0.02 0.06 0.08 0.09
0.00 0.00 0.00 0.03 0.04 0.03 0.02 0.01 0.01 0.02 0.05 0.05 0.02 0.00 0.00 0.00 0.01 0.07 0.04 0.00 0.00 0.00 0.00 0.00 0.01 0.01 0.01 0.01 0.00 0.00 0.00 0.00 0.00 0.00 0.00 0.00 0.00 0.00 0.01 0.02 0.04 0.05 0.05
0.00 0.00 0.00 0.01 0.02 0.03 0.02 0.01 0.01 0.01 0.03 0.04 0.02 0.01 0.00 0.00 0.00 0.05 0.03 0.00 0.00 0.01 0.00 0.03 0.04 0.01 0.01 0.00 0.00 0.00 0.00 0.00 0.00 0.00 0.00 0.00 0.00 0.00 0.03 0.06 0.08 0.08 0.08
0.02 0.01 0.01 0.00 0.01 0.02 0.02 0.00 0.00 0.00 0.01 0.02 0.02 0.01 0.00 0.00 0.00 0.01 0.00 0.00 0.01 0.01 0.03 0.04 0.01 0.01 0.01 0.00 0.00 0.00 0.00 0.00 0.00 0.00 0.00 0.00 0.00 0.04 0.13 0.13 0.12 0.10 0.11
0.01 0.04 0.03 0.00 0.01 0.02 0.01 0.00 0.00 0.00 0.00 0.01 0.00 0.00 0.00 0.00 0.00 0.00 0.00 0.00 0.00 0.02 0.03 0.00 0.01 0.02 0.01 0.00 0.00 0.00 0.00 0.00 0.00 0.00 0.00 0.01 0.05 0.11 0.09 0.06 0.05 0.07 0.07
0.02 0.04 0.03 0.00 0.01 0.01 0.01 0.00 0.00 0.00 0.00 0.00 0.00 0.00 0.00 0.00 0.00 0.00 0.00 0.00 0.00 0.02 0.00 0.00 0.01 0.01 0.00 0.00 0.00 0.00 0.00 0.00 0.00 0.00 0.00 0.02 0.04 0.03 0.03 0.03 0.05 0.04 0.04
0.01 0.00 0.00 0.00 0.01 0.01 0.01 0.00 0.00 0.00 0.00 0.00 0.00 0.00 0.00 0.00 0.00 0.00 0.00 0.00 0.00 0.00 0.00 0.00 0.00 0.00 0.00 0.00 0.00 0.00 0.00 0.00 0.00 0.00 0.00 0.04 0.02 0.01 0.01 0.01 0.01 0.01 0.01
0.00 0.01 0.00 0.00 0.01 0.02 0.02 0.01 0.00 0.00 0.00 0.00 0.00 0.00 0.00 0.00 0.00 0.00 0.00 0.00 0.00 0.00 0.00 0.00 0.00 0.00 0.00 0.00 0.00 0.00 0.00 0.00 0.00 0.00 0.00 0.00 0.00 0.00 0.00 0.00 0.00 0.00 0.00
0.01 0.00 0.00 0.00 0.00 0.02 0.05 0.03 0.00 0.00 0.00 0.00 0.00 0.00 0.00 0.00 0.00 0.00 0.00 0.00 0.00 0.00 0.00 0.00 0.00 0.00 0.00 0.00 0.00 0.00 0.00 0.00 0.00 0.00 0.00 0.00 0.00 0.00 0.00 0.00 0.00 0.00 0.00
0.01 0.01 0.01 0.00 0.02 0.00 0.02 0.04 0.04 0.00 0.00 0.00 0.00 0.00 0.00 0.00 0.00 0.00 0.00 0.00 0.00 0.00 0.00 0.00 0.00 0.00 0.00 0.00 0.00 0.00 0.00 0.00 0.00 0.00 0.00 0.00 0.00 0.00 0.00 0.00 0.00 0.00 0.00
0.00 0.03 0.02 0.05 0.05 0.00 0.01 0.04 0.09 0.05 0.03 0.01 0.00 0.00 0.00 0.00 0.00 0.00 0.00 0.00 0.00 0.00 0.00 0.00 0.00 0.00 0.00 0.00 0.00 0.00 0.00 0.00 0.00 0.00 0.00 0.00 0.00 0.00 0.00 0.00 0.00 0.00 0.00
0.00 0.00 0.02 0.06 0.05 0.03 0.04 0.18 0.20 0.18 0.11 0.03 0.02 0.01 0.00 0.00 0.00 0.00 0.00 0.00 0.00 0.00 0.00 0.00 0.00 0.00 0.00 0.00 0.00 0.00 0.00 0.00 0.00 0.00 0.00 0.00 0.00 0.00 0.00 0.00 0.00 0.00 0.00
0.00 0.00 0.00 0.01 0.02 0.03 0.12 0.23 0.27 0.22 0.13 0.07 0.05 0.02 0.01 0.00 0.00 0.00 0.00 0.00 0.00 0.00 0.00 0.00 0.00 0.00 0.00 0.00 0.00 0.00 0.00 0.00 0.00 0.00 0.00 0.00 0.00 0.00 0.00 0.00 0.00 0.00 0.00
0.00 0.00 0.00 0.00 0.01 0.08 0.17 0.28 0.23 0.12 0.09 0.09 0.09 0.04 0.09 0.05 0.02 0.01 0.00 0.00 0.00 0.00 0.00 0.00 0.00 0.00 0.00 0.00 0.00 0.00 0.00 0.00 0.00 0.00 0.00 0.00 0.00 0.00 0.00 0.00 0.00 0.00 0.00
0.00 0.00 0.00 0.00 0.00 0.07 0.12 0.11 0.12 0.06 0.09 0.08 0.10 0.16 0.17 0.10 0.09 0.09 0.05 0.02 0.00 0.00 0.00 0.00 0.00 0.00 0.00 0.00 0.00 0.00 0.00 0.00 0.00 0.00 0.00 0.00 0.00 0.00 0.00 0.00 0.00 0.00 0.00
0.00 0.00 0.00 0.00 0.00 0.05 0.10 0.09 0.17 0.17 0.13 0.09 0.18 0.08 0.09 0.16 0.15 0.08 0.08 0.10 0.04 0.01 0.00 0.00 0.01 0.01 0.00 0.01 0.01 0.00 0.00 0.00 0.00 0.00 0.00 0.00 0.00 0.00 0.00 0.00 0.00 0.00 0.00
0.00 0.00 0.00 0.00 0.01 0.05 0.07 0.14 0.18 0.21 0.16 0.10 0.05 0.02 0.03 0.10 0.17 0.11 0.16 0.18 0.19 0.11 0.04 0.05 0.09 0.08 0.05 0.04 0.02 0.01 0.00 0.00 0.00 0.00 0.00 0.00 0.00 0.00 0.00 0.00 0.00 0.00 0.00
0.00 0.00 0.00 0.00 0.02 0.03 0.06 0.05 0.04 0.03 0.03 0.03 0.04 0.15 0.20 0.18 0.18 0.17 0.17 0.25 0.29 0.21 0.14 0.09 0.14 0.12 0.07 0.05 0.04 0.01 0.01 0.00 0.00 0.00 0.00 0.00 0.00 0.00 0.00 0.00 0.00 0.00 0.00
0.00 0.00 0.00 0.00 0.01 0.01 0.04 0.05 0.05 0.02 0.01 0.02 0.08 0.14 0.14 0.16 0.18 0.22 0.20 0.27 0.26 0.24 0.26 0.28 0.20 0.16 0.10 0.08 0.09 0.07 0.04 0.02 0.00 0.00 0.01 0.02 0.01 0.01 0.00 0.00 0.00 0.00 0.00
0.00 0.00 0.00 0.00 0.00 0.00 0.01 0.02 0.03 0.04 0.01 0.04 0.08 0.09 0.11 0.11 0.12 0.12 0.15 0.15 0.20 0.24 0.27 0.25 0.29 0.21 0.16 0.13 0.10 0.10 0.10 0.10 0.06 0.03 0.03 0.04 0.03 0.02 0.00 0.00 0.00 0.00 0.00

GFSSE_prec_precacc_048.txt.gz
Total_Precipitation_Accumulation
0.00 0.01 0.05 0.05 0.06 0.04 0.02 0.02 0.04 0.04 0.07 0.11 0.09 0.05 0.05 0.05 0.03 0.01 0.00 0.00 0.02 0.02 0.04 0.09 0.10 0.13 0.23 0.31 0.22 0.04 0.01 0.00 0.00 0.00 0.00 0.00 0.00 0.00 0.00 0.01 0.01 0.01 0.01
0.00 0.01 0.04 0.05 0.05 0.04 0.03 0.04 0.05 0.03 0.08 0.09 0.10 0.08 0.05 0.07 0.03 0.01 0.01 0.00 0.02 0.05 0.13 0.21 0.17 0.11 0.04 0.01 0.01 0.01 0.00 0.00 0.00 0.00 0.00 0.00 0.00 0.00 0.00 0.01 0.01 0.00 0.01
0.00 0.00 0.02 0.05 0.05 0.04 0.03 0.05 0.03 0.04 0.06 0.09 0.07 0.05 0.02 0.01 0.00 0.00 0.00 0.02 0.07 0.13 0.20 0.14 0.04 0.00 0.00 0.00 0.00 0.00 0.00 0.00 0.00 0.00 0.00 0.00 0.00 0.01 0.00 0.00 0.02 0.00 0.00
0.00 0.00 0.00 0.04 0.03 0.02 0.02 0.04 0.03 0.04 0.09 0.07 0.04 0.01 0.01 0.00 0.02 0.02 0.03 0.05 0.09 0.06 0.03 0.00 0.00 0.00 0.00 0.00 0.00 0.00 0.00 0.00 0.00 0.00 0.00 0.00 0.00 0.02 0.01 0.02 0.02 0.00 0.01
0.00 0.00 0.00 0.04 0.04 0.03 0.02 0.02 0.03 0.06 0.07 0.05 0.02 0.01 0.01 0.01 0.02 0.03 0.03 0.03 0.01 0.00 0.00 0.00 0.00 0.00 0.00 0.00 0.00 0.00 0.01 0.01 0.00 0.00 0.00 0.00 0.00 0.02 0.03 0.05 0.07 0.07 0.08
0.00 0.00 0.00 0.04 0.03 0.03 0.03 0.02 0.04 0.05 0.05 0.05 0.02 0.00 0.00 0.03 0.05 0.05 0.01 0.00 0.00 0.00 0.00 0.00 0.00 0.00 0.00 0.00 0.00 0.00 0.01 0.01 0.00 0.00 0.00 0.00 0.01 0.06 0.03 0.04 0.08 0.15 0.19
0.00 0.00 0.01 0.04 0.04 0.03 0.02 0.01 0.03 0.04 0.05 0.04 0.02 0.00 0.01 0.03 0.05 0.08 0.03 0.00 0.00 0.00 0.00 0.00 0.00 0.00 0.00 0.00 0.00 0.00 0.00 0.00 0.00 0.00 0.00 0.00 0.01 0.03 0.02 0.03 0.06 0.08 0.09
0.00 0.00 0.00 0.03 0.04 0.03 0.02 0.02 0.02 0.02 0.05 0.05 0.02 0.00 0.00 0.00 0.01 0.07 0.04 0.00 0.00 0.00 0.00 0.00 0.01 0.01 0.01 0.01 0.00 0.00 0.00 0.00 0.00 0.00 0.00 0.00 0.00 0.00 0.01 0.02 0.04 0.05 0.05
0.00 0.00 0.00 0.01 0.02 0.03 0.02 0.01 0.01 0.01 0.04 0.04 0.02 0.01 0.00 0.00 0.00 0.05 0.03 0.00 0.00 0.01 0.00 0.03 0.04 0.01 0.01 0.00 0.00 0.00 0.00 0.00 0.00 0.00 0.00 0.00 0.00 0.00 0.03 0.06 0.08 0.08 0.08
0.02 0.01 0.01 0.00 0.01 0.02 0.02 0.01 0.00 0.00 0.02 0.02 0.02 0.01 0.00 0.00 0.00 0.01 0.00 0.00 0.01 0.01 0.03 0.04 0.01 0.01 0.01 0.00 0.00 0.00 0.00 0.00 0.00 0.00 0.00 0.00 0.00 0.05 0.13 0.13 0.12 0.10 0.11
0.01 0.04 0.03 0.00 0.01 0.02 0.01 0.00 0.00 0.00 0.00 0.01 0.00 0.00 0.00 0.00 0.00 0.00 0.00 0.00 0.00 0.03 0.03 0.00 0.01 0.02 0.01 0.00 0.00 0.00 0.00 0.00 0.00 0.00 0.00 0.01 0.06 0.11 0.09 0.06 0.05 0.07 0.07
0.02 0.04 0.03 0.00 0.01 0.01 0.01 0.00 0.00 0.00 0.00 0.00 0.00 0.00 0.00 0.00 0.00 0.00 0.00 0.00 0.00 0.02 0.00 0.00 0.01 0.01 0.00 0.00 0.00 0.00 0.00 0.00 0.00 0.00 0.00 0.02 0.05 0.03 0.03 0.03 0.05 0.04 0.04
0.01 0.00 0.00 0.00 0.01 0.01 0.01 0.00 0.00 0.00 0.00 0.00 0.00 0.00 0.00 0.00 0.00 0.00 0.00 0.00 0.00 0.00 0.00 0.00 0.00 0.00 0.00 0.00 0.00 0.00 0.00 0.00 0.00 0.00 0.00 0.04 0.02 0.01 0.01 0.01 0.01 0.01 0.01
0.00 0.01 0.00 0.00 0.01 0.02 0.02 0.01 0.00 0.00 0.00 0.00 0.00 0.00 0.00 0.00 0.00 0.00 0.00 0.00 0.00 0.00 0.00 0.00 0.00 0.00 0.00 0.00 0.00 0.00 0.00 0.00 0.00 0.00 0.00 0.00 0.00 0.00 0.00 0.00 0.00 0.00 0.00
0.01 0.00 0.00 0.00 0.00 0.02 0.05 0.03 0.00 0.00 0.00 0.00 0.00 0.00 0.00 0.00 0.00 0.00 0.00 0.00 0.00 0.00 0.00 0.00 0.00 0.00 0.00 0.00 0.00 0.00 0.00 0.00 0.00 0.00 0.00 0.00 0.00 0.00 0.00 0.00 0.00 0.00 0.00
0.01 0.02 0.02 0.00 0.02 0.00 0.02 0.04 0.04 0.00 0.00 0.00 0.00 0.00 0.00 0.00 0.00 0.00 0.00 0.00 0.00 0.00 0.00 0.00 0.00 0.00 0.00 0.00 0.00 0.00 0.00 0.00 0.00 0.00 0.00 0.00 0.00 0.00 0.00 0.00 0.00 0.00 0.00
0.00 0.03 0.02 0.05 0.05 0.00 0.01 0.04 0.09 0.05 0.03 0.01 0.00 0.00 0.00 0.00 0.00 0.00 0.00 0.00 0.00 0.00 0.00 0.00 0.00 0.00 0.00 0.00 0.00 0.00 0.00 0.00 0.00 0.00 0.00 0.00 0.00 0.00 0.00 0.00 0.00 0.00 0.00
0.00 0.00 0.02 0.06 0.06 0.03 0.04 0.18 0.20 0.18 0.11 0.03 0.02 0.01 0.00 0.00 0.00 0.00 0.00 0.00 0.00 0.00 0.00 0.00 0.00 0.00 0.00 0.00 0.00 0.00 0.00 0.00 0.00 0.00 0.00 0.00 0.00 0.00 0.00 0.00 0.00 0.00 0.00
0.00 0.00 0.00 0.01 0.02 0.04 0.12 0.23 0.27 0.22 0.13 0.07 0.05 0.02 0.01 0.00 0.00 0.00 0.00 0.00 0.00 0.00 0.00 0.00 0.00 0.00 0.00 0.00 0.00 0.00 0.00 0.00 0.00 0.00 0.00 0.00 0.00 0.00 0.00 0.00 0.00 0.00 0.00
0.00 0.00 0.00 0.00 0.01 0.08 0.17 0.28 0.23 0.12 0.09 0.09 0.10 0.05 0.09 0.05 0.02 0.02 0.01 0.00 0.00 0.00 0.00 0.00 0.00 0.00 0.00 0.00 0.00 0.00 0.00 0.00 0.00 0.00 0.00 0.00 0.00 0.00 0.00 0.00 0.00 0.00 0.00
0.00 0.00 0.00 0.00 0.00 0.07 0.12 0.11 0.12 0.06 0.09 0.10 0.11 0.19 0.22 0.13 0.11 0.10 0.05 0.03 0.01 0.00 0.00 0.00 0.00 0.00 0.00 0.01 0.00 0.00 0.00 0.00 0.00 0.00 0.00 0.00 0.00 0.00 0.00 0.00 0.00 0.00 0.00
0.00 0.00 0.00 0.00 0.00 0.05 0.10 0.09 0.17 0.17 0.13 0.09 0.18 0.08 0.11 0.18 0.17 0.10 0.09 0.10 0.05 0.02 0.01 0.02 0.03 0.05 0.04 0.06 0.05 0.01 0.00 0.00 0.00 0.00 0.00 0.00 0.00 0.00 0.00 0.00 0.00 0.00 0.00
0.00 0.00 0.00 0.00 0.01 0.05 0.07 0.14 0.18 0.21 0.16 0.10 0.05 0.02 0.04 0.11 0.17 0.13 0.17 0.19 0.20 0.12 0.06 0.08 0.13 0.13 0.11 0.11 0.08 0.05 0.00 0.00 0.00 0.00 0.00 0.00 0.00 0.00 0.00 0.01 0.00 0.00 0.00
0.00 0.00 0.00 0.00 0.02 0.03 0.06 0.05 0.04 0.03 0.03 0.03 0.04 0.15 0.20 0.18 0.18 0.17 0.17 0.26 0.30 0.21 0.15 0.10 0.16 0.16 0.15 0.10 0.09 0.06 0.04 0.01 0.00 0.00 0.00 0.01 0.00 0.00 0.00 0.01 0.01 0.00 0.00
0.00 0.00 0.00 0.00 0.01 0.01 0.04 0.05 0.05 0.02 0.01 0.02 0.08 0.14 0.14 0.16 0.18 0.22 0.20 0.27 0.28 0.26 0.27 0.29 0.22 0.19 0.15 0.15 0.15 0.16 0.11 0.06 0.03 0.01 0.01 0.04 0.03 0.02 0.01 0.00 0.00 0.00 0.00
0.00 0.00 0.00 0.00 0.00 0.00 0.01 0.02 0.03 0.04 0.01 0.04 0.08 0.09 0.11 0.11 0.12 0.12 0.15 0.15 0.21 0.28 0.30 0.29 0.33 0.25 0.22 0.19 0.15 0.14 0.14 0.15 0.10 0.05 0.05 0.06 0.05 0.03 0.01 0.00 0.00 0.00 0.00

GFSSE_prec_precacc_051.txt.gz
Total_Precipitation_Accumulation
0.00 0.01 0.06 0.05 0.06 0.04 0.02 0.02 0.04 0.04 0.07 0.11 0.09 0.05 0.05 0.05 0.03 0.01 0.00 0.01 0.03 0.03 0.04 0.09 0.10 0.13 0.23 0.31 0.22 0.04 0.01 0.00 0.00 0.00 0.00 0.00 0.00 0.00 0.00 0.01 0.01 0.01 0.01
0.00 0.01 0.04 0.05 0.05 0.04 0.04 0.05 0.06 0.03 0.09 0.10 0.10 0.08 0.05 0.07 0.03 0.01 0.02 0.01 0.02 0.05 0.13 0.21 0.17 0.11 0.04 0.01 0.01 0.01 0.00 0.00 0.00 0.00 0.00 0.00 0.00 0.00 0.00 0.01 0.01 0.00 0.01
0.00 0.00 0.02 0.05 0.05 0.04 0.03 0.05 0.04 0.05 0.08 0.10 0.07 0.05 0.02 0.01 0.00 0.00 0.00 0.03 0.07 0.13 0.20 0.14 0.04 0.00 0.00 0.00 0.00 0.00 0.00 0.00 0.00 0.00 0.00 0.00 0.00 0.01 0.00 0.00 0.02 0.00 0.00
0.00 0.00 0.00 0.04 0.04 0.02 0.02 0.04 0.03 0.06 0.09 0.07 0.04 0.01 0.01 0.00 0.02 0.02 0.04 0.07 0.09 0.06 0.03 0.00 0.00 0.00 0.00 0.00 0.00 0.00 0.00 0.00 0.00 0.00 0.00 0.00 0.00 0.02 0.02 0.02 0.02 0.01 0.03
0.00 0.00 0.00 0.04 0.04 0.03 0.02 0.02 0.03 0.07 0.07 0.05 0.02 0.01 0.01 0.02 0.03 0.04 0.05 0.03 0.01 0.00 0.00 0.00 0.00 0.00 0.00 0.00 0.00 0.00 0.01 0.01 0.00 0.00 0.00 0.00 0.00 0.03 0.05 0.06 0.08 0.10 0.12
0.00 0.00 0.01 0.04 0.03 0.03 0.03 0.02 0.04 0.05 0.05 0.05 0.02 0.00 0.00 0.04 0.06 0.06 0.01 0.00 0.00 0.00 0.00 0.00 0.00 0.00 0.00 0.00 0.00 0.00 0.01 0.01 0.00 0.00 0.00 0.00 0.01 0.07 0.04 0.05 0.10 0.16 0.19
0.00 0.00 0.01 0.04 0.04 0.03 0.02 0.02 0.03 0.04 0.05 0.04 0.02 0.00 0.01 0.04 0.05 0.09 0.03 0.00 0.00 0.00 0.00 0.00 0.00 0.00 0.00 0.00 0.00 0.00 0.00 0.00 0.00 0.00 0.00 0.00 0.01 0.03 0.02 0.03 0.06 0.08 0.09
0.00 0.00 0.00 0.03 0.04 0.03 0.02 0.02 0.02 0.02 0.05 0.05 0.02 0.00 0.00 0.00 0.02 0.07 0.04 0.00 0.00 0.00 0.00 0.00 0.01 0.01 0.01 0.01 0.00 0.00 0.00 0.00 0.00 0.00 0.00 0.00 0.00 0.00 0.01 0.02 0.04 0.05 0.05
0.00 0.00 0.00 0.01 0.03 0.03 0.02 0.02 0.02 0.01 0.04 0.04 0.02 0.01 0.00 0.00 0.01 0.05 0.03 0.00 0.00 0.01 0.00 0.03 0.04 0.01 0.01 0.00 0.00 0.00 0.00 0.00 0.00 0.00 0.00 0.00 0.00 0.00 0.03 0.06 0.08 0.08 0.08
0.02 0.01 0.01 0.00 0.01 0.02 0.02 0.01 0.00 0.00 0.02 0.02 0.02 0.01 0.00 0.00 0.00 0.01 0.00 0.00 0.01 0.01 0.03 0.04 0.01 0.01 0.01 0.00 0.00 0.00 0.00 0.00 0.00 0.00 0.00 0.00 0.00 0.06 0.14 0.14 0.12 0.10 0.11
0.01 0.04 0.03 0.00 0.01 0.02 0.01 0.00 0.00 0.00 0.00 0.01 0.00 0.00 0.00 0.00 0.00 0.00 0.00 0.00 0.00 0.03 0.03 0.00 0.01 0.02 0.01 0.00 0.00 0.00 0.00 0.00 0.00 0.00 0.00 0.01 0.07 0.12 0.09 0.06 0.05 0.07 0.07
0.02 0.04 0.03 0.00 0.01 0.01 0.01 0.00 0.00 0.00 0.00 0.00 0.00 0.00 0.00 0.00 0.00 0.00 0.00 0.00 0.00 0.03 0.00 0.00 0.01 0.01 0.00 0.00 0.00 0.00 0.00 0.00 0.00 0.00 0.00 0.02 0.05 0.04 0.03 0.03 0.05 0.04 0.04
0.01 0.00 0.00 0.00 0.01 0.01 0.01 0.00 0.00 0.00 0.00 0.00 0.00 0.00 0.00 0.00 0.00 0.00 0.00 0.00 0.00 0.00 0.00 0.00 0.00 0.00 0.00 0.00 0.00 0.00 0.00 0.00 0.00 0.00 0.00 0.04 0.03 0.01 0.01 0.01 0.01 0.01 0.01
0.00 0.01 0.00 0.00 0.01 0.02 0.02 0.01 0.00 0.00 0.00 0.00 0.00 0.00 0.00 0.00 0.00 0.00 0.00 0.00 0.00 0.00 0.00 0.00 0.00 0.00 0.00 0.00 0.00 0.00 0.00 0.00 0.00 0.00 0.00 0.00 0.00 0.00 0.00 0.00 0.00 0.00 0.00
0.01 0.00 0.00 0.00 0.00 0.02 0.05 0.03 0.00 0.00 0.00 0.00 0.00 0.00 0.00 0.00 0.00 0.00 0.00 0.00 0.00 0.00 0.00 0.00 0.00 0.00 0.00 0.00 0.00 0.00 0.00 0.00 0.00 0.00 0.00 0.00 0.00 0.00 0.00 0.00 0.00 0.00 0.00
0.02 0.02 0.02 0.00 0.02 0.00 0.02 0.04 0.04 0.00 0.00 0.00 0.00 0.00 0.00 0.00 0.00 0.00 0.00 0.00 0.00 0.00 0.00 0.00 0.00 0.00 0.00 0.00 0.00 0.00 0.00 0.00 0.00 0.00 0.00 0.00 0.00 0.00 0.00 0.00 0.00 0.00 0.00
0.00 0.03 0.02 0.05 0.05 0.00 0.01 0.04 0.09 0.05 0.03 0.01 0.00 0.00 0.00 0.00 0.00 0.00 0.00 0.00 0.00 0.00 0.00 0.00 0.00 0.00 0.00 0.00 0.00 0.00 0.00 0.00 0.00 0.00 0.00 0.00 0.00 0.00 0.00 0.00 0.00 0.00 0.00
0.00 0.00 0.02 0.06 0.06 0.03 0.04 0.18 0.20 0.18 0.11 0.03 0.02 0.01 0.00 0.00 0.00 0.00 0.00 0.00 0.00 0.00 0.00 0.00 0.00 0.00 0.00 0.00 0.00 0.00 0.00 0.00 0.00 0.00 0.00 0.00 0.00 0.00 0.00 0.00 0.00 0.00 0.00
0.00 0.00 0.00 0.01 0.02 0.04 0.12 0.23 0.27 0.22 0.13 0.07 0.05 0.02 0.01 0.00 0.00 0.00 0.00 0.00 0.00 0.00 0.00 0.00 0.00 0.00 0.00 0.00 0.00 0.00 0.00 0.00 0.00 0.00 0.00 0.00 0.00 0.00 0.00 0.00 0.00 0.00 0.00
0.00 0.00 0.00 0.00 0.01 0.08 0.17 0.28 0.23 0.12 0.09 0.09 0.10 0.05 0.09 0.05 0.02 0.02 0.01 0.00 0.00 0.00 0.00 0.00 0.00 0.00 0.00 0.00 0.00 0.00 0.00 0.00 0.00 0.00 0.00 0.00 0.00 0.00 0.00 0.00 0.00 0.00 0.00
0.00 0.00 0.00 0.00 0.00 0.07 0.12 0.11 0.12 0.06 0.09 0.10 0.11 0.19 0.24 0.16 0.14 0.11 0.06 0.03 0.01 0.00 0.00 0.00 0.00 0.00 0.00 0.03 0.02 0.00 0.00 0.00 0.00 0.00 0.00 0.00 0.00 0.00 0.00 0.00 0.00 0.00 0.00
0.00 0.00 0.00 0.00 0.00 0.05 0.10 0.09 0.17 0.17 0.13 0.09 0.18 0.09 0.11 0.18 0.19 0.12 0.10 0.11 0.05 0.02 0.01 0.02 0.04 0.07 0.07 0.12 0.14 0.04 0.00 0.00 0.00 0.00 0.00 0.00 0.00 0.00 0.00 0.00 0.00 0.00 0.00
0.00 0.00 0.00 0.00 0.01 0.05 0.07 0.14 0.18 0.21 0.16 0.10 0.05 0.02 0.04 0.11 0.18 0.14 0.19 0.20 0.20 0.12 0.06 0.08 0.13 0.14 0.13 0.16 0.14 0.12 0.02 0.00 0.00 0.00 0.00 0.00 0.00 0.00 0.00 0.01 0.01 0.01 0.01
0.00 0.00 0.00 0.00 0.02 0.03 0.06 0.05 0.04 0.03 0.03 0.03 0.04 0.15 0.20 0.18 0.18 0.17 0.17 0.26 0.30 0.21 0.15 0.10 0.17 0.16 0.17 0.11 0.12 0.09 0.07 0.03 0.02 0.01 0.01 0.01 0.01 0.00 0.00 0.01 0.01 0.01 0.01
0.00 0.00 0.00 0.00 0.01 0.01 0.04 0.05 0.05 0.02 0.01 0.02 0.08 0.14 0.14 0.16 0.18 0.22 0.20 0.27 0.28 0.26 0.28 0.29 0.22 0.20 0.15 0.16 0.16 0.17 0.13 0.11 0.06 0.04 0.02 0.04 0.04 0.04 0.02 0.00 0.00 0.00 0.00
0.00 0.00 0.00 0.00 0.00 0.00 0.01 0.02 0.03 0.04 0.01 0.04 0.08 0.09 0.11 0.11 0.12 0.12 0.15 0.15 0.21 0.28 0.30 0.30 0.33 0.26 0.22 0.20 0.16 0.16 0.16 0.18 0.12 0.08 0.07 0.07 0.07 0.04 0.02 0.01 0.00 0.00 0.00

GFSSE_prec_precacc_054.txt.gz
Total_Precipitation_Accumulation
0.00 0.02 0.06 0.05 0.06 0.04 0.02 0.02 0.04 0.04 0.07 0.11 0.09 0.05 0.05 0.05 0.03 0.01 0.01 0.02 0.03 0.03 0.04 0.09 0.10 0.13 0.23 0.31 0.22 0.04 0.01 0.00 0.00 0.00 0.00 0.00 0.00 0.00 0.00 0.01 0.01 0.01 0.02
0.00 0.01 0.04 0.05 0.05 0.04 0.04 0.05 0.06 0.04 0.09 0.10 0.11 0.08 0.05 0.07 0.03 0.02 0.02 0.02 0.02 0.05 0.13 0.21 0.17 0.11 0.04 0.01 0.01 0.01 0.00 0.00 0.00 0.00 0.00 0.00 0.00 0.00 0.00 0.01 0.01 0.00 0.02
0.00 0.00 0.02 0.06 0.05 0.04 0.04 0.06 0.04 0.05 0.09 0.10 0.07 0.05 0.02 0.01 0.00 0.00 0.01 0.03 0.07 0.13 0.20 0.14 0.04 0.00 0.00 0.00 0.00 0.00 0.00 0.00 0.00 0.00 0.00 0.00 0.00 0.01 0.00 0.00 0.02 0.00 0.00
0.00 0.00 0.00 0.04 0.04 0.03 0.02 0.04 0.03 0.07 0.10 0.07 0.04 0.01 0.01 0.00 0.02 0.02 0.05 0.07 0.09 0.06 0.03 0.00 0.00 0.00 0.00 0.00 0.00 0.00 0.00 0.00 0.00 0.00 0.00 0.00 0.00 0.02 0.02 0.02 0.03 0.04 0.04
0.00 0.00 0.01 0.05 0.04 0.03 0.02 0.02 0.04 0.07 0.07 0.05 0.02 0.01 0.01 0.02 0.03 0.04 0.06 0.03 0.01 0.00 0.00 0.00 0.00 0.00 0.00 0.00 0.00 0.00 0.01 0.01 0.00 0.00 0.00 0.00 0.00 0.04 0.06 0.06 0.09 0.12 0.15
0.00 0.00 0.01 0.05 0.03 0.03 0.03 0.02 0.05 0.05 0.05 0.05 0.02 0.00 0.01 0.05 0.06 0.07 0.02 0.00 0.00 0.00 0.00 0.00 0.00 0.00 0.00 0.00 0.00 0.00 0.01 0.01 0.00 0.00 0.00 0.00 0.01 0.08 0.05 0.07 0.11 0.16 0.19
0.00 0.00 0.02 0.04 0.04 0.03 0.02 0.03 0.03 0.04 0.05 0.04 0.02 0.00 0.02 0.05 0.06 0.09 0.03 0.00 0.00 0.00 0.00 0.00 0.00 0.00 0.00 0.00 0.00 0.00 0.00 0.00 0.00 0.00 0.00 0.00 0.01 0.04 0.02 0.03 0.06 0.08 0.09
0.00 0.00 0.00 0.04 0.04 0.03 0.02 0.02 0.02 0.02 0.05 0.05 0.02 0.00 0.00 0.01 0.03 0.08 0.04 0.00 0.00 0.00 0.00 0.00 0.01 0.01 0.01 0.01 0.00 0.00 0.00 0.00 0.00 0.00 0.00 0.00 0.00 0.00 0.01 0.02 0.04 0.05 0.05
0.00 0.00 0.00 0.01 0.03 0.03 0.02 0.02 0.02 0.01 0.04 0.04 0.02 0.01 0.00 0.00 0.02 0.06 0.03 0.00 0.00 0.01 0.00 0.03 0.04 0.01 0.01 0.00 0.00 0.00 0.00 0.00 0.00 0.00 0.00 0.00 0.00 0.01 0.03 0.06 0.08 0.08 0.08
0.02 0.01 0.01 0.00 0.02 0.03 0.02 0.01 0.01 0.01 0.02 0.02 0.02 0.01 0.00 0.00 0.00 0.01 0.00 0.00 0.01 0.01 0.03 0.04 0.01 0.01 0.01 0.00 0.00 0.00 0.00 0.00 0.00 0.00 0.00 0.00 0.00 0.07 0.14 0.14 0.12 0.10 0.11
0.01 0.04 0.03 0.00 0.01 0.02 0.01 0.01 0.00 0.00 0.00 0.01 0.00 0.00 0.00 0.00 0.00 0.00 0.00 0.00 0.00 0.03 0.03 0.00 0.01 0.02 0.01 0.00 0.00 0.00 0.00 0.00 0.00 0.00 0.00 0.01 0.07 0.13 0.09 0.06 0.05 0.07 0.07
0.02 0.04 0.03 0.00 0.01 0.01 0.01 0.00 0.00 0.00 0.00 0.00 0.00 0.00 0.00 0.00 0.00 0.00 0.00 0.00 0.00 0.03 0.00 0.00 0.01 0.01 0.00 0.00 0.00 0.00 0.00 0.00 0.00 0.00 0.00 0.02 0.06 0.06 0.03 0.03 0.05 0.04 0.04
0.01 0.00 0.00 0.00 0.01 0.01 0.01 0.00 0.00 0.00 0.00 0.00 0.00 0.00 0.00 0.00 0.00 0.00 0.00 0.00 0.00 0.00 0.00 0.00 0.00 0.00 0.00 0.00 0.00 0.00 0.00 0.00 0.00 0.00 0.00 0.04 0.04 0.02 0.01 0.01 0.01 0.01 0.01
0.00 0.01 0.00 0.00 0.01 0.02 0.02 0.01 0.00 0.00 0.00 0.00 0.00 0.00 0.00 0.00 0.00 0.00 0.00 0.00 0.00 0.00 0.00 0.00 0.00 0.00 0.00 0.00 0.00 0.00 0.00 0.00 0.00 0.00 0.00 0.00 0.00 0.00 0.00 0.00 0.00 0.00 0.00
0.01 0.00 0.00 0.00 0.00 0.02 0.05 0.03 0.00 0.00 0.00 0.00 0.00 0.00 0.00 0.00 0.00 0.00 0.00 0.00 0.00 0.00 0.00 0.00 0.00 0.00 0.00 0.00 0.00 0.00 0.00 0.00 0.00 0.00 0.00 0.00 0.00 0.00 0.00 0.00 0.00 0.00 0.00
0.02 0.02 0.02 0.00 0.02 0.00 0.02 0.04 0.04 0.00 0.00 0.00 0.00 0.00 0.00 0.00 0.00 0.00 0.00 0.00 0.00 0.00 0.00 0.00 0.00 0.00 0.00 0.00 0.00 0.00 0.00 0.00 0.00 0.00 0.00 0.00 0.00 0.00 0.00 0.00 0.00 0.00 0.00
0.00 0.03 0.02 0.05 0.05 0.00 0.01 0.04 0.09 0.05 0.03 0.01 0.00 0.00 0.00 0.00 0.00 0.00 0.00 0.00 0.00 0.00 0.00 0.00 0.00 0.00 0.00 0.00 0.00 0.00 0.00 0.00 0.00 0.00 0.00 0.00 0.00 0.00 0.00 0.00 0.00 0.00 0.00
0.00 0.00 0.02 0.06 0.06 0.03 0.04 0.18 0.20 0.18 0.11 0.03 0.02 0.01 0.00 0.00 0.00 0.00 0.00 0.00 0.00 0.00 0.00 0.00 0.00 0.00 0.00 0.00 0.00 0.00 0.00 0.00 0.00 0.00 0.00 0.00 0.00 0.00 0.00 0.00 0.00 0.00 0.00
0.00 0.00 0.00 0.01 0.02 0.04 0.12 0.23 0.27 0.22 0.13 0.07 0.05 0.02 0.01 0.00 0.00 0.00 0.00 0.00 0.00 0.00 0.00 0.00 0.00 0.00 0.00 0.00 0.00 0.00 0.00 0.00 0.00 0.00 0.00 0.00 0.00 0.00 0.00 0.00 0.00 0.00 0.00
0.00 0.00 0.00 0.00 0.01 0.08 0.17 0.28 0.23 0.12 0.09 0.09 0.10 0.05 0.09 0.05 0.02 0.02 0.01 0.00 0.00 0.00 0.00 0.00 0.00 0.00 0.00 0.00 0.00 0.00 0.00 0.00 0.00 0.00 0.00 0.00 0.00 0.00 0.00 0.00 0.00 0.00 0.00
0.00 0.00 0.00 0.00 0.00 0.07 0.12 0.11 0.12 0.06 0.09 0.10 0.11 0.19 0.24 0.16 0.15 0.11 0.06 0.03 0.01 0.00 0.00 0.00 0.00 0.00 0.00 0.03 0.02 0.00 0.00 0.00 0.00 0.00 0.00 0.00 0.00 0.00 0.00 0.00 0.00 0.00 0.00
0.00 0.00 0.00 0.00 0.00 0.05 0.10 0.09 0.17 0.17 0.13 0.09 0.18 0.09 0.11 0.18 0.19 0.12 0.10 0.11 0.05 0.02 0.01 0.02 0.04 0.07 0.07 0.13 0.16 0.04 0.00 0.00 0.00 0.00 0.00 0.00 0.00 0.00 0.00 0.00 0.00 0.00 0.00
0.00 0.00 0.00 0.00 0.01 0.05 0.07 0.14 0.18 0.21 0.16 0.10 0.05 0.02 0.04 0.11 0.18 0.14 0.19 0.21 0.21 0.12 0.06 0.08 0.13 0.14 0.14 0.16 0.15 0.14 0.02 0.00 0.00 0.00 0.00 0.00 0.00 0.00 0.00 0.01 0.01 0.01 0.01
0.00 0.00 0.00 0.00 0.02 0.03 0.06 0.05 0.04 0.03 0.03 0.03 0.04 0.15 0.20 0.18 0.18 0.17 0.17 0.26 0.30 0.21 0.15 0.10 0.17 0.17 0.17 0.11 0.12 0.09 0.08 0.03 0.03 0.02 0.01 0.01 0.01 0.00 0.00 0.01 0.01 0.01 0.01
0.00 0.00 0.00 0.00 0.01 0.01 0.04 0.05 0.05 0.02 0.01 0.02 0.08 0.14 0.14 0.16 0.18 0.22 0.20 0.27 0.28 0.26 0.28 0.29 0.22 0.20 0.15 0.17 0.16 0.17 0.13 0.11 0.07 0.05 0.02 0.04 0.05 0.04 0.02 0.01 0.00 0.00 0.00
0.00 0.00 0.00 0.00 0.00 0.00 0.01 0.02 0.03 0.04 0.01 0.04 0.08 0.09 0.11 0.11 0.12 0.12 0.15 0.15 0.21 0.28 0.30 0.30 0.34 0.26 0.22 0.20 0.17 0.16 0.17 0.19 0.13 0.09 0.07 0.07 0.07 0.04 0.02 0.01 0.00 0.00 0.00

GFSSE_prec_precacc_057.txt.gz
Total_Precipitation_Accumulation
0.00 0.02 0.06 0.05 0.06 0.04 0.02 0.03 0.04 0.05 0.07 0.11 0.09 0.05 0.05 0.05 0.03 0.01 0.01 0.02 0.03 0.03 0.04 0.09 0.10 0.13 0.23 0.31 0.22 0.04 0.01 0.00 0.00 0.00 0.00 0.00 0.00 0.00 0.00 0.01 0.01 0.01 0.03
0.00 0.02 0.04 0.06 0.06 0.04 0.04 0.06 0.07 0.04 0.09 0.10 0.11 0.08 0.05 0.07 0.04 0.02 0.02 0.02 0.02 0.05 0.13 0.21 0.18 0.11 0.04 0.01 0.01 0.01 0.00 0.00 0.00 0.00 0.00 0.00 0.00 0.00 0.00 0.01 0.01 0.01 0.02
0.00 0.00 0.02 0.06 0.05 0.05 0.04 0.06 0.04 0.05 0.09 0.10 0.07 0.05 0.02 0.01 0.01 0.00 0.01 0.03 0.07 0.13 0.20 0.14 0.04 0.00 0.00 0.00 0.00 0.00 0.00 0.00 0.00 0.00 0.00 0.00 0.00 0.01 0.00 0.00 0.03 0.00 0.01
0.00 0.00 0.00 0.04 0.04 0.03 0.02 0.04 0.03 0.08 0.10 0.07 0.04 0.01 0.01 0.00 0.03 0.02 0.05 0.07 0.09 0.06 0.03 0.00 0.00 0.00 0.00 0.00 0.00 0.00 0.00 0.00 0.00 0.00 0.00 0.00 0.00 0.02 0.02 0.03 0.06 0.06 0.04
0.00 0.00 0.01 0.05 0.05 0.03 0.02 0.02 0.05 0.08 0.07 0.05 0.02 0.01 0.01 0.02 0.03 0.05 0.06 0.03 0.01 0.00 0.00 0.00 0.00 0.00 0.00 0.00 0.00 0.00 0.01 0.01 0.00 0.00 0.00 0.00 0.01 0.06 0.07 0.08 0.10 0.13 0.16
0.00 0.00 0.02 0.05 0.04 0.03 0.03 0.03 0.06 0.05 0.05 0.05 0.02 0.00 0.01 0.05 0.07 0.08 0.02 0.00 0.00 0.00 0.00 0.00 0.00 0.00 0.00 0.00 0.00 0.00 0.01 0.01 0.00 0.00 0.00 0.00 0.02 0.10 0.07 0.08 0.11 0.17 0.20
0.00 0.00 0.02 0.05 0.04 0.03 0.03 0.03 0.03 0.04 0.05 0.04 0.02 0.00 0.03 0.05 0.08 0.10 0.03 0.00 0.00 0.00 0.00 0.00 0.00 0.00 0.00 0.00 0.00 0.00 0.00 0.00 0.00 0.00 0.00 0.00 0.01 0.05 0.03 0.03 0.06 0.08 0.09
0.00 0.00 0.01 0.04 0.05 0.03 0.03 0.03 0.02 0.02 0.05 0.05 0.02 0.00 0.02 0.03 0.05 0.09 0.04 0.00 0.00 0.00 0.00 0.00 0.01 0.01 0.01 0.01 0.00 0.00 0.00 0.00 0.00 0.00 0.00 0.00 0.00 0.00 0.01 0.02 0.04 0.05 0.05
0.00 0.00 0.00 0.01 0.03 0.03 0.02 0.02 0.02 0.01 0.04 0.04 0.02 0.01 0.00 0.00 0.02 0.07 0.04 0.00 0.00 0.01 0.00 0.03 0.04 0.01 0.01 0.00 0.00 0.00 0.00 0.00 0.00 0.00 0.00 0.00 0.00 0.01 0.03 0.06 0.08 0.08 0.08
0.02 0.01 0.01 0.00 0.02 0.03 0.02 0.01 0.01 0.01 0.02 0.02 0.02 0.01 0.00 0.00 0.00 0.01 0.00 0.00 0.01 0.01 0.03 0.04 0.01 0.01 0.01 0.00 0.00 0.00 0.00 0.00 0.00 0.00 0.00 0.00 0.00 0.07 0.14 0.14 0.12 0.10 0.11
0.01 0.04 0.03 0.00 0.01 0.02 0.01 0.01 0.01 0.01 0.00 0.01 0.00 0.00 0.00 0.00 0.00 0.00 0.00 0.00 0.00 0.03 0.03 0.00 0.01 0.02 0.01 0.00 0.00 0.00 0.00 0.00 0.00 0.00 0.00 0.01 0.07 0.14 0.10 0.06 0.05 0.07 0.07
0.02 0.04 0.03 0.00 0.01 0.01 0.01 0.01 0.00 0.00 0.00 0.00 0.00 0.00 0.00 0.00 0.00 0.00 0.00 0.00 0.00 0.03 0.00 0.00 0.01 0.01 0.00 0.00 0.00 0.00 0.00 0.00 0.00 0.00 0.00 0.02 0.06 0.08 0.03 0.03 0.05 0.04 0.04
0.01 0.00 0.00 0.00 0.01 0.01 0.01 0.00 0.00 0.00 0.00 0.00 0.00 0.00 0.00 0.00 0.00 0.00 0.00 0.00 0.00 0.00 0.00 0.00 0.00 0.00 0.00 0.00 0.00 0.00 0.00 0.00 0.00 0.00 0.00 0.04 0.04 0.05 0.01 0.01 0.01 0.01 0.01
0.00 0.01 0.00 0.00 0.01 0.02 0.02 0.01 0.00 0.00 0.00 0.00 0.00 0.00 0.00 0.00 0.00 0.00 0.00 0.00 0.00 0.00 0.00 0.00 0.00 0.00 0.00 0.00 0.00 0.00 0.00 0.00 0.00 0.00 0.00 0.00 0.00 0.01 0.00 0.00 0.00 0.00 0.00
0.01 0.00 0.00 0.00 0.00 0.02 0.05 0.03 0.00 0.00 0.00 0.00 0.00 0.00 0.00 0.00 0.00 0.00 0.00 0.00 0.00 0.00 0.00 0.00 0.00 0.00 0.00 0.00 0.00 0.00 0.00 0.00 0.00 0.00 0.00 0.00 0.00 0.00 0.00 0.00 0.00 0.00 0.00
0.03 0.02 0.02 0.00 0.02 0.00 0.02 0.04 0.04 0.00 0.00 0.00 0.00 0.00 0.00 0.00 0.00 0.00 0.00 0.00 0.00 0.00 0.00 0.00 0.00 0.00 0.00 0.00 0.00 0.00 0.00 0.00 0.00 0.00 0.00 0.00 0.00 0.00 0.00 0.00 0.00 0.00 0.00
0.03 0.03 0.02 0.05 0.05 0.00 0.01 0.04 0.09 0.05 0.03 0.01 0.00 0.00 0.00 0.00 0.00 0.00 0.00 0.00 0.00 0.00 0.00 0.00 0.00 0.00 0.00 0.00 0.00 0.00 0.00 0.00 0.00 0.00 0.00 0.00 0.00 0.00 0.00 0.00 0.00 0.00 0.00
0.03 0.00 0.02 0.06 0.06 0.03 0.04 0.18 0.20 0.18 0.11 0.03 0.02 0.01 0.00 0.00 0.00 0.00 0.00 0.00 0.00 0.00 0.00 0.00 0.00 0.00 0.00 0.00 0.00 0.00 0.00 0.00 0.00 0.00 0.00 0.00 0.00 0.00 0.00 0.00 0.00 0.00 0.00
0.05 0.02 0.00 0.01 0.02 0.04 0.12 0.23 0.27 0.22 0.13 0.07 0.05 0.02 0.01 0.00 0.00 0.00 0.00 0.00 0.00 0.00 0.00 0.00 0.00 0.00 0.00 0.00 0.00 0.00 0.00 0.00 0.00 0.00 0.00 0.00 0.00 0.00 0.00 0.00 0.00 0.00 0.00
0.00 0.01 0.01 0.01 0.01 0.08 0.17 0.28 0.23 0.12 0.09 0.09 0.10 0.05 0.09 0.05 0.02 0.02 0.01 0.00 0.00 0.00 0.00 0.00 0.00 0.00 0.00 0.00 0.00 0.00 0.00 0.00 0.00 0.00 0.00 0.01 0.01 0.00 0.00 0.00 0.00 0.00 0.00
0.00 0.00 0.00 0.00 0.00 0.07 0.12 0.11 0.12 0.06 0.09 0.10 0.11 0.19 0.24 0.16 0.15 0.11 0.06 0.03 0.01 0.00 0.00 0.00 0.00 0.00 0.00 0.03 0.02 0.00 0.00 0.00 0.00 0.00 0.00 0.02 0.01 0.01 0.00 0.00 0.00 0.00 0.00
0.00 0.00 0.00 0.00 0.00 0.05 0.10 0.09 0.17 0.17 0.13 0.09 0.18 0.09 0.11 0.18 0.19 0.12 0.10 0.11 0.06 0.02 0.01 0.02 0.04 0.07 0.07 0.13 0.16 0.04 0.00 0.00 0.00 0.00 0.00 0.00 0.00 0.00 0.00 0.00 0.00 0.00 0.00
0.00 0.00 0.00 0.00 0.01 0.05 0.07 0.14 0.18 0.21 0.16 0.10 0.05 0.02 0.04 0.11 0.18 0.15 0.20 0.21 0.21 0.13 0.06 0.08 0.13 0.14 0.14 0.16 0.15 0.14 0.02 0.00 0.00 0.00 0.00 0.00 0.00 0.00 0.00 0.01 0.01 0.01 0.01
0.00 0.00 0.00 0.00 0.02 0.03 0.06 0.05 0.04 0.03 0.03 0.03 0.04 0.15 0.20 0.18 0.18 0.17 0.17 0.26 0.30 0.21 0.15 0.10 0.17 0.17 0.17 0.11 0.12 0.09 0.08 0.04 0.04 0.02 0.01 0.01 0.01 0.00 0.00 0.01 0.01 0.01 0.01
0.00 0.00 0.00 0.00 0.01 0.01 0.04 0.05 0.05 0.02 0.01 0.02 0.08 0.14 0.14 0.16 0.18 0.22 0.20 0.27 0.28 0.26 0.28 0.29 0.22 0.20 0.15 0.17 0.16 0.17 0.13 0.12 0.07 0.06 0.03 0.04 0.05 0.04 0.02 0.01 0.00 0.00 0.00
0.00 0.00 0.00 0.00 0.00 0.00 0.01 0.02 0.03 0.04 0.01 0.04 0.08 0.09 0.11 0.11 0.12 0.12 0.15 0.15 0.21 0.28 0.30 0.30 0.34 0.26 0.22 0.21 0.17 0.17 0.18 0.19 0.13 0.09 0.08 0.07 0.07 0.04 0.02 0.01 0.00 0.00 0.00

GFSSE_prec_precacc_060.txt.gz
Total_Precipitation_Accumulation
0.00 0.02 0.08 0.06 0.06 0.05 0.03 0.03 0.05 0.05 0.07 0.11 0.09 0.05 0.05 0.05 0.03 0.02 0.01 0.02 0.03 0.03 0.05 0.09 0.10 0.14 0.23 0.31 0.22 0.04 0.01 0.00 0.00 0.00 0.00 0.00 0.00 0.00 0.00 0.01 0.01 0.01 0.03
0.00 0.02 0.05 0.07 0.06 0.06 0.06 0.07 0.08 0.05 0.09 0.10 0.11 0.08 0.05 0.08 0.04 0.02 0.02 0.02 0.02 0.05 0.13 0.22 0.18 0.11 0.04 0.01 0.01 0.01 0.00 0.00 0.00 0.00 0.00 0.00 0.00 0.00 0.00 0.01 0.02 0.01 0.03
0.00 0.01 0.03 0.07 0.06 0.06 0.05 0.07 0.04 0.06 0.09 0.10 0.07 0.05 0.02 0.01 0.01 0.00 0.01 0.03 0.07 0.13 0.20 0.14 0.04 0.00 0.00 0.00 0.00 0.00 0.00 0.00 0.00 0.00 0.00 0.00 0.00 0.01 0.00 0.03 0.03 0.00 0.01
0.00 0.00 0.00 0.05 0.05 0.04 0.03 0.04 0.04 0.08 0.10 0.07 0.04 0.01 0.01 0.01 0.03 0.02 0.05 0.07 0.09 0.06 0.03 0.00 0.00 0.00 0.00 0.00 0.00 0.00 0.00 0.00 0.00 0.00 0.00 0.00 0.01 0.02 0.04 0.05 0.08 0.07 0.04
0.00 0.00 0.01 0.05 0.06 0.04 0.02 0.02 0.05 0.08 0.07 0.05 0.02 0.01 0.01 0.03 0.04 0.05 0.06 0.03 0.01 0.00 0.00 0.00 0.00 0.00 0.00 0.00 0.00 0.00 0.01 0.01 0.00 0.00 0.00 0.01 0.02 0.08 0.08 0.08 0.10 0.14 0.17
0.00 0.00 0.02 0.06 0.05 0.03 0.03 0.03 0.06 0.05 0.05 0.05 0.02 0.00 0.01 0.05 0.09 0.08 0.02 0.00 0.00 0.00 0.00 0.00 0.00 0.00 0.00 0.00 0.00 0.00 0.01 0.01 0.00 0.00 0.00 0.01 0.03 0.11 0.07 0.08 0.11 0.17 0.20
0.00 0.00 0.02 0.06 0.05 0.03 0.03 0.04 0.03 0.04 0.05 0.04 0.02 0.01 0.04 0.06 0.09 0.10 0.03 0.00 0.00 0.00 0.00 0.00 0.00 0.00 0.00 0.00 0.00 0.00 0.00 0.00 0.00 0.00 0.00 0.00 0.01 0.05 0.03 0.03 0.06 0.08 0.09
0.00 0.01 0.01 0.05 0.05 0.04 0.03 0.03 0.02 0.02 0.05 0.05 0.02 0.01 0.03 0.05 0.06 0.09 0.04 0.00 0.00 0.00 0.00 0.00 0.01 0.01 0.01 0.01 0.00 0.00 0.00 0.00 0.00 0.00 0.00 0.00 0.00 0.00 0.01 0.02 0.04 0.05 0.05
0.00 0.01 0.01 0.02 0.03 0.04 0.03 0.02 0.02 0.01 0.04 0.04 0.02 0.01 0.00 0.01 0.03 0.08 0.04 0.00 0.00 0.01 0.00 0.03 0.04 0.01 0.01 0.00 0.00 0.00 0.00 0.00 0.00 0.00 0.00 0.00 0.00 0.01 0.03 0.06 0.08 0.08 0.08
0.02 0.02 0.01 0.01 0.02 0.03 0.03 0.02 0.02 0.01 0.02 0.02 0.02 0.01 0.00 0.00 0.00 0.01 0.00 0.00 0.01 0.01 0.03 0.04 0.01 0.01 0.01 0.00 0.00 0.00 0.00 0.00 0.00 0.00 0.00 0.00 0.00 0.07 0.14 0.14 0.12 0.10 0.11
0.02 0.05 0.04 0.01 0.01 0.02 0.02 0.02 0.01 0.01 0.00 0.01 0.00 0.00 0.00 0.00 0.00 0.00 0.00 0.00 0.00 0.03 0.03 0.00 0.01 0.02 0.01 0.00 0.00 0.00 0.00 0.00 0.00 0.00 0.00 0.01 0.07 0.15 0.10 0.06 0.05 0.07 0.07
0.03 0.05 0.05 0.01 0.01 0.01 0.01 0.01 0.00 0.00 0.00 0.00 0.00 0.00 0.00 0.00 0.00 0.00 0.00 0.00 0.00 0.03 0.00 0.00 0.01 0.01 0.00 0.00 0.00 0.00 0.00 0.00 0.00 0.00 0.00 0.02 0.06 0.08 0.05 0.03 0.05 0.04 0.04
0.01 0.00 0.01 0.00 0.01 0.02 0.01 0.01 0.00 0.00 0.00 0.00 0.00 0.00 0.00 0.00 0.00 0.00 0.00 0.00 0.00 0.00 0.00 0.00 0.00 0.00 0.00 0.00 0.00 0.00 0.00 0.00 0.00 0.00 0.00 0.04 0.04 0.05 0.01 0.01 0.01 0.01 0.01
0.00 0.01 0.00 0.00 0.01 0.02 0.02 0.01 0.00 0.00 0.00 0.00 0.00 0.00 0.00 0.00 0.00 0.00 0.00 0.00 0.00 0.00 0.00 0.00 0.00 0.00 0.00 0.00 0.00 0.00 0.00 0.00 0.00 0.00 0.00 0.00 0.00 0.01 0.00 0.00 0.00 0.00 0.00
0.01 0.00 0.00 0.00 0.00 0.02 0.05 0.03 0.00 0.00 0.00 0.00 0.00 0.00 0.00 0.00 0.00 0.00 0.00 0.00 0.00 0.00 0.00 0.00 0.00 0.00 0.00 0.00 0.00 0.00 0.00 0.00 0.00 0.00 0.00 0.00 0.00 0.00 0.00 0.00 0.00 0.00 0.00
0.09 0.03 0.02 0.00 0.02 0.00 0.02 0.04 0.04 0.00 0.00 0.00 0.00 0.00 0.00 0.00 0.00 0.00 0.00 0.00 0.00 0.00 0.00 0.00 0.00 0.00 0.00 0.00 0.00 0.00 0.00 0.00 0.00 0.00 0.00 0.00 0.00 0.00 0.00 0.00 0.00 0.00 0.00
0.10 0.09 0.02 0.05 0.05 0.00 0.01 0.04 0.09 0.05 0.03 0.01 0.00 0.00 0.00 0.00 0.00 0.00 0.00 0.00 0.00 0.00 0.00 0.00 0.00 0.00 0.00 0.00 0.00 0.00 0.00 0.00 0.00 0.00 0.00 0.00 0.00 0.00 0.00 0.00 0.00 0.00 0.00
0.04 0.03 0.05 0.06 0.06 0.03 0.04 0.18 0.20 0.18 0.11 0.03 0.02 0.01 0.00 0.00 0.00 0.00 0.00 0.00 0.00 0.00 0.00 0.00 0.00 0.00 0.00 0.00 0.00 0.00 0.00 0.00 0.00 0.00 0.00 0.00 0.00 0.00 0.00 0.00 0.00 0.00 0.00
0.05 0.04 0.05 0.06 0.05 0.05 0.12 0.23 0.27 0.22 0.13 0.07 0.05 0.02 0.01 0.00 0.00 0.00 0.00 0.00 0.00 0.00 0.00 0.00 0.00 0.00 0.00 0.00 0.00 0.00 0.00 0.00 0.00 0.00 0.00 0.00 0.00 0.00 0.00 0.00 0.00 0.00 0.00
0.00 0.02 0.04 0.05 0.06 0.13 0.21 0.29 0.23 0.12 0.09 0.09 0.10 0.05 0.09 0.05 0.02 0.02 0.01 0.00 0.00 0.00 0.00 0.00 0.00 0.00 0.00 0.00 0.00 0.00 0.00 0.00 0.00 0.00 0.00 0.01 0.01 0.01 0.00 0.00 0.00 0.00 0.00
0.00 0.00 0.00 0.01 0.02 0.08 0.14 0.12 0.13 0.06 0.09 0.10 0.11 0.19 0.24 0.16 0.15 0.11 0.06 0.03 0.01 0.00 0.01 0.00 0.00 0.00 0.00 0.03 0.02 0.00 0.00 0.00 0.00 0.00 0.00 0.02 0.01 0.01 0.00 0.00 0.00 0.00 0.00
0.00 0.00 0.00 0.00 0.00 0.05 0.10 0.09 0.17 0.17 0.13 0.09 0.18 0.09 0.11 0.18 0.19 0.12 0.10 0.11 0.06 0.02 0.02 0.02 0.05 0.07 0.07 0.13 0.16 0.04 0.00 0.00 0.00 0.00 0.00 0.00 0.00 0.00 0.00 0.00 0.00 0.00 0.00
0.00 0.00 0.00 0.00 0.01 0.05 0.07 0.14 0.18 0.21 0.16 0.10 0.05 0.02 0.04 0.11 0.18 0.15 0.20 0.21 0.21 0.13 0.06 0.08 0.14 0.15 0.15 0.16 0.15 0.14 0.02 0.00 0.00 0.00 0.00 0.00 0.00 0.00 0.00 0.01 0.01 0.01 0.01
0.00 0.00 0.00 0.00 0.02 0.03 0.06 0.05 0.04 0.03 0.03 0.03 0.04 0.15 0.20 0.18 0.18 0.17 0.17 0.26 0.30 0.22 0.15 0.10 0.17 0.17 0.18 0.12 0.12 0.09 0.08 0.04 0.04 0.03 0.01 0.01 0.01 0.00 0.00 0.01 0.01 0.01 0.01
0.00 0.00 0.00 0.00 0.01 0.01 0.04 0.05 0.05 0.02 0.01 0.02 0.08 0.14 0.14 0.16 0.18 0.22 0.20 0.27 0.28 0.26 0.28 0.29 0.22 0.20 0.15 0.18 0.17 0.18 0.14 0.12 0.07 0.06 0.03 0.05 0.05 0.04 0.02 0.01 0.00 0.00 0.00
0.00 0.00 0.00 0.00 0.00 0.00 0.01 0.02 0.03 0.04 0.01 0.04 0.08 0.09 0.11 0.11 0.12 0.12 0.15 0.15 0.21 0.28 0.30 0.30 0.34 0.26 0.22 0.21 0.18 0.18 0.18 0.20 0.14 0.09 0.08 0.07 0.07 0.04 0.02 0.01 0.00 0.00 0.00

GFSSE_prec_precacc_063.txt.gz
Total_Precipitation_Accumulation
0.00 0.02 0.08 0.06 0.06 0.05 0.04 0.05 0.07 0.07 0.08 0.11 0.09 0.05 0.05 0.06 0.05 0.02 0.01 0.02 0.03 0.03 0.05 0.11 0.11 0.14 0.23 0.31 0.22 0.04 0.01 0.00 0.00 0.00 0.00 0.00 0.00 0.00 0.00 0.01 0.02 0.01 0.03
0.00 0.02 0.06 0.07 0.06 0.06 0.06 0.08 0.09 0.06 0.10 0.10 0.11 0.08 0.09 0.10 0.04 0.02 0.02 0.02 0.02 0.05 0.13 0.22 0.18 0.11 0.04 0.01 0.01 0.01 0.00 0.00 0.00 0.00 0.00 0.00 0.00 0.00 0.01 0.01 0.02 0.01 0.04
0.00 0.01 0.03 0.07 0.06 0.06 0.06 0.08 0.05 0.06 0.10 0.10 0.07 0.05 0.04 0.01 0.01 0.00 0.01 0.03 0.07 0.13 0.21 0.15 0.04 0.00 0.00 0.00 0.00 0.00 0.00 0.00 0.00 0.00 0.00 0.00 0.00 0.02 0.03 0.04 0.03 0.00 0.02
0.00 0.00 0.01 0.05 0.05 0.05 0.04 0.04 0.04 0.08 0.10 0.07 0.04 0.01 0.03 0.02 0.03 0.02 0.05 0.07 0.09 0.06 0.03 0.01 0.00 0.00 0.00 0.00 0.00 0.00 0.00 0.00 0.00 0.00 0.00 0.00 0.01 0.04 0.05 0.06 0.09 0.08 0.05
0.00 0.00 0.01 0.06 0.06 0.04 0.02 0.02 0.05 0.08 0.07 0.05 0.02 0.01 0.01 0.04 0.05 0.05 0.06 0.03 0.01 0.00 0.00 0.00 0.00 0.00 0.00 0.00 0.00 0.00 0.01 0.01 0.00 0.00 0.00 0.01 0.03 0.09 0.08 0.08 0.11 0.15 0.19
0.00 0.00 0.02 0.06 0.06 0.03 0.03 0.03 0.06 0.05 0.05 0.05 0.02 0.00 0.02 0.08 0.09 0.08 0.02 0.00 0.00 0.00 0.00 0.00 0.00 0.00 0.00 0.00 0.00 0.00 0.01 0.01 0.00 0.00 0.00 0.01 0.03 0.11 0.07 0.08 0.11 0.17 0.20
0.00 0.00 0.02 0.07 0.07 0.04 0.03 0.04 0.03 0.04 0.05 0.04 0.02 0.01 0.04 0.08 0.09 0.10 0.03 0.00 0.00 0.00 0.00 0.00 0.00 0.00 0.00 0.00 0.00 0.00 0.00 0.00 0.00 0.00 0.00 0.00 0.01 0.05 0.03 0.03 0.06 0.08 0.09
0.00 0.01 0.01 0.05 0.07 0.04 0.04 0.03 0.02 0.02 0.05 0.05 0.02 0.03 0.05 0.07 0.07 0.09 0.04 0.00 0.00 0.00 0.00 0.00 0.01 0.01 0.01 0.01 0.00 0.00 0.00 0.00 0.00 0.00 0.00 0.00 0.00 0.00 0.01 0.02 0.04 0.05 0.05
0.00 0.01 0.01 0.02 0.04 0.04 0.04 0.02 0.02 0.01 0.04 0.04 0.03 0.02 0.02 0.02 0.03 0.08 0.04 0.00 0.00 0.01 0.00 0.03 0.04 0.01 0.01 0.00 0.00 0.00 0.00 0.00 0.00 0.00 0.00 0.00 0.00 0.01 0.03 0.06 0.08 0.08 0.08
0.02 0.03 0.02 0.02 0.02 0.03 0.03 0.02 0.02 0.01 0.02 0.02 0.02 0.01 0.00 0.00 0.00 0.01 0.00 0.00 0.01 0.01 0.03 0.04 0.01 0.01 0.01 0.00 0.00 0.00 0.00 0.00 0.00 0.00 0.00 0.00 0.00 0.07 0.14 0.14 0.12 0.10 0.11
0.02 0.06 0.05 0.02 0.01 0.02 0.03 0.02 0.01 0.01 0.00 0.01 0.00 0.00 0.00 0.00 0.00 0.00 0.00 0.00 0.00 0.03 0.03 0.00 0.01 0.02 0.01 0.00 0.00 0.00 0.00 0.00 0.00 0.00 0.00 0.01 0.07 0.15 0.10 0.06 0.05 0.07 0.07
0.04 0.06 0.05 0.02 0.02 0.02 0.02 0.02 0.00 0.00 0.00 0.00 0.00 0.00 0.00 0.00 0.00 0.00 0.00 0.00 0.00 0.03 0.00 0.00 0.01 0.01 0.00 0.00 0.00 0.00 0.00 0.00 0.00 0.00 0.00 0.02 0.06 0.08 0.05 0.03 0.05 0.04 0.04
0.02 0.01 0.01 0.01 0.02 0.02 0.02 0.02 0.00 0.00 0.00 0.00 0.00 0.00 0.00 0.00 0.00 0.00 0.00 0.00 0.00 0.00 0.00 0.00 0.00 0.00 0.00 0.00 0.00 0.00 0.00 0.00 0.00 0.00 0.00 0.04 0.04 0.05 0.01 0.01 0.01 0.01 0.01
0.01 0.01 0.00 0.00 0.01 0.02 0.03 0.02 0.00 0.00 0.00 0.00 0.00 0.00 0.00 0.00 0.00 0.00 0.00 0.00 0.00 0.00 0.00 0.00 0.00 0.00 0.00 0.00 0.00 0.00 0.00 0.00 0.00 0.00 0.00 0.00 0.00 0.01 0.00 0.00 0.00 0.00 0.00
0.02 0.01 0.00 0.00 0.00 0.02 0.05 0.03 0.00 0.00 0.00 0.00 0.00 0.00 0.00 0.00 0.00 0.00 0.00 0.00 0.00 0.00 0.00 0.00 0.00 0.00 0.00 0.00 0.00 0.00 0.00 0.00 0.00 0.00 0.00 0.00 0.00 0.00 0.00 0.01 0.00 0.00 0.00
0.09 0.04 0.03 0.01 0.02 0.00 0.02 0.04 0.04 0.00 0.00 0.00 0.00 0.00 0.00 0.00 0.00 0.00 0.00 0.00 0.00 0.00 0.00 0.00 0.00 0.00 0.00 0.00 0.00 0.00 0.00 0.00 0.00 0.00 0.00 0.00 0.00 0.00 0.00 0.00 0.00 0.00 0.00
0.10 0.10 0.04 0.05 0.05 0.00 0.01 0.04 0.09 0.05 0.03 0.01 0.00 0.00 0.00 0.00 0.00 0.00 0.00 0.00 0.00 0.00 0.00 0.00 0.00 0.00 0.00 0.00 0.00 0.00 0.00 0.00 0.00 0.00 0.00 0.00 0.00 0.00 0.00 0.00 0.00 0.00 0.00
0.04 0.03 0.06 0.06 0.06 0.03 0.04 0.18 0.20 0.18 0.11 0.03 0.02 0.01 0.00 0.00 0.00 0.00 0.00 0.00 0.00 0.00 0.00 0.00 0.00 0.00 0.00 0.00 0.00 0.00 0.00 0.00 0.00 0.00 0.00 0.00 0.00 0.00 0.00 0.00 0.00 0.00 0.00
0.05 0.04 0.05 0.06 0.05 0.05 0.12 0.23 0.27 0.22 0.13 0.07 0.05 0.02 0.01 0.00 0.00 0.00 0.00 0.00 0.00 0.00 0.00 0.00 0.00 0.00 0.00 0.00 0.00 0.00 0.00 0.00 0.00 0.00 0.00 0.00 0.00 0.00 0.00 0.00 0.00 0.00 0.01
0.00 0.02 0.04 0.05 0.06 0.13 0.21 0.29 0.23 0.12 0.09 0.09 0.10 0.05 0.09 0.05 0.02 0.02 0.01 0.00 0.00 0.00 0.00 0.00 0.00 0.00 0.00 0.00 0.00 0.00 0.00 0.00 0.00 0.00 0.00 0.01 0.01 0.01 0.00 0.00 0.00 0.00 0.00
0.00 0.00 0.00 0.01 0.02 0.08 0.14 0.12 0.13 0.06 0.09 0.10 0.11 0.19 0.24 0.16 0.15 0.11 0.06 0.03 0.01 0.00 0.01 0.01 0.01 0.01 0.01 0.05 0.03 0.00 0.00 0.00 0.00 0.00 0.00 0.02 0.01 0.01 0.00 0.00 0.00 0.00 0.00
0.00 0.00 0.00 0.00 0.00 0.05 0.10 0.09 0.17 0.17 0.13 0.09 0.18 0.09 0.11 0.18 0.19 0.12 0.10 0.11 0.06 0.02 0.02 0.02 0.05 0.07 0.07 0.13 0.16 0.05 0.00 0.00 0.00 0.00 0.00 0.00 0.00 0.00 0.00 0.00 0.00 0.00 0.00
0.00 0.00 0.00 0.00 0.01 0.05 0.07 0.14 0.18 0.21 0.16 0.10 0.05 0.02 0.04 0.11 0.18 0.15 0.20 0.21 0.21 0.13 0.07 0.09 0.15 0.17 0.16 0.17 0.16 0.16 0.04 0.00 0.00 0.00 0.00 0.00 0.00 0.00 0.00 0.01 0.01 0.01 0.01
0.00 0.00 0.00 0.00 0.02 0.03 0.06 0.05 0.04 0.03 0.03 0.03 0.04 0.15 0.20 0.18 0.18 0.17 0.17 0.26 0.30 0.22 0.16 0.11 0.18 0.18 0.19 0.13 0.12 0.09 0.09 0.04 0.04 0.03 0.01 0.01 0.01 0.00 0.00 0.01 0.01 0.01 0.01
0.00 0.00 0.00 0.00 0.01 0.01 0.04 0.05 0.05 0.02 0.01 0.02 0.08 0.14 0.14 0.16 0.18 0.22 0.20 0.27 0.28 0.26 0.28 0.29 0.22 0.20 0.16 0.18 0.17 0.18 0.14 0.12 0.08 0.07 0.04 0.05 0.05 0.04 0.02 0.01 0.00 0.00 0.00
0.00 0.00 0.00 0.00 0.00 0.00 0.01 0.02 0.03 0.04 0.01 0.04 0.08 0.09 0.11 0.11 0.12 0.12 0.15 0.15 0.21 0.28 0.30 0.30 0.34 0.26 0.22 0.21 0.18 0.19 0.19 0.20 0.14 0.09 0.08 0.08 0.07 0.05 0.02 0.01 0.00 0.00 0.00

GFSSE_prec_precacc_066.txt.gz
Total_Precipitation_Accumulation
0.00 0.02 0.08 0.06 0.07 0.05 0.04 0.05 0.08 0.07 0.08 0.11 0.09 0.05 0.06 0.07 0.05 0.02 0.01 0.02 0.03 0.05 0.08 0.11 0.11 0.14 0.23 0.31 0.22 0.04 0.01 0.00 0.00 0.00 0.00 0.00 0.00 0.00 0.00 0.02 0.02 0.01 0.03
0.00 0.02 0.06 0.07 0.06 0.06 0.07 0.08 0.10 0.06 0.10 0.10 0.11 0.11 0.11 0.10 0.04 0.02 0.02 0.02 0.02 0.06 0.14 0.22 0.18 0.11 0.04 0.01 0.01 0.01 0.00 0.00 0.00 0.00 0.00 0.00 0.00 0.02 0.01 0.01 0.03 0.03 0.05
0.00 0.01 0.03 0.07 0.06 0.07 0.07 0.08 0.05 0.06 0.10 0.10 0.08 0.08 0.04 0.01 0.01 0.00 0.01 0.03 0.07 0.14 0.22 0.16 0.05 0.01 0.00 0.00 0.00 0.00 0.00 0.00 0.00 0.00 0.00 0.00 0.00 0.04 0.03 0.04 0.04 0.01 0.03
0.00 0.00 0.01 0.05 0.05 0.05 0.04 0.04 0.04 0.08 0.10 0.07 0.04 0.03 0.03 0.02 0.03 0.02 0.05 0.07 0.09 0.06 0.03 0.01 0.00 0.00 0.00 0.00 0.00 0.00 0.00 0.00 0.00 0.00 0.00 0.00 0.01 0.04 0.06 0.06 0.10 0.10 0.07
0.00 0.00 0.01 0.07 0.06 0.05 0.02 0.02 0.05 0.08 0.07 0.05 0.02 0.02 0.02 0.04 0.05 0.05 0.06 0.03 0.01 0.00 0.00 0.00 0.00 0.00 0.00 0.00 0.00 0.00 0.01 0.01 0.00 0.00 0.00 0.01 0.03 0.09 0.08 0.09 0.11 0.15 0.19
0.00 0.00 0.02 0.07 0.07 0.04 0.03 0.04 0.06 0.05 0.05 0.05 0.02 0.01 0.03 0.08 0.09 0.08 0.02 0.00 0.00 0.00 0.00 0.00 0.00 0.00 0.00 0.00 0.00 0.00 0.01 0.01 0.00 0.00 0.00 0.01 0.03 0.11 0.07 0.08 0.11 0.17 0.20
0.00 0.00 0.02 0.07 0.08 0.04 0.04 0.04 0.03 0.04 0.05 0.04 0.02 0.01 0.06 0.09 0.09 0.10 0.03 0.00 0.00 0.00 0.00 0.00 0.00 0.00 0.00 0.00 0.00 0.00 0.00 0.00 0.00 0.00 0.00 0.00 0.01 0.05 0.03 0.03 0.06 0.08 0.09
0.00 0.01 0.01 0.06 0.08 0.04 0.04 0.03 0.02 0.02 0.05 0.05 0.02 0.03 0.06 0.08 0.07 0.09 0.04 0.00 0.00 0.00 0.00 0.00 0.01 0.01 0.01 0.01 0.00 0.00 0.00 0.00 0.00 0.00 0.00 0.00 0.00 0.00 0.01 0.02 0.04 0.05 0.05
0.01 0.01 0.01 0.03 0.04 0.04 0.04 0.02 0.02 0.01 0.04 0.04 0.03 0.03 0.04 0.02 0.03 0.08 0.04 0.00 0.00 0.01 0.00 0.03 0.04 0.01 0.01 0.00 0.00 0.00 0.00 0.00 0.00 0.00 0.00 0.00 0.00 0.01 0.03 0.06 0.08 0.08 0.08
0.03 0.03 0.02 0.02 0.02 0.03 0.04 0.02 0.02 0.01 0.02 0.02 0.02 0.01 0.00 0.00 0.00 0.01 0.00 0.00 0.01 0.01 0.03 0.04 0.01 0.01 0.01 0.00 0.00 0.00 0.00 0.00 0.00 0.00 0.00 0.00 0.00 0.07 0.14 0.14 0.12 0.10 0.11
0.03 0.06 0.05 0.02 0.02 0.02 0.03 0.02 0.01 0.01 0.00 0.01 0.00 0.00 0.00 0.00 0.00 0.00 0.00 0.00 0.00 0.03 0.03 0.00 0.01 0.02 0.01 0.00 0.00 0.00 0.00 0.00 0.00 0.00 0.00 0.01 0.07 0.15 0.10 0.06 0.05 0.07 0.07
0.05 0.07 0.06 0.03 0.02 0.02 0.02 0.02 0.00 0.00 0.00 0.00 0.00 0.00 0.00 0.00 0.00 0.00 0.00 0.00 0.00 0.03 0.00 0.00 0.01 0.01 0.00 0.00 0.00 0.00 0.00 0.00 0.00 0.00 0.00 0.02 0.06 0.08 0.05 0.03 0.05 0.04 0.04
0.03 0.02 0.02 0.01 0.02 0.03 0.02 0.02 0.01 0.00 0.00 0.00 0.00 0.00 0.00 0.00 0.00 0.00 0.00 0.00 0.00 0.00 0.00 0.00 0.00 0.00 0.00 0.00 0.00 0.00 0.00 0.00 0.00 0.00 0.00 0.04 0.04 0.05 0.01 0.01 0.01 0.01 0.01
0.02 0.02 0.01 0.01 0.01 0.02 0.03 0.02 0.00 0.00 0.00 0.00 0.00 0.00 0.00 0.00 0.00 0.00 0.00 0.00 0.00 0.00 0.00 0.00 0.00 0.00 0.00 0.00 0.00 0.00 0.00 0.00 0.00 0.00 0.00 0.00 0.00 0.01 0.00 0.00 0.00 0.00 0.00
0.04 0.03 0.01 0.01 0.01 0.03 0.05 0.04 0.00 0.00 0.00 0.00 0.00 0.00 0.00 0.00 0.00 0.00 0.00 0.00 0.00 0.00 0.00 0.00 0.00 0.00 0.00 0.00 0.00 0.00 0.00 0.00 0.00 0.00 0.00 0.00 0.00 0.00 0.00 0.01 0.01 0.00 0.00
0.13 0.08 0.06 0.02 0.03 0.01 0.02 0.05 0.04 0.00 0.00 0.00 0.00 0.00 0.00 0.00 0.00 0.00 0.00 0.00 0.00 0.00 0.00 0.00 0.00 0.00 0.00 0.00 0.00 0.00 0.00 0.00 0.00 0.00 0.00 0.00 0.00 0.00 0.00 0.00 0.00 0.01 0.00
0.10 0.15 0.08 0.07 0.07 0.01 0.01 0.04 0.09 0.05 0.03 0.01 0.00 0.00 0.00 0.00 0.00 0.00 0.00 0.00 0.00 0.00 0.00 0.00 0.00 0.00 0.00 0.00 0.00 0.00 0.00 0.00 0.00 0.00 0.00 0.00 0.00 0.00 0.00 0.00 0.00 0.00 0.00
0.04 0.05 0.09 0.08 0.09 0.05 0.04 0.18 0.20 0.18 0.11 0.03 0.02 0.01 0.00 0.00 0.00 0.00 0.00 0.00 0.00 0.00 0.00 0.00 0.00 0.00 0.00 0.00 0.00 0.00 0.00 0.00 0.00 0.00 0.00 0.00 0.00 0.00 0.00 0.00 0.00 0.00 0.00
0.05 0.04 0.07 0.06 0.06 0.05 0.13 0.23 0.28 0.23 0.13 0.07 0.05 0.02 0.01 0.00 0.00 0.00 0.00 0.00 0.00 0.00 0.00 0.00 0.00 0.00 0.00 0.00 0.00 0.00 0.00 0.00 0.00 0.00 0.00 0.00 0.00 0.00 0.00 0.00 0.00 0.00 0.01
0.00 0.02 0.04 0.06 0.06 0.13 0.21 0.29 0.23 0.12 0.09 0.09 0.10 0.05 0.09 0.05 0.02 0.02 0.01 0.00 0.00 0.00 0.00 0.00 0.00 0.00 0.00 0.01 0.01 0.00 0.00 0.00 0.00 0.00 0.00 0.01 0.01 0.01 0.00 0.00 0.00 0.00 0.00
0.00 0.00 0.00 0.01 0.02 0.08 0.14 0.12 0.13 0.06 0.09 0.10 0.11 0.19 0.24 0.16 0.15 0.11 0.06 0.03 0.01 0.00 0.01 0.01 0.01 0.01 0.01 0.05 0.04 0.00 0.00 0.00 0.00 0.00 0.00 0.02 0.01 0.01 0.00 0.00 0.00 0.00 0.00
0.00 0.02 0.00 0.00 0.00 0.05 0.10 0.09 0.17 0.17 0.13 0.10 0.19 0.09 0.11 0.18 0.19 0.12 0.10 0.11 0.06 0.03 0.02 0.02 0.06 0.08 0.07 0.14 0.18 0.07 0.01 0.00 0.00 0.00 0.00 0.00 0.00 0.00 0.00 0.00 0.00 0.00 0.00
0.00 0.00 0.02 0.01 0.01 0.06 0.07 0.14 0.18 0.22 0.16 0.10 0.06 0.02 0.04 0.11 0.18 0.15 0.20 0.21 0.21 0.14 0.07 0.09 0.15 0.17 0.17 0.18 0.16 0.17 0.05 0.01 0.00 0.00 0.00 0.00 0.00 0.00 0.00 0.01 0.01 0.01 0.01
0.00 0.00 0.00 0.01 0.05 0.06 0.07 0.05 0.04 0.04 0.03 0.03 0.07 0.16 0.20 0.18 0.18 0.17 0.17 0.26 0.30 0.22 0.16 0.11 0.18 0.18 0.20 0.14 0.12 0.11 0.10 0.06 0.05 0.03 0.01 0.01 0.01 0.00 0.00 0.01 0.01 0.01 0.01
0.00 0.00 0.00 0.00 0.02 0.02 0.06 0.06 0.05 0.02 0.01 0.02 0.08 0.14 0.14 0.16 0.18 0.22 0.20 0.27 0.28 0.26 0.28 0.29 0.22 0.20 0.16 0.18 0.17 0.19 0.14 0.13 0.09 0.08 0.04 0.05 0.05 0.04 0.02 0.01 0.00 0.00 0.00
0.00 0.00 0.00 0.00 0.00 0.00 0.01 0.02 0.03 0.04 0.01 0.04 0.08 0.09 0.11 0.11 0.12 0.12 0.15 0.15 0.21 0.28 0.30 0.30 0.34 0.26 0.22 0.21 0.18 0.19 0.19 0.21 0.14 0.10 0.09 0.08 0.08 0.05 0.02 0.01 0.00 0.00 0.00

GFSSE_prec_precacc_069.txt.gz
Total_Precipitation_Accumulation
0.00 0.02 0.08 0.06 0.07 0.05 0.04 0.05 0.08 0.07 0.08 0.11 0.10 0.08 0.07 0.07 0.05 0.02 0.01 0.04 0.07 0.07 0.08 0.11 0.11 0.14 0.23 0.31 0.22 0.04 0.01 0.00 0.00 0.00 0.00 0.00 0.01 0.00 0.01 0.02 0.03 0.01 0.03
0.00 0.02 0.06 0.07 0.06 0.06 0.07 0.09 0.11 0.06 0.10 0.10 0.13 0.12 0.11 0.10 0.04 0.02 0.02 0.02 0.04 0.06 0.14 0.23 0.18 0.11 0.04 0.01 0.01 0.01 0.00 0.00 0.00 0.00 0.00 0.00 0.01 0.02 0.01 0.01 0.03 0.04 0.06
0.00 0.01 0.03 0.07 0.06 0.07 0.07 0.08 0.05 0.06 0.10 0.12 0.09 0.08 0.04 0.01 0.01 0.00 0.01 0.03 0.07 0.14 0.22 0.16 0.05 0.01 0.00 0.00 0.00 0.00 0.00 0.00 0.00 0.00 0.00 0.00 0.01 0.05 0.04 0.05 0.06 0.02 0.05
0.00 0.00 0.01 0.05 0.05 0.05 0.04 0.04 0.04 0.08 0.10 0.07 0.04 0.03 0.03 0.02 0.03 0.02 0.05 0.07 0.09 0.07 0.04 0.01 0.00 0.00 0.00 0.00 0.00 0.00 0.00 0.00 0.00 0.00 0.00 0.00 0.01 0.05 0.06 0.07 0.10 0.11 0.07
0.00 0.00 0.01 0.07 0.07 0.06 0.02 0.02 0.05 0.08 0.07 0.06 0.03 0.02 0.02 0.04 0.05 0.05 0.06 0.03 0.01 0.00 0.00 0.00 0.00 0.00 0.00 0.00 0.00 0.00 0.01 0.01 0.00 0.00 0.00 0.01 0.03 0.09 0.08 0.09 0.11 0.15 0.19
0.00 0.00 0.02 0.08 0.08 0.05 0.03 0.04 0.06 0.05 0.05 0.05 0.03 0.02 0.03 0.08 0.09 0.08 0.02 0.00 0.00 0.00 0.00 0.00 0.00 0.00 0.00 0.00 0.00 0.00 0.01 0.01 0.00 0.00 0.00 0.01 0.03 0.11 0.07 0.08 0.11 0.17 0.20
0.00 0.00 0.02 0.07 0.09 0.04 0.05 0.04 0.03 0.04 0.05 0.04 0.02 0.02 0.06 0.09 0.09 0.10 0.03 0.00 0.00 0.00 0.00 0.00 0.00 0.00 0.00 0.00 0.00 0.00 0.00 0.00 0.00 0.00 0.00 0.00 0.01 0.05 0.03 0.03 0.06 0.08 0.09
0.00 0.01 0.01 0.06 0.09 0.05 0.05 0.03 0.02 0.02 0.05 0.05 0.02 0.04 0.07 0.08 0.07 0.09 0.04 0.00 0.00 0.00 0.00 0.00 0.01 0.01 0.01 0.01 0.00 0.00 0.00 0.00 0.00 0.00 0.00 0.00 0.00 0.00 0.01 0.02 0.04 0.05 0.05
0.01 0.01 0.01 0.03 0.04 0.04 0.04 0.02 0.02 0.01 0.04 0.04 0.03 0.04 0.04 0.02 0.03 0.08 0.04 0.00 0.00 0.01 0.00 0.03 0.04 0.01 0.01 0.00 0.00 0.00 0.00 0.00 0.00 0.00 0.00 0.00 0.00 0.01 0.03 0.06 0.08 0.08 0.08
0.05 0.03 0.02 0.02 0.02 0.03 0.04 0.02 0.02 0.01 0.02 0.02 0.02 0.01 0.00 0.00 0.00 0.01 0.00 0.00 0.01 0.01 0.03 0.04 0.01 0.01 0.01 0.00 0.00 0.00 0.00 0.00 0.00 0.00 0.00 0.00 0.00 0.07 0.14 0.14 0.12 0.10 0.11
0.07 0.06 0.05 0.02 0.02 0.02 0.03 0.02 0.01 0.01 0.00 0.01 0.00 0.00 0.00 0.00 0.00 0.00 0.00 0.00 0.00 0.03 0.03 0.00 0.01 0.02 0.01 0.00 0.00 0.00 0.00 0.00 0.00 0.00 0.00 0.01 0.07 0.15 0.10 0.06 0.05 0.07 0.07
0.08 0.08 0.07 0.04 0.02 0.03 0.02 0.02 0.00 0.00 0.00 0.00 0.00 0.00 0.00 0.00 0.00 0.00 0.00 0.00 0.00 0.03 0.00 0.00 0.01 0.01 0.00 0.00 0.00 0.00 0.00 0.00 0.00 0.00 0.00 0.02 0.06 0.08 0.05 0.03 0.05 0.04 0.04
0.05 0.03 0.03 0.03 0.02 0.04 0.02 0.02 0.01 0.00 0.00 0.00 0.00 0.00 0.00 0.00 0.00 0.00 0.00 0.00 0.00 0.00 0.00 0.00 0.00 0.00 0.00 0.00 0.00 0.00 0.00 0.00 0.00 0.00 0.00 0.04 0.04 0.05 0.01 0.01 0.01 0.01 0.01
0.04 0.03 0.02 0.02 0.02 0.03 0.04 0.02 0.00 0.00 0.00 0.00 0.00 0.00 0.00 0.00 0.00 0.00 0.00 0.00 0.00 0.00 0.00 0.00 0.00 0.00 0.00 0.00 0.00 0.00 0.00 0.00 0.00 0.00 0.00 0.00 0.00 0.01 0.00 0.00 0.00 0.00 0.00
0.14 0.20 0.05 0.02 0.02 0.04 0.06 0.04 0.00 0.00 0.00 0.00 0.00 0.00 0.00 0.00 0.00 0.00 0.00 0.00 0.00 0.00 0.00 0.00 0.00 0.00 0.00 0.00 0.00 0.00 0.00 0.00 0.00 0.00 0.00 0.00 0.00 0.00 0.00 0.01 0.01 0.00 0.00
0.17 0.14 0.16 0.04 0.04 0.02 0.03 0.05 0.04 0.00 0.00 0.00 0.00 0.00 0.00 0.00 0.00 0.00 0.00 0.00 0.00 0.00 0.00 0.00 0.00 0.00 0.00 0.00 0.00 0.00 0.00 0.00 0.00 0.00 0.00 0.00 0.00 0.00 0.00 0.00 0.00 0.01 0.01
0.14 0.18 0.10 0.09 0.08 0.02 0.02 0.04 0.09 0.05 0.03 0.01 0.00 0.00 0.00 0.00 0.00 0.00 0.00 0.00 0.00 0.00 0.00 0.00 0.00 0.00 0.00 0.00 0.00 0.00 0.00 0.00 0.00 0.00 0.00 0.00 0.00 0.00 0.00 0.00 0.00 0.00 0.00
0.08 0.06 0.10 0.09 0.12 0.07 0.05 0.18 0.20 0.18 0.11 0.03 0.02 0.01 0.00 0.00 0.00 0.00 0.00 0.00 0.00 0.00 0.00 0.00 0.00 0.00 0.00 0.00 0.00 0.00 0.00 0.00 0.00 0.00 0.00 0.00 0.00 0.00 0.00 0.00 0.00 0.00 0.00
0.08 0.06 0.08 0.08 0.08 0.08 0.13 0.24 0.28 0.23 0.14 0.07 0.05 0.02 0.01 0.00 0.00 0.00 0.00 0.00 0.00 0.00 0.00 0.00 0.00 0.00 0.00 0.00 0.00 0.00 0.00 0.00 0.00 0.00 0.00 0.00 0.00 0.00 0.00 0.00 0.00 0.00 0.01
0.04 0.08 0.09 0.08 0.06 0.13 0.21 0.29 0.24 0.12 0.10 0.10 0.10 0.05 0.09 0.05 0.02 0.02 0.01 0.00 0.00 0.00 0.00 0.00 0.00 0.00 0.00 0.01 0.01 0.00 0.00 0.00 0.00 0.00 0.00 0.01 0.02 0.01 0.00 0.00 0.00 0.00 0.00
0.00 0.02 0.11 0.10 0.08 0.09 0.14 0.12 0.13 0.06 0.09 0.11 0.11 0.19 0.24 0.16 0.15 0.11 0.06 0.03 0.01 0.00 0.01 0.01 0.01 0.01 0.01 0.05 0.05 0.00 0.00 0.00 0.00 0.00 0.00 0.02 0.01 0.01 0.00 0.00 0.00 0.00 0.00
0.00 0.08 0.07 0.06 0.09 0.07 0.12 0.09 0.17 0.19 0.13 0.10 0.19 0.09 0.11 0.19 0.19 0.12 0.10 0.11 0.06 0.03 0.02 0.02 0.06 0.08 0.07 0.14 0.19 0.08 0.02 0.00 0.00 0.00 0.00 0.00 0.00 0.00 0.00 0.00 0.00 0.00 0.00
0.00 0.01 0.04 0.09 0.11 0.07 0.09 0.17 0.20 0.24 0.16 0.11 0.06 0.03 0.04 0.11 0.18 0.15 0.20 0.21 0.21 0.14 0.07 0.09 0.16 0.18 0.18 0.18 0.17 0.19 0.06 0.02 0.00 0.00 0.00 0.00 0.00 0.00 0.00 0.01 0.01 0.01 0.01
0.00 0.00 0.01 0.07 0.09 0.13 0.19 0.17 0.13 0.09 0.08 0.07 0.14 0.17 0.21 0.21 0.19 0.17 0.17 0.26 0.30 0.22 0.16 0.11 0.18 0.18 0.20 0.14 0.12 0.11 0.11 0.07 0.07 0.04 0.01 0.01 0.01 0.00 0.00 0.01 0.01 0.01 0.01
0.00 0.00 0.00 0.00 0.05 0.10 0.17 0.18 0.23 0.15 0.10 0.09 0.12 0.15 0.18 0.17 0.19 0.23 0.21 0.27 0.28 0.26 0.28 0.29 0.22 0.20 0.16 0.18 0.17 0.19 0.14 0.13 0.09 0.08 0.05 0.05 0.05 0.04 0.02 0.01 0.00 0.00 0.00
0.00 0.00 0.00 0.00 0.01 0.06 0.12 0.09 0.12 0.15 0.07 0.06 0.10 0.10 0.12 0.12 0.12 0.12 0.15 0.15 0.21 0.28 0.30 0.30 0.34 0.26 0.22 0.21 0.18 0.19 0.19 0.21 0.14 0.10 0.09 0.08 0.08 0.05 0.02 0.01 0.00 0.00 0.00

GFSSE_prec_precacc_072.txt.gz
Total_Precipitation_Accumulation
0.00 0.02 0.09 0.06 0.07 0.05 0.04 0.05 0.08 0.07 0.08 0.13 0.13 0.08 0.07 0.07 0.05 0.04 0.04 0.06 0.07 0.07 0.08 0.11 0.11 0.14 0.23 0.31 0.22 0.04 0.01 0.00 0.00 0.01 0.01 0.01 0.02 0.01 0.02 0.02 0.03 0.02 0.03
0.00 0.02 0.06 0.07 0.07 0.07 0.07 0.09 0.11 0.06 0.11 0.13 0.14 0.12 0.11 0.10 0.04 0.03 0.06 0.04 0.04 0.07 0.14 0.23 0.18 0.11 0.04 0.01 0.01 0.01 0.00 0.00 0.00 0.00 0.00 0.00 0.01 0.03 0.01 0.01 0.05 0.05 0.08
0.00 0.01 0.03 0.07 0.07 0.08 0.07 0.08 0.05 0.06 0.11 0.13 0.09 0.08 0.04 0.01 0.01 0.01 0.03 0.04 0.08 0.14 0.22 0.16 0.05 0.01 0.00 0.00 0.00 0.00 0.00 0.00 0.00 0.00 0.00 0.00 0.01 0.06 0.05 0.05 0.06 0.03 0.06
0.00 0.00 0.01 0.06 0.06 0.06 0.04 0.04 0.04 0.09 0.11 0.07 0.04 0.03 0.03 0.02 0.03 0.02 0.05 0.07 0.09 0.07 0.04 0.01 0.00 0.00 0.00 0.00 0.00 0.00 0.00 0.00 0.00 0.00 0.00 0.00 0.01 0.05 0.06 0.07 0.10 0.11 0.07
0.00 0.01 0.02 0.07 0.07 0.06 0.03 0.02 0.05 0.08 0.07 0.06 0.03 0.02 0.02 0.04 0.05 0.05 0.06 0.03 0.01 0.00 0.00 0.00 0.00 0.00 0.00 0.00 0.00 0.00 0.01 0.01 0.00 0.00 0.00 0.01 0.03 0.09 0.08 0.09 0.11 0.15 0.19
0.00 0.00 0.02 0.08 0.08 0.05 0.04 0.04 0.06 0.05 0.06 0.06 0.03 0.02 0.03 0.08 0.09 0.08 0.02 0.00 0.00 0.00 0.00 0.00 0.00 0.00 0.00 0.00 0.00 0.00 0.01 0.01 0.00 0.00 0.00 0.01 0.03 0.11 0.07 0.08 0.11 0.17 0.20
0.00 0.01 0.03 0.08 0.10 0.05 0.05 0.04 0.03 0.04 0.06 0.05 0.02 0.02 0.06 0.09 0.09 0.10 0.03 0.00 0.00 0.00 0.00 0.00 0.00 0.00 0.00 0.00 0.00 0.00 0.00 0.00 0.00 0.00 0.00 0.00 0.01 0.05 0.03 0.03 0.06 0.08 0.09
0.00 0.01 0.02 0.08 0.10 0.05 0.05 0.03 0.02 0.02 0.06 0.06 0.03 0.04 0.07 0.08 0.07 0.09 0.04 0.00 0.00 0.00 0.00 0.00 0.01 0.01 0.01 0.01 0.00 0.00 0.00 0.00 0.00 0.00 0.00 0.00 0.00 0.00 0.01 0.02 0.04 0.05 0.05
0.02 0.01 0.02 0.05 0.05 0.04 0.04 0.02 0.02 0.01 0.04 0.05 0.04 0.04 0.04 0.02 0.03 0.08 0.04 0.00 0.00 0.01 0.00 0.03 0.04 0.01 0.01 0.00 0.00 0.00 0.00 0.00 0.00 0.00 0.00 0.00 0.00 0.01 0.03 0.06 0.08 0.08 0.08
0.11 0.04 0.02 0.03 0.02 0.03 0.04 0.02 0.02 0.01 0.02 0.03 0.03 0.02 0.00 0.00 0.00 0.01 0.00 0.00 0.01 0.01 0.03 0.04 0.01 0.01 0.01 0.00 0.00 0.00 0.00 0.00 0.00 0.00 0.00 0.00 0.00 0.07 0.14 0.14 0.12 0.10 0.11
0.15 0.09 0.05 0.02 0.02 0.02 0.03 0.02 0.01 0.01 0.00 0.01 0.00 0.00 0.00 0.00 0.00 0.00 0.00 0.00 0.00 0.03 0.03 0.00 0.01 0.02 0.01 0.00 0.00 0.00 0.00 0.00 0.00 0.00 0.00 0.01 0.07 0.15 0.10 0.06 0.05 0.07 0.07
0.28 0.10 0.07 0.04 0.02 0.03 0.02 0.02 0.00 0.00 0.00 0.00 0.00 0.00 0.00 0.00 0.00 0.00 0.00 0.00 0.00 0.03 0.00 0.00 0.01 0.01 0.00 0.00 0.00 0.00 0.00 0.00 0.00 0.00 0.00 0.02 0.06 0.08 0.05 0.03 0.05 0.04 0.04
0.43 0.23 0.05 0.03 0.03 0.04 0.02 0.02 0.01 0.00 0.00 0.00 0.00 0.00 0.00 0.00 0.00 0.00 0.00 0.00 0.00 0.00 0.00 0.00 0.00 0.00 0.00 0.00 0.00 0.00 0.00 0.00 0.00 0.00 0.00 0.04 0.04 0.05 0.01 0.01 0.01 0.01 0.01
0.18 0.23 0.19 0.04 0.02 0.04 0.04 0.02 0.00 0.00 0.00 0.00 0.00 0.00 0.00 0.00 0.00 0.00 0.00 0.00 0.00 0.00 0.00 0.00 0.00 0.00 0.00 0.00 0.00 0.00 0.00 0.00 0.00 0.00 0.00 0.00 0.00 0.01 0.00 0.00 0.00 0.00 0.00
0.21 0.26 0.17 0.15 0.03 0.05 0.06 0.04 0.00 0.00 0.00 0.00 0.00 0.00 0.00 0.00 0.00 0.00 0.00 0.00 0.00 0.00 0.00 0.00 0.00 0.00 0.00 0.00 0.00 0.00 0.00 0.00 0.00 0.00 0.00 0.00 0.00 0.00 0.00 0.01 0.01 0.01 0.00
0.25 0.22 0.27 0.19 0.11 0.02 0.03 0.05 0.04 0.00 0.00 0.00 0.00 0.00 0.00 0.00 0.00 0.00 0.00 0.00 0.00 0.00 0.00 0.00 0.00 0.00 0.00 0.00 0.00 0.00 0.00 0.00 0.00 0.00 0.00 0.00 0.00 0.00 0.00 0.00 0.00 0.02 0.06
0.18 0.28 0.15 0.20 0.19 0.04 0.02 0.05 0.09 0.05 0.03 0.01 0.00 0.00 0.00 0.00 0.00 0.00 0.00 0.00 0.00 0.00 0.00 0.00 0.00 0.00 0.00 0.00 0.00 0.00 0.00 0.00 0.00 0.00 0.00 0.00 0.00 0.00 0.00 0.00 0.00 0.00 0.00
0.14 0.11 0.18 0.15 0.19 0.09 0.05 0.19 0.21 0.19 0.11 0.03 0.02 0.01 0.00 0.00 0.00 0.00 0.00 0.00 0.00 0.00 0.00 0.00 0.00 0.00 0.00 0.00 0.00 0.00 0.00 0.00 0.00 0.00 0.00 0.00 0.00 0.00 0.00 0.00 0.00 0.00 0.00
0.11 0.09 0.17 0.18 0.18 0.10 0.14 0.25 0.30 0.23 0.14 0.07 0.05 0.02 0.01 0.00 0.00 0.00 0.00 0.00 0.00 0.00 0.00 0.00 0.00 0.00 0.00 0.00 0.00 0.00 0.00 0.00 0.00 0.00 0.00 0.00 0.00 0.00 0.00 0.00 0.00 0.00 0.01
0.10 0.13 0.16 0.15 0.14 0.16 0.23 0.31 0.26 0.12 0.11 0.12 0.10 0.05 0.09 0.05 0.02 0.02 0.01 0.00 0.00 0.00 0.00 0.00 0.00 0.00 0.00 0.01 0.01 0.01 0.00 0.00 0.00 0.00 0.00 0.01 0.02 0.01 0.00 0.00 0.00 0.00 0.00
0.09 0.05 0.27 0.21 0.14 0.11 0.15 0.14 0.14 0.06 0.09 0.11 0.11 0.19 0.24 0.16 0.15 0.11 0.06 0.03 0.01 0.00 0.01 0.01 0.01 0.01 0.01 0.05 0.05 0.00 0.00 0.00 0.00 0.00 0.00 0.02 0.01 0.01 0.00 0.00 0.00 0.00 0.00
0.02 0.14 0.10 0.06 0.16 0.09 0.15 0.09 0.17 0.20 0.15 0.10 0.19 0.09 0.11 0.19 0.19 0.12 0.10 0.11 0.06 0.03 0.02 0.02 0.06 0.08 0.08 0.14 0.19 0.08 0.02 0.00 0.00 0.00 0.00 0.00 0.00 0.00 0.00 0.00 0.00 0.00 0.00
0.01 0.02 0.05 0.10 0.12 0.09 0.12 0.27 0.24 0.28 0.17 0.11 0.07 0.04 0.04 0.12 0.18 0.15 0.20 0.21 0.21 0.14 0.07 0.09 0.16 0.18 0.18 0.18 0.17 0.20 0.07 0.02 0.00 0.00 0.00 0.00 0.00 0.00 0.00 0.01 0.01 0.01 0.01
0.00 0.03 0.07 0.17 0.17 0.17 0.25 0.25 0.17 0.15 0.21 0.22 0.38 0.31 0.23 0.23 0.23 0.18 0.18 0.26 0.30 0.22 0.16 0.11 0.18 0.18 0.20 0.14 0.12 0.11 0.11 0.08 0.08 0.04 0.01 0.01 0.01 0.00 0.00 0.01 0.01 0.01 0.01
0.00 0.00 0.01 0.07 0.10 0.12 0.24 0.36 0.37 0.28 0.26 0.20 0.17 0.23 0.35 0.36 0.29 0.29 0.24 0.29 0.28 0.26 0.28 0.29 0.22 0.20 0.16 0.18 0.17 0.19 0.14 0.13 0.09 0.09 0.05 0.05 0.05 0.04 0.02 0.01 0.00 0.00 0.00
0.00 0.00 0.00 0.02 0.09 0.21 0.28 0.24 0.29 0.29 0.20 0.18 0.20 0.22 0.25 0.22 0.21 0.22 0.20 0.18 0.22 0.28 0.30 0.30 0.34 0.26 0.22 0.21 0.18 0.19 0.19 0.21 0.14 0.10 0.10 0.08 0.08 0.05 0.02 0.01 0.00 0.00 0.00

GFSSE_prec_precacc_075.txt.gz
Total_Precipitation_Accumulation
0.00 0.02 0.09 0.07 0.07 0.06 0.04 0.05 0.08 0.07 0.09 0.15 0.13 0.08 0.07 0.08 0.08 0.07 0.04 0.06 0.07 0.07 0.08 0.11 0.11 0.14 0.23 0.31 0.22 0.04 0.01 0.00 0.01 0.01 0.01 0.02 0.02 0.01 0.02 0.03 0.04 0.02 0.03
0.00 0.02 0.06 0.08 0.07 0.07 0.08 0.09 0.11 0.06 0.13 0.14 0.14 0.12 0.11 0.11 0.08 0.07 0.07 0.05 0.04 0.07 0.14 0.23 0.18 0.11 0.04 0.01 0.01 0.01 0.00 0.00 0.00 0.00 0.00 0.00 0.03 0.05 0.03 0.02 0.06 0.06 0.09
0.00 0.01 0.03 0.08 0.07 0.08 0.08 0.08 0.05 0.06 0.12 0.13 0.09 0.08 0.04 0.02 0.04 0.07 0.04 0.04 0.08 0.14 0.22 0.16 0.05 0.01 0.00 0.00 0.00 0.00 0.00 0.00 0.00 0.00 0.00 0.00 0.01 0.06 0.05 0.06 0.07 0.04 0.06
0.00 0.01 0.01 0.07 0.06 0.06 0.04 0.04 0.04 0.10 0.11 0.07 0.04 0.03 0.03 0.02 0.05 0.05 0.06 0.07 0.09 0.07 0.04 0.01 0.00 0.00 0.00 0.00 0.00 0.00 0.00 0.00 0.00 0.00 0.00 0.00 0.01 0.05 0.06 0.07 0.10 0.11 0.08
0.00 0.01 0.02 0.09 0.08 0.07 0.03 0.02 0.06 0.08 0.07 0.06 0.03 0.02 0.02 0.04 0.05 0.06 0.06 0.03 0.01 0.00 0.00 0.00 0.00 0.00 0.00 0.00 0.00 0.00 0.01 0.01 0.00 0.00 0.00 0.01 0.03 0.09 0.08 0.09 0.11 0.15 0.19
0.01 0.01 0.03 0.09 0.09 0.06 0.04 0.04 0.07 0.05 0.06 0.06 0.03 0.02 0.03 0.08 0.09 0.08 0.02 0.00 0.00 0.00 0.00 0.00 0.00 0.00 0.00 0.00 0.00 0.00 0.01 0.01 0.00 0.00 0.00 0.01 0.03 0.11 0.07 0.08 0.11 0.17 0.20
0.01 0.02 0.03 0.10 0.11 0.05 0.05 0.04 0.04 0.06 0.07 0.06 0.02 0.02 0.06 0.09 0.09 0.10 0.03 0.00 0.00 0.00 0.00 0.00 0.00 0.00 0.00 0.00 0.00 0.00 0.00 0.00 0.00 0.00 0.00 0.00 0.01 0.05 0.03 0.03 0.06 0.08 0.09
0.01 0.02 0.03 0.10 0.11 0.06 0.05 0.03 0.02 0.04 0.08 0.06 0.03 0.04 0.07 0.08 0.07 0.09 0.04 0.00 0.00 0.00 0.00 0.00 0.01 0.01 0.01 0.01 0.00 0.00 0.00 0.00 0.00 0.00 0.00 0.00 0.00 0.00 0.01 0.02 0.04 0.05 0.05
0.07 0.02 0.03 0.07 0.05 0.04 0.04 0.02 0.02 0.03 0.06 0.06 0.04 0.04 0.04 0.02 0.03 0.08 0.04 0.00 0.00 0.01 0.00 0.03 0.04 0.01 0.01 0.00 0.00 0.00 0.00 0.00 0.00 0.00 0.00 0.00 0.00 0.01 0.03 0.06 0.08 0.08 0.08
0.26 0.15 0.04 0.03 0.02 0.03 0.04 0.02 0.02 0.01 0.03 0.04 0.03 0.02 0.00 0.00 0.00 0.01 0.00 0.00 0.01 0.01 0.03 0.04 0.01 0.01 0.01 0.00 0.00 0.00 0.00 0.00 0.00 0.00 0.00 0.00 0.00 0.07 0.14 0.14 0.12 0.10 0.11
0.33 0.21 0.12 0.02 0.02 0.02 0.03 0.02 0.01 0.01 0.01 0.02 0.00 0.00 0.00 0.00 0.00 0.00 0.00 0.00 0.00 0.03 0.03 0.00 0.01 0.02 0.01 0.00 0.00 0.00 0.00 0.00 0.00 0.00 0.00 0.01 0.07 0.15 0.10 0.06 0.05 0.07 0.07
0.53 0.13 0.07 0.04 0.02 0.03 0.02 0.02 0.00 0.00 0.00 0.00 0.00 0.00 0.00 0.00 0.00 0.00 0.00 0.00 0.00 0.03 0.00 0.00 0.01 0.01 0.00 0.00 0.00 0.00 0.00 0.00 0.00 0.00 0.00 0.02 0.06 0.08 0.05 0.03 0.05 0.04 0.04
0.87 0.58 0.18 0.05 0.03 0.04 0.02 0.02 0.01 0.00 0.00 0.00 0.00 0.00 0.00 0.00 0.00 0.00 0.00 0.00 0.00 0.00 0.00 0.00 0.00 0.00 0.00 0.00 0.00 0.00 0.00 0.00 0.00 0.00 0.00 0.04 0.04 0.05 0.01 0.01 0.01 0.01 0.01
0.30 0.56 0.57 0.31 0.05 0.04 0.04 0.02 0.00 0.00 0.00 0.00 0.00 0.00 0.00 0.00 0.00 0.00 0.00 0.00 0.00 0.00 0.00 0.00 0.00 0.00 0.00 0.00 0.00 0.00 0.00 0.00 0.00 0.00 0.00 0.00 0.00 0.01 0.00 0.00 0.00 0.00 0.00
0.22 0.27 0.23 0.35 0.21 0.07 0.08 0.04 0.00 0.00 0.00 0.00 0.00 0.00 0.00 0.00 0.00 0.00 0.00 0.00 0.00 0.00 0.00 0.00 0.00 0.00 0.00 0.00 0.00 0.00 0.00 0.00 0.00 0.00 0.00 0.00 0.00 0.00 0.00 0.01 0.01 0.01 0.01
0.25 0.23 0.28 0.22 0.30 0.17 0.09 0.07 0.04 0.00 0.00 0.00 0.00 0.00 0.00 0.00 0.00 0.00 0.00 0.00 0.00 0.00 0.00 0.00 0.00 0.00 0.00 0.00 0.00 0.00 0.00 0.00 0.00 0.00 0.00 0.00 0.00 0.00 0.00 0.00 0.00 0.02 0.08
0.18 0.28 0.21 0.27 0.23 0.16 0.25 0.16 0.11 0.05 0.03 0.01 0.00 0.00 0.00 0.00 0.00 0.00 0.00 0.00 0.00 0.00 0.00 0.00 0.00 0.00 0.00 0.00 0.00 0.00 0.00 0.00 0.00 0.00 0.00 0.00 0.00 0.00 0.00 0.00 0.00 0.00 0.01
0.15 0.12 0.20 0.20 0.20 0.13 0.10 0.29 0.27 0.21 0.13 0.03 0.02 0.01 0.00 0.00 0.00 0.00 0.00 0.00 0.00 0.00 0.00 0.00 0.00 0.00 0.00 0.00 0.00 0.00 0.00 0.00 0.00 0.00 0.00 0.00 0.00 0.00 0.00 0.00 0.00 0.00 0.00
0.18 0.21 0.25 0.29 0.28 0.19 0.19 0.29 0.35 0.26 0.16 0.08 0.05 0.02 0.01 0.00 0.00 0.00 0.00 0.00 0.00 0.00 0.00 0.00 0.00 0.00 0.00 0.00 0.00 0.00 0.00 0.00 0.00 0.00 0.00 0.00 0.00 0.00 0.00 0.00 0.00 0.00 0.01
0.16 0.18 0.24 0.25 0.27 0.41 0.40 0.46 0.49 0.17 0.11 0.12 0.11 0.06 0.10 0.06 0.02 0.02 0.01 0.00 0.00 0.00 0.00 0.00 0.00 0.00 0.00 0.01 0.01 0.01 0.00 0.00 0.00 0.00 0.00 0.01 0.02 0.01 0.00 0.00 0.00 0.00 0.00
0.26 0.18 0.39 0.29 0.23 0.21 0.29 0.27 0.27 0.13 0.12 0.12 0.13 0.21 0.25 0.17 0.15 0.11 0.06 0.03 0.01 0.00 0.01 0.01 0.01 0.01 0.01 0.05 0.05 0.00 0.00 0.00 0.00 0.00 0.00 0.02 0.01 0.01 0.00 0.00 0.00 0.00 0.00
0.11 0.27 0.27 0.19 0.23 0.12 0.17 0.10 0.18 0.23 0.22 0.10 0.19 0.09 0.11 0.19 0.19 0.12 0.10 0.11 0.06 0.03 0.02 0.02 0.06 0.08 0.08 0.14 0.19 0.08 0.02 0.00 0.00 0.00 0.00 0.00 0.00 0.00 0.00 0.00 0.00 0.00 0.00
0.02 0.03 0.10 0.19 0.19 0.16 0.29 0.45 0.36 0.40 0.22 0.12 0.07 0.04 0.04 0.12 0.19 0.16 0.21 0.22 0.22 0.15 0.07 0.09 0.16 0.18 0.19 0.18 0.17 0.20 0.07 0.02 0.00 0.00 0.00 0.00 0.00 0.00 0.00 0.01 0.01 0.01 0.01
0.00 0.05 0.11 0.21 0.21 0.22 0.34 0.37 0.28 0.31 0.48 0.45 0.57 0.46 0.33 0.28 0.26 0.20 0.22 0.31 0.33 0.24 0.16 0.11 0.18 0.18 0.20 0.14 0.12 0.11 0.11 0.08 0.08 0.04 0.01 0.01 0.01 0.00 0.00 0.01 0.01 0.01 0.01
0.00 0.00 0.04 0.10 0.14 0.19 0.32 0.46 0.49 0.43 0.48 0.49 0.53 0.52 0.56 0.57 0.50 0.49 0.48 0.50 0.46 0.38 0.36 0.34 0.24 0.21 0.16 0.18 0.17 0.19 0.14 0.13 0.09 0.09 0.05 0.05 0.05 0.04 0.02 0.01 0.00 0.00 0.00
0.00 0.00 0.01 0.04 0.10 0.23 0.35 0.38 0.39 0.32 0.30 0.31 0.34 0.38 0.41 0.40 0.38 0.35 0.30 0.24 0.29 0.34 0.37 0.34 0.36 0.26 0.22 0.21 0.18 0.19 0.19 0.21 0.14 0.10 0.10 0.08 0.08 0.05 0.02 0.01 0.00 0.00 0.00

GFSSE_prec_precacc_078.txt.gz
Total_Precipitation_Accumulation
0.00 0.02 0.11 0.08 0.07 0.06 0.04 0.05 0.08 0.07 0.10 0.15 0.14 0.09 0.08 0.09 0.08 0.07 0.05 0.06 0.07 0.07 0.08 0.11 0.11 0.14 0.23 0.31 0.22 0.04 0.01 0.00 0.01 0.01 0.01 0.02 0.03 0.04 0.04 0.05 0.04 0.02 0.03
0.00 0.02 0.07 0.09 0.08 0.08 0.08 0.09 0.11 0.07 0.14 0.14 0.14 0.14 0.13 0.14 0.10 0.07 0.07 0.05 0.04 0.07 0.14 0.23 0.19 0.11 0.04 0.01 0.01 0.01 0.00 0.00 0.00 0.00 0.00 0.01 0.04 0.06 0.04 0.03 0.07 0.06 0.09
0.00 0.01 0.04 0.09 0.08 0.09 0.08 0.08 0.05 0.08 0.13 0.13 0.09 0.09 0.07 0.06 0.07 0.08 0.05 0.04 0.08 0.14 0.22 0.16 0.05 0.01 0.00 0.00 0.00 0.00 0.00 0.00 0.00 0.00 0.00 0.00 0.01 0.07 0.06 0.06 0.07 0.04 0.07
0.00 0.01 0.02 0.08 0.07 0.06 0.04 0.04 0.05 0.10 0.11 0.07 0.04 0.03 0.05 0.06 0.09 0.06 0.06 0.07 0.09 0.07 0.04 0.01 0.00 0.00 0.00 0.00 0.00 0.00 0.00 0.00 0.00 0.00 0.00 0.00 0.01 0.05 0.06 0.07 0.10 0.11 0.08
0.01 0.02 0.03 0.10 0.09 0.07 0.03 0.03 0.08 0.08 0.07 0.06 0.03 0.02 0.04 0.10 0.08 0.06 0.06 0.03 0.01 0.00 0.00 0.00 0.00 0.00 0.00 0.00 0.00 0.00 0.01 0.01 0.00 0.00 0.00 0.01 0.03 0.09 0.08 0.09 0.11 0.15 0.19
0.02 0.03 0.04 0.11 0.11 0.06 0.04 0.05 0.08 0.06 0.06 0.06 0.03 0.02 0.04 0.09 0.09 0.08 0.02 0.00 0.00 0.00 0.00 0.00 0.00 0.00 0.00 0.00 0.00 0.00 0.01 0.01 0.00 0.00 0.00 0.01 0.03 0.11 0.07 0.08 0.11 0.17 0.20
0.02 0.04 0.05 0.13 0.12 0.05 0.05 0.06 0.05 0.06 0.07 0.06 0.02 0.02 0.06 0.09 0.09 0.11 0.03 0.00 0.00 0.00 0.00 0.00 0.00 0.00 0.00 0.00 0.00 0.00 0.00 0.00 0.00 0.00 0.00 0.00 0.01 0.05 0.03 0.03 0.06 0.08 0.09
0.02 0.05 0.04 0.14 0.12 0.06 0.05 0.04 0.04 0.05 0.08 0.06 0.03 0.04 0.07 0.08 0.07 0.10 0.04 0.00 0.00 0.00 0.00 0.00 0.01 0.01 0.01 0.01 0.00 0.00 0.00 0.00 0.00 0.00 0.00 0.00 0.00 0.00 0.01 0.02 0.04 0.05 0.05
0.17 0.08 0.05 0.10 0.06 0.04 0.04 0.02 0.03 0.05 0.07 0.06 0.04 0.04 0.04 0.02 0.04 0.08 0.04 0.00 0.00 0.01 0.00 0.03 0.04 0.01 0.01 0.00 0.00 0.00 0.00 0.00 0.00 0.00 0.00 0.00 0.00 0.01 0.03 0.06 0.08 0.08 0.08
0.36 0.26 0.09 0.05 0.03 0.03 0.04 0.02 0.02 0.03 0.04 0.04 0.03 0.02 0.00 0.00 0.00 0.01 0.00 0.00 0.01 0.01 0.03 0.04 0.01 0.01 0.01 0.00 0.00 0.00 0.00 0.00 0.00 0.00 0.00 0.00 0.00 0.07 0.14 0.14 0.12 0.10 0.11
0.45 0.34 0.26 0.04 0.02 0.02 0.03 0.02 0.01 0.02 0.02 0.02 0.00 0.00 0.00 0.00 0.00 0.00 0.00 0.00 0.00 0.03 0.03 0.00 0.01 0.02 0.01 0.00 0.00 0.00 0.00 0.00 0.00 0.00 0.00 0.01 0.07 0.15 0.10 0.06 0.05 0.07 0.07
0.64 0.22 0.18 0.06 0.02 0.03 0.02 0.02 0.00 0.00 0.01 0.01 0.00 0.00 0.00 0.00 0.00 0.00 0.00 0.00 0.00 0.03 0.00 0.00 0.01 0.01 0.00 0.00 0.00 0.00 0.00 0.00 0.00 0.00 0.00 0.02 0.06 0.08 0.05 0.03 0.05 0.04 0.04
1.16 0.87 0.26 0.09 0.06 0.04 0.02 0.02 0.01 0.00 0.00 0.00 0.00 0.00 0.00 0.00 0.00 0.00 0.00 0.00 0.00 0.00 0.00 0.00 0.00 0.00 0.00 0.00 0.00 0.00 0.00 0.00 0.00 0.00 0.00 0.04 0.04 0.05 0.01 0.01 0.01 0.01 0.01
0.51 1.17 1.08 0.63 0.18 0.04 0.04 0.02 0.00 0.00 0.00 0.00 0.00 0.00 0.00 0.00 0.00 0.00 0.00 0.00 0.00 0.00 0.00 0.00 0.00 0.00 0.00 0.00 0.00 0.00 0.00 0.00 0.00 0.00 0.00 0.00 0.00 0.01 0.00 0.00 0.00 0.00 0.00
0.29 0.48 0.55 0.65 0.49 0.16 0.11 0.04 0.00 0.00 0.00 0.00 0.00 0.00 0.00 0.00 0.00 0.00 0.00 0.00 0.00 0.00 0.00 0.00 0.00 0.00 0.00 0.00 0.00 0.00 0.00 0.00 0.00 0.00 0.00 0.00 0.00 0.00 0.00 0.01 0.01 0.01 0.02
0.30 0.29 0.32 0.27 0.35 0.34 0.23 0.13 0.05 0.00 0.00 0.00 0.00 0.00 0.00 0.00 0.00 0.00 0.00 0.00 0.00 0.00 0.00 0.00 0.00 0.00 0.00 0.00 0.00 0.00 0.00 0.00 0.00 0.00 0.00 0.00 0.00 0.00 0.00 0.00 0.00 0.02 0.11
0.18 0.29 0.22 0.27 0.24 0.21 0.49 0.33 0.20 0.07 0.03 0.01 0.00 0.00 0.00 0.00 0.00 0.00 0.00 0.00 0.00 0.00 0.00 0.00 0.00 0.00 0.00 0.00 0.00 0.00 0.00 0.00 0.00 0.00 0.00 0.00 0.00 0.00 0.00 0.00 0.00 0.00 0.01
0.15 0.12 0.20 0.20 0.21 0.13 0.17 0.42 0.35 0.32 0.18 0.04 0.02 0.01 0.00 0.00 0.00 0.00 0.00 0.00 0.00 0.00 0.00 0.00 0.00 0.00 0.00 0.00 0.00 0.00 0.00 0.00 0.00 0.00 0.00 0.00 0.00 0.00 0.00 0.00 0.00 0.00 0.00
0.20 0.27 0.26 0.29 0.29 0.20 0.21 0.35 0.39 0.35 0.22 0.15 0.07 0.02 0.01 0.00 0.00 0.00 0.00 0.00 0.00 0.00 0.00 0.00 0.00 0.00 0.00 0.00 0.00 0.00 0.00 0.00 0.00 0.00 0.00 0.00 0.00 0.00 0.00 0.00 0.00 0.00 0.01
0.17 0.29 0.38 0.37 0.33 0.47 0.50 0.60 0.65 0.37 0.19 0.31 0.24 0.08 0.10 0.06 0.03 0.02 0.01 0.00 0.00 0.00 0.00 0.00 0.00 0.00 0.00 0.01 0.01 0.01 0.00 0.00 0.00 0.00 0.00 0.01 0.02 0.01 0.00 0.00 0.00 0.00 0.00
0.39 0.34 0.51 0.47 0.35 0.44 0.45 0.38 0.32 0.23 0.20 0.14 0.20 0.28 0.27 0.17 0.16 0.12 0.06 0.03 0.01 0.00 0.01 0.01 0.01 0.01 0.01 0.05 0.05 0.00 0.00 0.00 0.00 0.00 0.00 0.02 0.01 0.01 0.00 0.00 0.00 0.00 0.00
0.20 0.40 0.42 0.41 0.50 0.38 0.31 0.17 0.21 0.29 0.38 0.20 0.38 0.23 0.18 0.22 0.21 0.14 0.11 0.12 0.07 0.03 0.02 0.02 0.06 0.08 0.08 0.14 0.20 0.08 0.02 0.00 0.00 0.00 0.00 0.00 0.00 0.00 0.00 0.00 0.00 0.00 0.00
0.03 0.04 0.12 0.27 0.30 0.34 0.61 0.85 0.72 0.72 0.48 0.35 0.21 0.19 0.18 0.16 0.23 0.28 0.34 0.35 0.31 0.19 0.11 0.14 0.16 0.18 0.19 0.18 0.17 0.20 0.07 0.02 0.00 0.00 0.00 0.00 0.00 0.00 0.00 0.01 0.01 0.01 0.01
0.00 0.05 0.11 0.25 0.28 0.36 0.49 0.64 0.66 0.61 0.71 0.65 0.81 0.74 0.70 0.63 0.58 0.50 0.45 0.50 0.49 0.35 0.28 0.22 0.24 0.21 0.21 0.14 0.12 0.11 0.11 0.08 0.08 0.04 0.01 0.01 0.01 0.00 0.00 0.01 0.01 0.01 0.01
0.00 0.00 0.04 0.10 0.16 0.23 0.38 0.54 0.64 0.62 0.67 0.65 0.66 0.61 0.71 0.78 0.74 0.77 0.80 0.86 0.79 0.62 0.48 0.40 0.28 0.24 0.17 0.20 0.19 0.19 0.14 0.13 0.09 0.09 0.05 0.05 0.05 0.04 0.02 0.01 0.00 0.00 0.00
0.00 0.00 0.01 0.04 0.10 0.24 0.44 0.51 0.53 0.42 0.38 0.39 0.44 0.42 0.47 0.52 0.53 0.53 0.62 0.70 0.58 0.43 0.39 0.35 0.37 0.27 0.23 0.22 0.18 0.19 0.19 0.21 0.14 0.10 0.10 0.08 0.08 0.05 0.02 0.01 0.00 0.00 0.00

GFSSE_prec_precacc_081.txt.gz
Total_Precipitation_Accumulation
0.00 0.03 0.13 0.09 0.07 0.06 0.04 0.05 0.08 0.07 0.10 0.15 0.14 0.09 0.09 0.11 0.08 0.07 0.06 0.06 0.07 0.07 0.08 0.11 0.11 0.15 0.25 0.32 0.22 0.04 0.01 0.01 0.01 0.01 0.01 0.03 0.05 0.05 0.05 0.05 0.04 0.02 0.03
0.00 0.02 0.09 0.11 0.08 0.08 0.08 0.09 0.11 0.07 0.14 0.15 0.15 0.15 0.15 0.15 0.11 0.07 0.07 0.05 0.04 0.07 0.14 0.23 0.19 0.12 0.05 0.02 0.02 0.01 0.00 0.00 0.00 0.00 0.00 0.01 0.04 0.07 0.04 0.03 0.07 0.06 0.09
0.00 0.02 0.05 0.12 0.09 0.09 0.08 0.08 0.06 0.09 0.13 0.13 0.11 0.11 0.10 0.10 0.07 0.08 0.05 0.04 0.08 0.14 0.22 0.17 0.06 0.01 0.00 0.00 0.00 0.00 0.00 0.00 0.00 0.00 0.00 0.00 0.01 0.07 0.06 0.06 0.07 0.05 0.08
0.00 0.01 0.02 0.11 0.08 0.06 0.04 0.04 0.06 0.11 0.11 0.07 0.05 0.06 0.10 0.11 0.10 0.06 0.06 0.07 0.09 0.07 0.04 0.02 0.00 0.00 0.00 0.00 0.00 0.00 0.00 0.00 0.00 0.00 0.00 0.00 0.01 0.05 0.06 0.07 0.10 0.11 0.08
0.01 0.02 0.03 0.13 0.11 0.07 0.03 0.03 0.09 0.08 0.07 0.06 0.03 0.08 0.12 0.17 0.09 0.06 0.06 0.03 0.01 0.01 0.01 0.00 0.00 0.00 0.00 0.00 0.00 0.00 0.01 0.01 0.00 0.00 0.00 0.01 0.03 0.09 0.08 0.09 0.11 0.15 0.19
0.03 0.03 0.05 0.15 0.12 0.06 0.04 0.07 0.09 0.06 0.06 0.06 0.03 0.04 0.13 0.17 0.10 0.08 0.02 0.00 0.00 0.00 0.00 0.00 0.00 0.00 0.00 0.00 0.00 0.00 0.01 0.01 0.00 0.00 0.00 0.01 0.03 0.11 0.07 0.08 0.11 0.17 0.20
0.04 0.06 0.06 0.17 0.13 0.05 0.05 0.08 0.06 0.06 0.07 0.06 0.02 0.02 0.09 0.10 0.09 0.11 0.03 0.00 0.00 0.00 0.00 0.00 0.00 0.00 0.00 0.00 0.00 0.00 0.00 0.00 0.00 0.00 0.00 0.00 0.01 0.05 0.03 0.03 0.06 0.08 0.09
0.04 0.07 0.06 0.21 0.16 0.06 0.05 0.05 0.04 0.05 0.08 0.06 0.03 0.04 0.07 0.08 0.07 0.10 0.04 0.00 0.00 0.00 0.00 0.00 0.01 0.01 0.01 0.01 0.00 0.00 0.00 0.00 0.00 0.00 0.00 0.00 0.00 0.00 0.01 0.02 0.04 0.05 0.05
0.27 0.12 0.05 0.16 0.11 0.04 0.04 0.03 0.03 0.05 0.07 0.06 0.04 0.04 0.04 0.02 0.04 0.08 0.04 0.00 0.00 0.01 0.00 0.03 0.04 0.01 0.01 0.00 0.00 0.00 0.00 0.00 0.00 0.00 0.00 0.00 0.00 0.01 0.03 0.06 0.08 0.08 0.08
0.49 0.35 0.13 0.12 0.05 0.03 0.04 0.03 0.02 0.03 0.04 0.04 0.03 0.02 0.00 0.00 0.00 0.01 0.00 0.00 0.01 0.01 0.03 0.04 0.01 0.01 0.01 0.00 0.00 0.00 0.00 0.00 0.00 0.00 0.00 0.00 0.00 0.07 0.14 0.14 0.12 0.10 0.11
0.55 0.48 0.38 0.13 0.03 0.02 0.03 0.02 0.02 0.02 0.02 0.02 0.00 0.00 0.00 0.00 0.00 0.00 0.00 0.00 0.00 0.03 0.03 0.00 0.01 0.02 0.01 0.00 0.00 0.00 0.00 0.00 0.00 0.00 0.00 0.01 0.07 0.15 0.10 0.06 0.05 0.07 0.07
0.66 0.30 0.35 0.25 0.08 0.03 0.02 0.02 0.01 0.01 0.01 0.01 0.00 0.00 0.00 0.00 0.00 0.00 0.00 0.00 0.00 0.03 0.00 0.00 0.01 0.01 0.00 0.00 0.00 0.00 0.00 0.00 0.00 0.00 0.00 0.02 0.06 0.08 0.05 0.03 0.05 0.04 0.04
1.19 0.93 0.44 0.29 0.16 0.04 0.02 0.02 0.01 0.00 0.01 0.01 0.00 0.00 0.00 0.00 0.00 0.00 0.00 0.00 0.00 0.00 0.00 0.00 0.00 0.00 0.00 0.00 0.00 0.00 0.00 0.00 0.00 0.00 0.00 0.04 0.04 0.05 0.01 0.01 0.01 0.01 0.01
0.55 1.30 1.33 0.84 0.37 0.07 0.04 0.02 0.00 0.00 0.00 0.01 0.00 0.00 0.00 0.00 0.00 0.00 0.00 0.00 0.00 0.00 0.00 0.00 0.00 0.00 0.00 0.00 0.00 0.00 0.00 0.00 0.00 0.00 0.00 0.00 0.00 0.01 0.00 0.00 0.00 0.00 0.00
0.35 0.64 0.70 0.80 0.72 0.28 0.12 0.04 0.00 0.00 0.00 0.00 0.00 0.00 0.00 0.00 0.00 0.00 0.00 0.00 0.00 0.00 0.00 0.00 0.00 0.00 0.00 0.00 0.00 0.00 0.00 0.00 0.00 0.00 0.00 0.00 0.00 0.00 0.00 0.01 0.01 0.02 0.03
0.30 0.34 0.38 0.31 0.43 0.43 0.36 0.14 0.05 0.00 0.00 0.00 0.00 0.00 0.00 0.00 0.00 0.00 0.00 0.00 0.00 0.00 0.00 0.00 0.00 0.00 0.00 0.00 0.00 0.00 0.00 0.00 0.00 0.00 0.00 0.00 0.00 0.00 0.00 0.00 0.00 0.03 0.13
0.18 0.29 0.24 0.28 0.24 0.22 0.57 0.41 0.21 0.07 0.03 0.01 0.00 0.00 0.00 0.00 0.00 0.00 0.00 0.00 0.00 0.00 0.00 0.00 0.00 0.00 0.00 0.00 0.00 0.00 0.00 0.00 0.00 0.00 0.00 0.00 0.00 0.00 0.00 0.00 0.00 0.00 0.01
0.15 0.12 0.20 0.21 0.22 0.14 0.20 0.46 0.37 0.32 0.19 0.05 0.02 0.01 0.00 0.00 0.00 0.00 0.00 0.00 0.00 0.00 0.00 0.00 0.00 0.00 0.00 0.00 0.00 0.00 0.00 0.00 0.00 0.00 0.00 0.00 0.00 0.00 0.00 0.00 0.00 0.00 0.00
0.20 0.27 0.27 0.30 0.32 0.24 0.22 0.35 0.40 0.35 0.23 0.18 0.10 0.03 0.01 0.00 0.00 0.00 0.00 0.00 0.00 0.00 0.00 0.00 0.00 0.00 0.00 0.00 0.00 0.00 0.00 0.00 0.00 0.00 0.00 0.00 0.00 0.00 0.00 0.00 0.00 0.00 0.01
0.17 0.29 0.39 0.38 0.37 0.58 0.59 0.66 0.67 0.37 0.19 0.33 0.31 0.15 0.13 0.06 0.03 0.02 0.01 0.00 0.00 0.00 0.00 0.00 0.00 0.00 0.00 0.01 0.01 0.01 0.00 0.00 0.00 0.00 0.00 0.01 0.02 0.01 0.00 0.00 0.00 0.00 0.00
0.52 0.48 0.57 0.54 0.42 0.59 0.66 0.55 0.38 0.28 0.21 0.15 0.23 0.38 0.42 0.22 0.17 0.12 0.06 0.03 0.01 0.00 0.01 0.01 0.01 0.01 0.01 0.05 0.05 0.00 0.00 0.00 0.00 0.00 0.00 0.02 0.01 0.01 0.00 0.00 0.00 0.00 0.00
0.51 0.70 0.58 0.52 0.56 0.47 0.54 0.47 0.37 0.33 0.40 0.22 0.44 0.37 0.38 0.43 0.43 0.34 0.26 0.17 0.09 0.04 0.02 0.02 0.06 0.08 0.08 0.14 0.20 0.08 0.02 0.00 0.00 0.00 0.00 0.00 0.00 0.00 0.00 0.00 0.00 0.00 0.00
0.31 0.33 0.30 0.51 0.49 0.40 0.66 1.02 0.97 0.86 0.62 0.45 0.30 0.28 0.36 0.46 0.52 0.47 0.55 0.62 0.54 0.39 0.22 0.19 0.18 0.20 0.21 0.18 0.17 0.20 0.07 0.02 0.00 0.00 0.00 0.00 0.00 0.00 0.00 0.01 0.01 0.01 0.01
0.07 0.13 0.21 0.44 0.49 0.68 0.65 0.83 1.07 1.25 1.31 1.00 1.11 1.07 0.91 0.87 0.86 0.80 0.71 0.71 0.74 0.58 0.49 0.44 0.46 0.38 0.30 0.16 0.12 0.11 0.11 0.08 0.08 0.04 0.01 0.01 0.01 0.00 0.00 0.01 0.01 0.01 0.01
0.00 0.01 0.05 0.19 0.34 0.40 0.52 0.78 1.00 0.88 0.91 0.93 0.84 0.87 1.02 1.04 0.93 0.90 0.95 1.05 1.10 1.06 0.78 0.54 0.34 0.28 0.20 0.21 0.19 0.19 0.14 0.13 0.09 0.09 0.05 0.05 0.05 0.04 0.02 0.01 0.00 0.00 0.00
0.00 0.00 0.01 0.04 0.12 0.33 0.58 0.66 0.69 0.62 0.57 0.56 0.57 0.54 0.61 0.65 0.68 0.63 0.68 0.79 0.81 0.76 0.74 0.54 0.41 0.30 0.25 0.22 0.19 0.19 0.19 0.21 0.14 0.10 0.10 0.08 0.08 0.05 0.02 0.01 0.00 0.00 0.00

GFSSE_prec_precacc_084.txt.gz
Total_Precipitation_Accumulation
0.00 0.03 0.15 0.11 0.07 0.06 0.04 0.05 0.08 0.08 0.10 0.15 0.14 0.10 0.09 0.11 0.09 0.07 0.06 0.06 0.07 0.07 0.08 0.11 0.12 0.16 0.26 0.32 0.23 0.04 0.01 0.01 0.01 0.01 0.01 0.03 0.05 0.05 0.05 0.05 0.04 0.02 0.04
0.00 0.02 0.10 0.13 0.08 0.08 0.08 0.09 0.11 0.07 0.15 0.15 0.16 0.15 0.16 0.15 0.11 0.07 0.07 0.05 0.04 0.07 0.14 0.23 0.20 0.13 0.05 0.02 0.02 0.01 0.00 0.00 0.00 0.00 0.00 0.01 0.04 0.07 0.04 0.04 0.07 0.07 0.10
0.00 0.02 0.05 0.14 0.09 0.09 0.08 0.08 0.06 0.09 0.13 0.15 0.13 0.14 0.15 0.11 0.08 0.08 0.05 0.04 0.08 0.14 0.22 0.17 0.06 0.01 0.00 0.00 0.00 0.00 0.00 0.00 0.00 0.00 0.00 0.00 0.01 0.07 0.06 0.06 0.07 0.05 0.08
0.01 0.01 0.03 0.13 0.08 0.06 0.04 0.05 0.06 0.11 0.12 0.09 0.07 0.10 0.15 0.14 0.10 0.06 0.06 0.07 0.09 0.07 0.04 0.02 0.00 0.00 0.00 0.00 0.00 0.00 0.00 0.00 0.00 0.00 0.00 0.00 0.01 0.05 0.06 0.07 0.10 0.11 0.08
0.03 0.03 0.04 0.15 0.12 0.08 0.03 0.04 0.09 0.08 0.08 0.07 0.08 0.16 0.18 0.20 0.09 0.06 0.06 0.03 0.01 0.01 0.01 0.00 0.00 0.00 0.00 0.00 0.00 0.00 0.01 0.01 0.00 0.00 0.00 0.01 0.03 0.09 0.08 0.09 0.11 0.15 0.19
0.04 0.05 0.06 0.19 0.14 0.07 0.04 0.08 0.09 0.06 0.06 0.06 0.10 0.18 0.25 0.20 0.10 0.08 0.02 0.00 0.00 0.01 0.00 0.00 0.00 0.00 0.00 0.00 0.00 0.00 0.01 0.01 0.00 0.00 0.00 0.01 0.03 0.11 0.07 0.08 0.11 0.17 0.20
0.04 0.09 0.08 0.25 0.15 0.05 0.05 0.08 0.06 0.06 0.07 0.06 0.06 0.16 0.24 0.13 0.10 0.11 0.03 0.00 0.00 0.00 0.00 0.00 0.00 0.00 0.00 0.00 0.00 0.00 0.00 0.00 0.00 0.00 0.00 0.00 0.01 0.05 0.03 0.03 0.06 0.08 0.09
0.06 0.11 0.09 0.30 0.22 0.06 0.06 0.06 0.04 0.05 0.08 0.06 0.03 0.12 0.20 0.09 0.07 0.10 0.04 0.00 0.00 0.00 0.00 0.00 0.01 0.01 0.01 0.01 0.00 0.00 0.00 0.00 0.00 0.00 0.00 0.00 0.00 0.00 0.01 0.02 0.04 0.05 0.05
0.37 0.17 0.09 0.20 0.20 0.05 0.05 0.04 0.03 0.05 0.07 0.06 0.04 0.06 0.06 0.03 0.04 0.08 0.04 0.00 0.00 0.01 0.00 0.03 0.04 0.01 0.01 0.00 0.00 0.00 0.00 0.00 0.00 0.00 0.00 0.00 0.00 0.01 0.03 0.06 0.08 0.08 0.08
0.72 0.50 0.19 0.19 0.10 0.04 0.05 0.05 0.02 0.03 0.04 0.04 0.03 0.02 0.00 0.00 0.01 0.01 0.01 0.00 0.01 0.01 0.03 0.04 0.01 0.01 0.01 0.00 0.00 0.00 0.00 0.00 0.00 0.00 0.00 0.00 0.00 0.07 0.14 0.14 0.12 0.10 0.11
1.27 0.72 0.55 0.22 0.07 0.03 0.06 0.04 0.02 0.02 0.02 0.02 0.00 0.00 0.00 0.00 0.00 0.00 0.00 0.00 0.00 0.03 0.03 0.00 0.01 0.02 0.01 0.00 0.00 0.00 0.00 0.00 0.00 0.00 0.00 0.01 0.07 0.15 0.10 0.06 0.05 0.07 0.07
1.42 0.86 0.67 0.45 0.23 0.03 0.03 0.04 0.03 0.02 0.01 0.01 0.00 0.00 0.00 0.00 0.00 0.00 0.00 0.00 0.00 0.03 0.00 0.00 0.01 0.01 0.00 0.00 0.00 0.00 0.00 0.00 0.00 0.00 0.00 0.02 0.06 0.08 0.05 0.03 0.05 0.04 0.04
1.53 1.25 0.65 0.50 0.35 0.08 0.02 0.03 0.04 0.02 0.01 0.01 0.00 0.00 0.00 0.00 0.00 0.00 0.00 0.00 0.00 0.00 0.00 0.00 0.00 0.00 0.00 0.00 0.00 0.00 0.00 0.00 0.00 0.00 0.00 0.04 0.04 0.05 0.01 0.01 0.01 0.01 0.01
0.61 1.44 1.50 1.02 0.45 0.13 0.04 0.02 0.01 0.02 0.01 0.01 0.00 0.00 0.00 0.00 0.00 0.00 0.00 0.00 0.00 0.00 0.00 0.00 0.00 0.00 0.00 0.00 0.00 0.00 0.00 0.00 0.00 0.00 0.00 0.00 0.00 0.01 0.00 0.00 0.00 0.00 0.00
0.36 0.66 0.81 1.00 0.95 0.34 0.12 0.04 0.01 0.01 0.01 0.00 0.00 0.00 0.00 0.00 0.00 0.00 0.00 0.00 0.00 0.00 0.00 0.00 0.00 0.00 0.00 0.00 0.00 0.00 0.00 0.00 0.00 0.00 0.00 0.00 0.00 0.00 0.00 0.01 0.01 0.03 0.06
0.31 0.35 0.41 0.43 0.57 0.52 0.42 0.14 0.05 0.01 0.01 0.00 0.00 0.00 0.00 0.00 0.00 0.00 0.00 0.00 0.00 0.00 0.00 0.00 0.00 0.00 0.00 0.00 0.00 0.00 0.00 0.00 0.00 0.00 0.00 0.00 0.00 0.00 0.00 0.00 0.00 0.03 0.14
0.18 0.29 0.24 0.32 0.31 0.26 0.62 0.44 0.21 0.07 0.03 0.02 0.00 0.00 0.00 0.00 0.00 0.00 0.00 0.00 0.00 0.00 0.00 0.00 0.00 0.00 0.00 0.00 0.00 0.00 0.00 0.00 0.00 0.00 0.00 0.00 0.00 0.00 0.00 0.00 0.00 0.00 0.01
0.15 0.12 0.20 0.22 0.24 0.14 0.20 0.47 0.38 0.32 0.19 0.05 0.02 0.01 0.00 0.00 0.00 0.00 0.00 0.00 0.00 0.00 0.00 0.00 0.00 0.00 0.00 0.00 0.00 0.00 0.00 0.00 0.00 0.00 0.00 0.00 0.00 0.00 0.00 0.00 0.00 0.00 0.00
0.20 0.27 0.27 0.30 0.32 0.25 0.22 0.35 0.40 0.35 0.23 0.18 0.10 0.03 0.01 0.00 0.00 0.00 0.00 0.00 0.00 0.00 0.00 0.00 0.00 0.00 0.00 0.00 0.00 0.00 0.00 0.00 0.00 0.00 0.00 0.00 0.00 0.00 0.00 0.00 0.00 0.00 0.01
0.17 0.29 0.39 0.38 0.37 0.59 0.59 0.66 0.67 0.37 0.19 0.33 0.31 0.15 0.14 0.06 0.03 0.02 0.01 0.00 0.00 0.00 0.00 0.00 0.00 0.00 0.00 0.01 0.01 0.01 0.00 0.00 0.00 0.00 0.00 0.01 0.02 0.01 0.00 0.00 0.00 0.00 0.00
0.53 0.48 0.57 0.54 0.43 0.64 0.72 0.59 0.42 0.30 0.22 0.15 0.23 0.39 0.45 0.26 0.20 0.12 0.06 0.03 0.01 0.00 0.01 0.01 0.01 0.01 0.01 0.05 0.06 0.01 0.00 0.00 0.00 0.00 0.00 0.02 0.01 0.01 0.00 0.00 0.00 0.00 0.00
0.70 0.87 0.67 0.59 0.68 0.57 0.63 0.53 0.46 0.41 0.48 0.28 0.46 0.38 0.41 0.48 0.49 0.44 0.36 0.24 0.10 0.05 0.03 0.03 0.06 0.08 0.08 0.14 0.21 0.09 0.02 0.00 0.00 0.00 0.00 0.00 0.00 0.00 0.00 0.00 0.00 0.00 0.00
0.72 0.76 0.84 0.73 0.71 0.60 0.79 1.06 1.04 0.99 0.67 0.48 0.35 0.33 0.39 0.48 0.62 0.64 0.77 0.86 0.74 0.52 0.36 0.29 0.21 0.24 0.28 0.21 0.19 0.21 0.07 0.02 0.00 0.00 0.00 0.00 0.00 0.00 0.00 0.01 0.01 0.01 0.01
0.40 0.39 0.48 0.75 0.80 0.98 0.94 1.12 1.16 1.34 1.47 1.10 1.18 1.13 0.96 0.91 0.91 1.00 1.04 1.17 1.15 0.85 0.70 0.63 0.65 0.60 0.51 0.29 0.20 0.14 0.12 0.08 0.08 0.04 0.01 0.01 0.01 0.00 0.00 0.01 0.01 0.01 0.01
0.11 0.11 0.14 0.35 0.61 0.68 0.73 1.15 1.43 1.16 1.16 1.17 1.10 1.08 1.14 1.12 1.00 1.04 1.20 1.34 1.41 1.33 1.08 0.81 0.58 0.45 0.36 0.32 0.27 0.26 0.17 0.13 0.09 0.09 0.05 0.05 0.05 0.04 0.02 0.01 0.00 0.00 0.00
0.01 0.01 0.03 0.08 0.22 0.49 0.78 0.96 1.13 1.19 0.97 0.84 0.90 0.81 0.85 0.86 0.85 0.84 0.92 1.03 1.02 0.90 0.88 0.81 0.74 0.50 0.36 0.31 0.26 0.25 0.22 0.21 0.14 0.10 0.10 0.08 0.08 0.05 0.02 0.01 0.00 0.00 0.00

GFSSE_prec_precacc_087.txt.gz
Total_Precipitation_Accumulation
0.00 0.03 0.16 0.11 0.07 0.06 0.04 0.05 0.08 0.08 0.10 0.15 0.15 0.10 0.09 0.11 0.10 0.07 0.06 0.06 0.07 0.07 0.08 0.12 0.14 0.18 0.28 0.34 0.23 0.04 0.02 0.01 0.01 0.01 0.02 0.03 0.05 0.05 0.05 0.05 0.04 0.02 0.04
0.00 0.02 0.11 0.14 0.08 0.08 0.08 0.09 0.11 0.07 0.15 0.16 0.16 0.15 0.16 0.16 0.12 0.07 0.07 0.05 0.04 0.07 0.14 0.24 0.20 0.13 0.06 0.02 0.02 0.01 0.00 0.00 0.00 0.00 0.00 0.01 0.04 0.07 0.04 0.04 0.08 0.07 0.10
0.00 0.02 0.06 0.16 0.09 0.09 0.08 0.08 0.06 0.09 0.13 0.15 0.14 0.14 0.16 0.12 0.08 0.08 0.05 0.04 0.08 0.14 0.23 0.18 0.07 0.02 0.00 0.00 0.00 0.00 0.00 0.00 0.00 0.00 0.00 0.00 0.01 0.07 0.06 0.06 0.07 0.05 0.08
0.01 0.02 0.03 0.15 0.09 0.06 0.04 0.05 0.06 0.11 0.12 0.09 0.09 0.13 0.20 0.15 0.10 0.06 0.06 0.07 0.09 0.07 0.05 0.03 0.01 0.00 0.00 0.00 0.00 0.00 0.00 0.00 0.00 0.00 0.00 0.00 0.01 0.05 0.06 0.07 0.10 0.11 0.08
0.03 0.03 0.04 0.16 0.13 0.08 0.03 0.04 0.09 0.08 0.08 0.08 0.10 0.22 0.25 0.22 0.09 0.06 0.06 0.03 0.02 0.02 0.01 0.00 0.00 0.00 0.00 0.00 0.00 0.00 0.01 0.01 0.00 0.00 0.00 0.01 0.03 0.09 0.08 0.09 0.11 0.15 0.19
0.04 0.05 0.07 0.21 0.16 0.07 0.04 0.08 0.09 0.06 0.07 0.07 0.13 0.25 0.33 0.23 0.10 0.08 0.02 0.01 0.01 0.01 0.00 0.00 0.00 0.00 0.00 0.00 0.00 0.00 0.01 0.01 0.00 0.00 0.00 0.01 0.03 0.11 0.07 0.08 0.11 0.17 0.20
0.05 0.10 0.11 0.31 0.18 0.06 0.06 0.09 0.06 0.06 0.08 0.06 0.09 0.29 0.37 0.15 0.10 0.11 0.03 0.00 0.01 0.00 0.00 0.00 0.00 0.01 0.00 0.00 0.00 0.00 0.00 0.00 0.00 0.00 0.00 0.00 0.01 0.05 0.03 0.03 0.06 0.08 0.09
0.09 0.14 0.16 0.34 0.33 0.09 0.06 0.07 0.04 0.05 0.08 0.07 0.09 0.30 0.38 0.10 0.07 0.10 0.05 0.01 0.01 0.00 0.01 0.01 0.01 0.01 0.01 0.01 0.00 0.00 0.00 0.00 0.00 0.00 0.00 0.00 0.00 0.00 0.01 0.02 0.04 0.05 0.05
0.57 0.25 0.16 0.24 0.26 0.09 0.07 0.05 0.03 0.05 0.07 0.07 0.10 0.21 0.19 0.03 0.04 0.08 0.04 0.01 0.01 0.01 0.00 0.03 0.04 0.01 0.01 0.00 0.00 0.00 0.00 0.00 0.00 0.00 0.00 0.00 0.00 0.01 0.03 0.06 0.08 0.08 0.08
0.94 0.73 0.34 0.28 0.16 0.04 0.10 0.07 0.02 0.03 0.04 0.04 0.05 0.14 0.02 0.00 0.01 0.02 0.01 0.01 0.02 0.02 0.03 0.04 0.01 0.01 0.01 0.00 0.00 0.00 0.00 0.00 0.00 0.00 0.00 0.00 0.00 0.07 0.14 0.14 0.12 0.10 0.11
1.56 1.08 0.81 0.46 0.16 0.03 0.11 0.11 0.02 0.02 0.02 0.02 0.01 0.02 0.00 0.00 0.00 0.00 0.00 0.01 0.01 0.03 0.03 0.00 0.01 0.02 0.01 0.00 0.00 0.00 0.00 0.00 0.00 0.00 0.00 0.01 0.07 0.15 0.10 0.06 0.05 0.07 0.07
1.54 1.30 1.36 0.82 0.46 0.08 0.05 0.09 0.05 0.02 0.01 0.01 0.00 0.00 0.00 0.00 0.00 0.00 0.00 0.00 0.00 0.03 0.00 0.00 0.01 0.01 0.00 0.00 0.00 0.00 0.00 0.00 0.00 0.00 0.00 0.02 0.06 0.08 0.05 0.03 0.05 0.04 0.04
1.53 1.33 1.21 0.98 0.97 0.43 0.05 0.10 0.11 0.03 0.01 0.01 0.00 0.00 0.00 0.00 0.00 0.00 0.00 0.00 0.00 0.00 0.00 0.00 0.00 0.00 0.00 0.00 0.00 0.00 0.00 0.00 0.00 0.00 0.00 0.04 0.04 0.05 0.01 0.01 0.01 0.01 0.01
0.61 1.46 1.64 1.29 1.28 0.90 0.08 0.09 0.09 0.07 0.01 0.01 0.00 0.00 0.00 0.00 0.00 0.00 0.00 0.00 0.00 0.00 0.00 0.00 0.00 0.00 0.00 0.00 0.00 0.00 0.00 0.00 0.00 0.00 0.00 0.00 0.00 0.01 0.00 0.00 0.00 0.00 0.01
0.36 0.67 0.83 1.08 1.47 1.22 0.24 0.06 0.11 0.10 0.03 0.00 0.00 0.00 0.00 0.00 0.00 0.00 0.00 0.00 0.00 0.00 0.00 0.00 0.00 0.00 0.00 0.00 0.00 0.00 0.00 0.00 0.00 0.00 0.00 0.00 0.00 0.00 0.00 0.01 0.01 0.03 0.08
0.31 0.35 0.41 0.47 0.77 1.13 0.71 0.16 0.07 0.12 0.11 0.02 0.00 0.00 0.00 0.00 0.00 0.00 0.00 0.00 0.00 0.00 0.00 0.00 0.00 0.00 0.00 0.00 0.00 0.00 0.00 0.00 0.00 0.00 0.00 0.00 0.00 0.00 0.00 0.00 0.00 0.03 0.14
0.18 0.29 0.24 0.33 0.40 0.52 0.88 0.50 0.22 0.10 0.17 0.10 0.02 0.00 0.00 0.00 0.00 0.00 0.00 0.00 0.00 0.00 0.00 0.00 0.00 0.00 0.00 0.00 0.00 0.00 0.00 0.00 0.00 0.00 0.00 0.00 0.00 0.00 0.00 0.00 0.00 0.00 0.01
0.18 0.13 0.20 0.22 0.27 0.22 0.26 0.51 0.41 0.32 0.21 0.12 0.08 0.02 0.00 0.00 0.00 0.00 0.00 0.00 0.00 0.00 0.00 0.00 0.00 0.00 0.00 0.00 0.00 0.00 0.00 0.00 0.00 0.00 0.00 0.00 0.00 0.00 0.00 0.00 0.00 0.00 0.00
0.26 0.28 0.27 0.30 0.33 0.31 0.28 0.40 0.42 0.35 0.23 0.19 0.13 0.05 0.01 0.00 0.00 0.00 0.00 0.00 0.00 0.00 0.00 0.00 0.00 0.00 0.00 0.00 0.00 0.00 0.00 0.00 0.00 0.00 0.00 0.00 0.00 0.00 0.00 0.00 0.00 0.00 0.01
0.21 0.31 0.39 0.38 0.37 0.61 0.67 0.78 0.74 0.38 0.19 0.33 0.31 0.15 0.14 0.07 0.03 0.02 0.01 0.00 0.00 0.00 0.00 0.00 0.00 0.00 0.00 0.01 0.01 0.01 0.00 0.00 0.00 0.00 0.00 0.01 0.02 0.01 0.00 0.00 0.00 0.00 0.00
0.56 0.52 0.58 0.54 0.45 0.71 0.81 0.72 0.49 0.31 0.22 0.15 0.23 0.39 0.45 0.28 0.21 0.13 0.06 0.03 0.01 0.00 0.01 0.01 0.01 0.01 0.01 0.05 0.06 0.01 0.00 0.00 0.00 0.00 0.00 0.02 0.01 0.01 0.00 0.00 0.00 0.00 0.00
0.76 0.91 0.70 0.62 0.74 0.65 0.79 0.78 0.71 0.56 0.54 0.33 0.51 0.42 0.46 0.50 0.50 0.44 0.37 0.24 0.10 0.06 0.04 0.04 0.06 0.08 0.08 0.14 0.22 0.10 0.02 0.00 0.00 0.00 0.00 0.00 0.00 0.00 0.00 0.00 0.00 0.00 0.00
0.90 0.88 0.94 0.84 0.86 0.73 0.94 1.24 1.25 1.17 0.82 0.54 0.36 0.37 0.43 0.52 0.72 0.73 0.79 0.90 0.84 0.61 0.40 0.36 0.27 0.25 0.31 0.27 0.23 0.23 0.08 0.02 0.00 0.00 0.00 0.00 0.00 0.00 0.00 0.01 0.01 0.01 0.01
0.76 0.73 0.77 0.96 1.04 1.27 1.12 1.32 1.34 1.45 1.53 1.21 1.27 1.15 0.99 0.96 0.96 1.08 1.12 1.22 1.22 1.03 1.05 1.04 0.95 0.77 0.62 0.38 0.31 0.23 0.17 0.12 0.09 0.04 0.01 0.01 0.01 0.00 0.00 0.01 0.01 0.01 0.01
0.44 0.49 0.44 0.57 0.87 1.22 1.14 1.44 1.72 1.29 1.24 1.27 1.18 1.12 1.17 1.14 1.05 1.08 1.24 1.43 1.54 1.51 1.32 1.21 1.24 1.19 0.85 0.53 0.38 0.34 0.25 0.19 0.13 0.10 0.05 0.05 0.05 0.04 0.02 0.01 0.00 0.00 0.00
0.19 0.24 0.26 0.31 0.53 0.81 1.14 1.24 1.48 1.60 1.32 1.12 1.13 0.98 0.94 0.93 0.91 0.90 1.00 1.15 1.23 1.15 1.09 1.04 0.94 0.77 0.73 0.59 0.41 0.35 0.33 0.33 0.21 0.13 0.10 0.08 0.08 0.05 0.02 0.01 0.00 0.00 0.00

GFSSE_prec_precacc_090.txt.gz
Total_Precipitation_Accumulation
0.00 0.03 0.16 0.11 0.07 0.06 0.04 0.05 0.08 0.08 0.10 0.16 0.15 0.10 0.09 0.11 0.10 0.08 0.06 0.06 0.07 0.07 0.08 0.13 0.16 0.20 0.31 0.35 0.24 0.05 0.02 0.02 0.01 0.01 0.02 0.03 0.05 0.05 0.05 0.05 0.05 0.03 0.04
0.00 0.02 0.11 0.14 0.08 0.08 0.08 0.09 0.11 0.07 0.15 0.16 0.17 0.15 0.16 0.16 0.13 0.08 0.07 0.05 0.04 0.07 0.16 0.26 0.22 0.14 0.06 0.02 0.02 0.01 0.00 0.00 0.00 0.00 0.00 0.01 0.04 0.07 0.04 0.04 0.08 0.08 0.11
0.00 0.02 0.06 0.16 0.09 0.09 0.08 0.08 0.06 0.09 0.14 0.16 0.15 0.14 0.16 0.12 0.11 0.08 0.05 0.04 0.08 0.15 0.24 0.18 0.07 0.02 0.00 0.00 0.00 0.00 0.00 0.00 0.00 0.00 0.00 0.00 0.01 0.07 0.06 0.06 0.07 0.05 0.08
0.01 0.02 0.04 0.16 0.09 0.06 0.04 0.05 0.06 0.11 0.12 0.10 0.10 0.14 0.22 0.17 0.12 0.06 0.06 0.07 0.09 0.09 0.06 0.03 0.01 0.00 0.00 0.00 0.00 0.00 0.00 0.00 0.00 0.00 0.00 0.00 0.01 0.05 0.06 0.07 0.10 0.11 0.08
0.03 0.03 0.05 0.17 0.14 0.08 0.03 0.04 0.09 0.08 0.08 0.09 0.12 0.25 0.28 0.27 0.10 0.06 0.06 0.04 0.02 0.03 0.02 0.01 0.00 0.00 0.00 0.00 0.00 0.00 0.01 0.01 0.00 0.00 0.00 0.01 0.03 0.09 0.08 0.09 0.11 0.15 0.19
0.04 0.06 0.09 0.22 0.17 0.07 0.04 0.08 0.09 0.06 0.08 0.08 0.16 0.33 0.41 0.29 0.11 0.08 0.02 0.01 0.01 0.01 0.01 0.00 0.00 0.01 0.00 0.00 0.00 0.00 0.01 0.01 0.00 0.00 0.00 0.01 0.03 0.11 0.07 0.08 0.11 0.17 0.20
0.05 0.14 0.18 0.37 0.22 0.06 0.06 0.09 0.06 0.06 0.10 0.06 0.13 0.39 0.47 0.19 0.11 0.11 0.04 0.01 0.01 0.01 0.00 0.01 0.01 0.01 0.00 0.00 0.00 0.00 0.00 0.00 0.00 0.00 0.00 0.00 0.01 0.05 0.03 0.03 0.06 0.08 0.09
0.12 0.20 0.23 0.40 0.41 0.15 0.07 0.07 0.04 0.05 0.10 0.08 0.16 0.45 0.53 0.15 0.08 0.10 0.05 0.01 0.01 0.01 0.01 0.01 0.01 0.01 0.01 0.01 0.00 0.00 0.00 0.00 0.00 0.00 0.00 0.00 0.00 0.00 0.01 0.02 0.04 0.05 0.05
0.61 0.47 0.31 0.29 0.30 0.13 0.09 0.05 0.04 0.05 0.08 0.09 0.15 0.35 0.31 0.04 0.04 0.08 0.05 0.02 0.01 0.01 0.01 0.03 0.04 0.01 0.01 0.00 0.00 0.00 0.00 0.00 0.00 0.00 0.00 0.00 0.00 0.01 0.03 0.06 0.08 0.08 0.08
1.00 0.93 0.54 0.49 0.22 0.05 0.11 0.07 0.03 0.03 0.04 0.05 0.14 0.29 0.07 0.00 0.01 0.02 0.01 0.02 0.02 0.02 0.03 0.04 0.01 0.01 0.01 0.00 0.00 0.00 0.00 0.00 0.00 0.00 0.00 0.00 0.00 0.07 0.14 0.14 0.12 0.10 0.11
1.57 1.15 0.98 0.80 0.35 0.07 0.18 0.13 0.02 0.02 0.02 0.02 0.07 0.21 0.06 0.00 0.00 0.00 0.00 0.02 0.02 0.04 0.03 0.00 0.01 0.02 0.01 0.00 0.00 0.00 0.00 0.00 0.00 0.00 0.00 0.01 0.07 0.15 0.10 0.06 0.05 0.07 0.07
1.55 1.30 1.37 1.03 0.89 0.19 0.16 0.20 0.06 0.02 0.01 0.01 0.02 0.09 0.04 0.00 0.00 0.00 0.00 0.01 0.01 0.03 0.00 0.00 0.01 0.01 0.00 0.00 0.00 0.00 0.00 0.00 0.00 0.00 0.00 0.02 0.06 0.08 0.05 0.03 0.05 0.04 0.04
1.56 1.33 1.21 1.05 1.34 0.75 0.40 0.31 0.22 0.03 0.01 0.01 0.00 0.02 0.04 0.00 0.00 0.00 0.00 0.00 0.00 0.00 0.00 0.00 0.00 0.00 0.00 0.00 0.00 0.00 0.00 0.00 0.00 0.00 0.00 0.04 0.04 0.05 0.01 0.01 0.01 0.01 0.01
0.62 1.47 1.64 1.30 1.33 1.31 1.01 0.51 0.24 0.09 0.01 0.01 0.00 0.00 0.01 0.00 0.00 0.00 0.00 0.00 0.00 0.00 0.00 0.00 0.00 0.00 0.00 0.00 0.00 0.00 0.00 0.00 0.00 0.00 0.00 0.00 0.00 0.01 0.00 0.00 0.00 0.00 0.01
0.37 0.67 0.83 1.08 1.49 1.59 1.09 0.95 0.59 0.22 0.04 0.00 0.00 0.00 0.00 0.00 0.00 0.00 0.00 0.00 0.00 0.00 0.00 0.00 0.00 0.00 0.00 0.00 0.00 0.00 0.00 0.00 0.00 0.00 0.00 0.00 0.00 0.00 0.00 0.01 0.01 0.03 0.08
0.38 0.35 0.41 0.47 0.77 1.26 1.08 0.45 0.69 0.54 0.23 0.03 0.00 0.00 0.00 0.00 0.00 0.00 0.00 0.00 0.00 0.00 0.00 0.00 0.00 0.00 0.00 0.00 0.00 0.00 0.00 0.00 0.00 0.00 0.00 0.00 0.00 0.00 0.00 0.00 0.00 0.03 0.14
0.23 0.31 0.24 0.33 0.40 0.56 1.13 0.62 0.32 0.37 0.49 0.21 0.02 0.00 0.00 0.00 0.00 0.00 0.00 0.00 0.00 0.00 0.00 0.00 0.00 0.00 0.00 0.00 0.00 0.00 0.00 0.00 0.00 0.00 0.00 0.00 0.00 0.00 0.00 0.00 0.00 0.00 0.01
0.24 0.17 0.22 0.23 0.27 0.22 0.31 0.55 0.43 0.36 0.35 0.37 0.16 0.02 0.00 0.00 0.00 0.00 0.00 0.00 0.00 0.00 0.00 0.00 0.00 0.00 0.00 0.00 0.00 0.00 0.00 0.00 0.00 0.00 0.00 0.00 0.00 0.00 0.00 0.00 0.00 0.00 0.00
0.29 0.37 0.32 0.33 0.34 0.31 0.32 0.41 0.45 0.38 0.24 0.27 0.32 0.13 0.02 0.00 0.00 0.00 0.00 0.00 0.00 0.00 0.00 0.00 0.00 0.00 0.00 0.00 0.00 0.00 0.00 0.00 0.00 0.00 0.00 0.00 0.00 0.00 0.00 0.00 0.00 0.00 0.01
0.27 0.39 0.42 0.42 0.44 0.62 0.70 0.80 0.78 0.49 0.21 0.33 0.37 0.29 0.23 0.08 0.03 0.02 0.01 0.00 0.00 0.00 0.00 0.00 0.00 0.00 0.00 0.01 0.01 0.01 0.00 0.00 0.00 0.00 0.00 0.01 0.02 0.01 0.00 0.00 0.00 0.00 0.00
0.59 0.56 0.64 0.61 0.48 0.77 0.82 0.75 0.57 0.45 0.27 0.16 0.24 0.43 0.56 0.38 0.27 0.18 0.07 0.03 0.01 0.00 0.01 0.01 0.01 0.01 0.01 0.05 0.06 0.01 0.00 0.00 0.00 0.00 0.00 0.02 0.01 0.01 0.00 0.00 0.00 0.00 0.00
0.79 0.95 0.76 0.72 0.83 0.72 0.81 0.80 0.84 0.82 0.67 0.47 0.56 0.45 0.48 0.56 0.52 0.46 0.37 0.24 0.11 0.06 0.04 0.04 0.06 0.08 0.08 0.14 0.22 0.10 0.03 0.00 0.00 0.00 0.00 0.00 0.00 0.00 0.00 0.00 0.00 0.00 0.00
0.94 0.92 1.02 0.95 0.93 0.77 0.98 1.35 1.48 1.54 1.24 0.90 0.48 0.45 0.55 0.57 0.75 0.74 0.79 0.92 0.87 0.61 0.42 0.40 0.32 0.28 0.32 0.28 0.25 0.27 0.09 0.02 0.01 0.00 0.00 0.00 0.00 0.00 0.00 0.01 0.01 0.01 0.01
0.80 0.77 0.89 1.16 1.23 1.34 1.19 1.46 1.57 1.82 1.81 1.44 1.61 1.35 1.08 1.02 1.03 1.12 1.17 1.32 1.35 1.09 1.13 1.22 1.16 0.96 0.88 0.66 0.56 0.38 0.26 0.15 0.10 0.04 0.01 0.01 0.01 0.00 0.00 0.01 0.01 0.01 0.01
0.49 0.55 0.56 0.73 1.11 1.64 1.46 1.71 2.05 1.66 1.59 1.49 1.38 1.29 1.25 1.20 1.08 1.09 1.25 1.44 1.57 1.55 1.34 1.25 1.33 1.36 1.25 1.17 0.96 0.69 0.39 0.25 0.15 0.11 0.05 0.05 0.05 0.04 0.02 0.01 0.00 0.00 0.00
0.22 0.31 0.41 0.46 0.70 1.07 1.58 1.71 1.88 1.97 1.64 1.41 1.38 1.15 1.04 0.97 0.92 0.90 1.00 1.16 1.24 1.19 1.12 1.05 0.96 0.81 0.83 0.85 0.84 0.80 0.65 0.55 0.39 0.26 0.18 0.11 0.08 0.05 0.02 0.01 0.00 0.00 0.00

GFSSE_prec_precacc_093.txt.gz
Total_Precipitation_Accumulation
0.00 0.03 0.16 0.11 0.07 0.06 0.04 0.05 0.08 0.08 0.11 0.16 0.15 0.10 0.09 0.11 0.10 0.08 0.06 0.06 0.07 0.07 0.09 0.14 0.17 0.24 0.34 0.36 0.24 0.06 0.03 0.02 0.01 0.01 0.02 0.04 0.05 0.06 0.06 0.06 0.06 0.03 0.05
0.00 0.02 0.11 0.14 0.08 0.08 0.08 0.09 0.11 0.07 0.15 0.16 0.17 0.15 0.16 0.16 0.13 0.08 0.07 0.05 0.04 0.07 0.17 0.28 0.23 0.16 0.07 0.02 0.02 0.01 0.00 0.00 0.00 0.00 0.00 0.01 0.04 0.07 0.04 0.04 0.08 0.08 0.13
0.00 0.02 0.06 0.16 0.09 0.09 0.08 0.08 0.06 0.09 0.14 0.16 0.16 0.14 0.16 0.13 0.13 0.08 0.05 0.04 0.08 0.16 0.25 0.19 0.07 0.02 0.01 0.01 0.01 0.00 0.00 0.00 0.00 0.00 0.00 0.00 0.01 0.07 0.06 0.06 0.07 0.05 0.08
0.01 0.02 0.04 0.16 0.09 0.06 0.04 0.05 0.06 0.11 0.13 0.10 0.11 0.14 0.22 0.18 0.16 0.07 0.06 0.07 0.11 0.10 0.06 0.03 0.01 0.00 0.01 0.00 0.00 0.00 0.00 0.00 0.00 0.00 0.00 0.00 0.01 0.05 0.06 0.07 0.10 0.11 0.08
0.03 0.03 0.05 0.17 0.14 0.08 0.03 0.04 0.09 0.08 0.08 0.10 0.12 0.27 0.29 0.30 0.13 0.07 0.06 0.04 0.04 0.03 0.02 0.01 0.00 0.00 0.00 0.00 0.00 0.00 0.01 0.01 0.00 0.00 0.00 0.01 0.03 0.09 0.08 0.09 0.11 0.15 0.19
0.04 0.06 0.09 0.22 0.17 0.07 0.04 0.08 0.09 0.06 0.08 0.08 0.16 0.34 0.42 0.35 0.16 0.08 0.02 0.01 0.01 0.01 0.01 0.00 0.01 0.01 0.00 0.00 0.00 0.00 0.01 0.01 0.00 0.00 0.00 0.01 0.03 0.11 0.07 0.08 0.11 0.17 0.20
0.06 0.14 0.18 0.37 0.23 0.06 0.06 0.09 0.06 0.06 0.10 0.07 0.14 0.43 0.53 0.27 0.16 0.12 0.04 0.01 0.01 0.01 0.01 0.01 0.01 0.01 0.00 0.00 0.00 0.00 0.00 0.00 0.00 0.00 0.00 0.00 0.01 0.05 0.03 0.03 0.06 0.08 0.09
0.13 0.20 0.23 0.41 0.44 0.16 0.08 0.07 0.04 0.05 0.11 0.09 0.18 0.52 0.67 0.25 0.10 0.11 0.05 0.01 0.01 0.01 0.01 0.02 0.02 0.01 0.01 0.01 0.00 0.00 0.00 0.00 0.00 0.00 0.00 0.00 0.00 0.00 0.01 0.02 0.04 0.05 0.05
0.66 0.49 0.31 0.30 0.31 0.13 0.09 0.05 0.04 0.05 0.10 0.09 0.17 0.42 0.45 0.12 0.05 0.08 0.05 0.02 0.02 0.02 0.02 0.04 0.04 0.01 0.01 0.00 0.00 0.00 0.00 0.00 0.00 0.00 0.00 0.00 0.00 0.01 0.03 0.06 0.08 0.08 0.08
1.10 1.02 0.61 0.54 0.26 0.07 0.15 0.08 0.03 0.03 0.05 0.05 0.15 0.35 0.13 0.03 0.01 0.02 0.02 0.02 0.03 0.03 0.04 0.04 0.01 0.01 0.01 0.00 0.00 0.00 0.00 0.00 0.00 0.00 0.00 0.00 0.00 0.07 0.14 0.14 0.12 0.10 0.11
1.69 1.23 1.06 0.84 0.45 0.11 0.21 0.18 0.03 0.02 0.02 0.02 0.09 0.26 0.09 0.00 0.00 0.00 0.00 0.02 0.03 0.04 0.03 0.00 0.01 0.02 0.01 0.00 0.00 0.00 0.00 0.00 0.00 0.00 0.00 0.01 0.07 0.15 0.10 0.06 0.05 0.07 0.07
1.75 1.53 1.54 1.08 0.97 0.32 0.19 0.25 0.12 0.06 0.02 0.01 0.06 0.16 0.07 0.00 0.00 0.00 0.00 0.01 0.02 0.03 0.00 0.00 0.01 0.01 0.00 0.00 0.00 0.00 0.00 0.00 0.00 0.00 0.00 0.02 0.06 0.08 0.05 0.03 0.05 0.04 0.04
1.67 1.39 1.32 1.14 1.46 0.84 0.55 0.39 0.28 0.06 0.04 0.01 0.01 0.12 0.11 0.01 0.00 0.00 0.00 0.01 0.00 0.00 0.00 0.00 0.00 0.00 0.00 0.00 0.00 0.00 0.00 0.00 0.00 0.00 0.00 0.04 0.04 0.05 0.01 0.01 0.01 0.01 0.01
0.65 1.49 1.68 1.32 1.38 1.34 1.13 0.83 0.35 0.15 0.03 0.03 0.00 0.02 0.11 0.01 0.00 0.00 0.00 0.00 0.00 0.00 0.00 0.00 0.00 0.00 0.00 0.00 0.00 0.00 0.00 0.00 0.00 0.00 0.00 0.00 0.00 0.01 0.00 0.00 0.00 0.00 0.01
0.40 0.72 0.91 1.10 1.50 1.59 1.11 1.16 0.97 0.36 0.08 0.01 0.01 0.00 0.04 0.03 0.00 0.00 0.00 0.00 0.00 0.00 0.00 0.00 0.00 0.00 0.00 0.00 0.00 0.00 0.00 0.00 0.00 0.00 0.00 0.00 0.00 0.00 0.00 0.01 0.01 0.03 0.08
0.47 0.53 0.49 0.50 0.78 1.26 1.09 0.49 1.19 1.45 0.63 0.06 0.00 0.00 0.00 0.01 0.00 0.00 0.00 0.00 0.00 0.00 0.00 0.00 0.00 0.00 0.00 0.00 0.00 0.00 0.00 0.00 0.00 0.00 0.00 0.00 0.00 0.00 0.00 0.00 0.00 0.03 0.14
0.35 0.40 0.25 0.33 0.40 0.56 1.13 0.62 0.40 0.96 1.34 0.47 0.04 0.00 0.00 0.00 0.00 0.00 0.00 0.00 0.00 0.00 0.00 0.00 0.00 0.00 0.00 0.00 0.00 0.00 0.00 0.00 0.00 0.00 0.00 0.00 0.00 0.00 0.00 0.00 0.00 0.00 0.01
0.26 0.18 0.22 0.23 0.27 0.22 0.31 0.55 0.43 0.43 0.57 0.67 0.24 0.03 0.00 0.00 0.00 0.00 0.00 0.00 0.00 0.00 0.00 0.00 0.00 0.00 0.00 0.00 0.00 0.00 0.00 0.00 0.00 0.00 0.00 0.00 0.00 0.00 0.00 0.00 0.00 0.00 0.00
0.31 0.37 0.32 0.34 0.35 0.31 0.32 0.41 0.47 0.42 0.26 0.37 0.50 0.17 0.02 0.00 0.00 0.00 0.00 0.00 0.00 0.00 0.00 0.00 0.00 0.00 0.00 0.00 0.00 0.00 0.00 0.00 0.00 0.00 0.00 0.00 0.00 0.00 0.00 0.00 0.00 0.00 0.01
0.31 0.44 0.42 0.42 0.44 0.63 0.73 0.84 0.81 0.57 0.27 0.42 0.45 0.38 0.27 0.08 0.03 0.02 0.01 0.00 0.00 0.00 0.00 0.00 0.00 0.00 0.00 0.01 0.01 0.01 0.00 0.00 0.00 0.00 0.00 0.01 0.02 0.01 0.00 0.00 0.00 0.00 0.00
0.69 0.60 0.64 0.61 0.48 0.78 0.85 0.77 0.59 0.47 0.37 0.23 0.33 0.50 0.62 0.45 0.30 0.18 0.07 0.03 0.01 0.00 0.01 0.01 0.01 0.01 0.01 0.05 0.06 0.01 0.00 0.00 0.00 0.00 0.00 0.02 0.01 0.01 0.00 0.00 0.00 0.00 0.00
0.81 0.97 0.76 0.72 0.84 0.75 0.86 0.83 0.86 0.84 0.73 0.61 0.68 0.52 0.56 0.61 0.63 0.52 0.38 0.25 0.11 0.06 0.04 0.04 0.06 0.08 0.08 0.14 0.22 0.10 0.03 0.00 0.00 0.00 0.00 0.00 0.00 0.00 0.00 0.00 0.00 0.00 0.00
1.01 1.00 1.07 0.98 0.96 0.81 1.05 1.42 1.56 1.61 1.35 1.13 0.72 0.63 0.77 0.75 0.91 0.91 0.91 0.94 0.87 0.61 0.42 0.40 0.32 0.30 0.33 0.28 0.26 0.28 0.10 0.02 0.01 0.00 0.00 0.00 0.00 0.00 0.00 0.01 0.01 0.01 0.01
0.89 0.82 0.90 1.20 1.25 1.36 1.21 1.50 1.67 1.90 1.88 1.63 1.94 1.66 1.26 1.16 1.15 1.25 1.37 1.50 1.43 1.10 1.13 1.25 1.25 1.07 0.98 0.75 0.60 0.45 0.33 0.18 0.11 0.05 0.01 0.01 0.01 0.00 0.00 0.01 0.01 0.01 0.01
0.50 0.57 0.56 0.73 1.15 1.81 1.62 1.74 2.18 1.82 1.75 1.68 1.66 1.78 1.48 1.44 1.21 1.18 1.32 1.55 1.68 1.64 1.39 1.32 1.44 1.48 1.37 1.33 1.13 0.88 0.64 0.49 0.34 0.22 0.07 0.05 0.05 0.04 0.02 0.01 0.00 0.00 0.00
0.22 0.31 0.41 0.46 0.72 1.23 2.01 2.13 2.26 2.40 1.95 1.70 1.64 1.63 1.53 1.10 0.98 0.94 1.06 1.21 1.28 1.23 1.20 1.10 0.97 0.84 0.85 0.87 0.86 0.82 0.74 0.73 0.59 0.52 0.36 0.16 0.11 0.07 0.02 0.01 0.00 0.00 0.00

GFSSE_prec_precacc_096.txt.gz
Total_Precipitation_Accumulation
0.00 0.03 0.16 0.11 0.07 0.06 0.04 0.05 0.09 0.08 0.11 0.16 0.15 0.10 0.10 0.12 0.11 0.08 0.06 0.06 0.07 0.07 0.09 0.15 0.18 0.25 0.34 0.37 0.27 0.07 0.03 0.02 0.01 0.01 0.02 0.04 0.07 0.07 0.07 0.06 0.06 0.04 0.07
0.00 0.02 0.11 0.14 0.08 0.08 0.08 0.09 0.11 0.07 0.16 0.17 0.17 0.15 0.16 0.17 0.14 0.08 0.07 0.05 0.04 0.08 0.18 0.31 0.25 0.17 0.08 0.03 0.03 0.01 0.00 0.00 0.00 0.00 0.00 0.01 0.04 0.07 0.04 0.04 0.09 0.10 0.16
0.00 0.02 0.06 0.16 0.09 0.09 0.08 0.08 0.06 0.09 0.14 0.17 0.16 0.14 0.16 0.14 0.14 0.08 0.05 0.04 0.09 0.18 0.27 0.21 0.08 0.03 0.01 0.01 0.01 0.00 0.00 0.00 0.00 0.00 0.00 0.00 0.01 0.07 0.06 0.06 0.07 0.05 0.09
0.01 0.02 0.04 0.16 0.09 0.06 0.04 0.05 0.06 0.11 0.13 0.10 0.12 0.15 0.22 0.18 0.17 0.07 0.06 0.07 0.13 0.11 0.07 0.03 0.01 0.01 0.01 0.00 0.00 0.00 0.00 0.00 0.00 0.00 0.00 0.00 0.01 0.05 0.06 0.07 0.10 0.11 0.08
0.03 0.03 0.05 0.17 0.14 0.08 0.03 0.04 0.09 0.08 0.08 0.10 0.13 0.30 0.31 0.31 0.16 0.07 0.06 0.05 0.05 0.03 0.02 0.01 0.00 0.00 0.00 0.00 0.00 0.00 0.01 0.01 0.00 0.00 0.00 0.01 0.03 0.09 0.08 0.09 0.11 0.15 0.19
0.04 0.06 0.09 0.22 0.17 0.07 0.04 0.08 0.09 0.06 0.08 0.09 0.16 0.37 0.44 0.37 0.20 0.09 0.02 0.02 0.02 0.01 0.01 0.00 0.01 0.01 0.00 0.00 0.00 0.00 0.01 0.01 0.00 0.00 0.00 0.01 0.03 0.11 0.07 0.08 0.11 0.17 0.20
0.06 0.14 0.18 0.37 0.23 0.06 0.06 0.09 0.06 0.06 0.10 0.07 0.15 0.44 0.55 0.30 0.27 0.14 0.05 0.01 0.01 0.01 0.01 0.01 0.01 0.01 0.00 0.00 0.00 0.00 0.00 0.00 0.00 0.00 0.00 0.00 0.01 0.05 0.03 0.03 0.06 0.08 0.09
0.13 0.20 0.23 0.41 0.45 0.16 0.08 0.07 0.04 0.06 0.12 0.09 0.19 0.54 0.71 0.31 0.21 0.14 0.06 0.02 0.01 0.01 0.01 0.02 0.02 0.01 0.01 0.01 0.00 0.00 0.00 0.00 0.00 0.00 0.00 0.00 0.00 0.00 0.01 0.02 0.04 0.05 0.05
0.76 0.60 0.33 0.30 0.31 0.13 0.09 0.05 0.04 0.05 0.11 0.10 0.18 0.45 0.51 0.21 0.13 0.10 0.05 0.02 0.02 0.02 0.02 0.04 0.04 0.01 0.01 0.00 0.00 0.00 0.00 0.00 0.00 0.00 0.00 0.00 0.00 0.01 0.03 0.06 0.08 0.08 0.08
1.25 1.24 0.78 0.57 0.26 0.07 0.15 0.08 0.03 0.03 0.05 0.06 0.16 0.36 0.17 0.12 0.04 0.02 0.02 0.02 0.03 0.04 0.05 0.04 0.01 0.01 0.01 0.00 0.00 0.00 0.00 0.00 0.00 0.00 0.00 0.00 0.00 0.07 0.14 0.14 0.12 0.10 0.11
1.78 1.34 1.21 0.94 0.50 0.12 0.22 0.19 0.03 0.02 0.02 0.03 0.10 0.27 0.16 0.05 0.01 0.00 0.00 0.02 0.03 0.06 0.04 0.00 0.01 0.02 0.01 0.00 0.00 0.00 0.00 0.00 0.00 0.00 0.00 0.01 0.07 0.15 0.10 0.06 0.05 0.07 0.07
1.78 1.65 1.72 1.23 1.12 0.40 0.23 0.29 0.13 0.06 0.02 0.01 0.09 0.18 0.11 0.04 0.00 0.00 0.00 0.01 0.02 0.04 0.01 0.00 0.01 0.01 0.00 0.00 0.00 0.00 0.00 0.00 0.00 0.00 0.00 0.02 0.06 0.08 0.05 0.03 0.05 0.04 0.04
1.70 1.41 1.40 1.32 1.58 0.87 0.57 0.40 0.29 0.09 0.06 0.01 0.02 0.20 0.17 0.04 0.02 0.00 0.00 0.01 0.01 0.01 0.00 0.00 0.00 0.00 0.00 0.00 0.00 0.00 0.00 0.00 0.00 0.00 0.00 0.04 0.04 0.05 0.01 0.01 0.01 0.01 0.01
0.68 1.52 1.74 1.38 1.46 1.35 1.14 0.83 0.35 0.16 0.06 0.05 0.03 0.05 0.23 0.10 0.04 0.01 0.01 0.00 0.00 0.00 0.00 0.00 0.00 0.00 0.00 0.00 0.00 0.00 0.00 0.00 0.00 0.00 0.00 0.00 0.00 0.01 0.00 0.00 0.00 0.00 0.01
0.40 0.74 0.94 1.18 1.57 1.65 1.14 1.17 0.97 0.37 0.10 0.01 0.04 0.05 0.08 0.20 0.12 0.05 0.01 0.00 0.00 0.00 0.00 0.00 0.00 0.00 0.00 0.00 0.00 0.00 0.00 0.00 0.00 0.00 0.00 0.00 0.00 0.00 0.00 0.01 0.01 0.03 0.08
0.47 0.54 0.52 0.55 0.88 1.37 1.12 0.51 1.20 1.45 0.64 0.09 0.01 0.02 0.03 0.08 0.17 0.05 0.03 0.00 0.00 0.00 0.00 0.00 0.00 0.00 0.00 0.00 0.00 0.00 0.00 0.00 0.00 0.00 0.00 0.00 0.00 0.00 0.00 0.00 0.00 0.03 0.14
0.35 0.40 0.25 0.33 0.41 0.59 1.17 0.63 0.41 0.96 1.40 0.67 0.09 0.03 0.02 0.03 0.05 0.04 0.02 0.00 0.00 0.00 0.00 0.00 0.00 0.00 0.00 0.00 0.00 0.00 0.00 0.00 0.00 0.00 0.00 0.00 0.00 0.00 0.00 0.00 0.00 0.00 0.01
0.26 0.18 0.22 0.23 0.27 0.22 0.32 0.56 0.43 0.43 0.62 0.82 0.37 0.06 0.02 0.01 0.02 0.03 0.02 0.00 0.00 0.00 0.00 0.00 0.00 0.00 0.00 0.00 0.00 0.00 0.00 0.00 0.00 0.00 0.00 0.00 0.00 0.00 0.00 0.00 0.00 0.00 0.00
0.31 0.37 0.32 0.34 0.36 0.33 0.32 0.41 0.47 0.42 0.28 0.43 0.53 0.18 0.03 0.01 0.01 0.01 0.01 0.01 0.00 0.00 0.00 0.00 0.00 0.00 0.00 0.00 0.00 0.00 0.00 0.00 0.00 0.00 0.00 0.00 0.00 0.00 0.00 0.00 0.00 0.00 0.01
0.31 0.45 0.43 0.42 0.44 0.64 0.76 0.85 0.81 0.57 0.29 0.49 0.51 0.39 0.27 0.08 0.04 0.03 0.01 0.01 0.00 0.00 0.00 0.00 0.00 0.00 0.00 0.01 0.01 0.01 0.00 0.00 0.00 0.00 0.00 0.01 0.02 0.01 0.00 0.00 0.00 0.00 0.00
0.71 0.62 0.66 0.62 0.48 0.79 0.89 0.79 0.59 0.48 0.39 0.28 0.41 0.56 0.63 0.45 0.31 0.19 0.07 0.03 0.02 0.00 0.01 0.01 0.01 0.01 0.01 0.05 0.06 0.01 0.00 0.00 0.00 0.00 0.00 0.02 0.01 0.01 0.00 0.00 0.00 0.00 0.00
0.81 0.97 0.77 0.72 0.84 0.75 0.89 0.88 0.89 0.85 0.76 0.65 0.77 0.62 0.62 0.63 0.64 0.52 0.38 0.25 0.11 0.06 0.04 0.05 0.06 0.08 0.08 0.14 0.22 0.10 0.03 0.00 0.00 0.00 0.00 0.00 0.00 0.00 0.00 0.00 0.00 0.00 0.00
1.04 1.06 1.18 1.05 1.04 0.87 1.07 1.45 1.61 1.64 1.37 1.18 0.82 0.77 0.87 0.82 0.97 0.95 0.92 0.94 0.87 0.61 0.42 0.41 0.33 0.30 0.34 0.29 0.26 0.28 0.10 0.02 0.01 0.00 0.00 0.00 0.00 0.00 0.00 0.01 0.01 0.01 0.01
0.91 0.82 0.92 1.26 1.34 1.39 1.22 1.52 1.73 1.97 1.94 1.68 2.01 1.79 1.43 1.33 1.32 1.47 1.56 1.67 1.57 1.15 1.15 1.26 1.29 1.13 1.05 0.87 0.67 0.49 0.34 0.18 0.11 0.05 0.02 0.02 0.01 0.01 0.00 0.01 0.01 0.01 0.01
0.51 0.58 0.57 0.74 1.16 1.82 1.64 1.77 2.23 1.87 1.79 1.75 1.74 1.93 1.68 1.62 1.36 1.33 1.50 1.77 1.94 1.90 1.55 1.45 1.59 1.61 1.47 1.47 1.24 1.01 0.75 0.56 0.38 0.28 0.14 0.10 0.08 0.05 0.03 0.01 0.00 0.00 0.00
0.24 0.32 0.41 0.46 0.72 1.24 2.05 2.16 2.33 2.47 2.03 1.79 1.73 1.78 1.86 1.41 1.18 1.10 1.23 1.42 1.47 1.44 1.38 1.26 1.16 0.98 0.95 0.94 0.92 0.87 0.78 0.77 0.62 0.55 0.41 0.24 0.21 0.15 0.06 0.01 0.00 0.00 0.00

GFSSE_prec_precacc_099.txt.gz
Total_Precipitation_Accumulation
0.00 0.03 0.16 0.11 0.07 0.06 0.04 0.05 0.09 0.08 0.11 0.16 0.15 0.10 0.10 0.12 0.11 0.08 0.06 0.06 0.07 0.07 0.09 0.15 0.19 0.25 0.35 0.38 0.27 0.07 0.03 0.02 0.02 0.02 0.02 0.05 0.08 0.07 0.07 0.08 0.07 0.06 0.10
0.00 0.02 0.11 0.14 0.08 0.08 0.08 0.09 0.11 0.07 0.16 0.17 0.17 0.15 0.17 0.18 0.14 0.08 0.07 0.05 0.04 0.09 0.18 0.31 0.27 0.18 0.10 0.04 0.03 0.01 0.00 0.00 0.00 0.00 0.00 0.01 0.05 0.07 0.04 0.04 0.10 0.12 0.19
0.00 0.02 0.06 0.16 0.09 0.09 0.08 0.08 0.06 0.09 0.14 0.17 0.16 0.14 0.16 0.16 0.14 0.08 0.05 0.04 0.09 0.19 0.29 0.23 0.09 0.03 0.01 0.01 0.01 0.00 0.00 0.00 0.00 0.00 0.00 0.00 0.01 0.07 0.06 0.06 0.07 0.06 0.09
0.01 0.02 0.04 0.16 0.09 0.06 0.04 0.05 0.06 0.11 0.13 0.11 0.12 0.15 0.23 0.19 0.18 0.07 0.06 0.08 0.14 0.12 0.09 0.04 0.01 0.01 0.01 0.00 0.00 0.00 0.00 0.00 0.00 0.00 0.00 0.00 0.01 0.05 0.06 0.07 0.10 0.11 0.08
0.03 0.03 0.05 0.17 0.14 0.08 0.03 0.04 0.09 0.08 0.08 0.10 0.13 0.31 0.32 0.31 0.17 0.07 0.06 0.07 0.09 0.05 0.02 0.01 0.00 0.00 0.00 0.00 0.00 0.00 0.01 0.01 0.00 0.00 0.00 0.01 0.03 0.09 0.08 0.09 0.11 0.15 0.19
0.04 0.06 0.09 0.22 0.17 0.07 0.04 0.08 0.09 0.06 0.08 0.09 0.17 0.38 0.45 0.39 0.21 0.10 0.04 0.07 0.02 0.01 0.01 0.00 0.01 0.01 0.00 0.00 0.00 0.00 0.01 0.01 0.00 0.00 0.00 0.01 0.03 0.11 0.07 0.08 0.11 0.17 0.20
0.06 0.14 0.18 0.37 0.23 0.06 0.06 0.09 0.06 0.06 0.10 0.07 0.15 0.44 0.56 0.31 0.32 0.19 0.10 0.06 0.01 0.01 0.01 0.01 0.01 0.01 0.00 0.00 0.00 0.00 0.00 0.00 0.00 0.00 0.00 0.00 0.01 0.05 0.03 0.03 0.06 0.08 0.09
0.15 0.20 0.23 0.41 0.45 0.16 0.08 0.07 0.04 0.06 0.12 0.09 0.19 0.55 0.73 0.35 0.26 0.20 0.14 0.04 0.01 0.01 0.01 0.02 0.02 0.01 0.01 0.01 0.00 0.00 0.00 0.00 0.00 0.00 0.00 0.00 0.00 0.00 0.01 0.02 0.04 0.05 0.05
0.91 0.75 0.42 0.34 0.33 0.14 0.10 0.05 0.04 0.05 0.11 0.10 0.18 0.46 0.54 0.26 0.16 0.16 0.12 0.03 0.02 0.02 0.02 0.04 0.04 0.01 0.01 0.00 0.00 0.00 0.00 0.00 0.00 0.00 0.00 0.00 0.00 0.01 0.03 0.06 0.08 0.08 0.08
1.40 1.41 1.01 0.78 0.36 0.11 0.16 0.08 0.03 0.03 0.05 0.06 0.16 0.36 0.17 0.14 0.05 0.06 0.03 0.02 0.03 0.05 0.06 0.04 0.01 0.01 0.01 0.00 0.00 0.00 0.00 0.00 0.00 0.00 0.00 0.00 0.00 0.07 0.14 0.14 0.12 0.10 0.11
1.87 1.43 1.25 1.00 0.63 0.21 0.23 0.19 0.03 0.02 0.02 0.03 0.10 0.27 0.16 0.07 0.02 0.00 0.00 0.02 0.03 0.06 0.05 0.00 0.01 0.02 0.01 0.00 0.00 0.00 0.00 0.00 0.00 0.00 0.00 0.01 0.07 0.15 0.10 0.06 0.05 0.07 0.07
1.81 1.70 1.78 1.31 1.18 0.44 0.30 0.35 0.14 0.06 0.02 0.01 0.09 0.18 0.11 0.07 0.01 0.00 0.00 0.01 0.02 0.05 0.01 0.00 0.01 0.01 0.00 0.00 0.00 0.00 0.00 0.00 0.00 0.00 0.00 0.02 0.06 0.08 0.05 0.03 0.05 0.04 0.04
1.73 1.45 1.45 1.44 1.75 0.91 0.57 0.42 0.29 0.09 0.06 0.01 0.02 0.20 0.17 0.07 0.03 0.00 0.00 0.01 0.01 0.01 0.01 0.00 0.00 0.00 0.00 0.00 0.00 0.00 0.00 0.00 0.00 0.00 0.00 0.04 0.04 0.05 0.01 0.01 0.01 0.01 0.01
0.70 1.55 1.76 1.42 1.59 1.51 1.21 0.86 0.36 0.16 0.07 0.05 0.03 0.05 0.23 0.12 0.06 0.03 0.01 0.00 0.00 0.00 0.00 0.00 0.00 0.00 0.00 0.00 0.00 0.00 0.00 0.00 0.00 0.00 0.00 0.00 0.00 0.01 0.00 0.00 0.00 0.00 0.01
0.41 0.74 0.94 1.20 1.61 1.77 1.24 1.27 1.02 0.37 0.10 0.01 0.04 0.05 0.08 0.22 0.16 0.08 0.03 0.01 0.00 0.00 0.00 0.00 0.00 0.00 0.00 0.00 0.00 0.00 0.00 0.00 0.00 0.00 0.00 0.00 0.00 0.00 0.00 0.01 0.01 0.03 0.08
0.47 0.54 0.52 0.56 0.91 1.40 1.16 0.56 1.22 1.45 0.64 0.09 0.01 0.02 0.03 0.08 0.20 0.29 0.17 0.07 0.01 0.00 0.00 0.00 0.00 0.00 0.00 0.00 0.00 0.00 0.00 0.00 0.00 0.00 0.00 0.00 0.00 0.00 0.00 0.00 0.00 0.03 0.14
0.35 0.40 0.25 0.33 0.41 0.59 1.17 0.65 0.42 0.97 1.40 0.67 0.09 0.03 0.02 0.03 0.06 0.13 0.35 0.27 0.12 0.02 0.00 0.00 0.00 0.00 0.00 0.00 0.00 0.00 0.00 0.00 0.00 0.00 0.00 0.00 0.00 0.00 0.00 0.00 0.00 0.00 0.01
0.26 0.18 0.22 0.23 0.27 0.22 0.32 0.56 0.44 0.43 0.62 0.82 0.37 0.06 0.02 0.01 0.02 0.04 0.04 0.10 0.10 0.06 0.00 0.00 0.00 0.00 0.00 0.00 0.00 0.00 0.00 0.00 0.00 0.00 0.00 0.00 0.00 0.00 0.00 0.00 0.00 0.00 0.00
0.31 0.37 0.32 0.34 0.36 0.33 0.32 0.41 0.47 0.42 0.28 0.43 0.53 0.18 0.03 0.01 0.01 0.02 0.02 0.02 0.00 0.01 0.01 0.00 0.00 0.00 0.00 0.00 0.00 0.00 0.00 0.00 0.00 0.00 0.00 0.00 0.00 0.00 0.00 0.00 0.00 0.00 0.01
0.31 0.45 0.43 0.42 0.44 0.64 0.76 0.85 0.81 0.57 0.29 0.49 0.51 0.39 0.27 0.08 0.04 0.04 0.01 0.01 0.03 0.00 0.00 0.00 0.00 0.00 0.00 0.01 0.01 0.01 0.00 0.00 0.00 0.00 0.00 0.01 0.02 0.01 0.00 0.00 0.00 0.00 0.00
0.71 0.62 0.66 0.62 0.48 0.79 0.89 0.79 0.59 0.48 0.39 0.28 0.41 0.56 0.64 0.46 0.31 0.19 0.08 0.05 0.03 0.01 0.01 0.01 0.01 0.01 0.01 0.05 0.06 0.01 0.00 0.00 0.00 0.00 0.00 0.02 0.01 0.01 0.00 0.00 0.00 0.00 0.00
0.81 0.97 0.77 0.72 0.84 0.75 0.90 0.90 0.90 0.85 0.76 0.65 0.78 0.62 0.66 0.68 0.65 0.56 0.40 0.26 0.13 0.08 0.05 0.05 0.06 0.08 0.08 0.14 0.22 0.10 0.03 0.00 0.00 0.00 0.00 0.00 0.00 0.00 0.00 0.00 0.00 0.00 0.00
1.05 1.06 1.18 1.07 1.07 0.92 1.13 1.54 1.65 1.65 1.38 1.18 0.83 0.81 0.90 0.86 1.02 0.98 0.96 0.97 0.89 0.62 0.42 0.42 0.33 0.30 0.34 0.29 0.26 0.28 0.10 0.02 0.01 0.00 0.00 0.00 0.00 0.00 0.00 0.01 0.01 0.01 0.01
0.93 0.84 0.92 1.26 1.34 1.39 1.23 1.54 1.75 1.99 1.96 1.68 2.02 1.81 1.53 1.47 1.50 1.60 1.62 1.71 1.60 1.16 1.15 1.26 1.30 1.14 1.05 0.87 0.67 0.49 0.34 0.18 0.11 0.05 0.02 0.02 0.01 0.01 0.01 0.01 0.01 0.01 0.01
0.52 0.60 0.58 0.74 1.16 1.83 1.65 1.77 2.24 1.88 1.80 1.75 1.75 1.95 1.74 1.74 1.55 1.58 1.77 1.91 2.02 1.96 1.58 1.49 1.65 1.65 1.51 1.52 1.29 1.04 0.77 0.58 0.41 0.31 0.17 0.14 0.10 0.07 0.04 0.01 0.01 0.00 0.00
0.26 0.32 0.42 0.46 0.72 1.24 2.05 2.17 2.35 2.48 2.03 1.80 1.73 1.79 1.90 1.48 1.37 1.28 1.42 1.64 1.73 1.57 1.45 1.33 1.26 1.12 1.11 1.08 1.04 0.96 0.85 0.82 0.67 0.61 0.47 0.29 0.24 0.16 0.07 0.03 0.01 0.00 0.00

GFSSE_prec_precacc_102.txt.gz
Total_Precipitation_Accumulation
0.00 0.03 0.16 0.11 0.08 0.06 0.05 0.05 0.09 0.08 0.11 0.16 0.15 0.10 0.10 0.12 0.11 0.08 0.06 0.06 0.07 0.07 0.09 0.15 0.19 0.26 0.36 0.39 0.27 0.07 0.03 0.02 0.02 0.02 0.03 0.06 0.08 0.09 0.09 0.12 0.10 0.09 0.17
0.00 0.02 0.12 0.14 0.08 0.09 0.09 0.09 0.11 0.07 0.16 0.17 0.17 0.16 0.17 0.18 0.14 0.08 0.07 0.05 0.04 0.09 0.18 0.32 0.27 0.20 0.10 0.04 0.03 0.02 0.00 0.00 0.00 0.00 0.00 0.01 0.05 0.08 0.05 0.07 0.14 0.15 0.21
0.00 0.02 0.06 0.16 0.10 0.10 0.10 0.09 0.06 0.09 0.15 0.17 0.17 0.15 0.17 0.16 0.14 0.08 0.05 0.04 0.09 0.19 0.29 0.25 0.10 0.04 0.01 0.01 0.01 0.00 0.00 0.00 0.00 0.00 0.00 0.00 0.01 0.07 0.06 0.06 0.08 0.06 0.09
0.01 0.02 0.04 0.16 0.09 0.07 0.05 0.05 0.07 0.11 0.13 0.11 0.13 0.15 0.24 0.20 0.18 0.07 0.06 0.08 0.16 0.14 0.13 0.08 0.02 0.01 0.01 0.00 0.00 0.00 0.00 0.00 0.00 0.00 0.00 0.00 0.01 0.05 0.06 0.07 0.10 0.11 0.08
0.03 0.03 0.05 0.17 0.14 0.08 0.04 0.04 0.09 0.08 0.09 0.10 0.14 0.31 0.35 0.32 0.17 0.07 0.06 0.09 0.15 0.13 0.04 0.01 0.00 0.00 0.00 0.00 0.00 0.00 0.01 0.01 0.00 0.00 0.00 0.01 0.03 0.09 0.08 0.09 0.11 0.15 0.19
0.04 0.06 0.09 0.22 0.17 0.07 0.04 0.08 0.09 0.06 0.08 0.09 0.17 0.39 0.49 0.44 0.21 0.10 0.04 0.08 0.06 0.03 0.01 0.00 0.01 0.01 0.00 0.00 0.00 0.00 0.01 0.01 0.00 0.00 0.00 0.01 0.03 0.11 0.07 0.08 0.11 0.17 0.20
0.06 0.14 0.18 0.37 0.23 0.06 0.06 0.09 0.06 0.07 0.11 0.07 0.15 0.44 0.56 0.35 0.34 0.21 0.15 0.08 0.01 0.01 0.01 0.01 0.01 0.01 0.00 0.00 0.00 0.00 0.00 0.00 0.00 0.00 0.00 0.00 0.01 0.05 0.03 0.03 0.06 0.08 0.09
0.20 0.23 0.23 0.41 0.45 0.16 0.08 0.07 0.04 0.06 0.12 0.10 0.20 0.55 0.73 0.37 0.29 0.24 0.20 0.04 0.02 0.01 0.01 0.02 0.02 0.01 0.01 0.01 0.00 0.00 0.00 0.00 0.00 0.00 0.00 0.00 0.00 0.00 0.01 0.02 0.04 0.05 0.05
0.95 0.82 0.50 0.37 0.35 0.16 0.13 0.07 0.04 0.05 0.11 0.11 0.19 0.47 0.55 0.31 0.20 0.18 0.21 0.06 0.02 0.02 0.02 0.04 0.04 0.01 0.01 0.00 0.00 0.00 0.00 0.00 0.00 0.00 0.00 0.00 0.00 0.01 0.03 0.06 0.08 0.08 0.08
1.46 1.45 1.07 0.92 0.44 0.15 0.19 0.11 0.03 0.03 0.05 0.06 0.16 0.36 0.18 0.14 0.06 0.07 0.07 0.06 0.04 0.05 0.06 0.04 0.01 0.01 0.01 0.00 0.00 0.00 0.00 0.00 0.00 0.00 0.00 0.00 0.00 0.07 0.14 0.14 0.12 0.10 0.11
1.97 1.52 1.29 1.03 0.68 0.23 0.23 0.19 0.03 0.02 0.02 0.03 0.10 0.27 0.16 0.07 0.02 0.01 0.01 0.02 0.03 0.06 0.05 0.00 0.01 0.02 0.01 0.00 0.00 0.00 0.00 0.00 0.00 0.00 0.00 0.01 0.07 0.15 0.10 0.06 0.05 0.07 0.07
1.84 1.79 1.98 1.44 1.26 0.46 0.31 0.35 0.14 0.06 0.02 0.01 0.09 0.18 0.11 0.07 0.01 0.00 0.00 0.01 0.02 0.05 0.02 0.00 0.01 0.01 0.00 0.00 0.00 0.00 0.00 0.00 0.00 0.00 0.00 0.02 0.06 0.08 0.05 0.03 0.05 0.04 0.04
1.73 1.46 1.49 1.54 1.92 1.00 0.66 0.44 0.29 0.09 0.06 0.01 0.02 0.20 0.17 0.07 0.04 0.01 0.00 0.01 0.01 0.01 0.01 0.01 0.00 0.00 0.00 0.00 0.00 0.00 0.00 0.00 0.00 0.00 0.00 0.04 0.04 0.05 0.01 0.01 0.01 0.01 0.01
0.70 1.55 1.76 1.44 1.66 1.66 1.42 0.95 0.41 0.17 0.07 0.05 0.03 0.05 0.24 0.16 0.12 0.08 0.03 0.01 0.00 0.00 0.01 0.00 0.00 0.00 0.00 0.00 0.00 0.00 0.00 0.00 0.00 0.00 0.00 0.00 0.00 0.01 0.00 0.00 0.00 0.00 0.01
0.41 0.74 0.94 1.20 1.62 1.82 1.38 1.38 1.06 0.41 0.12 0.02 0.04 0.06 0.10 0.27 0.23 0.14 0.09 0.04 0.01 0.00 0.00 0.00 0.00 0.00 0.00 0.00 0.00 0.00 0.00 0.00 0.00 0.00 0.00 0.00 0.00 0.00 0.00 0.01 0.01 0.03 0.08
0.47 0.54 0.52 0.56 0.92 1.45 1.21 0.65 1.29 1.48 0.65 0.09 0.01 0.03 0.04 0.11 0.24 0.33 0.24 0.17 0.05 0.01 0.00 0.00 0.00 0.00 0.00 0.00 0.00 0.00 0.00 0.00 0.00 0.00 0.00 0.00 0.00 0.00 0.00 0.00 0.00 0.03 0.14
0.35 0.40 0.25 0.33 0.41 0.59 1.17 0.66 0.43 0.97 1.40 0.67 0.09 0.03 0.02 0.03 0.06 0.15 0.37 0.33 0.23 0.12 0.03 0.00 0.00 0.00 0.00 0.00 0.00 0.00 0.00 0.00 0.00 0.00 0.00 0.00 0.00 0.00 0.00 0.00 0.00 0.00 0.01
0.26 0.18 0.22 0.23 0.27 0.22 0.32 0.56 0.44 0.44 0.63 0.82 0.37 0.06 0.02 0.01 0.02 0.05 0.05 0.11 0.16 0.20 0.17 0.07 0.01 0.00 0.00 0.00 0.00 0.00 0.00 0.00 0.00 0.00 0.00 0.00 0.00 0.00 0.00 0.00 0.00 0.00 0.01
0.31 0.37 0.32 0.34 0.36 0.33 0.32 0.41 0.47 0.43 0.29 0.43 0.53 0.18 0.03 0.01 0.01 0.03 0.05 0.06 0.07 0.10 0.12 0.15 0.07 0.01 0.00 0.00 0.00 0.00 0.00 0.00 0.00 0.00 0.00 0.00 0.00 0.00 0.00 0.00 0.00 0.00 0.01
0.31 0.45 0.43 0.42 0.44 0.64 0.76 0.85 0.81 0.57 0.29 0.49 0.51 0.39 0.27 0.08 0.05 0.08 0.06 0.05 0.05 0.04 0.03 0.03 0.04 0.02 0.01 0.01 0.01 0.01 0.00 0.00 0.00 0.00 0.00 0.01 0.02 0.01 0.00 0.00 0.00 0.00 0.00
0.71 0.62 0.66 0.62 0.48 0.79 0.89 0.79 0.59 0.48 0.39 0.28 0.41 0.56 0.64 0.47 0.32 0.23 0.16 0.11 0.06 0.02 0.02 0.02 0.03 0.03 0.02 0.06 0.06 0.01 0.00 0.00 0.00 0.00 0.00 0.02 0.01 0.01 0.00 0.00 0.00 0.00 0.00
0.81 0.97 0.77 0.72 0.84 0.75 0.90 0.91 0.90 0.85 0.76 0.65 0.78 0.62 0.66 0.68 0.66 0.56 0.45 0.36 0.22 0.14 0.08 0.08 0.07 0.09 0.08 0.15 0.22 0.10 0.03 0.00 0.00 0.00 0.00 0.00 0.00 0.00 0.00 0.00 0.00 0.00 0.00
1.05 1.06 1.18 1.07 1.07 0.92 1.13 1.55 1.66 1.65 1.38 1.18 0.83 0.81 0.91 0.86 1.03 1.00 0.96 1.00 0.95 0.69 0.47 0.44 0.34 0.30 0.34 0.29 0.26 0.28 0.10 0.02 0.01 0.00 0.00 0.00 0.00 0.00 0.00 0.01 0.01 0.01 0.01
0.94 0.85 0.94 1.29 1.39 1.44 1.26 1.54 1.75 1.99 1.96 1.68 2.02 1.81 1.53 1.47 1.50 1.62 1.65 1.72 1.62 1.21 1.21 1.31 1.34 1.16 1.05 0.87 0.67 0.49 0.34 0.18 0.11 0.05 0.02 0.02 0.01 0.01 0.01 0.02 0.02 0.01 0.01
0.59 0.68 0.64 0.80 1.18 1.84 1.66 1.78 2.24 1.88 1.80 1.75 1.75 1.95 1.74 1.74 1.55 1.59 1.82 2.03 2.11 2.03 1.63 1.54 1.70 1.71 1.55 1.54 1.29 1.04 0.77 0.58 0.41 0.31 0.17 0.14 0.10 0.07 0.05 0.03 0.03 0.02 0.01
0.31 0.39 0.48 0.49 0.73 1.25 2.05 2.17 2.36 2.49 2.04 1.80 1.73 1.79 1.90 1.48 1.37 1.28 1.43 1.77 1.98 1.78 1.56 1.39 1.32 1.18 1.16 1.13 1.09 1.02 0.87 0.84 0.69 0.64 0.48 0.31 0.25 0.17 0.07 0.03 0.01 0.01 0.01

GFSSE_prec_precacc_105.txt.gz
Total_Precipitation_Accumulation
0.00 0.03 0.17 0.11 0.08 0.07 0.06 0.05 0.09 0.08 0.12 0.16 0.15 0.11 0.10 0.12 0.11 0.08 0.06 0.06 0.07 0.07 0.11 0.16 0.19 0.26 0.38 0.40 0.27 0.07 0.03 0.03 0.03 0.02 0.03 0.07 0.09 0.10 0.12 0.16 0.13 0.14 0.24
0.00 0.03 0.12 0.14 0.08 0.10 0.10 0.10 0.12 0.08 0.16 0.17 0.17 0.17 0.18 0.18 0.14 0.08 0.07 0.05 0.04 0.09 0.19 0.32 0.28 0.20 0.11 0.04 0.03 0.02 0.00 0.00 0.00 0.00 0.00 0.01 0.05 0.08 0.05 0.08 0.16 0.16 0.21
0.00 0.02 0.06 0.16 0.10 0.10 0.10 0.10 0.06 0.09 0.15 0.17 0.17 0.15 0.17 0.16 0.14 0.08 0.05 0.04 0.09 0.19 0.30 0.26 0.11 0.04 0.01 0.01 0.01 0.00 0.00 0.00 0.00 0.00 0.00 0.00 0.01 0.07 0.06 0.06 0.08 0.06 0.09
0.01 0.02 0.04 0.16 0.10 0.07 0.06 0.06 0.07 0.11 0.13 0.11 0.13 0.15 0.24 0.20 0.18 0.07 0.06 0.08 0.16 0.16 0.20 0.13 0.02 0.01 0.01 0.00 0.00 0.00 0.00 0.00 0.00 0.00 0.00 0.00 0.01 0.05 0.06 0.07 0.10 0.11 0.08
0.03 0.03 0.05 0.17 0.15 0.08 0.04 0.04 0.09 0.08 0.09 0.11 0.14 0.31 0.39 0.33 0.17 0.07 0.06 0.10 0.18 0.22 0.15 0.04 0.00 0.00 0.00 0.00 0.00 0.00 0.01 0.01 0.00 0.00 0.00 0.01 0.03 0.09 0.08 0.09 0.11 0.15 0.19
0.04 0.06 0.09 0.22 0.17 0.07 0.06 0.09 0.09 0.06 0.08 0.09 0.19 0.41 0.53 0.49 0.22 0.10 0.05 0.12 0.10 0.08 0.04 0.00 0.01 0.01 0.00 0.00 0.00 0.00 0.01 0.01 0.00 0.00 0.00 0.01 0.03 0.11 0.07 0.08 0.11 0.17 0.20
0.08 0.14 0.18 0.37 0.23 0.06 0.06 0.11 0.08 0.09 0.12 0.07 0.15 0.45 0.57 0.40 0.42 0.23 0.17 0.10 0.04 0.05 0.01 0.01 0.01 0.01 0.00 0.00 0.00 0.00 0.00 0.00 0.00 0.00 0.00 0.00 0.01 0.05 0.03 0.03 0.06 0.08 0.09
0.33 0.30 0.26 0.41 0.45 0.16 0.08 0.07 0.05 0.08 0.15 0.11 0.20 0.55 0.74 0.40 0.34 0.28 0.25 0.08 0.04 0.03 0.02 0.02 0.02 0.01 0.01 0.01 0.00 0.00 0.00 0.00 0.00 0.00 0.00 0.00 0.00 0.00 0.01 0.02 0.04 0.05 0.05
1.03 0.92 0.58 0.41 0.36 0.16 0.13 0.07 0.04 0.05 0.12 0.13 0.21 0.47 0.55 0.33 0.27 0.23 0.26 0.15 0.07 0.04 0.02 0.04 0.04 0.01 0.01 0.00 0.00 0.00 0.00 0.00 0.00 0.00 0.00 0.00 0.00 0.01 0.03 0.06 0.08 0.08 0.08
1.50 1.51 1.15 0.99 0.50 0.19 0.21 0.14 0.04 0.03 0.05 0.06 0.16 0.36 0.18 0.14 0.07 0.10 0.09 0.16 0.16 0.10 0.06 0.04 0.01 0.01 0.01 0.00 0.00 0.00 0.00 0.00 0.00 0.00 0.00 0.00 0.00 0.07 0.14 0.14 0.12 0.10 0.11
1.98 1.57 1.37 1.12 0.75 0.29 0.25 0.23 0.06 0.03 0.02 0.03 0.10 0.27 0.16 0.07 0.02 0.01 0.01 0.04 0.06 0.10 0.06 0.00 0.01 0.02 0.01 0.00 0.00 0.00 0.00 0.00 0.00 0.00 0.00 0.01 0.07 0.15 0.10 0.06 0.05 0.07 0.07
1.84 1.79 2.02 1.54 1.37 0.52 0.34 0.38 0.18 0.07 0.02 0.01 0.09 0.18 0.11 0.07 0.01 0.00 0.00 0.02 0.03 0.07 0.02 0.00 0.01 0.01 0.00 0.00 0.00 0.00 0.00 0.00 0.00 0.00 0.00 0.02 0.06 0.08 0.05 0.03 0.05 0.04 0.04
1.73 1.46 1.49 1.55 2.00 1.11 0.74 0.51 0.34 0.11 0.08 0.01 0.02 0.20 0.17 0.07 0.04 0.01 0.00 0.01 0.01 0.01 0.01 0.01 0.00 0.00 0.00 0.00 0.00 0.00 0.00 0.00 0.00 0.00 0.00 0.04 0.04 0.05 0.01 0.01 0.01 0.01 0.01
0.70 1.55 1.76 1.44 1.67 1.70 1.54 1.04 0.46 0.19 0.07 0.05 0.03 0.05 0.24 0.18 0.16 0.13 0.06 0.02 0.00 0.01 0.01 0.00 0.00 0.00 0.00 0.00 0.00 0.00 0.00 0.00 0.00 0.00 0.00 0.00 0.00 0.01 0.00 0.00 0.00 0.00 0.01
0.41 0.74 0.94 1.20 1.62 1.82 1.39 1.44 1.13 0.44 0.12 0.02 0.04 0.06 0.11 0.30 0.30 0.21 0.18 0.14 0.05 0.02 0.01 0.00 0.00 0.00 0.00 0.00 0.00 0.00 0.00 0.00 0.00 0.00 0.00 0.00 0.00 0.00 0.00 0.01 0.01 0.03 0.08
0.47 0.54 0.52 0.56 0.92 1.45 1.21 0.66 1.35 1.57 0.72 0.12 0.01 0.03 0.05 0.13 0.26 0.36 0.28 0.26 0.17 0.10 0.04 0.01 0.00 0.00 0.00 0.00 0.00 0.00 0.00 0.00 0.00 0.00 0.00 0.00 0.00 0.00 0.00 0.00 0.00 0.03 0.14
0.35 0.40 0.25 0.33 0.41 0.60 1.18 0.67 0.48 1.02 1.44 0.70 0.09 0.03 0.03 0.04 0.07 0.15 0.38 0.34 0.25 0.16 0.08 0.05 0.05 0.01 0.00 0.00 0.00 0.00 0.00 0.00 0.00 0.00 0.00 0.00 0.00 0.00 0.00 0.00 0.00 0.00 0.01
0.26 0.18 0.22 0.23 0.27 0.22 0.32 0.56 0.46 0.48 0.66 0.84 0.38 0.06 0.02 0.01 0.02 0.05 0.05 0.11 0.16 0.20 0.18 0.13 0.14 0.12 0.02 0.00 0.00 0.00 0.00 0.00 0.00 0.00 0.00 0.00 0.00 0.00 0.00 0.00 0.00 0.00 0.01
0.31 0.37 0.32 0.34 0.36 0.33 0.32 0.43 0.50 0.44 0.31 0.47 0.54 0.18 0.03 0.01 0.01 0.03 0.05 0.06 0.09 0.12 0.14 0.18 0.19 0.17 0.12 0.04 0.01 0.00 0.00 0.00 0.00 0.00 0.00 0.00 0.00 0.00 0.00 0.00 0.00 0.00 0.01
0.31 0.45 0.43 0.42 0.44 0.64 0.76 0.87 0.83 0.58 0.31 0.53 0.55 0.40 0.27 0.08 0.05 0.08 0.06 0.06 0.08 0.08 0.09 0.09 0.13 0.13 0.09 0.06 0.03 0.01 0.00 0.00 0.00 0.00 0.00 0.01 0.02 0.01 0.00 0.00 0.00 0.00 0.00
0.71 0.62 0.66 0.62 0.48 0.79 0.90 0.80 0.60 0.48 0.39 0.30 0.44 0.57 0.64 0.47 0.32 0.23 0.17 0.12 0.09 0.03 0.02 0.03 0.07 0.07 0.05 0.08 0.09 0.02 0.00 0.00 0.00 0.00 0.00 0.02 0.01 0.01 0.00 0.00 0.00 0.00 0.00
0.81 0.97 0.77 0.72 0.84 0.77 0.94 0.95 0.91 0.85 0.76 0.65 0.78 0.62 0.66 0.68 0.66 0.56 0.45 0.36 0.23 0.17 0.10 0.08 0.07 0.09 0.09 0.17 0.25 0.12 0.03 0.00 0.00 0.00 0.00 0.00 0.00 0.00 0.00 0.00 0.00 0.00 0.00
1.05 1.06 1.18 1.07 1.07 0.98 1.24 1.59 1.66 1.65 1.38 1.18 0.83 0.81 0.91 0.86 1.03 1.00 0.96 1.00 0.97 0.72 0.48 0.45 0.35 0.31 0.34 0.29 0.27 0.28 0.10 0.02 0.01 0.00 0.00 0.00 0.00 0.00 0.00 0.01 0.01 0.01 0.01
0.94 0.86 0.94 1.29 1.40 1.54 1.39 1.63 1.78 1.99 1.96 1.68 2.02 1.81 1.53 1.47 1.50 1.62 1.65 1.72 1.63 1.23 1.25 1.35 1.37 1.18 1.08 0.88 0.68 0.50 0.34 0.18 0.11 0.05 0.02 0.02 0.01 0.01 0.01 0.02 0.02 0.01 0.01
0.62 0.72 0.71 0.89 1.23 1.90 1.70 1.80 2.25 1.88 1.80 1.75 1.75 1.95 1.74 1.74 1.55 1.59 1.82 2.03 2.11 2.03 1.64 1.57 1.75 1.77 1.60 1.58 1.31 1.05 0.77 0.58 0.41 0.31 0.17 0.14 0.10 0.07 0.05 0.04 0.05 0.05 0.06
0.38 0.49 0.60 0.65 0.92 1.35 2.13 2.20 2.38 2.50 2.04 1.80 1.73 1.79 1.90 1.48 1.37 1.28 1.43 1.77 1.99 1.78 1.56 1.40 1.34 1.22 1.20 1.17 1.12 1.04 0.89 0.85 0.69 0.64 0.49 0.31 0.27 0.19 0.09 0.05 0.04 0.04 0.04

GFSSE_prec_precacc_108.txt.gz
Total_Precipitation_Accumulation
0.00 0.04 0.18 0.12 0.08 0.07 0.06 0.05 0.09 0.10 0.16 0.21 0.16 0.12 0.11 0.12 0.11 0.08 0.06 0.06 0.07 0.08 0.11 0.16 0.19 0.27 0.40 0.41 0.27 0.07 0.04 0.04 0.03 0.03 0.04 0.07 0.10 0.11 0.14 0.18 0.17 0.21 0.27
0.00 0.03 0.13 0.15 0.09 0.10 0.10 0.10 0.12 0.08 0.16 0.18 0.21 0.20 0.18 0.18 0.14 0.08 0.07 0.05 0.04 0.10 0.20 0.32 0.28 0.22 0.12 0.04 0.03 0.02 0.01 0.00 0.00 0.00 0.00 0.01 0.06 0.09 0.06 0.08 0.18 0.16 0.21
0.01 0.03 0.07 0.17 0.11 0.11 0.11 0.10 0.06 0.09 0.15 0.17 0.18 0.18 0.19 0.16 0.14 0.08 0.05 0.04 0.09 0.20 0.30 0.26 0.11 0.04 0.01 0.01 0.01 0.00 0.01 0.00 0.00 0.00 0.00 0.00 0.01 0.07 0.06 0.06 0.08 0.06 0.09
0.01 0.04 0.05 0.16 0.11 0.08 0.06 0.06 0.07 0.11 0.13 0.11 0.13 0.16 0.26 0.20 0.18 0.07 0.06 0.08 0.16 0.19 0.28 0.14 0.02 0.01 0.01 0.00 0.00 0.00 0.00 0.00 0.00 0.00 0.00 0.00 0.01 0.05 0.06 0.07 0.10 0.11 0.08
0.04 0.05 0.06 0.18 0.18 0.09 0.05 0.04 0.10 0.09 0.09 0.11 0.14 0.31 0.40 0.33 0.17 0.07 0.06 0.10 0.18 0.30 0.25 0.05 0.00 0.00 0.00 0.00 0.00 0.00 0.01 0.01 0.00 0.00 0.00 0.01 0.03 0.09 0.08 0.09 0.11 0.15 0.19
0.06 0.08 0.09 0.23 0.22 0.12 0.09 0.12 0.11 0.07 0.08 0.10 0.19 0.42 0.55 0.52 0.22 0.12 0.07 0.13 0.13 0.16 0.14 0.01 0.01 0.01 0.00 0.00 0.00 0.00 0.01 0.01 0.00 0.00 0.00 0.01 0.03 0.11 0.07 0.08 0.11 0.17 0.20
0.10 0.16 0.19 0.39 0.26 0.13 0.12 0.16 0.14 0.13 0.15 0.10 0.17 0.47 0.58 0.44 0.46 0.29 0.22 0.13 0.08 0.11 0.12 0.01 0.01 0.01 0.00 0.00 0.00 0.00 0.00 0.00 0.00 0.00 0.00 0.00 0.01 0.05 0.03 0.03 0.06 0.08 0.09
0.35 0.36 0.31 0.44 0.47 0.19 0.12 0.14 0.11 0.12 0.19 0.15 0.22 0.56 0.75 0.43 0.37 0.35 0.28 0.10 0.08 0.06 0.10 0.02 0.02 0.01 0.01 0.01 0.00 0.00 0.00 0.00 0.00 0.00 0.00 0.00 0.00 0.00 0.01 0.02 0.04 0.05 0.05
1.04 0.94 0.62 0.46 0.39 0.19 0.13 0.08 0.06 0.07 0.14 0.15 0.23 0.49 0.57 0.35 0.31 0.26 0.28 0.18 0.14 0.09 0.11 0.05 0.04 0.01 0.01 0.00 0.00 0.00 0.00 0.00 0.00 0.00 0.00 0.00 0.00 0.01 0.03 0.06 0.08 0.08 0.08
1.50 1.52 1.17 1.03 0.54 0.20 0.21 0.14 0.04 0.04 0.05 0.06 0.17 0.37 0.18 0.14 0.08 0.11 0.10 0.19 0.28 0.20 0.15 0.08 0.01 0.01 0.01 0.00 0.00 0.00 0.00 0.00 0.00 0.00 0.00 0.00 0.00 0.07 0.14 0.14 0.12 0.10 0.11
1.98 1.57 1.37 1.13 0.78 0.31 0.26 0.23 0.07 0.03 0.02 0.03 0.10 0.27 0.16 0.07 0.02 0.01 0.01 0.04 0.10 0.16 0.13 0.04 0.01 0.02 0.01 0.00 0.00 0.00 0.00 0.00 0.00 0.00 0.00 0.01 0.07 0.15 0.10 0.06 0.05 0.07 0.07
1.84 1.79 2.02 1.54 1.38 0.57 0.39 0.44 0.22 0.08 0.02 0.01 0.09 0.18 0.11 0.07 0.01 0.00 0.02 0.02 0.05 0.11 0.07 0.04 0.01 0.01 0.00 0.00 0.00 0.00 0.00 0.00 0.00 0.00 0.00 0.02 0.06 0.08 0.05 0.03 0.05 0.04 0.04
1.73 1.46 1.49 1.55 2.00 1.13 0.78 0.58 0.38 0.13 0.08 0.01 0.02 0.20 0.17 0.07 0.04 0.01 0.01 0.02 0.07 0.04 0.03 0.02 0.00 0.00 0.00 0.00 0.00 0.00 0.00 0.00 0.00 0.00 0.00 0.04 0.04 0.05 0.01 0.01 0.01 0.01 0.01
0.70 1.55 1.76 1.44 1.67 1.70 1.54 1.06 0.51 0.23 0.09 0.05 0.03 0.05 0.24 0.18 0.17 0.14 0.07 0.07 0.06 0.04 0.05 0.02 0.00 0.00 0.00 0.00 0.00 0.00 0.00 0.00 0.00 0.00 0.00 0.00 0.00 0.01 0.00 0.00 0.00 0.00 0.01
0.41 0.74 0.94 1.20 1.62 1.82 1.39 1.45 1.16 0.45 0.13 0.03 0.04 0.06 0.12 0.30 0.31 0.22 0.24 0.20 0.14 0.09 0.06 0.04 0.02 0.01 0.00 0.00 0.00 0.00 0.00 0.00 0.00 0.00 0.00 0.00 0.00 0.00 0.00 0.01 0.01 0.03 0.08
0.47 0.54 0.52 0.56 0.92 1.45 1.21 0.68 1.36 1.57 0.73 0.12 0.02 0.03 0.08 0.15 0.27 0.36 0.30 0.29 0.21 0.15 0.08 0.03 0.05 0.02 0.00 0.00 0.00 0.00 0.00 0.00 0.00 0.00 0.00 0.00 0.00 0.00 0.00 0.00 0.01 0.03 0.15
0.35 0.40 0.25 0.33 0.41 0.60 1.18 0.70 0.50 1.02 1.47 0.77 0.14 0.05 0.06 0.06 0.10 0.16 0.38 0.34 0.26 0.20 0.17 0.09 0.12 0.10 0.03 0.00 0.00 0.00 0.00 0.00 0.00 0.00 0.00 0.00 0.00 0.00 0.00 0.00 0.00 0.00 0.01
0.26 0.18 0.22 0.23 0.27 0.22 0.32 0.59 0.48 0.53 0.68 0.85 0.41 0.09 0.06 0.05 0.05 0.08 0.06 0.11 0.16 0.20 0.19 0.14 0.16 0.23 0.19 0.09 0.01 0.00 0.00 0.00 0.00 0.00 0.00 0.00 0.00 0.00 0.00 0.00 0.00 0.00 0.01
0.31 0.37 0.32 0.34 0.36 0.33 0.32 0.45 0.56 0.53 0.35 0.48 0.54 0.19 0.04 0.02 0.02 0.03 0.05 0.06 0.09 0.13 0.17 0.21 0.23 0.22 0.24 0.18 0.08 0.02 0.00 0.00 0.00 0.00 0.00 0.00 0.00 0.00 0.00 0.00 0.00 0.00 0.01
0.31 0.45 0.43 0.42 0.44 0.64 0.76 0.89 0.90 0.70 0.36 0.59 0.59 0.43 0.30 0.09 0.05 0.08 0.06 0.06 0.08 0.08 0.11 0.14 0.18 0.16 0.13 0.11 0.09 0.03 0.00 0.00 0.00 0.00 0.00 0.01 0.02 0.01 0.00 0.00 0.00 0.00 0.00
0.71 0.62 0.66 0.62 0.48 0.79 0.90 0.80 0.62 0.50 0.42 0.40 0.51 0.63 0.69 0.52 0.35 0.23 0.17 0.12 0.09 0.04 0.03 0.06 0.12 0.12 0.08 0.12 0.15 0.05 0.01 0.00 0.00 0.00 0.00 0.02 0.01 0.01 0.00 0.00 0.00 0.00 0.00
0.81 0.97 0.77 0.72 0.84 0.77 0.95 0.98 0.96 0.90 0.82 0.68 0.78 0.62 0.66 0.68 0.66 0.56 0.45 0.37 0.24 0.18 0.11 0.09 0.10 0.11 0.10 0.18 0.25 0.12 0.03 0.00 0.00 0.00 0.00 0.00 0.00 0.00 0.00 0.00 0.00 0.00 0.00
1.05 1.06 1.18 1.07 1.08 0.98 1.25 1.65 1.71 1.65 1.38 1.18 0.83 0.81 0.91 0.86 1.03 1.00 0.96 1.01 0.98 0.74 0.51 0.47 0.37 0.32 0.35 0.29 0.27 0.29 0.11 0.03 0.01 0.00 0.00 0.00 0.00 0.00 0.00 0.01 0.01 0.01 0.01
0.94 0.86 0.94 1.29 1.40 1.54 1.46 1.70 1.89 2.03 1.99 1.70 2.02 1.81 1.53 1.47 1.50 1.62 1.65 1.73 1.64 1.26 1.29 1.40 1.41 1.21 1.08 0.88 0.68 0.50 0.34 0.18 0.12 0.05 0.02 0.02 0.01 0.01 0.01 0.02 0.02 0.01 0.01
0.65 0.73 0.71 0.90 1.24 1.95 1.88 2.09 2.50 1.95 1.85 1.78 1.77 1.96 1.74 1.74 1.55 1.59 1.82 2.03 2.12 2.05 1.66 1.60 1.78 1.79 1.62 1.59 1.32 1.05 0.77 0.58 0.41 0.32 0.18 0.14 0.10 0.07 0.05 0.04 0.05 0.05 0.07
0.42 0.54 0.62 0.68 1.03 1.49 2.50 2.66 2.66 2.68 2.14 1.85 1.74 1.80 1.90 1.49 1.39 1.29 1.44 1.78 2.00 1.80 1.58 1.41 1.36 1.25 1.22 1.18 1.13 1.05 0.90 0.85 0.70 0.64 0.49 0.31 0.27 0.19 0.09 0.05 0.05 0.05 0.06

GFSSE_prec_precacc_111.txt.gz
Total_Precipitation_Accumulation
0.00 0.04 0.18 0.13 0.08 0.07 0.06 0.05 0.09 0.11 0.20 0.25 0.17 0.13 0.11 0.12 0.11 0.08 0.06 0.06 0.07 0.08 0.11 0.16 0.19 0.27 0.42 0.42 0.27 0.07 0.04 0.05 0.04 0.03 0.04 0.08 0.11 0.11 0.16 0.20 0.23 0.24 0.27
0.00 0.04 0.14 0.16 0.09 0.10 0.10 0.10 0.12 0.08 0.17 0.20 0.23 0.24 0.21 0.18 0.14 0.08 0.07 0.05 0.04 0.10 0.20 0.32 0.28 0.23 0.12 0.04 0.03 0.02 0.01 0.00 0.00 0.00 0.00 0.01 0.09 0.11 0.09 0.10 0.20 0.16 0.21
0.01 0.04 0.07 0.19 0.13 0.11 0.11 0.10 0.06 0.09 0.15 0.18 0.18 0.19 0.22 0.17 0.14 0.08 0.05 0.04 0.10 0.25 0.31 0.26 0.12 0.05 0.01 0.01 0.01 0.00 0.01 0.00 0.00 0.00 0.00 0.00 0.01 0.07 0.06 0.06 0.08 0.06 0.09
0.02 0.07 0.06 0.18 0.18 0.12 0.08 0.08 0.08 0.11 0.14 0.13 0.14 0.16 0.28 0.22 0.18 0.07 0.06 0.08 0.17 0.23 0.35 0.15 0.02 0.01 0.01 0.00 0.00 0.00 0.00 0.00 0.00 0.00 0.00 0.00 0.01 0.05 0.06 0.07 0.10 0.11 0.08
0.05 0.09 0.09 0.20 0.22 0.19 0.11 0.08 0.14 0.10 0.09 0.12 0.15 0.32 0.42 0.35 0.17 0.07 0.06 0.10 0.18 0.33 0.38 0.07 0.00 0.00 0.00 0.00 0.00 0.00 0.01 0.01 0.00 0.00 0.00 0.01 0.03 0.09 0.08 0.09 0.11 0.15 0.19
0.08 0.10 0.10 0.23 0.24 0.17 0.14 0.15 0.14 0.10 0.11 0.11 0.20 0.42 0.55 0.53 0.23 0.12 0.08 0.13 0.13 0.20 0.23 0.01 0.01 0.01 0.00 0.00 0.00 0.00 0.01 0.01 0.00 0.00 0.00 0.01 0.03 0.11 0.07 0.08 0.11 0.17 0.20
0.11 0.17 0.20 0.39 0.28 0.17 0.18 0.21 0.17 0.17 0.19 0.14 0.20 0.48 0.58 0.46 0.49 0.32 0.24 0.15 0.11 0.18 0.25 0.06 0.01 0.01 0.00 0.00 0.00 0.00 0.00 0.00 0.00 0.00 0.00 0.00 0.01 0.05 0.03 0.03 0.06 0.08 0.09
0.35 0.36 0.32 0.44 0.47 0.21 0.16 0.18 0.15 0.16 0.21 0.18 0.25 0.59 0.79 0.46 0.41 0.40 0.31 0.12 0.10 0.14 0.27 0.16 0.02 0.01 0.01 0.01 0.00 0.00 0.00 0.00 0.00 0.00 0.00 0.00 0.00 0.00 0.01 0.02 0.04 0.05 0.05
1.04 0.94 0.64 0.47 0.40 0.19 0.14 0.11 0.10 0.09 0.15 0.16 0.24 0.50 0.60 0.38 0.34 0.31 0.32 0.21 0.16 0.12 0.18 0.19 0.08 0.01 0.01 0.00 0.00 0.00 0.00 0.00 0.00 0.00 0.00 0.00 0.00 0.01 0.03 0.06 0.08 0.08 0.08
1.50 1.52 1.17 1.04 0.55 0.20 0.21 0.14 0.04 0.05 0.10 0.09 0.20 0.37 0.19 0.15 0.09 0.13 0.14 0.21 0.32 0.26 0.21 0.20 0.07 0.01 0.01 0.00 0.00 0.00 0.00 0.00 0.00 0.00 0.00 0.00 0.00 0.07 0.14 0.14 0.12 0.10 0.11
1.98 1.57 1.37 1.13 0.79 0.32 0.26 0.23 0.07 0.03 0.02 0.04 0.12 0.28 0.16 0.07 0.02 0.01 0.01 0.04 0.13 0.21 0.23 0.17 0.10 0.02 0.01 0.00 0.00 0.00 0.00 0.00 0.00 0.00 0.00 0.01 0.07 0.15 0.10 0.06 0.05 0.07 0.07
1.84 1.79 2.02 1.54 1.38 0.58 0.41 0.45 0.22 0.08 0.02 0.01 0.09 0.18 0.11 0.07 0.01 0.00 0.02 0.02 0.07 0.15 0.12 0.14 0.13 0.03 0.00 0.00 0.00 0.00 0.00 0.00 0.00 0.00 0.00 0.02 0.06 0.08 0.05 0.03 0.05 0.04 0.04
1.73 1.46 1.49 1.55 2.00 1.13 0.79 0.61 0.41 0.15 0.10 0.01 0.02 0.20 0.17 0.07 0.04 0.01 0.02 0.03 0.11 0.08 0.09 0.05 0.03 0.00 0.00 0.00 0.00 0.00 0.00 0.00 0.00 0.00 0.00 0.04 0.04 0.05 0.01 0.01 0.01 0.01 0.01
0.70 1.55 1.76 1.44 1.67 1.70 1.54 1.08 0.54 0.27 0.12 0.07 0.03 0.05 0.24 0.18 0.17 0.15 0.07 0.08 0.11 0.07 0.11 0.09 0.06 0.01 0.00 0.00 0.00 0.00 0.00 0.00 0.00 0.00 0.00 0.00 0.00 0.01 0.00 0.00 0.00 0.00 0.01
0.41 0.74 0.94 1.20 1.62 1.82 1.39 1.45 1.17 0.49 0.17 0.05 0.05 0.06 0.13 0.31 0.32 0.24 0.25 0.24 0.18 0.13 0.10 0.10 0.08 0.05 0.01 0.00 0.00 0.00 0.00 0.00 0.00 0.00 0.00 0.00 0.00 0.00 0.00 0.01 0.01 0.03 0.08
0.47 0.54 0.52 0.56 0.92 1.45 1.21 0.68 1.36 1.59 0.75 0.14 0.02 0.03 0.08 0.18 0.33 0.43 0.37 0.36 0.28 0.20 0.15 0.08 0.10 0.08 0.03 0.01 0.00 0.00 0.00 0.00 0.00 0.00 0.00 0.00 0.00 0.00 0.00 0.00 0.01 0.04 0.16
0.35 0.40 0.25 0.33 0.41 0.60 1.18 0.70 0.50 1.02 1.48 0.77 0.14 0.05 0.06 0.06 0.14 0.20 0.41 0.39 0.30 0.27 0.28 0.23 0.29 0.23 0.20 0.10 0.03 0.00 0.00 0.00 0.00 0.00 0.00 0.00 0.00 0.00 0.00 0.00 0.00 0.00 0.02
0.26 0.18 0.22 0.23 0.27 0.22 0.32 0.59 0.48 0.54 0.70 0.87 0.42 0.10 0.07 0.07 0.10 0.15 0.12 0.16 0.20 0.25 0.24 0.17 0.18 0.27 0.30 0.26 0.09 0.01 0.00 0.00 0.00 0.00 0.00 0.00 0.00 0.00 0.00 0.00 0.00 0.00 0.01
0.31 0.37 0.32 0.34 0.36 0.33 0.32 0.45 0.56 0.54 0.37 0.50 0.57 0.21 0.05 0.05 0.07 0.13 0.15 0.17 0.16 0.17 0.20 0.24 0.29 0.27 0.26 0.21 0.10 0.03 0.00 0.00 0.00 0.00 0.00 0.00 0.00 0.00 0.00 0.00 0.00 0.00 0.01
0.31 0.45 0.43 0.42 0.44 0.64 0.76 0.89 0.91 0.73 0.41 0.62 0.59 0.43 0.30 0.09 0.06 0.12 0.17 0.20 0.19 0.13 0.12 0.15 0.21 0.21 0.17 0.14 0.12 0.07 0.03 0.00 0.00 0.00 0.00 0.01 0.02 0.01 0.00 0.00 0.00 0.00 0.00
0.71 0.62 0.66 0.62 0.48 0.79 0.90 0.80 0.63 0.53 0.47 0.44 0.57 0.63 0.69 0.52 0.36 0.25 0.17 0.13 0.11 0.05 0.04 0.07 0.14 0.16 0.12 0.16 0.21 0.08 0.03 0.01 0.00 0.00 0.00 0.02 0.01 0.01 0.00 0.00 0.00 0.00 0.00
0.81 0.97 0.77 0.72 0.84 0.77 0.95 0.98 0.97 0.92 0.87 0.78 0.89 0.66 0.66 0.68 0.66 0.59 0.46 0.39 0.25 0.18 0.11 0.09 0.11 0.13 0.12 0.20 0.28 0.15 0.05 0.01 0.00 0.00 0.00 0.00 0.00 0.00 0.00 0.00 0.00 0.00 0.00
1.05 1.06 1.18 1.07 1.08 0.98 1.25 1.65 1.73 1.72 1.46 1.25 0.90 0.84 0.91 0.86 1.03 1.01 0.97 1.02 1.02 0.77 0.51 0.47 0.38 0.35 0.39 0.32 0.29 0.30 0.12 0.03 0.01 0.00 0.00 0.00 0.00 0.00 0.00 0.01 0.01 0.01 0.01
0.95 0.86 0.94 1.29 1.40 1.54 1.46 1.72 1.95 2.14 2.13 1.84 2.13 1.88 1.55 1.49 1.53 1.65 1.67 1.74 1.65 1.30 1.30 1.41 1.43 1.25 1.15 0.93 0.71 0.51 0.35 0.19 0.12 0.05 0.02 0.02 0.01 0.01 0.01 0.02 0.02 0.01 0.01
0.65 0.74 0.72 0.99 1.31 2.01 1.92 2.22 2.72 2.22 2.14 2.04 1.92 2.07 1.81 1.77 1.58 1.64 1.87 2.09 2.18 2.11 1.70 1.65 1.83 1.84 1.68 1.65 1.34 1.06 0.77 0.59 0.42 0.32 0.18 0.14 0.10 0.07 0.05 0.04 0.05 0.05 0.07
0.42 0.55 0.63 0.70 1.05 1.55 2.59 2.81 2.90 3.22 2.70 2.44 2.08 1.94 1.97 1.55 1.43 1.32 1.46 1.80 2.03 1.84 1.63 1.47 1.41 1.31 1.29 1.24 1.18 1.07 0.91 0.86 0.70 0.65 0.50 0.31 0.27 0.19 0.09 0.05 0.05 0.05 0.06

GFSSE_prec_precacc_114.txt.gz
Total_Precipitation_Accumulation
0.00 0.04 0.18 0.14 0.08 0.07 0.06 0.05 0.11 0.14 0.22 0.26 0.17 0.13 0.11 0.12 0.11 0.08 0.06 0.06 0.07 0.08 0.11 0.16 0.19 0.28 0.43 0.42 0.28 0.07 0.04 0.05 0.04 0.03 0.04 0.08 0.12 0.13 0.18 0.24 0.26 0.24 0.27
0.00 0.04 0.14 0.17 0.09 0.10 0.10 0.10 0.13 0.08 0.17 0.23 0.26 0.25 0.21 0.18 0.14 0.08 0.07 0.05 0.04 0.10 0.20 0.32 0.29 0.26 0.13 0.04 0.03 0.02 0.01 0.00 0.00 0.00 0.01 0.01 0.12 0.16 0.13 0.12 0.20 0.16 0.21
0.01 0.04 0.07 0.20 0.15 0.12 0.11 0.10 0.08 0.10 0.17 0.22 0.24 0.20 0.24 0.18 0.15 0.08 0.05 0.04 0.10 0.25 0.31 0.26 0.16 0.07 0.02 0.01 0.01 0.01 0.01 0.00 0.00 0.00 0.01 0.00 0.01 0.07 0.06 0.06 0.08 0.06 0.09
0.02 0.08 0.07 0.19 0.21 0.16 0.12 0.11 0.10 0.13 0.15 0.16 0.18 0.20 0.29 0.25 0.19 0.07 0.06 0.08 0.17 0.27 0.37 0.16 0.04 0.01 0.01 0.00 0.00 0.00 0.00 0.00 0.00 0.00 0.00 0.00 0.01 0.05 0.06 0.07 0.10 0.11 0.08
0.06 0.11 0.13 0.22 0.24 0.19 0.12 0.09 0.16 0.14 0.12 0.13 0.16 0.34 0.45 0.36 0.18 0.07 0.06 0.10 0.18 0.36 0.43 0.08 0.01 0.00 0.00 0.00 0.00 0.00 0.01 0.01 0.00 0.00 0.00 0.01 0.03 0.09 0.08 0.09 0.11 0.15 0.19
0.08 0.12 0.17 0.28 0.25 0.17 0.15 0.16 0.16 0.13 0.12 0.12 0.21 0.43 0.57 0.55 0.26 0.12 0.08 0.13 0.13 0.20 0.28 0.07 0.01 0.01 0.00 0.00 0.00 0.00 0.01 0.01 0.00 0.00 0.00 0.01 0.03 0.11 0.07 0.08 0.11 0.17 0.20
0.11 0.17 0.23 0.44 0.30 0.18 0.18 0.22 0.18 0.19 0.21 0.15 0.21 0.50 0.59 0.47 0.58 0.36 0.25 0.15 0.11 0.20 0.38 0.20 0.01 0.01 0.00 0.00 0.00 0.00 0.00 0.00 0.00 0.00 0.00 0.00 0.01 0.05 0.03 0.03 0.06 0.08 0.09
0.35 0.37 0.33 0.46 0.47 0.21 0.16 0.18 0.16 0.16 0.22 0.18 0.25 0.60 0.80 0.48 0.46 0.46 0.36 0.14 0.10 0.17 0.38 0.30 0.06 0.01 0.01 0.01 0.00 0.00 0.00 0.00 0.00 0.00 0.00 0.00 0.00 0.00 0.01 0.02 0.04 0.05 0.05
1.04 0.94 0.64 0.47 0.41 0.19 0.14 0.11 0.10 0.09 0.16 0.16 0.24 0.50 0.60 0.39 0.36 0.34 0.35 0.24 0.19 0.15 0.24 0.24 0.19 0.03 0.01 0.00 0.00 0.00 0.00 0.00 0.00 0.00 0.00 0.00 0.00 0.01 0.03 0.06 0.08 0.08 0.08
1.50 1.52 1.17 1.04 0.56 0.21 0.21 0.14 0.05 0.05 0.11 0.09 0.20 0.37 0.19 0.15 0.09 0.13 0.15 0.23 0.33 0.28 0.24 0.25 0.17 0.08 0.01 0.00 0.00 0.00 0.00 0.00 0.00 0.00 0.00 0.00 0.00 0.07 0.14 0.14 0.12 0.10 0.11
1.98 1.57 1.37 1.13 0.79 0.32 0.26 0.24 0.07 0.03 0.02 0.04 0.12 0.28 0.16 0.07 0.02 0.01 0.01 0.04 0.13 0.22 0.27 0.24 0.19 0.06 0.01 0.00 0.00 0.00 0.00 0.00 0.00 0.00 0.00 0.01 0.07 0.15 0.10 0.06 0.05 0.07 0.07
1.84 1.79 2.02 1.54 1.38 0.58 0.41 0.46 0.23 0.08 0.02 0.01 0.09 0.18 0.11 0.07 0.01 0.00 0.02 0.02 0.07 0.16 0.17 0.21 0.21 0.07 0.00 0.00 0.00 0.00 0.00 0.00 0.00 0.00 0.00 0.02 0.06 0.08 0.05 0.03 0.05 0.04 0.04
1.73 1.46 1.49 1.55 2.00 1.13 0.79 0.61 0.42 0.16 0.11 0.02 0.02 0.20 0.17 0.07 0.04 0.01 0.02 0.03 0.11 0.08 0.11 0.08 0.06 0.01 0.00 0.00 0.00 0.00 0.00 0.00 0.00 0.00 0.00 0.04 0.04 0.05 0.02 0.01 0.01 0.01 0.01
0.70 1.55 1.76 1.44 1.67 1.70 1.54 1.08 0.54 0.28 0.14 0.09 0.03 0.07 0.24 0.18 0.17 0.15 0.07 0.08 0.12 0.08 0.11 0.11 0.08 0.01 0.00 0.00 0.00 0.00 0.00 0.00 0.00 0.00 0.00 0.00 0.00 0.01 0.00 0.00 0.00 0.00 0.01
0.41 0.74 0.94 1.20 1.62 1.82 1.39 1.45 1.17 0.49 0.18 0.06 0.07 0.09 0.13 0.31 0.32 0.24 0.25 0.25 0.21 0.16 0.12 0.12 0.11 0.12 0.06 0.00 0.00 0.00 0.00 0.00 0.00 0.00 0.00 0.00 0.00 0.00 0.00 0.01 0.01 0.03 0.08
0.47 0.54 0.52 0.56 0.92 1.45 1.21 0.68 1.36 1.59 0.75 0.14 0.03 0.04 0.09 0.19 0.33 0.44 0.38 0.38 0.30 0.23 0.19 0.13 0.14 0.16 0.13 0.04 0.01 0.00 0.00 0.00 0.00 0.00 0.00 0.00 0.00 0.00 0.00 0.00 0.01 0.05 0.16
0.35 0.40 0.25 0.33 0.41 0.60 1.18 0.70 0.50 1.02 1.48 0.79 0.16 0.11 0.09 0.08 0.14 0.21 0.42 0.43 0.36 0.35 0.40 0.37 0.41 0.33 0.30 0.14 0.05 0.01 0.00 0.00 0.00 0.00 0.00 0.00 0.00 0.00 0.00 0.00 0.00 0.00 0.02
0.26 0.18 0.22 0.23 0.27 0.22 0.32 0.59 0.48 0.54 0.71 0.89 0.46 0.15 0.09 0.08 0.10 0.15 0.13 0.19 0.30 0.39 0.40 0.32 0.33 0.42 0.44 0.35 0.15 0.03 0.00 0.00 0.00 0.00 0.00 0.00 0.00 0.00 0.00 0.00 0.00 0.00 0.01
0.31 0.37 0.32 0.34 0.36 0.33 0.32 0.45 0.56 0.54 0.37 0.54 0.64 0.30 0.13 0.09 0.09 0.14 0.18 0.23 0.25 0.27 0.27 0.32 0.41 0.38 0.39 0.31 0.17 0.06 0.01 0.00 0.00 0.00 0.00 0.00 0.00 0.00 0.00 0.00 0.00 0.00 0.01
0.31 0.45 0.43 0.42 0.44 0.64 0.76 0.89 0.91 0.73 0.42 0.67 0.64 0.52 0.36 0.11 0.06 0.14 0.18 0.20 0.22 0.20 0.20 0.25 0.32 0.34 0.28 0.21 0.20 0.13 0.06 0.01 0.00 0.00 0.00 0.01 0.02 0.01 0.00 0.00 0.00 0.00 0.00
0.71 0.62 0.66 0.62 0.48 0.79 0.90 0.80 0.63 0.53 0.47 0.46 0.63 0.73 0.75 0.53 0.36 0.25 0.17 0.14 0.12 0.07 0.06 0.08 0.17 0.19 0.14 0.19 0.28 0.11 0.05 0.03 0.02 0.00 0.00 0.02 0.01 0.01 0.00 0.00 0.00 0.00 0.00
0.81 0.97 0.77 0.72 0.84 0.77 0.95 0.98 0.97 0.92 0.87 0.78 0.96 0.87 0.85 0.75 0.67 0.60 0.47 0.39 0.25 0.19 0.12 0.10 0.11 0.13 0.13 0.23 0.32 0.19 0.08 0.02 0.01 0.00 0.00 0.00 0.00 0.00 0.00 0.00 0.00 0.00 0.00
1.05 1.06 1.18 1.07 1.08 0.98 1.25 1.65 1.73 1.72 1.48 1.29 0.94 0.92 1.07 1.03 1.16 1.06 0.99 1.02 1.02 0.78 0.53 0.49 0.39 0.38 0.40 0.35 0.32 0.33 0.13 0.03 0.01 0.00 0.00 0.00 0.00 0.00 0.00 0.01 0.01 0.01 0.01
0.95 0.86 0.94 1.30 1.41 1.55 1.47 1.72 1.95 2.17 2.16 1.90 2.20 2.02 1.75 1.60 1.63 1.80 1.81 1.76 1.69 1.34 1.36 1.48 1.47 1.28 1.20 0.94 0.78 0.56 0.38 0.22 0.13 0.05 0.02 0.02 0.01 0.01 0.01 0.02 0.02 0.01 0.01
0.65 0.74 0.73 1.01 1.33 2.04 1.95 2.28 2.80 2.37 2.33 2.21 2.15 2.42 2.14 2.08 1.93 1.76 1.95 2.16 2.23 2.17 1.81 1.74 1.92 1.95 1.84 1.77 1.47 1.17 0.84 0.64 0.46 0.34 0.18 0.14 0.10 0.07 0.05 0.04 0.05 0.05 0.07
0.42 0.55 0.63 0.70 1.05 1.58 2.64 2.91 3.02 3.38 2.87 2.61 2.74 2.64 2.84 2.29 1.91 1.56 1.59 1.89 2.09 1.87 1.65 1.48 1.44 1.35 1.34 1.32 1.27 1.18 0.98 0.88 0.71 0.66 0.50 0.31 0.27 0.19 0.09 0.05 0.05 0.05 0.06

GFSSE_prec_precacc_117.txt.gz
Total_Precipitation_Accumulation
0.00 0.04 0.19 0.14 0.08 0.07 0.06 0.05 0.14 0.18 0.25 0.27 0.17 0.13 0.11 0.12 0.11 0.08 0.06 0.06 0.07 0.08 0.11 0.16 0.19 0.31 0.43 0.42 0.28 0.07 0.05 0.06 0.04 0.03 0.04 0.08 0.13 0.14 0.20 0.25 0.26 0.24 0.27
0.00 0.04 0.14 0.17 0.09 0.10 0.10 0.10 0.15 0.10 0.20 0.26 0.29 0.29 0.21 0.18 0.14 0.08 0.07 0.05 0.04 0.10 0.20 0.32 0.29 0.29 0.14 0.04 0.04 0.02 0.01 0.00 0.00 0.00 0.01 0.01 0.15 0.23 0.15 0.12 0.20 0.16 0.21
0.01 0.05 0.08 0.20 0.16 0.12 0.11 0.11 0.09 0.12 0.19 0.24 0.27 0.27 0.26 0.18 0.15 0.08 0.05 0.04 0.10 0.25 0.31 0.26 0.21 0.09 0.02 0.01 0.01 0.01 0.01 0.01 0.01 0.01 0.02 0.00 0.02 0.07 0.06 0.06 0.08 0.06 0.09
0.02 0.09 0.07 0.20 0.22 0.17 0.12 0.11 0.10 0.13 0.16 0.17 0.19 0.24 0.32 0.27 0.20 0.07 0.06 0.08 0.17 0.28 0.38 0.16 0.09 0.02 0.01 0.00 0.00 0.00 0.00 0.00 0.00 0.00 0.00 0.00 0.01 0.05 0.06 0.07 0.10 0.11 0.08
0.06 0.12 0.16 0.27 0.28 0.24 0.13 0.09 0.16 0.14 0.13 0.14 0.17 0.35 0.46 0.37 0.20 0.07 0.06 0.10 0.18 0.36 0.45 0.10 0.02 0.00 0.00 0.00 0.00 0.00 0.01 0.01 0.00 0.00 0.00 0.01 0.03 0.09 0.08 0.09 0.11 0.15 0.19
0.08 0.12 0.18 0.34 0.30 0.21 0.17 0.16 0.16 0.14 0.15 0.14 0.21 0.44 0.57 0.55 0.28 0.14 0.08 0.13 0.13 0.20 0.28 0.08 0.01 0.01 0.00 0.00 0.00 0.00 0.01 0.01 0.00 0.00 0.00 0.01 0.03 0.11 0.07 0.08 0.11 0.17 0.20
0.11 0.17 0.23 0.45 0.30 0.18 0.20 0.24 0.19 0.19 0.23 0.16 0.21 0.50 0.59 0.47 0.59 0.39 0.26 0.15 0.11 0.20 0.43 0.33 0.03 0.01 0.00 0.00 0.00 0.00 0.00 0.00 0.00 0.00 0.00 0.00 0.01 0.05 0.03 0.03 0.06 0.08 0.09
0.35 0.37 0.33 0.46 0.48 0.21 0.16 0.19 0.16 0.17 0.23 0.19 0.26 0.60 0.80 0.48 0.46 0.46 0.38 0.15 0.11 0.17 0.43 0.39 0.13 0.01 0.01 0.01 0.00 0.00 0.00 0.00 0.00 0.00 0.00 0.00 0.00 0.00 0.01 0.02 0.04 0.05 0.05
1.04 0.94 0.64 0.47 0.41 0.19 0.14 0.11 0.10 0.10 0.16 0.17 0.24 0.50 0.60 0.39 0.36 0.34 0.35 0.24 0.19 0.16 0.27 0.28 0.26 0.06 0.01 0.00 0.00 0.00 0.00 0.00 0.00 0.00 0.00 0.00 0.00 0.01 0.03 0.06 0.08 0.08 0.08
1.50 1.52 1.17 1.04 0.56 0.21 0.21 0.14 0.05 0.05 0.11 0.09 0.20 0.37 0.19 0.15 0.09 0.13 0.15 0.23 0.33 0.28 0.24 0.25 0.21 0.14 0.02 0.00 0.00 0.00 0.00 0.00 0.00 0.00 0.00 0.00 0.00 0.07 0.14 0.14 0.12 0.10 0.11
1.98 1.57 1.37 1.13 0.79 0.32 0.26 0.24 0.07 0.03 0.02 0.04 0.12 0.28 0.16 0.07 0.02 0.01 0.01 0.04 0.13 0.22 0.27 0.25 0.22 0.08 0.01 0.00 0.00 0.00 0.00 0.00 0.00 0.00 0.00 0.01 0.07 0.15 0.10 0.06 0.05 0.07 0.07
1.84 1.79 2.02 1.54 1.38 0.58 0.41 0.46 0.23 0.08 0.02 0.01 0.09 0.18 0.11 0.07 0.01 0.00 0.02 0.02 0.07 0.16 0.17 0.22 0.24 0.07 0.00 0.00 0.00 0.00 0.00 0.00 0.00 0.00 0.00 0.02 0.06 0.08 0.05 0.03 0.05 0.04 0.04
1.73 1.46 1.49 1.55 2.00 1.13 0.79 0.61 0.42 0.17 0.11 0.02 0.02 0.20 0.17 0.07 0.04 0.01 0.02 0.03 0.11 0.08 0.11 0.08 0.07 0.01 0.00 0.00 0.00 0.00 0.00 0.00 0.00 0.00 0.00 0.04 0.04 0.05 0.02 0.01 0.01 0.01 0.01
0.70 1.55 1.76 1.44 1.67 1.70 1.54 1.08 0.54 0.28 0.14 0.09 0.04 0.08 0.25 0.18 0.17 0.15 0.07 0.08 0.12 0.08 0.11 0.11 0.08 0.01 0.00 0.00 0.00 0.00 0.00 0.00 0.00 0.00 0.00 0.00 0.00 0.01 0.00 0.00 0.00 0.00 0.01
0.41 0.74 0.94 1.20 1.62 1.82 1.39 1.45 1.17 0.49 0.19 0.07 0.07 0.11 0.21 0.34 0.33 0.24 0.25 0.25 0.21 0.16 0.12 0.12 0.11 0.12 0.06 0.01 0.00 0.00 0.00 0.00 0.00 0.00 0.00 0.00 0.00 0.00 0.00 0.01 0.01 0.03 0.08
0.47 0.54 0.52 0.56 0.92 1.45 1.21 0.68 1.36 1.59 0.76 0.15 0.03 0.05 0.11 0.23 0.36 0.46 0.39 0.38 0.30 0.24 0.20 0.16 0.18 0.17 0.17 0.08 0.01 0.00 0.00 0.00 0.00 0.00 0.00 0.00 0.00 0.00 0.00 0.00 0.01 0.05 0.16
0.35 0.40 0.25 0.33 0.41 0.60 1.18 0.70 0.50 1.02 1.48 0.79 0.17 0.15 0.12 0.15 0.22 0.26 0.46 0.47 0.38 0.39 0.50 0.49 0.55 0.40 0.35 0.19 0.07 0.01 0.01 0.00 0.00 0.00 0.00 0.00 0.00 0.00 0.00 0.00 0.00 0.00 0.02
0.26 0.18 0.22 0.23 0.27 0.22 0.32 0.59 0.48 0.54 0.71 0.89 0.47 0.16 0.12 0.11 0.14 0.19 0.15 0.20 0.31 0.41 0.46 0.40 0.45 0.58 0.60 0.48 0.23 0.06 0.01 0.00 0.00 0.00 0.00 0.00 0.00 0.00 0.00 0.00 0.00 0.00 0.01
0.31 0.37 0.32 0.34 0.36 0.33 0.32 0.45 0.56 0.54 0.37 0.54 0.64 0.30 0.14 0.14 0.15 0.17 0.19 0.24 0.27 0.29 0.32 0.35 0.44 0.47 0.51 0.43 0.36 0.36 0.37 0.24 0.05 0.01 0.00 0.00 0.00 0.00 0.00 0.00 0.00 0.00 0.01
0.31 0.45 0.43 0.42 0.44 0.64 0.76 0.89 0.91 0.73 0.42 0.67 0.65 0.53 0.39 0.16 0.16 0.23 0.22 0.24 0.28 0.26 0.23 0.28 0.34 0.38 0.35 0.31 0.31 0.26 0.19 0.15 0.05 0.01 0.00 0.01 0.02 0.01 0.00 0.00 0.00 0.00 0.00
0.71 0.62 0.66 0.62 0.48 0.79 0.90 0.80 0.63 0.53 0.47 0.46 0.64 0.75 0.79 0.58 0.40 0.29 0.24 0.19 0.15 0.12 0.10 0.11 0.17 0.20 0.17 0.26 0.36 0.16 0.10 0.08 0.05 0.01 0.00 0.02 0.01 0.01 0.00 0.00 0.00 0.00 0.00
0.81 0.97 0.77 0.72 0.84 0.77 0.95 0.98 0.97 0.92 0.87 0.78 0.96 0.87 0.89 0.81 0.78 0.65 0.48 0.41 0.27 0.23 0.16 0.12 0.11 0.14 0.15 0.30 0.42 0.32 0.16 0.05 0.01 0.00 0.00 0.00 0.00 0.00 0.00 0.00 0.00 0.00 0.00
1.05 1.06 1.18 1.07 1.08 0.98 1.25 1.65 1.73 1.72 1.48 1.29 0.94 0.93 1.07 1.09 1.28 1.32 1.19 1.13 1.06 0.81 0.56 0.52 0.42 0.40 0.42 0.37 0.37 0.41 0.17 0.05 0.01 0.00 0.00 0.00 0.00 0.00 0.00 0.01 0.01 0.01 0.01
0.95 0.86 0.94 1.30 1.41 1.55 1.47 1.72 1.95 2.17 2.16 1.91 2.21 2.04 1.80 1.71 1.82 2.19 2.31 2.10 1.91 1.53 1.46 1.56 1.55 1.35 1.30 0.98 0.85 0.67 0.48 0.26 0.14 0.06 0.02 0.02 0.01 0.01 0.01 0.02 0.02 0.01 0.01
0.65 0.74 0.73 1.01 1.33 2.04 1.95 2.30 2.83 2.41 2.36 2.23 2.15 2.44 2.19 2.18 2.06 2.00 2.27 2.69 2.59 2.44 2.09 1.91 2.00 1.99 1.87 1.80 1.54 1.31 1.01 0.84 0.61 0.42 0.21 0.15 0.11 0.07 0.05 0.04 0.05 0.05 0.07
0.42 0.55 0.63 0.70 1.05 1.58 2.64 2.91 3.03 3.39 2.91 2.70 2.82 2.68 2.94 2.42 2.13 1.92 2.39 2.64 2.71 2.16 1.82 1.63 1.53 1.39 1.36 1.34 1.30 1.24 1.08 0.98 0.80 0.77 0.56 0.32 0.27 0.19 0.09 0.05 0.05 0.05 0.06

GFSSE_prec_precacc_120.txt.gz
Total_Precipitation_Accumulation
0.00 0.04 0.21 0.16 0.08 0.07 0.06 0.06 0.15 0.20 0.30 0.32 0.17 0.13 0.11 0.12 0.11 0.08 0.06 0.06 0.07 0.08 0.11 0.16 0.21 0.31 0.43 0.42 0.28 0.08 0.08 0.06 0.04 0.03 0.04 0.08 0.13 0.15 0.20 0.25 0.26 0.24 0.28
0.01 0.04 0.16 0.19 0.10 0.10 0.10 0.10 0.16 0.11 0.22 0.29 0.29 0.32 0.21 0.18 0.14 0.08 0.07 0.05 0.04 0.10 0.20 0.32 0.30 0.30 0.14 0.05 0.04 0.02 0.02 0.00 0.00 0.01 0.01 0.02 0.19 0.28 0.16 0.12 0.20 0.16 0.21
0.01 0.06 0.09 0.21 0.16 0.13 0.11 0.11 0.09 0.12 0.20 0.25 0.27 0.30 0.28 0.19 0.15 0.08 0.05 0.04 0.10 0.25 0.31 0.26 0.23 0.11 0.02 0.01 0.01 0.01 0.01 0.01 0.02 0.02 0.02 0.01 0.04 0.09 0.06 0.06 0.08 0.06 0.09
0.03 0.11 0.08 0.23 0.27 0.20 0.14 0.11 0.10 0.13 0.16 0.17 0.19 0.24 0.34 0.28 0.22 0.07 0.06 0.08 0.17 0.28 0.38 0.17 0.14 0.02 0.01 0.00 0.00 0.00 0.00 0.00 0.00 0.00 0.00 0.00 0.01 0.05 0.06 0.07 0.10 0.11 0.08
0.06 0.13 0.18 0.33 0.31 0.26 0.15 0.10 0.16 0.15 0.14 0.15 0.18 0.35 0.46 0.37 0.20 0.07 0.06 0.10 0.18 0.37 0.46 0.10 0.04 0.00 0.00 0.00 0.00 0.00 0.01 0.01 0.00 0.00 0.00 0.01 0.03 0.09 0.08 0.09 0.11 0.15 0.19
0.08 0.13 0.19 0.41 0.32 0.22 0.18 0.18 0.17 0.15 0.16 0.15 0.22 0.44 0.58 0.55 0.28 0.14 0.08 0.13 0.13 0.20 0.28 0.11 0.02 0.01 0.00 0.00 0.00 0.00 0.01 0.01 0.00 0.00 0.00 0.01 0.03 0.11 0.07 0.08 0.11 0.17 0.20
0.11 0.18 0.24 0.46 0.32 0.18 0.20 0.25 0.20 0.20 0.23 0.16 0.21 0.50 0.59 0.47 0.59 0.40 0.28 0.15 0.11 0.20 0.44 0.37 0.05 0.01 0.00 0.00 0.00 0.00 0.00 0.00 0.00 0.00 0.00 0.00 0.01 0.05 0.03 0.03 0.06 0.08 0.09
0.35 0.37 0.33 0.46 0.48 0.21 0.17 0.19 0.16 0.18 0.23 0.19 0.26 0.60 0.80 0.48 0.47 0.46 0.38 0.15 0.11 0.17 0.43 0.41 0.15 0.01 0.01 0.01 0.00 0.00 0.00 0.00 0.00 0.00 0.00 0.00 0.00 0.00 0.01 0.02 0.04 0.05 0.05
1.04 0.94 0.64 0.47 0.41 0.19 0.14 0.11 0.10 0.10 0.17 0.17 0.25 0.50 0.60 0.39 0.36 0.34 0.35 0.24 0.19 0.16 0.28 0.28 0.28 0.08 0.01 0.00 0.00 0.00 0.00 0.00 0.00 0.00 0.00 0.00 0.00 0.01 0.03 0.06 0.08 0.08 0.08
1.50 1.52 1.17 1.04 0.56 0.21 0.21 0.14 0.05 0.06 0.13 0.10 0.20 0.37 0.19 0.15 0.09 0.13 0.15 0.23 0.33 0.30 0.27 0.26 0.25 0.20 0.04 0.00 0.00 0.00 0.00 0.00 0.00 0.00 0.00 0.00 0.00 0.07 0.14 0.14 0.12 0.10 0.11
1.98 1.57 1.37 1.13 0.79 0.32 0.26 0.24 0.07 0.03 0.04 0.06 0.14 0.28 0.16 0.07 0.02 0.01 0.01 0.04 0.13 0.22 0.28 0.27 0.24 0.10 0.02 0.00 0.00 0.00 0.00 0.00 0.00 0.00 0.00 0.01 0.07 0.15 0.10 0.06 0.05 0.07 0.07
1.84 1.79 2.02 1.54 1.38 0.58 0.41 0.46 0.23 0.08 0.02 0.01 0.10 0.19 0.11 0.07 0.01 0.00 0.02 0.02 0.07 0.16 0.17 0.22 0.25 0.08 0.00 0.00 0.00 0.00 0.00 0.00 0.00 0.00 0.00 0.02 0.06 0.08 0.05 0.03 0.05 0.04 0.04
1.73 1.46 1.49 1.55 2.00 1.13 0.79 0.61 0.42 0.17 0.11 0.02 0.03 0.20 0.17 0.07 0.04 0.01 0.02 0.03 0.11 0.08 0.11 0.08 0.08 0.01 0.00 0.00 0.00 0.00 0.00 0.00 0.00 0.00 0.00 0.04 0.04 0.05 0.02 0.01 0.01 0.01 0.01
0.70 1.55 1.76 1.44 1.67 1.70 1.54 1.08 0.54 0.28 0.14 0.09 0.04 0.08 0.25 0.18 0.17 0.15 0.07 0.08 0.12 0.08 0.12 0.11 0.08 0.01 0.00 0.00 0.00 0.00 0.00 0.00 0.00 0.00 0.00 0.00 0.00 0.01 0.00 0.00 0.00 0.00 0.01
0.41 0.74 0.94 1.20 1.62 1.82 1.39 1.45 1.17 0.49 0.19 0.07 0.07 0.11 0.22 0.35 0.34 0.24 0.25 0.25 0.21 0.16 0.12 0.12 0.11 0.12 0.06 0.01 0.00 0.00 0.00 0.00 0.00 0.00 0.00 0.00 0.00 0.00 0.00 0.01 0.01 0.03 0.08
0.47 0.54 0.52 0.56 0.92 1.45 1.21 0.68 1.36 1.59 0.76 0.15 0.03 0.05 0.12 0.26 0.39 0.49 0.40 0.38 0.30 0.24 0.21 0.20 0.25 0.21 0.17 0.09 0.03 0.01 0.00 0.01 0.00 0.00 0.00 0.00 0.00 0.00 0.00 0.00 0.01 0.05 0.16
0.35 0.40 0.25 0.33 0.41 0.60 1.18 0.70 0.50 1.02 1.48 0.79 0.17 0.15 0.12 0.17 0.27 0.33 0.53 0.53 0.41 0.41 0.56 0.59 0.69 0.56 0.40 0.21 0.09 0.02 0.01 0.01 0.01 0.00 0.00 0.00 0.00 0.00 0.00 0.00 0.00 0.00 0.02
0.26 0.18 0.22 0.23 0.27 0.22 0.32 0.59 0.48 0.54 0.71 0.89 0.47 0.16 0.12 0.12 0.16 0.25 0.21 0.24 0.37 0.47 0.52 0.48 0.53 0.64 0.65 0.57 0.30 0.12 0.06 0.03 0.01 0.00 0.00 0.00 0.00 0.00 0.00 0.00 0.00 0.01 0.01
0.31 0.37 0.32 0.34 0.36 0.33 0.32 0.45 0.56 0.54 0.37 0.54 0.64 0.30 0.14 0.14 0.15 0.20 0.24 0.29 0.34 0.37 0.39 0.43 0.52 0.55 0.59 0.53 0.45 0.50 0.70 0.68 0.42 0.19 0.06 0.01 0.00 0.00 0.00 0.00 0.00 0.00 0.01
0.31 0.45 0.43 0.42 0.44 0.64 0.76 0.89 0.91 0.73 0.42 0.67 0.65 0.53 0.39 0.17 0.16 0.25 0.25 0.28 0.36 0.34 0.33 0.35 0.41 0.44 0.39 0.35 0.34 0.29 0.26 0.39 0.61 0.61 0.37 0.18 0.07 0.02 0.00 0.00 0.00 0.00 0.00
0.71 0.62 0.66 0.62 0.48 0.79 0.90 0.80 0.63 0.53 0.47 0.46 0.64 0.75 0.79 0.58 0.40 0.29 0.26 0.22 0.20 0.17 0.17 0.22 0.28 0.27 0.20 0.28 0.36 0.17 0.12 0.11 0.09 0.07 0.11 0.13 0.07 0.03 0.00 0.00 0.00 0.00 0.00
0.81 0.97 0.77 0.72 0.84 0.77 0.95 0.98 0.97 0.92 0.87 0.78 0.96 0.87 0.89 0.81 0.78 0.67 0.49 0.43 0.32 0.31 0.28 0.22 0.20 0.21 0.19 0.32 0.43 0.32 0.16 0.06 0.04 0.05 0.06 0.05 0.04 0.05 0.03 0.01 0.00 0.00 0.00
1.05 1.06 1.18 1.07 1.08 0.98 1.25 1.65 1.73 1.72 1.48 1.29 0.94 0.93 1.07 1.09 1.28 1.33 1.23 1.19 1.10 0.86 0.63 0.61 0.49 0.45 0.45 0.40 0.39 0.42 0.17 0.06 0.02 0.03 0.03 0.02 0.02 0.02 0.01 0.03 0.02 0.02 0.01
0.95 0.86 0.94 1.30 1.41 1.55 1.47 1.73 1.96 2.17 2.16 1.91 2.21 2.04 1.80 1.71 1.82 2.19 2.32 2.16 2.00 1.63 1.52 1.63 1.62 1.40 1.34 1.00 0.89 0.72 0.54 0.29 0.15 0.07 0.03 0.03 0.04 0.03 0.03 0.05 0.03 0.02 0.01
0.65 0.74 0.73 1.01 1.33 2.04 1.95 2.30 2.83 2.42 2.36 2.23 2.15 2.44 2.20 2.19 2.07 2.00 2.27 2.70 2.73 2.86 2.56 2.20 2.16 2.13 1.99 1.91 1.61 1.33 1.04 0.87 0.66 0.49 0.28 0.18 0.15 0.09 0.07 0.06 0.07 0.05 0.07
0.42 0.55 0.63 0.70 1.05 1.58 2.64 2.91 3.03 3.39 2.91 2.70 2.83 2.69 2.95 2.44 2.16 1.97 2.40 2.65 2.90 2.60 2.37 2.51 2.32 1.86 1.62 1.46 1.36 1.28 1.10 1.00 0.83 0.82 0.65 0.39 0.32 0.23 0.14 0.08 0.05 0.05 0.06

GFSSE_prec_precacc_123.txt.gz
Total_Precipitation_Accumulation
0.00 0.04 0.22 0.17 0.08 0.07 0.07 0.12 0.20 0.26 0.33 0.35 0.17 0.13 0.11 0.12 0.11 0.08 0.06 0.06 0.07 0.08 0.11 0.16 0.21 0.31 0.43 0.42 0.28 0.08 0.08 0.06 0.04 0.03 0.04 0.08 0.13 0.15 0.20 0.25 0.26 0.24 0.28
0.01 0.05 0.17 0.20 0.11 0.10 0.10 0.11 0.17 0.14 0.25 0.30 0.30 0.32 0.21 0.18 0.14 0.08 0.07 0.05 0.04 0.10 0.20 0.33 0.32 0.31 0.14 0.05 0.04 0.02 0.02 0.00 0.00 0.01 0.01 0.03 0.23 0.31 0.16 0.12 0.20 0.16 0.21
0.02 0.07 0.10 0.23 0.19 0.14 0.11 0.11 0.09 0.12 0.21 0.26 0.31 0.31 0.29 0.20 0.15 0.08 0.05 0.04 0.10 0.25 0.31 0.26 0.29 0.13 0.02 0.01 0.01 0.01 0.01 0.01 0.02 0.02 0.02 0.02 0.07 0.12 0.06 0.06 0.08 0.06 0.09
0.03 0.12 0.11 0.27 0.31 0.22 0.14 0.12 0.10 0.13 0.16 0.17 0.19 0.24 0.34 0.30 0.22 0.07 0.06 0.08 0.17 0.28 0.38 0.17 0.18 0.05 0.01 0.00 0.00 0.00 0.00 0.00 0.00 0.00 0.00 0.00 0.01 0.05 0.06 0.07 0.10 0.11 0.08
0.07 0.15 0.21 0.38 0.36 0.31 0.18 0.12 0.17 0.16 0.14 0.15 0.18 0.35 0.47 0.38 0.21 0.07 0.06 0.10 0.18 0.37 0.46 0.11 0.07 0.02 0.00 0.00 0.00 0.00 0.01 0.01 0.00 0.00 0.00 0.01 0.03 0.09 0.08 0.09 0.11 0.15 0.19
0.08 0.14 0.21 0.45 0.45 0.31 0.22 0.19 0.18 0.17 0.18 0.16 0.23 0.46 0.58 0.55 0.28 0.14 0.09 0.13 0.13 0.20 0.28 0.11 0.03 0.01 0.00 0.00 0.00 0.00 0.01 0.01 0.00 0.00 0.00 0.01 0.03 0.11 0.07 0.08 0.11 0.17 0.20
0.11 0.18 0.24 0.49 0.39 0.26 0.26 0.28 0.22 0.24 0.24 0.16 0.22 0.50 0.59 0.47 0.59 0.40 0.30 0.16 0.11 0.20 0.44 0.38 0.07 0.01 0.00 0.00 0.00 0.00 0.00 0.00 0.00 0.00 0.00 0.00 0.01 0.05 0.03 0.03 0.06 0.08 0.09
0.35 0.37 0.33 0.46 0.49 0.26 0.21 0.21 0.19 0.21 0.26 0.21 0.26 0.60 0.80 0.48 0.47 0.48 0.39 0.16 0.12 0.17 0.43 0.41 0.20 0.04 0.01 0.01 0.00 0.00 0.00 0.00 0.00 0.00 0.00 0.00 0.00 0.00 0.01 0.02 0.04 0.05 0.05
1.04 0.94 0.64 0.47 0.41 0.19 0.14 0.12 0.11 0.12 0.19 0.20 0.27 0.52 0.62 0.40 0.37 0.34 0.36 0.25 0.20 0.18 0.30 0.29 0.30 0.13 0.05 0.01 0.00 0.00 0.00 0.00 0.00 0.00 0.00 0.00 0.00 0.01 0.03 0.06 0.08 0.08 0.08
1.50 1.52 1.17 1.04 0.56 0.21 0.21 0.14 0.05 0.07 0.15 0.12 0.22 0.39 0.20 0.16 0.09 0.13 0.15 0.23 0.33 0.30 0.29 0.28 0.25 0.23 0.16 0.07 0.00 0.00 0.00 0.00 0.00 0.00 0.00 0.00 0.00 0.07 0.14 0.14 0.12 0.10 0.11
1.98 1.57 1.37 1.13 0.79 0.32 0.26 0.24 0.07 0.03 0.05 0.07 0.17 0.32 0.18 0.07 0.02 0.01 0.01 0.04 0.13 0.22 0.28 0.28 0.26 0.14 0.08 0.02 0.00 0.00 0.00 0.00 0.00 0.00 0.00 0.01 0.07 0.15 0.10 0.06 0.05 0.07 0.07
1.84 1.79 2.02 1.54 1.38 0.58 0.41 0.46 0.23 0.08 0.02 0.01 0.10 0.20 0.12 0.09 0.03 0.01 0.02 0.02 0.07 0.16 0.17 0.22 0.25 0.08 0.01 0.00 0.00 0.01 0.00 0.00 0.00 0.00 0.00 0.02 0.06 0.08 0.05 0.03 0.05 0.04 0.04
1.73 1.46 1.49 1.55 2.00 1.13 0.79 0.61 0.42 0.17 0.11 0.02 0.03 0.21 0.18 0.08 0.05 0.02 0.02 0.03 0.11 0.08 0.11 0.08 0.08 0.01 0.00 0.00 0.00 0.02 0.01 0.00 0.00 0.00 0.00 0.04 0.04 0.05 0.02 0.01 0.01 0.01 0.01
0.70 1.55 1.76 1.44 1.67 1.70 1.54 1.08 0.54 0.28 0.14 0.09 0.04 0.08 0.26 0.18 0.18 0.16 0.07 0.08 0.12 0.08 0.12 0.11 0.08 0.01 0.00 0.00 0.00 0.01 0.01 0.01 0.00 0.00 0.00 0.00 0.00 0.01 0.00 0.00 0.00 0.00 0.01
0.41 0.74 0.94 1.20 1.62 1.82 1.39 1.45 1.17 0.49 0.19 0.07 0.07 0.11 0.22 0.35 0.34 0.26 0.27 0.27 0.22 0.16 0.12 0.13 0.15 0.14 0.07 0.01 0.00 0.00 0.00 0.01 0.01 0.00 0.00 0.00 0.00 0.00 0.00 0.02 0.01 0.03 0.08
0.47 0.54 0.52 0.56 0.92 1.45 1.21 0.68 1.36 1.59 0.76 0.15 0.03 0.05 0.12 0.26 0.39 0.49 0.42 0.41 0.31 0.25 0.23 0.22 0.31 0.31 0.24 0.13 0.04 0.01 0.01 0.03 0.08 0.03 0.00 0.00 0.00 0.00 0.00 0.01 0.02 0.05 0.16
0.35 0.40 0.25 0.33 0.41 0.60 1.18 0.70 0.50 1.02 1.48 0.79 0.17 0.15 0.12 0.17 0.27 0.33 0.53 0.54 0.43 0.44 0.61 0.67 0.78 0.65 0.52 0.32 0.15 0.05 0.02 0.03 0.05 0.11 0.07 0.01 0.00 0.00 0.00 0.01 0.04 0.03 0.03
0.26 0.18 0.22 0.23 0.27 0.22 0.32 0.59 0.48 0.54 0.71 0.89 0.47 0.16 0.12 0.12 0.16 0.25 0.21 0.24 0.38 0.50 0.57 0.55 0.61 0.72 0.75 0.65 0.40 0.22 0.17 0.12 0.11 0.09 0.06 0.02 0.00 0.00 0.00 0.00 0.03 0.05 0.04
0.31 0.37 0.32 0.34 0.36 0.33 0.32 0.45 0.56 0.54 0.37 0.54 0.64 0.30 0.14 0.14 0.15 0.20 0.24 0.29 0.35 0.39 0.43 0.48 0.59 0.62 0.70 0.61 0.51 0.56 0.74 0.76 0.49 0.31 0.16 0.07 0.03 0.01 0.00 0.00 0.01 0.04 0.05
0.31 0.45 0.43 0.42 0.44 0.64 0.76 0.89 0.91 0.73 0.42 0.67 0.65 0.53 0.39 0.17 0.16 0.25 0.25 0.28 0.36 0.34 0.34 0.38 0.46 0.52 0.48 0.46 0.46 0.36 0.30 0.44 0.68 0.76 0.67 0.54 0.37 0.22 0.10 0.04 0.03 0.02 0.02
0.71 0.62 0.66 0.62 0.48 0.79 0.90 0.80 0.63 0.53 0.47 0.46 0.64 0.75 0.79 0.58 0.40 0.29 0.26 0.22 0.20 0.17 0.17 0.23 0.32 0.34 0.27 0.38 0.46 0.21 0.15 0.11 0.10 0.09 0.17 0.30 0.32 0.26 0.22 0.15 0.09 0.05 0.02
0.81 0.97 0.77 0.72 0.84 0.77 0.95 0.98 0.97 0.92 0.87 0.78 0.96 0.87 0.89 0.81 0.78 0.67 0.49 0.43 0.32 0.31 0.28 0.24 0.24 0.26 0.26 0.42 0.52 0.37 0.18 0.07 0.04 0.05 0.08 0.08 0.09 0.15 0.16 0.14 0.14 0.09 0.05
1.05 1.06 1.18 1.07 1.08 0.98 1.25 1.65 1.73 1.72 1.48 1.29 0.94 0.93 1.08 1.09 1.28 1.33 1.23 1.19 1.10 0.87 0.64 0.61 0.51 0.49 0.50 0.48 0.47 0.48 0.20 0.07 0.02 0.03 0.04 0.04 0.03 0.04 0.04 0.08 0.10 0.12 0.10
0.95 0.86 0.94 1.30 1.41 1.55 1.47 1.73 1.96 2.17 2.17 1.91 2.21 2.04 1.80 1.71 1.82 2.19 2.32 2.17 2.00 1.63 1.53 1.63 1.63 1.44 1.40 1.07 0.97 0.79 0.59 0.31 0.16 0.07 0.03 0.03 0.06 0.05 0.06 0.10 0.08 0.05 0.03
0.65 0.74 0.73 1.01 1.33 2.04 1.95 2.30 2.83 2.42 2.36 2.23 2.15 2.44 2.20 2.19 2.07 2.00 2.29 2.74 2.76 2.87 2.56 2.21 2.20 2.17 2.05 1.99 1.71 1.43 1.14 0.95 0.71 0.51 0.29 0.18 0.15 0.10 0.09 0.09 0.09 0.07 0.09
0.42 0.55 0.63 0.70 1.05 1.58 2.64 2.91 3.03 3.39 2.91 2.70 2.83 2.69 2.95 2.45 2.17 1.97 2.41 2.67 2.93 2.64 2.39 2.51 2.42 2.17 1.99 1.69 1.56 1.50 1.29 1.11 0.90 0.85 0.67 0.41 0.33 0.23 0.15 0.10 0.08 0.08 0.10

GFSSE_prec_precacc_126.txt.gz
Total_Precipitation_Accumulation
0.00 0.04 0.23 0.20 0.11 0.08 0.07 0.12 0.21 0.29 0.38 0.37 0.18 0.13 0.11 0.12 0.11 0.08 0.06 0.06 0.07 0.08 0.11 0.17 0.21 0.31 0.43 0.42 0.28 0.08 0.08 0.06 0.04 0.03 0.04 0.08 0.14 0.15 0.20 0.25 0.26 0.25 0.28
0.01 0.06 0.19 0.25 0.16 0.15 0.12 0.11 0.17 0.14 0.26 0.32 0.31 0.35 0.21 0.18 0.14 0.08 0.07 0.05 0.04 0.10 0.20 0.34 0.34 0.31 0.14 0.05 0.04 0.02 0.02 0.00 0.00 0.01 0.01 0.03 0.24 0.32 0.16 0.12 0.20 0.16 0.22
0.02 0.09 0.12 0.28 0.22 0.18 0.12 0.11 0.09 0.13 0.22 0.27 0.33 0.35 0.30 0.20 0.15 0.08 0.05 0.04 0.10 0.25 0.31 0.26 0.32 0.16 0.02 0.01 0.01 0.01 0.01 0.01 0.02 0.02 0.02 0.02 0.09 0.13 0.06 0.06 0.08 0.06 0.09
0.04 0.13 0.11 0.30 0.33 0.24 0.14 0.12 0.10 0.13 0.16 0.17 0.20 0.25 0.35 0.30 0.22 0.07 0.06 0.08 0.17 0.28 0.38 0.17 0.19 0.14 0.01 0.00 0.00 0.00 0.00 0.00 0.00 0.00 0.00 0.00 0.01 0.05 0.06 0.07 0.10 0.11 0.08
0.07 0.16 0.21 0.41 0.38 0.33 0.22 0.13 0.18 0.16 0.15 0.15 0.18 0.36 0.47 0.38 0.21 0.08 0.06 0.10 0.18 0.37 0.47 0.12 0.08 0.07 0.01 0.00 0.00 0.00 0.01 0.01 0.00 0.00 0.00 0.01 0.03 0.09 0.08 0.09 0.11 0.15 0.19
0.08 0.14 0.21 0.47 0.47 0.36 0.30 0.26 0.22 0.20 0.23 0.20 0.28 0.49 0.59 0.57 0.28 0.14 0.11 0.14 0.13 0.20 0.28 0.14 0.06 0.03 0.01 0.00 0.00 0.00 0.01 0.01 0.00 0.00 0.00 0.01 0.03 0.11 0.07 0.08 0.11 0.17 0.20
0.11 0.18 0.24 0.49 0.40 0.28 0.28 0.32 0.28 0.29 0.30 0.22 0.27 0.56 0.65 0.50 0.60 0.40 0.32 0.18 0.12 0.20 0.44 0.40 0.10 0.04 0.00 0.00 0.00 0.00 0.00 0.00 0.00 0.00 0.00 0.00 0.01 0.05 0.03 0.03 0.06 0.08 0.09
0.35 0.37 0.33 0.46 0.49 0.26 0.21 0.23 0.22 0.25 0.31 0.26 0.31 0.65 0.84 0.55 0.52 0.51 0.42 0.18 0.12 0.17 0.43 0.41 0.21 0.07 0.03 0.01 0.00 0.00 0.00 0.00 0.00 0.00 0.00 0.00 0.00 0.00 0.01 0.02 0.04 0.05 0.05
1.04 0.94 0.64 0.47 0.41 0.19 0.14 0.12 0.11 0.12 0.19 0.21 0.29 0.55 0.65 0.43 0.40 0.37 0.40 0.27 0.21 0.19 0.31 0.30 0.31 0.14 0.10 0.09 0.03 0.00 0.00 0.00 0.00 0.00 0.00 0.00 0.00 0.01 0.03 0.06 0.08 0.08 0.08
1.50 1.52 1.17 1.04 0.56 0.21 0.21 0.14 0.05 0.07 0.15 0.12 0.22 0.39 0.21 0.17 0.10 0.15 0.16 0.25 0.37 0.33 0.31 0.30 0.27 0.24 0.19 0.18 0.13 0.02 0.00 0.00 0.00 0.00 0.00 0.00 0.00 0.07 0.14 0.14 0.12 0.10 0.11
1.98 1.57 1.37 1.13 0.79 0.32 0.26 0.24 0.07 0.03 0.05 0.07 0.17 0.32 0.18 0.07 0.03 0.02 0.01 0.04 0.14 0.25 0.30 0.30 0.28 0.15 0.11 0.09 0.03 0.02 0.01 0.00 0.00 0.00 0.00 0.01 0.07 0.15 0.10 0.06 0.05 0.07 0.07
1.84 1.79 2.02 1.54 1.38 0.58 0.41 0.46 0.23 0.08 0.02 0.01 0.10 0.20 0.12 0.09 0.04 0.03 0.02 0.02 0.07 0.16 0.17 0.23 0.27 0.10 0.01 0.00 0.00 0.01 0.01 0.01 0.00 0.00 0.00 0.02 0.06 0.08 0.05 0.04 0.05 0.04 0.04
1.73 1.46 1.49 1.55 2.00 1.13 0.79 0.61 0.42 0.17 0.11 0.02 0.03 0.21 0.18 0.08 0.05 0.02 0.02 0.03 0.11 0.08 0.11 0.08 0.08 0.01 0.00 0.00 0.00 0.02 0.06 0.05 0.01 0.00 0.00 0.04 0.04 0.05 0.02 0.01 0.01 0.01 0.01
0.70 1.55 1.76 1.44 1.67 1.70 1.54 1.08 0.54 0.28 0.14 0.09 0.04 0.08 0.26 0.18 0.18 0.16 0.07 0.08 0.12 0.08 0.12 0.11 0.08 0.02 0.01 0.01 0.01 0.01 0.01 0.02 0.02 0.01 0.00 0.00 0.00 0.01 0.00 0.00 0.00 0.00 0.01
0.41 0.74 0.94 1.20 1.62 1.82 1.39 1.45 1.17 0.49 0.19 0.07 0.07 0.11 0.22 0.35 0.34 0.26 0.27 0.27 0.22 0.16 0.12 0.13 0.16 0.18 0.14 0.09 0.06 0.03 0.01 0.01 0.02 0.01 0.00 0.00 0.00 0.00 0.00 0.02 0.02 0.03 0.08
0.47 0.54 0.52 0.56 0.92 1.45 1.21 0.68 1.36 1.59 0.76 0.15 0.03 0.05 0.12 0.26 0.39 0.49 0.42 0.41 0.31 0.25 0.23 0.23 0.33 0.35 0.29 0.21 0.12 0.07 0.04 0.04 0.08 0.05 0.04 0.04 0.00 0.00 0.00 0.01 0.03 0.09 0.18
0.35 0.40 0.25 0.33 0.41 0.60 1.18 0.70 0.50 1.02 1.48 0.79 0.17 0.15 0.12 0.17 0.27 0.33 0.53 0.54 0.43 0.44 0.61 0.67 0.80 0.70 0.58 0.38 0.21 0.12 0.10 0.08 0.08 0.13 0.14 0.11 0.04 0.01 0.00 0.02 0.05 0.05 0.06
0.26 0.18 0.22 0.23 0.27 0.22 0.32 0.59 0.48 0.54 0.71 0.89 0.47 0.16 0.12 0.12 0.16 0.25 0.21 0.24 0.38 0.50 0.57 0.55 0.62 0.77 0.79 0.72 0.47 0.29 0.24 0.21 0.18 0.17 0.16 0.11 0.07 0.03 0.01 0.01 0.05 0.08 0.06
0.31 0.37 0.32 0.34 0.36 0.33 0.32 0.45 0.56 0.54 0.37 0.54 0.64 0.30 0.14 0.14 0.15 0.20 0.24 0.29 0.35 0.39 0.43 0.48 0.61 0.65 0.74 0.66 0.55 0.62 0.80 0.79 0.55 0.40 0.25 0.15 0.11 0.08 0.04 0.02 0.02 0.09 0.12
0.31 0.45 0.43 0.42 0.44 0.64 0.76 0.89 0.91 0.73 0.42 0.67 0.65 0.53 0.39 0.17 0.16 0.25 0.25 0.28 0.36 0.35 0.34 0.38 0.47 0.53 0.51 0.51 0.55 0.49 0.44 0.53 0.74 0.80 0.70 0.60 0.42 0.27 0.17 0.12 0.12 0.12 0.12
0.71 0.62 0.66 0.62 0.48 0.79 0.90 0.80 0.63 0.53 0.47 0.46 0.64 0.75 0.79 0.58 0.40 0.29 0.26 0.22 0.20 0.17 0.18 0.23 0.32 0.34 0.28 0.40 0.53 0.26 0.19 0.13 0.11 0.11 0.20 0.31 0.33 0.28 0.24 0.22 0.23 0.23 0.24
0.81 0.97 0.77 0.72 0.84 0.77 0.95 0.98 0.97 0.92 0.87 0.78 0.96 0.87 0.89 0.81 0.78 0.67 0.49 0.43 0.32 0.32 0.29 0.24 0.25 0.27 0.27 0.45 0.58 0.44 0.21 0.09 0.05 0.06 0.09 0.10 0.12 0.15 0.16 0.16 0.19 0.19 0.20
1.05 1.06 1.18 1.07 1.08 0.98 1.25 1.65 1.73 1.72 1.48 1.29 0.94 0.93 1.08 1.09 1.28 1.33 1.23 1.19 1.11 0.87 0.65 0.62 0.52 0.50 0.52 0.50 0.53 0.59 0.30 0.11 0.03 0.04 0.04 0.04 0.04 0.05 0.04 0.08 0.10 0.14 0.16
0.95 0.86 0.94 1.30 1.41 1.55 1.47 1.73 1.96 2.17 2.17 1.91 2.21 2.04 1.80 1.71 1.82 2.19 2.32 2.17 2.01 1.64 1.55 1.66 1.66 1.47 1.43 1.10 1.01 0.84 0.69 0.38 0.19 0.08 0.03 0.04 0.06 0.05 0.06 0.10 0.09 0.07 0.07
0.65 0.74 0.73 1.01 1.33 2.04 1.95 2.30 2.83 2.42 2.36 2.23 2.15 2.44 2.20 2.19 2.07 2.00 2.29 2.74 2.77 2.89 2.57 2.23 2.23 2.21 2.10 2.04 1.77 1.50 1.23 1.09 0.86 0.63 0.36 0.22 0.17 0.13 0.12 0.13 0.15 0.11 0.11
0.42 0.55 0.63 0.70 1.05 1.58 2.64 2.91 3.03 3.39 2.91 2.70 2.83 2.69 2.95 2.45 2.17 1.97 2.42 2.67 2.93 2.64 2.42 2.55 2.44 2.19 2.02 1.72 1.62 1.55 1.37 1.21 1.01 1.01 0.81 0.49 0.39 0.29 0.21 0.17 0.14 0.14 0.17

GFSSE_prec_precacc_129.txt.gz
Total_Precipitation_Accumulation
0.00 0.04 0.25 0.27 0.15 0.10 0.10 0.16 0.24 0.30 0.39 0.41 0.19 0.13 0.11 0.12 0.11 0.08 0.06 0.06 0.07 0.08 0.11 0.17 0.21 0.31 0.43 0.42 0.28 0.08 0.08 0.06 0.04 0.03 0.04 0.09 0.14 0.15 0.20 0.26 0.26 0.25 0.28
0.01 0.06 0.21 0.29 0.17 0.17 0.13 0.12 0.18 0.15 0.27 0.32 0.31 0.35 0.22 0.18 0.14 0.08 0.07 0.05 0.04 0.10 0.20 0.34 0.34 0.31 0.14 0.05 0.04 0.02 0.02 0.00 0.00 0.01 0.01 0.03 0.24 0.32 0.16 0.12 0.20 0.16 0.23
0.02 0.10 0.15 0.31 0.23 0.20 0.13 0.11 0.09 0.13 0.22 0.28 0.34 0.36 0.31 0.21 0.15 0.08 0.05 0.04 0.10 0.25 0.31 0.26 0.34 0.18 0.02 0.01 0.01 0.01 0.01 0.01 0.02 0.02 0.02 0.03 0.11 0.14 0.06 0.06 0.08 0.06 0.09
0.04 0.14 0.13 0.31 0.34 0.25 0.16 0.12 0.11 0.14 0.17 0.18 0.20 0.27 0.37 0.31 0.22 0.07 0.06 0.08 0.17 0.28 0.38 0.17 0.19 0.18 0.09 0.02 0.00 0.00 0.00 0.00 0.00 0.00 0.00 0.01 0.03 0.05 0.06 0.07 0.10 0.11 0.08
0.07 0.16 0.22 0.43 0.40 0.34 0.22 0.14 0.19 0.19 0.18 0.19 0.22 0.39 0.50 0.44 0.25 0.09 0.06 0.10 0.18 0.37 0.47 0.12 0.11 0.09 0.08 0.03 0.00 0.00 0.01 0.01 0.00 0.00 0.00 0.01 0.03 0.09 0.08 0.09 0.11 0.15 0.19
0.08 0.14 0.21 0.47 0.47 0.36 0.31 0.28 0.25 0.23 0.26 0.24 0.32 0.54 0.65 0.65 0.37 0.21 0.16 0.16 0.14 0.20 0.28 0.14 0.08 0.05 0.04 0.01 0.00 0.00 0.01 0.01 0.00 0.00 0.00 0.01 0.03 0.11 0.07 0.08 0.11 0.17 0.20
0.11 0.18 0.24 0.49 0.40 0.28 0.28 0.33 0.29 0.30 0.32 0.24 0.30 0.57 0.67 0.55 0.68 0.47 0.38 0.21 0.14 0.21 0.44 0.40 0.10 0.05 0.04 0.02 0.00 0.00 0.00 0.00 0.00 0.00 0.00 0.00 0.01 0.05 0.03 0.03 0.06 0.08 0.09
0.35 0.37 0.33 0.46 0.49 0.26 0.21 0.23 0.22 0.25 0.31 0.27 0.33 0.67 0.84 0.55 0.53 0.54 0.47 0.23 0.16 0.19 0.44 0.42 0.22 0.07 0.06 0.09 0.05 0.00 0.00 0.00 0.00 0.00 0.00 0.00 0.00 0.00 0.01 0.02 0.04 0.05 0.05
1.04 0.94 0.64 0.47 0.41 0.19 0.14 0.12 0.11 0.12 0.19 0.21 0.29 0.55 0.65 0.43 0.41 0.38 0.43 0.30 0.25 0.23 0.35 0.34 0.35 0.17 0.11 0.15 0.16 0.04 0.01 0.00 0.00 0.00 0.00 0.00 0.00 0.01 0.03 0.06 0.08 0.08 0.08
1.50 1.52 1.17 1.04 0.56 0.21 0.21 0.14 0.05 0.07 0.15 0.12 0.22 0.39 0.21 0.17 0.10 0.15 0.16 0.25 0.38 0.34 0.33 0.32 0.29 0.28 0.21 0.20 0.21 0.18 0.03 0.00 0.00 0.00 0.00 0.00 0.00 0.07 0.14 0.14 0.12 0.10 0.11
1.98 1.57 1.37 1.13 0.79 0.32 0.26 0.24 0.07 0.03 0.05 0.07 0.17 0.32 0.18 0.07 0.03 0.02 0.01 0.04 0.14 0.25 0.31 0.31 0.30 0.16 0.13 0.10 0.05 0.04 0.03 0.00 0.00 0.00 0.00 0.01 0.07 0.15 0.10 0.06 0.05 0.07 0.07
1.84 1.79 2.02 1.54 1.38 0.58 0.41 0.46 0.23 0.08 0.02 0.01 0.10 0.20 0.12 0.09 0.04 0.03 0.02 0.02 0.07 0.16 0.18 0.24 0.28 0.11 0.01 0.00 0.00 0.01 0.02 0.04 0.02 0.00 0.00 0.02 0.06 0.08 0.05 0.04 0.05 0.04 0.04
1.73 1.46 1.49 1.55 2.00 1.13 0.79 0.61 0.42 0.17 0.11 0.02 0.03 0.21 0.18 0.08 0.05 0.02 0.02 0.03 0.11 0.08 0.11 0.08 0.08 0.02 0.00 0.00 0.00 0.02 0.06 0.06 0.03 0.01 0.00 0.04 0.04 0.05 0.02 0.01 0.02 0.02 0.01
0.70 1.55 1.76 1.44 1.67 1.70 1.54 1.08 0.54 0.28 0.14 0.09 0.04 0.08 0.26 0.18 0.18 0.16 0.07 0.08 0.12 0.08 0.12 0.11 0.08 0.02 0.01 0.02 0.02 0.02 0.03 0.03 0.02 0.01 0.00 0.00 0.00 0.01 0.00 0.00 0.01 0.01 0.01
0.41 0.74 0.94 1.20 1.62 1.82 1.39 1.45 1.17 0.49 0.19 0.07 0.07 0.11 0.22 0.35 0.34 0.26 0.27 0.27 0.22 0.16 0.12 0.13 0.16 0.18 0.14 0.09 0.08 0.07 0.04 0.03 0.02 0.01 0.00 0.01 0.01 0.00 0.00 0.02 0.03 0.05 0.10
0.47 0.54 0.52 0.56 0.92 1.45 1.21 0.68 1.36 1.59 0.76 0.15 0.03 0.05 0.12 0.26 0.39 0.49 0.42 0.41 0.31 0.25 0.23 0.23 0.33 0.35 0.30 0.21 0.13 0.08 0.06 0.06 0.11 0.07 0.05 0.07 0.05 0.02 0.01 0.02 0.03 0.11 0.23
0.35 0.40 0.25 0.33 0.41 0.60 1.18 0.70 0.50 1.02 1.48 0.79 0.17 0.15 0.12 0.17 0.27 0.33 0.53 0.54 0.43 0.44 0.61 0.67 0.80 0.70 0.58 0.39 0.21 0.13 0.13 0.11 0.10 0.16 0.17 0.13 0.09 0.07 0.04 0.03 0.06 0.05 0.09
0.26 0.18 0.22 0.23 0.27 0.22 0.32 0.59 0.48 0.54 0.71 0.89 0.47 0.16 0.12 0.12 0.16 0.25 0.21 0.24 0.38 0.50 0.57 0.55 0.62 0.77 0.79 0.72 0.47 0.31 0.28 0.26 0.23 0.20 0.20 0.13 0.10 0.07 0.08 0.04 0.07 0.09 0.07
0.31 0.37 0.32 0.34 0.36 0.33 0.32 0.45 0.56 0.54 0.37 0.54 0.64 0.30 0.14 0.14 0.15 0.20 0.24 0.29 0.35 0.39 0.43 0.48 0.61 0.65 0.74 0.66 0.56 0.63 0.81 0.81 0.57 0.42 0.30 0.19 0.15 0.13 0.10 0.10 0.06 0.11 0.12
0.31 0.45 0.43 0.42 0.44 0.64 0.76 0.89 0.91 0.73 0.42 0.67 0.65 0.53 0.39 0.17 0.16 0.25 0.25 0.28 0.36 0.35 0.34 0.39 0.47 0.53 0.51 0.51 0.55 0.50 0.48 0.60 0.80 0.83 0.73 0.65 0.47 0.32 0.24 0.22 0.22 0.19 0.16
0.71 0.62 0.66 0.62 0.48 0.79 0.90 0.80 0.63 0.53 0.47 0.46 0.64 0.75 0.79 0.58 0.40 0.29 0.26 0.22 0.20 0.17 0.18 0.23 0.33 0.35 0.28 0.41 0.54 0.27 0.21 0.19 0.16 0.12 0.22 0.34 0.37 0.31 0.27 0.30 0.31 0.31 0.30
0.81 0.97 0.77 0.72 0.84 0.77 0.95 0.98 0.97 0.92 0.87 0.78 0.96 0.87 0.89 0.81 0.78 0.67 0.49 0.43 0.32 0.32 0.29 0.24 0.25 0.28 0.28 0.47 0.62 0.47 0.23 0.12 0.08 0.08 0.11 0.12 0.17 0.30 0.27 0.23 0.23 0.22 0.21
1.05 1.06 1.18 1.07 1.08 0.98 1.25 1.65 1.73 1.72 1.48 1.29 0.94 0.93 1.08 1.09 1.28 1.33 1.23 1.19 1.11 0.87 0.65 0.62 0.53 0.52 0.53 0.51 0.60 0.71 0.39 0.18 0.10 0.08 0.05 0.06 0.08 0.13 0.17 0.14 0.12 0.14 0.16
0.95 0.86 0.94 1.30 1.41 1.55 1.47 1.73 1.96 2.17 2.17 1.91 2.21 2.04 1.80 1.71 1.82 2.19 2.32 2.17 2.01 1.64 1.55 1.66 1.67 1.47 1.45 1.12 1.06 0.97 0.87 0.54 0.30 0.12 0.04 0.04 0.07 0.07 0.09 0.13 0.10 0.08 0.08
0.65 0.74 0.73 1.01 1.33 2.04 1.95 2.30 2.83 2.42 2.36 2.23 2.15 2.44 2.20 2.19 2.07 2.00 2.29 2.74 2.77 2.89 2.57 2.23 2.23 2.22 2.12 2.08 1.85 1.63 1.43 1.29 1.02 0.75 0.42 0.26 0.20 0.15 0.16 0.19 0.20 0.16 0.14
0.42 0.55 0.63 0.70 1.05 1.58 2.64 2.91 3.03 3.39 2.91 2.70 2.83 2.69 2.95 2.45 2.17 1.97 2.42 2.67 2.93 2.64 2.42 2.55 2.46 2.20 2.03 1.76 1.68 1.64 1.47 1.31 1.07 1.03 0.83 0.52 0.41 0.30 0.23 0.27 0.28 0.24 0.25

GFSSE_prec_precacc_132.txt.gz
Total_Precipitation_Accumulation
0.00 0.04 0.25 0.31 0.17 0.15 0.11 0.17 0.27 0.33 0.42 0.43 0.20 0.13 0.11 0.12 0.11 0.08 0.06 0.06 0.07 0.08 0.11 0.17 0.21 0.31 0.43 0.42 0.28 0.08 0.08 0.06 0.04 0.03 0.06 0.11 0.14 0.15 0.20 0.26 0.26 0.25 0.28
0.01 0.07 0.22 0.32 0.18 0.19 0.16 0.15 0.18 0.15 0.28 0.33 0.34 0.39 0.22 0.18 0.14 0.08 0.07 0.05 0.04 0.10 0.20 0.35 0.35 0.31 0.14 0.05 0.04 0.02 0.02 0.00 0.00 0.01 0.01 0.03 0.24 0.32 0.16 0.12 0.20 0.16 0.23
0.02 0.11 0.18 0.33 0.24 0.21 0.14 0.12 0.10 0.13 0.22 0.28 0.36 0.38 0.34 0.23 0.16 0.08 0.05 0.04 0.10 0.25 0.31 0.26 0.35 0.19 0.03 0.01 0.01 0.01 0.01 0.01 0.02 0.02 0.02 0.05 0.16 0.14 0.06 0.06 0.08 0.06 0.10
0.04 0.14 0.14 0.34 0.36 0.26 0.16 0.13 0.11 0.14 0.18 0.20 0.23 0.33 0.41 0.36 0.26 0.08 0.06 0.08 0.17 0.28 0.38 0.17 0.19 0.19 0.13 0.06 0.00 0.00 0.00 0.00 0.00 0.00 0.01 0.02 0.05 0.05 0.06 0.07 0.10 0.11 0.08
0.07 0.16 0.22 0.43 0.42 0.36 0.23 0.14 0.20 0.19 0.18 0.19 0.23 0.40 0.52 0.47 0.30 0.17 0.11 0.10 0.18 0.37 0.47 0.12 0.12 0.11 0.08 0.06 0.00 0.00 0.01 0.01 0.00 0.00 0.01 0.03 0.04 0.09 0.08 0.09 0.11 0.15 0.19
0.08 0.14 0.21 0.47 0.47 0.36 0.31 0.28 0.25 0.23 0.26 0.24 0.32 0.54 0.65 0.65 0.37 0.23 0.20 0.17 0.15 0.21 0.28 0.14 0.08 0.06 0.04 0.02 0.00 0.00 0.01 0.01 0.00 0.00 0.00 0.01 0.03 0.11 0.07 0.08 0.11 0.17 0.20
0.11 0.18 0.24 0.49 0.40 0.28 0.28 0.33 0.29 0.30 0.32 0.25 0.31 0.58 0.67 0.56 0.68 0.48 0.39 0.22 0.15 0.22 0.44 0.40 0.10 0.06 0.04 0.02 0.00 0.00 0.00 0.01 0.00 0.00 0.00 0.00 0.01 0.05 0.03 0.03 0.06 0.08 0.09
0.35 0.37 0.33 0.46 0.49 0.26 0.21 0.23 0.22 0.25 0.31 0.27 0.33 0.68 0.85 0.55 0.53 0.54 0.47 0.23 0.16 0.19 0.45 0.43 0.23 0.07 0.09 0.11 0.09 0.02 0.00 0.00 0.00 0.00 0.00 0.00 0.00 0.00 0.01 0.02 0.04 0.05 0.05
1.04 0.94 0.64 0.47 0.41 0.19 0.14 0.12 0.11 0.12 0.19 0.21 0.29 0.55 0.65 0.43 0.41 0.38 0.43 0.30 0.25 0.23 0.35 0.34 0.35 0.18 0.12 0.18 0.22 0.08 0.02 0.00 0.00 0.00 0.00 0.00 0.00 0.01 0.03 0.06 0.08 0.08 0.08
1.50 1.52 1.17 1.04 0.56 0.21 0.21 0.14 0.05 0.07 0.15 0.12 0.22 0.39 0.21 0.17 0.10 0.15 0.16 0.25 0.38 0.34 0.33 0.33 0.30 0.29 0.23 0.21 0.23 0.23 0.04 0.00 0.00 0.00 0.00 0.00 0.00 0.07 0.14 0.14 0.12 0.10 0.11
1.98 1.57 1.37 1.13 0.79 0.32 0.26 0.24 0.07 0.03 0.05 0.07 0.17 0.32 0.18 0.07 0.03 0.02 0.01 0.04 0.14 0.25 0.31 0.31 0.30 0.18 0.14 0.10 0.05 0.05 0.08 0.02 0.02 0.01 0.00 0.01 0.07 0.15 0.10 0.06 0.05 0.07 0.07
1.84 1.79 2.02 1.54 1.38 0.58 0.41 0.46 0.23 0.08 0.02 0.01 0.10 0.20 0.12 0.09 0.04 0.03 0.02 0.02 0.07 0.16 0.18 0.24 0.28 0.11 0.01 0.00 0.00 0.02 0.03 0.05 0.05 0.02 0.01 0.03 0.06 0.08 0.05 0.04 0.06 0.05 0.04
1.73 1.46 1.49 1.55 2.00 1.13 0.79 0.61 0.42 0.17 0.11 0.02 0.03 0.21 0.18 0.08 0.05 0.02 0.02 0.03 0.11 0.08 0.11 0.08 0.08 0.02 0.00 0.01 0.01 0.02 0.06 0.07 0.05 0.03 0.01 0.04 0.04 0.05 0.02 0.01 0.02 0.03 0.02
0.70 1.55 1.76 1.44 1.67 1.70 1.54 1.08 0.54 0.28 0.14 0.09 0.04 0.08 0.26 0.18 0.18 0.16 0.07 0.08 0.12 0.08 0.12 0.11 0.08 0.02 0.01 0.02 0.03 0.04 0.05 0.04 0.04 0.03 0.01 0.00 0.00 0.01 0.00 0.00 0.01 0.03 0.03
0.41 0.74 0.94 1.20 1.62 1.82 1.39 1.45 1.17 0.49 0.19 0.07 0.07 0.11 0.22 0.35 0.34 0.26 0.27 0.27 0.22 0.16 0.12 0.13 0.16 0.18 0.14 0.09 0.08 0.07 0.05 0.05 0.04 0.02 0.01 0.01 0.01 0.00 0.00 0.02 0.03 0.06 0.12
0.47 0.54 0.52 0.56 0.92 1.45 1.21 0.68 1.36 1.59 0.76 0.15 0.03 0.05 0.12 0.26 0.39 0.49 0.42 0.41 0.31 0.25 0.23 0.23 0.33 0.35 0.30 0.21 0.13 0.08 0.06 0.08 0.13 0.09 0.07 0.09 0.06 0.03 0.01 0.02 0.03 0.12 0.24
0.35 0.40 0.25 0.33 0.41 0.60 1.18 0.70 0.50 1.02 1.48 0.79 0.17 0.15 0.12 0.17 0.27 0.33 0.53 0.54 0.43 0.44 0.61 0.67 0.80 0.70 0.58 0.39 0.21 0.13 0.13 0.11 0.10 0.17 0.18 0.14 0.11 0.09 0.06 0.03 0.06 0.06 0.09
0.26 0.18 0.22 0.23 0.27 0.22 0.32 0.59 0.48 0.54 0.71 0.89 0.47 0.16 0.12 0.12 0.16 0.25 0.21 0.24 0.38 0.50 0.57 0.55 0.62 0.77 0.79 0.72 0.47 0.31 0.28 0.26 0.23 0.21 0.20 0.14 0.10 0.08 0.09 0.06 0.08 0.10 0.07
0.31 0.37 0.32 0.34 0.36 0.33 0.32 0.45 0.56 0.54 0.37 0.54 0.64 0.30 0.14 0.14 0.15 0.20 0.24 0.29 0.35 0.39 0.43 0.48 0.61 0.65 0.74 0.66 0.56 0.63 0.81 0.81 0.58 0.43 0.31 0.20 0.16 0.14 0.10 0.12 0.12 0.15 0.13
0.31 0.45 0.43 0.42 0.44 0.64 0.76 0.89 0.91 0.73 0.42 0.67 0.65 0.53 0.39 0.17 0.16 0.25 0.25 0.28 0.36 0.35 0.34 0.39 0.47 0.53 0.51 0.51 0.55 0.50 0.48 0.60 0.81 0.85 0.76 0.67 0.48 0.33 0.26 0.24 0.25 0.24 0.22
0.71 0.62 0.66 0.62 0.48 0.79 0.90 0.80 0.63 0.53 0.47 0.46 0.64 0.75 0.79 0.58 0.40 0.29 0.26 0.22 0.20 0.17 0.18 0.23 0.33 0.35 0.28 0.41 0.55 0.27 0.21 0.19 0.16 0.13 0.24 0.37 0.39 0.34 0.31 0.34 0.39 0.41 0.42
0.81 0.97 0.77 0.72 0.84 0.77 0.95 0.98 0.97 0.92 0.87 0.78 0.96 0.87 0.89 0.81 0.78 0.67 0.49 0.43 0.32 0.32 0.29 0.24 0.25 0.28 0.28 0.47 0.63 0.49 0.24 0.12 0.09 0.09 0.14 0.16 0.20 0.36 0.34 0.30 0.32 0.34 0.35
1.05 1.06 1.18 1.07 1.08 0.98 1.25 1.65 1.73 1.72 1.48 1.29 0.94 0.93 1.08 1.09 1.28 1.33 1.23 1.19 1.11 0.87 0.65 0.62 0.53 0.52 0.54 0.51 0.61 0.74 0.42 0.21 0.17 0.18 0.16 0.18 0.19 0.24 0.28 0.41 0.38 0.31 0.29
0.95 0.86 0.94 1.30 1.41 1.55 1.47 1.73 1.96 2.17 2.17 1.91 2.21 2.04 1.80 1.71 1.82 2.19 2.32 2.17 2.01 1.64 1.55 1.66 1.67 1.48 1.46 1.12 1.06 0.99 0.92 0.65 0.51 0.40 0.29 0.31 0.21 0.21 0.34 0.38 0.35 0.38 0.40
0.65 0.74 0.73 1.01 1.33 2.04 1.95 2.30 2.83 2.42 2.36 2.23 2.15 2.44 2.20 2.19 2.07 2.00 2.29 2.74 2.77 2.89 2.57 2.23 2.23 2.22 2.12 2.09 1.85 1.63 1.44 1.34 1.38 1.26 0.82 0.46 0.36 0.35 0.35 0.47 0.52 0.50 0.58
0.42 0.55 0.63 0.70 1.05 1.58 2.64 2.91 3.03 3.39 2.91 2.70 2.83 2.69 2.95 2.45 2.17 1.97 2.42 2.67 2.93 2.64 2.42 2.55 2.46 2.20 2.03 1.76 1.68 1.64 1.48 1.31 1.15 1.16 0.90 0.55 0.42 0.34 0.27 0.32 0.38 0.38 0.42

GFSSE_prec_precacc_135.txt.gz
Total_Precipitation_Accumulation
0.00 0.04 0.25 0.36 0.18 0.16 0.12 0.21 0.31 0.35 0.44 0.46 0.24 0.14 0.11 0.12 0.11 0.08 0.06 0.06 0.07 0.08 0.11 0.17 0.21 0.31 0.43 0.42 0.28 0.08 0.08 0.06 0.04 0.03 0.06 0.11 0.14 0.15 0.20 0.26 0.26 0.25 0.28
0.01 0.08 0.23 0.34 0.19 0.20 0.17 0.16 0.21 0.16 0.28 0.35 0.37 0.42 0.25 0.18 0.14 0.08 0.07 0.05 0.04 0.10 0.20 0.35 0.36 0.31 0.14 0.05 0.04 0.02 0.02 0.00 0.00 0.01 0.01 0.03 0.24 0.32 0.16 0.12 0.20 0.17 0.24
0.02 0.12 0.21 0.34 0.25 0.22 0.16 0.12 0.12 0.15 0.22 0.28 0.40 0.43 0.40 0.30 0.16 0.08 0.05 0.04 0.10 0.25 0.31 0.26 0.36 0.20 0.03 0.01 0.01 0.01 0.01 0.01 0.02 0.02 0.02 0.05 0.17 0.14 0.06 0.06 0.08 0.06 0.10
0.04 0.14 0.14 0.34 0.38 0.28 0.16 0.14 0.11 0.15 0.18 0.20 0.24 0.34 0.44 0.39 0.28 0.10 0.06 0.08 0.17 0.28 0.38 0.17 0.19 0.19 0.14 0.06 0.00 0.00 0.00 0.00 0.00 0.00 0.01 0.03 0.10 0.06 0.06 0.07 0.10 0.11 0.08
0.07 0.16 0.22 0.43 0.42 0.36 0.24 0.14 0.21 0.19 0.18 0.19 0.23 0.40 0.52 0.47 0.30 0.17 0.11 0.12 0.20 0.37 0.47 0.12 0.13 0.14 0.11 0.06 0.00 0.00 0.01 0.01 0.00 0.00 0.01 0.06 0.10 0.10 0.08 0.09 0.11 0.15 0.19
0.08 0.14 0.21 0.47 0.47 0.36 0.31 0.28 0.25 0.23 0.26 0.24 0.32 0.54 0.65 0.66 0.38 0.23 0.20 0.17 0.15 0.21 0.29 0.14 0.08 0.06 0.05 0.03 0.00 0.00 0.01 0.01 0.00 0.00 0.00 0.01 0.03 0.11 0.07 0.08 0.11 0.17 0.20
0.11 0.18 0.24 0.49 0.40 0.28 0.28 0.33 0.29 0.30 0.32 0.25 0.31 0.58 0.67 0.57 0.71 0.51 0.42 0.24 0.15 0.22 0.44 0.41 0.13 0.09 0.05 0.05 0.01 0.00 0.01 0.01 0.00 0.00 0.00 0.00 0.01 0.05 0.03 0.03 0.06 0.08 0.09
0.35 0.37 0.33 0.46 0.49 0.26 0.21 0.23 0.22 0.25 0.31 0.27 0.33 0.68 0.85 0.55 0.53 0.54 0.49 0.26 0.18 0.20 0.45 0.43 0.25 0.10 0.10 0.15 0.12 0.07 0.03 0.01 0.00 0.00 0.00 0.00 0.00 0.00 0.01 0.02 0.04 0.05 0.05
1.04 0.94 0.64 0.47 0.41 0.19 0.14 0.12 0.11 0.12 0.19 0.21 0.29 0.55 0.65 0.43 0.41 0.38 0.43 0.30 0.25 0.24 0.36 0.34 0.35 0.18 0.12 0.19 0.25 0.10 0.02 0.00 0.00 0.00 0.00 0.00 0.00 0.01 0.03 0.06 0.08 0.08 0.08
1.50 1.52 1.17 1.04 0.56 0.21 0.21 0.14 0.05 0.07 0.15 0.12 0.22 0.39 0.21 0.17 0.10 0.15 0.16 0.25 0.38 0.34 0.33 0.33 0.30 0.29 0.23 0.22 0.23 0.24 0.04 0.00 0.01 0.00 0.00 0.00 0.00 0.07 0.14 0.14 0.12 0.10 0.11
1.98 1.57 1.37 1.13 0.79 0.32 0.26 0.24 0.07 0.03 0.05 0.07 0.17 0.32 0.18 0.07 0.03 0.02 0.01 0.04 0.14 0.25 0.31 0.31 0.30 0.18 0.15 0.10 0.05 0.05 0.08 0.02 0.03 0.02 0.00 0.01 0.07 0.15 0.10 0.06 0.05 0.07 0.07
1.84 1.79 2.02 1.54 1.38 0.58 0.41 0.46 0.23 0.08 0.02 0.01 0.10 0.20 0.12 0.09 0.04 0.03 0.02 0.02 0.07 0.16 0.18 0.24 0.28 0.11 0.01 0.00 0.00 0.03 0.03 0.05 0.05 0.03 0.01 0.03 0.06 0.08 0.05 0.04 0.06 0.05 0.04
1.73 1.46 1.49 1.55 2.00 1.13 0.79 0.61 0.42 0.17 0.11 0.02 0.03 0.21 0.18 0.08 0.05 0.02 0.02 0.03 0.11 0.08 0.11 0.08 0.08 0.02 0.00 0.01 0.01 0.03 0.08 0.10 0.05 0.04 0.03 0.04 0.04 0.05 0.02 0.01 0.02 0.03 0.02
0.70 1.55 1.76 1.44 1.67 1.70 1.54 1.08 0.54 0.28 0.14 0.09 0.04 0.08 0.26 0.18 0.18 0.16 0.07 0.08 0.12 0.08 0.12 0.11 0.08 0.02 0.01 0.02 0.03 0.04 0.06 0.06 0.05 0.04 0.03 0.02 0.01 0.01 0.00 0.00 0.01 0.03 0.03
0.41 0.74 0.94 1.20 1.62 1.82 1.39 1.45 1.17 0.49 0.19 0.07 0.07 0.11 0.22 0.35 0.34 0.26 0.27 0.27 0.22 0.16 0.12 0.13 0.16 0.18 0.14 0.09 0.08 0.07 0.05 0.05 0.05 0.04 0.02 0.03 0.02 0.01 0.01 0.02 0.03 0.06 0.12
0.47 0.54 0.52 0.56 0.92 1.45 1.21 0.68 1.36 1.59 0.76 0.15 0.03 0.05 0.12 0.26 0.39 0.49 0.42 0.41 0.31 0.25 0.23 0.23 0.33 0.35 0.30 0.21 0.13 0.08 0.06 0.08 0.13 0.09 0.08 0.11 0.07 0.04 0.02 0.03 0.04 0.12 0.24
0.35 0.40 0.25 0.33 0.41 0.60 1.18 0.70 0.50 1.02 1.48 0.79 0.17 0.15 0.12 0.17 0.27 0.33 0.53 0.54 0.43 0.44 0.61 0.67 0.80 0.70 0.58 0.39 0.21 0.13 0.13 0.11 0.10 0.17 0.19 0.16 0.13 0.10 0.07 0.06 0.10 0.07 0.09
0.26 0.18 0.22 0.23 0.27 0.22 0.32 0.59 0.48 0.54 0.71 0.89 0.47 0.16 0.12 0.12 0.16 0.25 0.21 0.24 0.38 0.50 0.57 0.55 0.62 0.77 0.79 0.72 0.47 0.31 0.28 0.26 0.23 0.21 0.20 0.15 0.12 0.10 0.11 0.09 0.13 0.13 0.08
0.31 0.37 0.32 0.34 0.36 0.33 0.32 0.45 0.56 0.54 0.37 0.54 0.64 0.30 0.14 0.14 0.15 0.20 0.24 0.29 0.35 0.39 0.43 0.48 0.61 0.65 0.74 0.66 0.56 0.63 0.81 0.81 0.58 0.43 0.31 0.20 0.17 0.16 0.12 0.16 0.18 0.22 0.23
0.31 0.45 0.43 0.42 0.44 0.64 0.76 0.89 0.91 0.73 0.42 0.67 0.65 0.53 0.39 0.17 0.16 0.25 0.25 0.28 0.36 0.35 0.34 0.39 0.47 0.53 0.51 0.51 0.55 0.50 0.48 0.60 0.81 0.85 0.76 0.68 0.49 0.35 0.28 0.27 0.29 0.31 0.31
0.71 0.62 0.66 0.62 0.48 0.79 0.90 0.80 0.63 0.53 0.47 0.46 0.64 0.75 0.79 0.58 0.40 0.29 0.26 0.22 0.20 0.17 0.18 0.23 0.33 0.35 0.28 0.41 0.55 0.27 0.21 0.19 0.16 0.13 0.24 0.37 0.40 0.35 0.33 0.36 0.41 0.45 0.49
0.81 0.97 0.77 0.72 0.84 0.77 0.95 0.98 0.97 0.92 0.87 0.78 0.96 0.87 0.89 0.81 0.78 0.67 0.49 0.43 0.32 0.32 0.29 0.24 0.25 0.28 0.28 0.47 0.64 0.50 0.24 0.12 0.09 0.09 0.14 0.17 0.21 0.40 0.40 0.39 0.41 0.42 0.41
1.05 1.06 1.18 1.07 1.08 0.98 1.25 1.65 1.73 1.72 1.48 1.29 0.94 0.93 1.08 1.09 1.28 1.33 1.23 1.19 1.11 0.87 0.65 0.62 0.53 0.52 0.54 0.51 0.61 0.76 0.44 0.22 0.17 0.18 0.16 0.20 0.27 0.36 0.45 0.63 0.68 0.52 0.44
0.95 0.86 0.94 1.30 1.41 1.55 1.47 1.73 1.96 2.17 2.17 1.91 2.21 2.04 1.80 1.71 1.82 2.19 2.32 2.17 2.01 1.64 1.55 1.66 1.67 1.48 1.46 1.13 1.06 0.99 0.92 0.66 0.55 0.40 0.30 0.34 0.48 1.09 1.35 1.03 0.73 0.83 1.00
0.65 0.74 0.73 1.01 1.33 2.04 1.95 2.30 2.83 2.42 2.36 2.23 2.15 2.44 2.20 2.19 2.07 2.00 2.29 2.74 2.77 2.89 2.57 2.23 2.23 2.22 2.12 2.09 1.85 1.64 1.44 1.34 1.38 1.26 0.85 0.63 0.56 0.97 0.82 0.72 0.66 0.58 0.92
0.42 0.55 0.63 0.70 1.05 1.58 2.64 2.91 3.03 3.39 2.91 2.70 2.83 2.69 2.95 2.45 2.17 1.97 2.42 2.67 2.93 2.64 2.42 2.55 2.46 2.20 2.03 1.76 1.68 1.64 1.48 1.31 1.15 1.16 0.91 0.55 0.42 0.35 0.30 0.35 0.50 0.58 0.55

GFSSE_prec_precacc_141.txt.gz
Total_Precipitation_Accumulation
0.02 0.06 0.27 0.39 0.19 0.16 0.12 0.21 0.33 0.42 0.49 0.50 0.28 0.15 0.11 0.12 0.11 0.08 0.06 0.06 0.07 0.08 0.11 0.17 0.22 0.31 0.43 0.42 0.28 0.08 0.08 0.06 0.04 0.03 0.06 0.11 0.14 0.15 0.20 0.26 0.26 0.25 0.28
0.02 0.09 0.25 0.35 0.19 0.20 0.17 0.16 0.22 0.19 0.30 0.37 0.42 0.46 0.27 0.19 0.14 0.08 0.07 0.05 0.04 0.10 0.20 0.35 0.37 0.31 0.14 0.05 0.04 0.02 0.02 0.00 0.00 0.01 0.01 0.03 0.24 0.32 0.16 0.12 0.21 0.17 0.24
0.02 0.12 0.21 0.34 0.25 0.22 0.16 0.12 0.12 0.15 0.22 0.28 0.40 0.45 0.42 0.30 0.17 0.08 0.05 0.04 0.10 0.25 0.31 0.26 0.36 0.20 0.04 0.01 0.01 0.01 0.01 0.01 0.02 0.02 0.02 0.05 0.17 0.14 0.06 0.06 0.08 0.06 0.10
0.04 0.14 0.14 0.34 0.38 0.28 0.16 0.14 0.11 0.15 0.18 0.20 0.24 0.34 0.44 0.40 0.28 0.10 0.07 0.09 0.17 0.28 0.38 0.17 0.19 0.19 0.14 0.07 0.00 0.00 0.00 0.00 0.00 0.00 0.01 0.03 0.12 0.07 0.06 0.07 0.10 0.11 0.08
0.07 0.16 0.22 0.43 0.42 0.36 0.24 0.14 0.21 0.19 0.18 0.19 0.23 0.40 0.54 0.52 0.31 0.19 0.12 0.13 0.22 0.37 0.47 0.12 0.13 0.15 0.13 0.09 0.00 0.00 0.01 0.01 0.00 0.00 0.02 0.07 0.14 0.13 0.13 0.09 0.11 0.15 0.19
0.08 0.14 0.21 0.47 0.47 0.36 0.31 0.28 0.25 0.23 0.26 0.24 0.32 0.54 0.65 0.70 0.42 0.26 0.25 0.20 0.16 0.21 0.29 0.14 0.08 0.07 0.06 0.03 0.00 0.00 0.01 0.02 0.00 0.00 0.00 0.01 0.04 0.13 0.09 0.08 0.11 0.17 0.20
0.11 0.18 0.24 0.49 0.40 0.28 0.28 0.33 0.29 0.30 0.32 0.25 0.31 0.58 0.67 0.58 0.73 0.52 0.43 0.25 0.15 0.22 0.44 0.41 0.14 0.10 0.07 0.06 0.01 0.01 0.03 0.02 0.00 0.00 0.00 0.00 0.01 0.05 0.03 0.03 0.06 0.08 0.09
0.35 0.37 0.33 0.46 0.49 0.26 0.21 0.23 0.22 0.25 0.31 0.27 0.33 0.68 0.85 0.55 0.53 0.54 0.49 0.26 0.18 0.20 0.45 0.43 0.25 0.11 0.11 0.16 0.13 0.09 0.05 0.01 0.00 0.00 0.00 0.00 0.00 0.00 0.01 0.02 0.04 0.05 0.05
1.04 0.94 0.64 0.47 0.41 0.19 0.14 0.12 0.11 0.12 0.19 0.21 0.29 0.55 0.65 0.43 0.41 0.38 0.43 0.30 0.25 0.24 0.36 0.34 0.35 0.18 0.12 0.20 0.28 0.12 0.03 0.00 0.00 0.00 0.00 0.00 0.00 0.01 0.03 0.06 0.08 0.08 0.08
1.50 1.52 1.17 1.04 0.56 0.21 0.21 0.14 0.05 0.07 0.15 0.12 0.22 0.39 0.21 0.17 0.10 0.15 0.16 0.25 0.38 0.34 0.33 0.33 0.30 0.29 0.25 0.24 0.25 0.25 0.05 0.00 0.01 0.00 0.00 0.00 0.01 0.11 0.16 0.15 0.12 0.10 0.11
1.98 1.57 1.37 1.13 0.79 0.32 0.26 0.24 0.07 0.03 0.05 0.07 0.17 0.32 0.18 0.07 0.03 0.02 0.01 0.04 0.14 0.25 0.31 0.31 0.30 0.18 0.15 0.10 0.05 0.06 0.09 0.02 0.03 0.02 0.00 0.01 0.09 0.19 0.12 0.07 0.06 0.07 0.07
1.84 1.79 2.02 1.54 1.38 0.58 0.41 0.46 0.23 0.08 0.02 0.01 0.10 0.20 0.12 0.09 0.04 0.03 0.02 0.02 0.07 0.16 0.18 0.24 0.28 0.11 0.01 0.00 0.00 0.03 0.05 0.08 0.08 0.04 0.02 0.04 0.10 0.13 0.10 0.07 0.08 0.07 0.06
1.73 1.46 1.49 1.55 2.00 1.13 0.79 0.61 0.42 0.17 0.11 0.02 0.03 0.21 0.18 0.08 0.05 0.02 0.02 0.03 0.11 0.08 0.11 0.08 0.08 0.02 0.00 0.01 0.02 0.03 0.09 0.11 0.07 0.06 0.06 0.09 0.11 0.13 0.09 0.09 0.08 0.07 0.06
0.70 1.55 1.76 1.44 1.67 1.70 1.54 1.08 0.54 0.28 0.14 0.09 0.04 0.08 0.26 0.18 0.18 0.16 0.07 0.08 0.12 0.08 0.12 0.11 0.08 0.02 0.01 0.02 0.03 0.04 0.06 0.07 0.05 0.04 0.04 0.04 0.04 0.07 0.07 0.08 0.08 0.11 0.11
0.41 0.74 0.94 1.20 1.62 1.82 1.39 1.45 1.17 0.49 0.19 0.07 0.07 0.11 0.22 0.35 0.34 0.26 0.27 0.27 0.22 0.16 0.12 0.13 0.16 0.18 0.14 0.09 0.08 0.07 0.05 0.05 0.05 0.04 0.03 0.03 0.03 0.05 0.06 0.08 0.08 0.12 0.18
0.47 0.54 0.52 0.56 0.92 1.45 1.21 0.68 1.36 1.59 0.76 0.15 0.03 0.05 0.12 0.26 0.39 0.49 0.42 0.41 0.31 0.25 0.23 0.23 0.33 0.35 0.30 0.21 0.13 0.08 0.06 0.08 0.13 0.09 0.08 0.11 0.08 0.06 0.07 0.08 0.10 0.18 0.33
0.35 0.40 0.25 0.33 0.41 0.60 1.18 0.70 0.50 1.02 1.48 0.79 0.17 0.15 0.12 0.17 0.27 0.33 0.53 0.54 0.43 0.44 0.61 0.67 0.80 0.70 0.58 0.39 0.21 0.13 0.13 0.11 0.10 0.17 0.19 0.16 0.13 0.11 0.08 0.09 0.15 0.13 0.15
0.26 0.18 0.22 0.23 0.27 0.22 0.32 0.59 0.48 0.54 0.71 0.89 0.47 0.16 0.12 0.12 0.16 0.25 0.21 0.24 0.38 0.50 0.57 0.55 0.62 0.77 0.79 0.72 0.47 0.31 0.28 0.26 0.23 0.21 0.20 0.15 0.12 0.11 0.12 0.10 0.17 0.19 0.14
0.31 0.37 0.32 0.34 0.36 0.33 0.32 0.45 0.56 0.54 0.37 0.54 0.64 0.30 0.14 0.14 0.15 0.20 0.24 0.29 0.35 0.39 0.43 0.48 0.61 0.65 0.74 0.66 0.56 0.63 0.81 0.81 0.58 0.43 0.31 0.20 0.17 0.16 0.13 0.16 0.19 0.27 0.32
0.31 0.45 0.43 0.42 0.44 0.64 0.76 0.89 0.91 0.73 0.42 0.67 0.65 0.53 0.39 0.17 0.16 0.25 0.25 0.28 0.36 0.35 0.34 0.39 0.47 0.53 0.51 0.51 0.55 0.50 0.48 0.60 0.81 0.85 0.76 0.68 0.49 0.35 0.28 0.27 0.30 0.31 0.33
0.71 0.62 0.66 0.62 0.48 0.79 0.90 0.80 0.63 0.53 0.47 0.46 0.64 0.75 0.79 0.58 0.40 0.29 0.26 0.22 0.20 0.17 0.18 0.23 0.33 0.35 0.28 0.41 0.55 0.27 0.21 0.19 0.16 0.13 0.24 0.37 0.40 0.35 0.33 0.37 0.43 0.47 0.52
0.81 0.97 0.77 0.72 0.84 0.77 0.95 0.98 0.97 0.92 0.87 0.78 0.96 0.87 0.89 0.81 0.78 0.67 0.49 0.43 0.32 0.32 0.29 0.24 0.25 0.28 0.28 0.47 0.64 0.50 0.24 0.12 0.09 0.09 0.14 0.17 0.21 0.40 0.40 0.40 0.46 0.47 0.48
1.05 1.06 1.18 1.07 1.08 0.98 1.25 1.65 1.73 1.72 1.48 1.29 0.94 0.93 1.08 1.09 1.28 1.33 1.23 1.19 1.11 0.87 0.65 0.62 0.53 0.52 0.54 0.51 0.61 0.77 0.45 0.22 0.18 0.18 0.16 0.21 0.27 0.36 0.45 0.63 0.75 0.59 0.52
0.95 0.86 0.94 1.30 1.41 1.55 1.47 1.73 1.96 2.17 2.17 1.91 2.21 2.04 1.80 1.71 1.82 2.19 2.32 2.17 2.01 1.64 1.55 1.66 1.67 1.48 1.46 1.13 1.06 0.99 0.92 0.67 0.56 0.41 0.30 0.34 0.48 1.09 1.37 1.21 1.08 1.26 1.29
0.65 0.74 0.73 1.01 1.33 2.04 1.95 2.30 2.83 2.42 2.36 2.23 2.15 2.44 2.20 2.19 2.07 2.00 2.29 2.74 2.77 2.89 2.57 2.23 2.23 2.22 2.12 2.09 1.85 1.64 1.44 1.34 1.38 1.27 0.85 0.63 0.56 0.97 0.83 0.77 0.75 0.72 1.05
0.42 0.55 0.63 0.70 1.05 1.58 2.64 2.91 3.03 3.39 2.91 2.70 2.83 2.69 2.95 2.45 2.17 1.97 2.42 2.67 2.93 2.64 2.42 2.55 2.46 2.20 2.03 1.76 1.68 1.64 1.48 1.31 1.15 1.16 0.91 0.55 0.42 0.35 0.30 0.35 0.50 0.58 0.55

GFSSE_prec_precacc_144.txt.gz
Total_Precipitation_Accumulation
0.03 0.07 0.31 0.41 0.19 0.16 0.12 0.21 0.33 0.42 0.49 0.51 0.28 0.15 0.11 0.12 0.11 0.08 0.06 0.06 0.07 0.08 0.11 0.17 0.22 0.31 0.43 0.42 0.28 0.08 0.08 0.06 0.04 0.03 0.06 0.11 0.14 0.15 0.20 0.26 0.26 0.25 0.28
0.03 0.09 0.28 0.36 0.19 0.20 0.17 0.16 0.22 0.19 0.30 0.37 0.43 0.46 0.27 0.19 0.14 0.08 0.07 0.05 0.04 0.10 0.20 0.35 0.37 0.32 0.14 0.05 0.04 0.02 0.02 0.00 0.00 0.01 0.01 0.03 0.24 0.32 0.16 0.12 0.21 0.17 0.24
0.02 0.12 0.21 0.34 0.25 0.22 0.16 0.12 0.12 0.15 0.22 0.28 0.40 0.45 0.42 0.30 0.17 0.09 0.05 0.04 0.10 0.25 0.31 0.26 0.36 0.21 0.04 0.02 0.01 0.01 0.01 0.01 0.02 0.02 0.02 0.05 0.17 0.14 0.06 0.06 0.08 0.06 0.10
0.04 0.14 0.14 0.34 0.38 0.28 0.16 0.14 0.11 0.15 0.18 0.20 0.24 0.35 0.46 0.41 0.30 0.12 0.12 0.12 0.18 0.29 0.38 0.17 0.19 0.19 0.14 0.07 0.00 0.00 0.00 0.00 0.00 0.00 0.01 0.03 0.12 0.07 0.07 0.07 0.10 0.11 0.08
0.07 0.16 0.22 0.43 0.42 0.36 0.24 0.14 0.21 0.19 0.18 0.19 0.23 0.40 0.54 0.52 0.32 0.21 0.15 0.15 0.23 0.37 0.47 0.12 0.13 0.15 0.13 0.09 0.00 0.00 0.01 0.01 0.00 0.00 0.02 0.07 0.14 0.13 0.23 0.13 0.11 0.15 0.19
0.08 0.14 0.21 0.47 0.47 0.36 0.31 0.28 0.25 0.23 0.26 0.24 0.32 0.54 0.65 0.70 0.42 0.26 0.25 0.20 0.16 0.22 0.29 0.14 0.08 0.08 0.09 0.04 0.00 0.00 0.02 0.04 0.00 0.00 0.00 0.01 0.04 0.13 0.13 0.10 0.12 0.17 0.20
0.11 0.18 0.24 0.49 0.40 0.28 0.28 0.33 0.29 0.30 0.32 0.25 0.31 0.58 0.67 0.58 0.73 0.52 0.43 0.25 0.15 0.22 0.45 0.42 0.15 0.13 0.11 0.07 0.01 0.01 0.04 0.03 0.00 0.00 0.00 0.00 0.01 0.05 0.03 0.04 0.06 0.08 0.09
0.35 0.37 0.33 0.46 0.49 0.26 0.21 0.23 0.22 0.25 0.31 0.27 0.33 0.68 0.85 0.55 0.53 0.54 0.49 0.26 0.18 0.20 0.45 0.43 0.25 0.11 0.11 0.17 0.15 0.12 0.07 0.02 0.00 0.00 0.00 0.00 0.00 0.00 0.01 0.02 0.04 0.05 0.05
1.04 0.94 0.64 0.47 0.41 0.19 0.14 0.12 0.11 0.12 0.19 0.21 0.29 0.55 0.65 0.43 0.41 0.38 0.43 0.30 0.25 0.24 0.36 0.34 0.35 0.18 0.12 0.21 0.30 0.14 0.04 0.01 0.00 0.00 0.00 0.00 0.00 0.01 0.05 0.09 0.09 0.09 0.08
1.50 1.52 1.17 1.04 0.56 0.21 0.21 0.14 0.05 0.07 0.15 0.12 0.22 0.39 0.21 0.17 0.10 0.15 0.16 0.25 0.38 0.34 0.33 0.33 0.30 0.29 0.25 0.24 0.25 0.25 0.05 0.01 0.01 0.00 0.00 0.00 0.01 0.15 0.28 0.19 0.15 0.13 0.12
1.98 1.57 1.37 1.13 0.79 0.32 0.26 0.24 0.07 0.03 0.05 0.07 0.17 0.32 0.18 0.07 0.03 0.02 0.01 0.04 0.14 0.25 0.31 0.31 0.30 0.18 0.15 0.10 0.05 0.06 0.09 0.02 0.04 0.03 0.01 0.01 0.10 0.24 0.18 0.10 0.09 0.11 0.11
1.84 1.79 2.02 1.54 1.38 0.58 0.41 0.46 0.23 0.08 0.02 0.01 0.10 0.20 0.12 0.09 0.04 0.03 0.02 0.02 0.07 0.16 0.18 0.24 0.28 0.11 0.01 0.00 0.00 0.03 0.05 0.08 0.08 0.04 0.02 0.05 0.13 0.18 0.16 0.14 0.14 0.11 0.10
1.73 1.46 1.49 1.55 2.00 1.13 0.79 0.61 0.42 0.17 0.11 0.02 0.03 0.21 0.18 0.08 0.05 0.02 0.02 0.03 0.11 0.08 0.11 0.08 0.08 0.02 0.00 0.01 0.02 0.03 0.09 0.11 0.07 0.06 0.06 0.10 0.12 0.15 0.11 0.12 0.13 0.14 0.11
0.70 1.55 1.76 1.44 1.67 1.70 1.54 1.08 0.54 0.28 0.14 0.09 0.04 0.08 0.26 0.18 0.18 0.16 0.07 0.08 0.12 0.08 0.12 0.11 0.08 0.02 0.01 0.02 0.03 0.04 0.06 0.07 0.05 0.04 0.04 0.04 0.04 0.07 0.07 0.08 0.10 0.13 0.14
0.41 0.74 0.94 1.20 1.62 1.82 1.39 1.45 1.17 0.49 0.19 0.07 0.07 0.11 0.22 0.35 0.34 0.26 0.27 0.27 0.22 0.16 0.12 0.13 0.16 0.18 0.14 0.09 0.08 0.07 0.05 0.05 0.05 0.04 0.03 0.03 0.03 0.05 0.06 0.08 0.08 0.13 0.20
0.47 0.54 0.52 0.56 0.92 1.45 1.21 0.68 1.36 1.59 0.76 0.15 0.03 0.05 0.12 0.26 0.39 0.49 0.42 0.41 0.31 0.25 0.23 0.23 0.33 0.35 0.30 0.21 0.13 0.08 0.06 0.08 0.13 0.09 0.08 0.11 0.08 0.06 0.07 0.08 0.10 0.18 0.33
0.35 0.40 0.25 0.33 0.41 0.60 1.18 0.70 0.50 1.02 1.48 0.79 0.17 0.15 0.12 0.17 0.27 0.33 0.53 0.54 0.43 0.44 0.61 0.67 0.80 0.70 0.58 0.39 0.21 0.13 0.13 0.11 0.10 0.17 0.19 0.16 0.13 0.11 0.08 0.09 0.15 0.13 0.15
0.26 0.18 0.22 0.23 0.27 0.22 0.32 0.59 0.48 0.54 0.71 0.89 0.47 0.16 0.12 0.12 0.16 0.25 0.21 0.24 0.38 0.50 0.57 0.55 0.62 0.77 0.79 0.72 0.47 0.31 0.28 0.26 0.23 0.21 0.20 0.15 0.12 0.11 0.12 0.10 0.17 0.19 0.14
0.31 0.37 0.32 0.34 0.36 0.33 0.32 0.45 0.56 0.54 0.37 0.54 0.64 0.30 0.14 0.14 0.15 0.20 0.24 0.29 0.35 0.39 0.43 0.48 0.61 0.65 0.74 0.66 0.56 0.63 0.81 0.81 0.58 0.43 0.31 0.20 0.17 0.16 0.13 0.16 0.19 0.27 0.32
0.31 0.45 0.43 0.42 0.44 0.64 0.76 0.89 0.91 0.73 0.42 0.67 0.65 0.53 0.39 0.17 0.16 0.25 0.25 0.28 0.36 0.35 0.34 0.39 0.47 0.53 0.51 0.51 0.55 0.50 0.48 0.60 0.81 0.85 0.76 0.68 0.49 0.35 0.28 0.27 0.30 0.31 0.33
0.71 0.62 0.66 0.62 0.48 0.79 0.90 0.80 0.63 0.53 0.47 0.46 0.64 0.75 0.79 0.58 0.40 0.29 0.26 0.22 0.20 0.17 0.18 0.23 0.33 0.35 0.28 0.41 0.55 0.27 0.21 0.19 0.16 0.13 0.24 0.37 0.40 0.35 0.33 0.37 0.43 0.47 0.52
0.81 0.97 0.77 0.72 0.84 0.77 0.95 0.98 0.97 0.92 0.87 0.78 0.96 0.87 0.89 0.81 0.78 0.67 0.49 0.43 0.32 0.32 0.29 0.24 0.25 0.28 0.28 0.47 0.64 0.50 0.24 0.12 0.09 0.09 0.14 0.17 0.21 0.40 0.40 0.40 0.46 0.47 0.48
1.05 1.06 1.18 1.07 1.08 0.98 1.25 1.65 1.73 1.72 1.48 1.29 0.94 0.93 1.08 1.09 1.28 1.33 1.23 1.19 1.11 0.87 0.65 0.62 0.53 0.52 0.54 0.51 0.61 0.77 0.45 0.22 0.18 0.18 0.16 0.21 0.27 0.36 0.45 0.63 0.75 0.59 0.52
0.95 0.86 0.94 1.30 1.41 1.55 1.47 1.73 1.96 2.17 2.17 1.91 2.21 2.04 1.80 1.71 1.82 2.19 2.32 2.17 2.01 1.64 1.55 1.66 1.67 1.48 1.46 1.13 1.06 0.99 0.93 0.67 0.56 0.41 0.30 0.34 0.48 1.09 1.37 1.21 1.08 1.26 1.29
0.65 0.74 0.73 1.01 1.33 2.04 1.95 2.30 2.83 2.42 2.36 2.23 2.15 2.44 2.20 2.19 2.07 2.00 2.29 2.74 2.77 2.89 2.57 2.23 2.23 2.22 2.12 2.09 1.85 1.64 1.44 1.34 1.38 1.27 0.85 0.63 0.56 0.97 0.83 0.77 0.75 0.72 1.05
0.42 0.55 0.63 0.70 1.05 1.58 2.64 2.91 3.03 3.39 2.91 2.70 2.83 2.69 2.95 2.45 2.17 1.97 2.42 2.67 2.93 2.64 2.42 2.55 2.46 2.20 2.03 1.76 1.68 1.64 1.48 1.31 1.15 1.16 0.91 0.55 0.42 0.35 0.30 0.35 0.50 0.58 0.55